﻿<?xml version="1.0" encoding="utf-8"?><gpx creator="Garmin Desktop App" version="1.1" xsi:schemaLocation="http://www.topografix.com/GPX/1/1 http://www.topografix.com/GPX/1/1/gpx.xsd http://www.garmin.com/xmlschemas/WaypointExtension/v1 http://www8.garmin.com/xmlschemas/WaypointExtensionv1.xsd http://www.garmin.com/xmlschemas/TrackPointExtension/v1 http://www.garmin.com/xmlschemas/TrackPointExtensionv1.xsd http://www.garmin.com/xmlschemas/GpxExtensions/v3 http://www8.garmin.com/xmlschemas/GpxExtensionsv3.xsd http://www.garmin.com/xmlschemas/ActivityExtension/v1 http://www8.garmin.com/xmlschemas/ActivityExtensionv1.xsd http://www.garmin.com/xmlschemas/AdventuresExtensions/v1 http://www8.garmin.com/xmlschemas/AdventuresExtensionv1.xsd http://www.garmin.com/xmlschemas/PressureExtension/v1 http://www.garmin.com/xmlschemas/PressureExtensionv1.xsd http://www.garmin.com/xmlschemas/TripExtensions/v1 http://www.garmin.com/xmlschemas/TripExtensionsv1.xsd http://www.garmin.com/xmlschemas/TripMetaDataExtensions/v1 http://www.garmin.com/xmlschemas/TripMetaDataExtensionsv1.xsd http://www.garmin.com/xmlschemas/ViaPointTransportationModeExtensions/v1 http://www.garmin.com/xmlschemas/ViaPointTransportationModeExtensionsv1.xsd http://www.garmin.com/xmlschemas/CreationTimeExtension/v1 http://www.garmin.com/xmlschemas/CreationTimeExtensionsv1.xsd http://www.garmin.com/xmlschemas/AccelerationExtension/v1 http://www.garmin.com/xmlschemas/AccelerationExtensionv1.xsd http://www.garmin.com/xmlschemas/PowerExtension/v1 http://www.garmin.com/xmlschemas/PowerExtensionv1.xsd http://www.garmin.com/xmlschemas/VideoExtension/v1 http://www.garmin.com/xmlschemas/VideoExtensionv1.xsd" xmlns="http://www.topografix.com/GPX/1/1" xmlns:xsi="http://www.w3.org/2001/XMLSchema-instance" xmlns:wptx1="http://www.garmin.com/xmlschemas/WaypointExtension/v1" xmlns:gpxtrx="http://www.garmin.com/xmlschemas/GpxExtensions/v3" xmlns:gpxtpx="http://www.garmin.com/xmlschemas/TrackPointExtension/v1" xmlns:gpxx="http://www.garmin.com/xmlschemas/GpxExtensions/v3" xmlns:trp="http://www.garmin.com/xmlschemas/TripExtensions/v1" xmlns:adv="http://www.garmin.com/xmlschemas/AdventuresExtensions/v1" xmlns:prs="http://www.garmin.com/xmlschemas/PressureExtension/v1" xmlns:tmd="http://www.garmin.com/xmlschemas/TripMetaDataExtensions/v1" xmlns:vptm="http://www.garmin.com/xmlschemas/ViaPointTransportationModeExtensions/v1" xmlns:ctx="http://www.garmin.com/xmlschemas/CreationTimeExtension/v1" xmlns:gpxacc="http://www.garmin.com/xmlschemas/AccelerationExtension/v1" xmlns:gpxpx="http://www.garmin.com/xmlschemas/PowerExtension/v1" xmlns:vidx1="http://www.garmin.com/xmlschemas/VideoExtension/v1">

  <metadata>
    <link href="http://www.garmin.com">
      <text>Garmin International</text>
    </link>
    <time>2026-04-27T14:40:18Z</time>
    <bounds maxlat="52.413236210122705" maxlon="8.039962761104107" minlat="52.27761953137815" minlon="7.702809507027268" />
  </metadata>

  <trk>
    <name>20260427Recke</name>
    <extensions>
      <gpxx:TrackExtension>
        <gpxx:DisplayColor>Red</gpxx:DisplayColor>
      </gpxx:TrackExtension>
    </extensions>
    <trkseg>
      <trkpt lat="52.27761953137815" lon="8.039806606248021">
        <ele>69.35546875</ele>
        <time>2026-04-27T08:04:47Z</time>
      </trkpt>
      <trkpt lat="52.277827486395836" lon="8.039898304268718">
        <ele>69.2421875</ele>
        <time>2026-04-27T08:04:59Z</time>
      </trkpt>
      <trkpt lat="52.278023790568113" lon="8.039874080568552">
        <ele>69.2734375</ele>
        <time>2026-04-27T08:05:07Z</time>
      </trkpt>
      <trkpt lat="52.278208192437887" lon="8.039937363937497">
        <ele>69.26953125</ele>
        <time>2026-04-27T08:05:15Z</time>
      </trkpt>
      <trkpt lat="52.278417907655239" lon="8.039838876575232">
        <ele>69.640625</ele>
        <time>2026-04-27T08:05:29Z</time>
      </trkpt>
      <trkpt lat="52.278545647859573" lon="8.039607955142856">
        <ele>70.0703125</ele>
        <time>2026-04-27T08:05:35Z</time>
      </trkpt>
      <trkpt lat="52.278630388900638" lon="8.039325317367911">
        <ele>70.51171875</ele>
        <time>2026-04-27T08:05:41Z</time>
      </trkpt>
      <trkpt lat="52.278723260387778" lon="8.039066232740879">
        <ele>70.93359375</ele>
        <time>2026-04-27T08:05:53Z</time>
      </trkpt>
      <trkpt lat="52.278876397758722" lon="8.038792815059423">
        <ele>71.4453125</ele>
        <time>2026-04-27T08:06:23Z</time>
      </trkpt>
      <trkpt lat="52.279019644483924" lon="8.038594415411353">
        <ele>71.62890625</ele>
        <time>2026-04-27T08:06:27Z</time>
      </trkpt>
      <trkpt lat="52.279152916744351" lon="8.038360476493835">
        <ele>71.20703125</ele>
        <time>2026-04-27T08:06:31Z</time>
      </trkpt>
      <trkpt lat="52.279308652505279" lon="8.038133410736918">
        <ele>70.70703125</ele>
        <time>2026-04-27T08:06:35Z</time>
      </trkpt>
      <trkpt lat="52.27946505881846" lon="8.037891928106546">
        <ele>70.4296875</ele>
        <time>2026-04-27T08:06:39Z</time>
      </trkpt>
      <trkpt lat="52.279644599184394" lon="8.037713477388024">
        <ele>70.19140625</ele>
        <time>2026-04-27T08:06:43Z</time>
      </trkpt>
      <trkpt lat="52.279809722676873" lon="8.037541983649135">
        <ele>70.2265625</ele>
        <time>2026-04-27T08:06:47Z</time>
      </trkpt>
      <trkpt lat="52.279970403760672" lon="8.037362862378359">
        <ele>70.484375</ele>
        <time>2026-04-27T08:06:51Z</time>
      </trkpt>
      <trkpt lat="52.280127061530948" lon="8.037170665338635">
        <ele>70.80078125</ele>
        <time>2026-04-27T08:06:55Z</time>
      </trkpt>
      <trkpt lat="52.280292520299554" lon="8.037023562937975">
        <ele>70.93359375</ele>
        <time>2026-04-27T08:06:59Z</time>
      </trkpt>
      <trkpt lat="52.28045160882175" lon="8.036857936531305">
        <ele>71.1484375</ele>
        <time>2026-04-27T08:07:03Z</time>
      </trkpt>
      <trkpt lat="52.280559400096536" lon="8.036566749215126">
        <ele>72.50390625</ele>
        <time>2026-04-27T08:07:09Z</time>
      </trkpt>
      <trkpt lat="52.280691498890519" lon="8.036383436992765">
        <ele>73.12890625</ele>
        <time>2026-04-27T08:07:17Z</time>
      </trkpt>
      <trkpt lat="52.280916050076485" lon="8.036231389269233">
        <ele>73.05078125</ele>
        <time>2026-04-27T08:07:23Z</time>
      </trkpt>
      <trkpt lat="52.281186366453767" lon="8.035938525572419">
        <ele>73.39453125</ele>
        <time>2026-04-27T08:07:30Z</time>
      </trkpt>
      <trkpt lat="52.281345706433058" lon="8.035799385979772">
        <ele>73.60546875</ele>
        <time>2026-04-27T08:07:34Z</time>
      </trkpt>
      <trkpt lat="52.281474871560931" lon="8.035582378506661">
        <ele>74.5703125</ele>
        <time>2026-04-27T08:07:38Z</time>
      </trkpt>
      <trkpt lat="52.281622560694814" lon="8.035403424873948">
        <ele>75.33984375</ele>
        <time>2026-04-27T08:07:42Z</time>
      </trkpt>
      <trkpt lat="52.281779050827026" lon="8.035214161500335">
        <ele>75.91015625</ele>
        <time>2026-04-27T08:07:46Z</time>
      </trkpt>
      <trkpt lat="52.281940821558237" lon="8.034997824579477">
        <ele>76.234375</ele>
        <time>2026-04-27T08:07:50Z</time>
      </trkpt>
      <trkpt lat="52.28210125118494" lon="8.034867821261287">
        <ele>76.07421875</ele>
        <time>2026-04-27T08:07:54Z</time>
      </trkpt>
      <trkpt lat="52.282325467094779" lon="8.034819373860955">
        <ele>75.30078125</ele>
        <time>2026-04-27T08:08:00Z</time>
      </trkpt>
      <trkpt lat="52.282508946955204" lon="8.034755503758788">
        <ele>74.7890625</ele>
        <time>2026-04-27T08:08:04Z</time>
      </trkpt>
      <trkpt lat="52.282687146216631" lon="8.034638743847609">
        <ele>74.73828125</ele>
        <time>2026-04-27T08:08:08Z</time>
      </trkpt>
      <trkpt lat="52.282857717946172" lon="8.034458113834262">
        <ele>75.3515625</ele>
        <time>2026-04-27T08:08:12Z</time>
      </trkpt>
      <trkpt lat="52.283039521425962" lon="8.034240268170834">
        <ele>76.40625</ele>
        <time>2026-04-27T08:08:16Z</time>
      </trkpt>
      <trkpt lat="52.283188551664352" lon="8.034037677571178">
        <ele>76.96484375</ele>
        <time>2026-04-27T08:08:20Z</time>
      </trkpt>
      <trkpt lat="52.283336240798235" lon="8.033833913505077">
        <ele>77.41015625</ele>
        <time>2026-04-27T08:08:24Z</time>
      </trkpt>
      <trkpt lat="52.28356858715415" lon="8.033667616546154">
        <ele>77.37109375</ele>
        <time>2026-04-27T08:08:30Z</time>
      </trkpt>
      <trkpt lat="52.283738739788532" lon="8.033573571592569">
        <ele>77.2109375</ele>
        <time>2026-04-27T08:08:34Z</time>
      </trkpt>
      <trkpt lat="52.284003859385848" lon="8.033438958227634">
        <ele>76.8046875</ele>
        <time>2026-04-27T08:08:40Z</time>
      </trkpt>
      <trkpt lat="52.284219358116388" lon="8.033297723159194">
        <ele>75.42578125</ele>
        <time>2026-04-27T08:08:44Z</time>
      </trkpt>
      <trkpt lat="52.284429911524057" lon="8.033166043460369">
        <ele>74.06640625</ele>
        <time>2026-04-27T08:08:48Z</time>
      </trkpt>
      <trkpt lat="52.284596627578139" lon="8.033042494207621">
        <ele>73.01171875</ele>
        <time>2026-04-27T08:08:52Z</time>
      </trkpt>
      <trkpt lat="52.284755045548081" lon="8.033128241077066">
        <ele>71.76953125</ele>
        <time>2026-04-27T08:08:58Z</time>
      </trkpt>
      <trkpt lat="52.284925114363432" lon="8.033458739519119">
        <ele>70.3515625</ele>
        <time>2026-04-27T08:09:04Z</time>
      </trkpt>
      <trkpt lat="52.285099541768432" lon="8.033464020118117">
        <ele>69.48828125</ele>
        <time>2026-04-27T08:09:10Z</time>
      </trkpt>
      <trkpt lat="52.285168776288629" lon="8.033018773421645">
        <ele>70.43359375</ele>
        <time>2026-04-27T08:09:16Z</time>
      </trkpt>
      <trkpt lat="52.285291235893965" lon="8.032741500064731">
        <ele>70.9765625</ele>
        <time>2026-04-27T08:09:20Z</time>
      </trkpt>
      <trkpt lat="52.285395339131355" lon="8.032458694651723">
        <ele>71.52734375</ele>
        <time>2026-04-27T08:09:24Z</time>
      </trkpt>
      <trkpt lat="52.285494413226843" lon="8.032134650275111">
        <ele>71.84375</ele>
        <time>2026-04-27T08:09:28Z</time>
      </trkpt>
      <trkpt lat="52.285585021600127" lon="8.031788896769285">
        <ele>72.1171875</ele>
        <time>2026-04-27T08:09:32Z</time>
      </trkpt>
      <trkpt lat="52.285657022148371" lon="8.031442556530237">
        <ele>71.921875</ele>
        <time>2026-04-27T08:09:36Z</time>
      </trkpt>
      <trkpt lat="52.28574151173234" lon="8.030981635674834">
        <ele>71.51953125</ele>
        <time>2026-04-27T08:09:41Z</time>
      </trkpt>
      <trkpt lat="52.285829437896609" lon="8.030596487224102">
        <ele>71.1953125</ele>
        <time>2026-04-27T08:09:45Z</time>
      </trkpt>
      <trkpt lat="52.285902528092265" lon="8.030204465612769">
        <ele>71.02734375</ele>
        <time>2026-04-27T08:09:49Z</time>
      </trkpt>
      <trkpt lat="52.285983497276902" lon="8.029836332425475">
        <ele>70.7734375</ele>
        <time>2026-04-27T08:09:53Z</time>
      </trkpt>
      <trkpt lat="52.286054911091924" lon="8.029467947781086">
        <ele>70.515625</ele>
        <time>2026-04-27T08:09:57Z</time>
      </trkpt>
      <trkpt lat="52.286149458959699" lon="8.029093109071255">
        <ele>69.60546875</ele>
        <time>2026-04-27T08:10:01Z</time>
      </trkpt>
      <trkpt lat="52.286231433972716" lon="8.028696142137051">
        <ele>68</ele>
        <time>2026-04-27T08:10:05Z</time>
      </trkpt>
      <trkpt lat="52.286318354308605" lon="8.028360866010189">
        <ele>66.73828125</ele>
        <time>2026-04-27T08:10:09Z</time>
      </trkpt>
      <trkpt lat="52.286410639062524" lon="8.028082335367799">
        <ele>66.27734375</ele>
        <time>2026-04-27T08:10:13Z</time>
      </trkpt>
      <trkpt lat="52.286499990150332" lon="8.027767427265644">
        <ele>65.94140625</ele>
        <time>2026-04-27T08:10:19Z</time>
      </trkpt>
      <trkpt lat="52.286424553021789" lon="8.027438269928098">
        <ele>66.58203125</ele>
        <time>2026-04-27T08:10:25Z</time>
      </trkpt>
      <trkpt lat="52.286396808922291" lon="8.027130989357829">
        <ele>67.37890625</ele>
        <time>2026-04-27T08:10:29Z</time>
      </trkpt>
      <trkpt lat="52.286400161683559" lon="8.026756485924125">
        <ele>68.22265625</ele>
        <time>2026-04-27T08:10:33Z</time>
      </trkpt>
      <trkpt lat="52.286411728709936" lon="8.026384161785245">
        <ele>69.0234375</ele>
        <time>2026-04-27T08:10:37Z</time>
      </trkpt>
      <trkpt lat="52.286417176946998" lon="8.02603404968977">
        <ele>69.796875</ele>
        <time>2026-04-27T08:10:41Z</time>
      </trkpt>
      <trkpt lat="52.286440562456846" lon="8.025697516277432">
        <ele>69.41015625</ele>
        <time>2026-04-27T08:10:45Z</time>
      </trkpt>
      <trkpt lat="52.2864705696702" lon="8.025359055027366">
        <ele>68.59765625</ele>
        <time>2026-04-27T08:10:49Z</time>
      </trkpt>
      <trkpt lat="52.286495631560683" lon="8.02500307559967">
        <ele>67.8125</ele>
        <time>2026-04-27T08:10:53Z</time>
      </trkpt>
      <trkpt lat="52.28652723133564" lon="8.024691017344594">
        <ele>67.43359375</ele>
        <time>2026-04-27T08:10:59Z</time>
      </trkpt>
      <trkpt lat="52.286588000133634" lon="8.024422628805041">
        <ele>67.21484375</ele>
        <time>2026-04-27T08:11:43Z</time>
      </trkpt>
      <trkpt lat="52.286624712869525" lon="8.02413278259337">
        <ele>67.2890625</ele>
        <time>2026-04-27T08:11:47Z</time>
      </trkpt>
      <trkpt lat="52.286663437262177" lon="8.023794740438461">
        <ele>67.54296875</ele>
        <time>2026-04-27T08:11:51Z</time>
      </trkpt>
      <trkpt lat="52.286686990410089" lon="8.023458793759346">
        <ele>67.73828125</ele>
        <time>2026-04-27T08:11:55Z</time>
      </trkpt>
      <trkpt lat="52.286723200231791" lon="8.023109100759029">
        <ele>67.41796875</ele>
        <time>2026-04-27T08:11:59Z</time>
      </trkpt>
      <trkpt lat="52.286770641803741" lon="8.022748092189431">
        <ele>67.10546875</ele>
        <time>2026-04-27T08:12:03Z</time>
      </trkpt>
      <trkpt lat="52.286817831918597" lon="8.022410050034523">
        <ele>67.09765625</ele>
        <time>2026-04-27T08:12:07Z</time>
      </trkpt>
      <trkpt lat="52.286861836910248" lon="8.022047867998481">
        <ele>67.3125</ele>
        <time>2026-04-27T08:12:11Z</time>
      </trkpt>
      <trkpt lat="52.286907937377691" lon="8.021692391484976">
        <ele>67.7265625</ele>
        <time>2026-04-27T08:12:15Z</time>
      </trkpt>
      <trkpt lat="52.286941800266504" lon="8.021318558603525">
        <ele>68.6640625</ele>
        <time>2026-04-27T08:12:19Z</time>
      </trkpt>
      <trkpt lat="52.286968119442463" lon="8.020950509235263">
        <ele>69.58203125</ele>
        <time>2026-04-27T08:12:23Z</time>
      </trkpt>
      <trkpt lat="52.287005921825767" lon="8.020599307492375">
        <ele>70.08984375</ele>
        <time>2026-04-27T08:12:27Z</time>
      </trkpt>
      <trkpt lat="52.287047412246466" lon="8.020245172083378">
        <ele>70.4765625</ele>
        <time>2026-04-27T08:12:31Z</time>
      </trkpt>
      <trkpt lat="52.287081610411406" lon="8.019900340586901">
        <ele>70.94140625</ele>
        <time>2026-04-27T08:12:35Z</time>
      </trkpt>
      <trkpt lat="52.287118742242455" lon="8.019551569595933">
        <ele>71.4375</ele>
        <time>2026-04-27T08:12:39Z</time>
      </trkpt>
      <trkpt lat="52.287154030054808" lon="8.019227860495448">
        <ele>71.9609375</ele>
        <time>2026-04-27T08:12:43Z</time>
      </trkpt>
      <trkpt lat="52.287185462191701" lon="8.01890641450882">
        <ele>73.1875</ele>
        <time>2026-04-27T08:12:47Z</time>
      </trkpt>
      <trkpt lat="52.28724162094295" lon="8.018566193059087">
        <ele>74.546875</ele>
        <time>2026-04-27T08:12:51Z</time>
      </trkpt>
      <trkpt lat="52.287284452468157" lon="8.01820132881403">
        <ele>75.30078125</ele>
        <time>2026-04-27T08:12:55Z</time>
      </trkpt>
      <trkpt lat="52.287318399176002" lon="8.017856832593679">
        <ele>75.63671875</ele>
        <time>2026-04-27T08:12:59Z</time>
      </trkpt>
      <trkpt lat="52.287342790514231" lon="8.017520299181342">
        <ele>75.53515625</ele>
        <time>2026-04-27T08:13:03Z</time>
      </trkpt>
      <trkpt lat="52.287373468279839" lon="8.017167337238789">
        <ele>74.5390625</ele>
        <time>2026-04-27T08:13:07Z</time>
      </trkpt>
      <trkpt lat="52.287415042519569" lon="8.016809429973364">
        <ele>73.546875</ele>
        <time>2026-04-27T08:13:11Z</time>
      </trkpt>
      <trkpt lat="52.287466507405043" lon="8.016455546021462">
        <ele>72.60546875</ele>
        <time>2026-04-27T08:13:15Z</time>
      </trkpt>
      <trkpt lat="52.287503723055124" lon="8.016139296814799">
        <ele>71.87890625</ele>
        <time>2026-04-27T08:13:19Z</time>
      </trkpt>
      <trkpt lat="52.287540687248111" lon="8.015817767009139">
        <ele>71.08203125</ele>
        <time>2026-04-27T08:13:23Z</time>
      </trkpt>
      <trkpt lat="52.287588967010379" lon="8.015457093715668">
        <ele>69.9453125</ele>
        <time>2026-04-27T08:13:27Z</time>
      </trkpt>
      <trkpt lat="52.287608161568642" lon="8.015095079317689">
        <ele>68.9375</ele>
        <time>2026-04-27T08:13:31Z</time>
      </trkpt>
      <trkpt lat="52.287641940638423" lon="8.014764245599508">
        <ele>69.05078125</ele>
        <time>2026-04-27T08:13:35Z</time>
      </trkpt>
      <trkpt lat="52.287705056369305" lon="8.014395525678992">
        <ele>69.0234375</ele>
        <time>2026-04-27T08:13:39Z</time>
      </trkpt>
      <trkpt lat="52.287734895944595" lon="8.01405387930572">
        <ele>68.953125</ele>
        <time>2026-04-27T08:13:43Z</time>
      </trkpt>
      <trkpt lat="52.287772027775645" lon="8.013712903484702">
        <ele>68.7734375</ele>
        <time>2026-04-27T08:13:47Z</time>
      </trkpt>
      <trkpt lat="52.287820558995008" lon="8.013385171070695">
        <ele>68.578125</ele>
        <time>2026-04-27T08:13:51Z</time>
      </trkpt>
      <trkpt lat="52.287874286994338" lon="8.013073867186904">
        <ele>68.60546875</ele>
        <time>2026-04-27T08:13:55Z</time>
      </trkpt>
      <trkpt lat="52.287937654182315" lon="8.012735741212964">
        <ele>68.85546875</ele>
        <time>2026-04-27T08:13:59Z</time>
      </trkpt>
      <trkpt lat="52.287998842075467" lon="8.012360734865069">
        <ele>69.4609375</ele>
        <time>2026-04-27T08:14:03Z</time>
      </trkpt>
      <trkpt lat="52.288062879815698" lon="8.012037528678775">
        <ele>70.1953125</ele>
        <time>2026-04-27T08:14:07Z</time>
      </trkpt>
      <trkpt lat="52.288200426846743" lon="8.011642154306173">
        <ele>70.91796875</ele>
        <time>2026-04-27T08:14:13Z</time>
      </trkpt>
      <trkpt lat="52.288232948631048" lon="8.011322552338243">
        <ele>70.828125</ele>
        <time>2026-04-27T08:14:17Z</time>
      </trkpt>
      <trkpt lat="52.288307379931211" lon="8.010923992842436">
        <ele>70.6015625</ele>
        <time>2026-04-27T08:14:21Z</time>
      </trkpt>
      <trkpt lat="52.288410980254412" lon="8.010532893240452">
        <ele>70.3515625</ele>
        <time>2026-04-27T08:14:25Z</time>
      </trkpt>
      <trkpt lat="52.288518100976944" lon="8.010179679840803">
        <ele>70.09375</ele>
        <time>2026-04-27T08:14:29Z</time>
      </trkpt>
      <trkpt lat="52.288626478984952" lon="8.009825041517615">
        <ele>69.8359375</ele>
        <time>2026-04-27T08:14:33Z</time>
      </trkpt>
      <trkpt lat="52.288701916113496" lon="8.009480461478233">
        <ele>69.65234375</ele>
        <time>2026-04-27T08:14:39Z</time>
      </trkpt>
      <trkpt lat="52.288790429010987" lon="8.009203020483255">
        <ele>69.41796875</ele>
        <time>2026-04-27T08:14:45Z</time>
      </trkpt>
      <trkpt lat="52.28887902572751" lon="8.008939409628511">
        <ele>69.1796875</ele>
        <time>2026-04-27T08:14:49Z</time>
      </trkpt>
      <trkpt lat="52.288997042924166" lon="8.008640594780445">
        <ele>69.05078125</ele>
        <time>2026-04-27T08:14:53Z</time>
      </trkpt>
      <trkpt lat="52.28913065046072" lon="8.008308252319694">
        <ele>69.265625</ele>
        <time>2026-04-27T08:14:57Z</time>
      </trkpt>
      <trkpt lat="52.289251517504454" lon="8.008021339774132">
        <ele>69.4921875</ele>
        <time>2026-04-27T08:15:01Z</time>
      </trkpt>
      <trkpt lat="52.28937054052949" lon="8.007709197700024">
        <ele>69.91015625</ele>
        <time>2026-04-27T08:15:05Z</time>
      </trkpt>
      <trkpt lat="52.289485037326813" lon="8.007390014827251">
        <ele>70.17578125</ele>
        <time>2026-04-27T08:15:09Z</time>
      </trkpt>
      <trkpt lat="52.289580255746841" lon="8.00708407536149">
        <ele>70.265625</ele>
        <time>2026-04-27T08:15:13Z</time>
      </trkpt>
      <trkpt lat="52.289673462510109" lon="8.00676011480391">
        <ele>70.34765625</ele>
        <time>2026-04-27T08:15:17Z</time>
      </trkpt>
      <trkpt lat="52.289765831083059" lon="8.006462473422289">
        <ele>70.48828125</ele>
        <time>2026-04-27T08:15:21Z</time>
      </trkpt>
      <trkpt lat="52.28984990157187" lon="8.006172040477395">
        <ele>70.40234375</ele>
        <time>2026-04-27T08:15:25Z</time>
      </trkpt>
      <trkpt lat="52.289930619299412" lon="8.005846319720149">
        <ele>70.61328125</ele>
        <time>2026-04-27T08:15:29Z</time>
      </trkpt>
      <trkpt lat="52.290001781657338" lon="8.005521353334189">
        <ele>71.54296875</ele>
        <time>2026-04-27T08:15:33Z</time>
      </trkpt>
      <trkpt lat="52.290074788033962" lon="8.00517937168479">
        <ele>72.23828125</ele>
        <time>2026-04-27T08:15:37Z</time>
      </trkpt>
      <trkpt lat="52.290145782753825" lon="8.004830265417695">
        <ele>72.39453125</ele>
        <time>2026-04-27T08:15:41Z</time>
      </trkpt>
      <trkpt lat="52.290212837979198" lon="8.004470765590668">
        <ele>72.42578125</ele>
        <time>2026-04-27T08:15:45Z</time>
      </trkpt>
      <trkpt lat="52.290276288986206" lon="8.004125682637096">
        <ele>71.9140625</ele>
        <time>2026-04-27T08:15:49Z</time>
      </trkpt>
      <trkpt lat="52.290331861004233" lon="8.003774397075176">
        <ele>70.87109375</ele>
        <time>2026-04-27T08:15:53Z</time>
      </trkpt>
      <trkpt lat="52.29039128869772" lon="8.003409197553992">
        <ele>70.05078125</ele>
        <time>2026-04-27T08:15:57Z</time>
      </trkpt>
      <trkpt lat="52.2904665581882" lon="8.00308121368289">
        <ele>70.8828125</ele>
        <time>2026-04-27T08:16:01Z</time>
      </trkpt>
      <trkpt lat="52.29053202085197" lon="8.002758845686913">
        <ele>71.79296875</ele>
        <time>2026-04-27T08:16:05Z</time>
      </trkpt>
      <trkpt lat="52.290589269250631" lon="8.002398675307632">
        <ele>73.74609375</ele>
        <time>2026-04-27T08:16:09Z</time>
      </trkpt>
      <trkpt lat="52.29065322317183" lon="8.002046132460237">
        <ele>76.1328125</ele>
        <time>2026-04-27T08:16:13Z</time>
      </trkpt>
      <trkpt lat="52.290729247033596" lon="8.001694092527032">
        <ele>78.01953125</ele>
        <time>2026-04-27T08:16:17Z</time>
      </trkpt>
      <trkpt lat="52.29078708216548" lon="8.001362672075629">
        <ele>78.67578125</ele>
        <time>2026-04-27T08:16:21Z</time>
      </trkpt>
      <trkpt lat="52.290853885933757" lon="8.001006944105029">
        <ele>79.37109375</ele>
        <time>2026-04-27T08:16:25Z</time>
      </trkpt>
      <trkpt lat="52.290916834026575" lon="8.00064149312675">
        <ele>77.9375</ele>
        <time>2026-04-27T08:16:29Z</time>
      </trkpt>
      <trkpt lat="52.29099478572607" lon="8.000268414616585">
        <ele>76.41796875</ele>
        <time>2026-04-27T08:16:33Z</time>
      </trkpt>
      <trkpt lat="52.291066953912377" lon="7.999843619763851">
        <ele>75.17578125</ele>
        <time>2026-04-27T08:16:37Z</time>
      </trkpt>
      <trkpt lat="52.291146498173475" lon="7.999405832961202">
        <ele>73.9609375</ele>
        <time>2026-04-27T08:16:41Z</time>
      </trkpt>
      <trkpt lat="52.291205758228898" lon="7.998988665640354">
        <ele>71.94140625</ele>
        <time>2026-04-27T08:16:45Z</time>
      </trkpt>
      <trkpt lat="52.291273651644588" lon="7.998555488884449">
        <ele>69.04296875</ele>
        <time>2026-04-27T08:16:49Z</time>
      </trkpt>
      <trkpt lat="52.291328720748425" lon="7.998147457838059">
        <ele>67.48046875</ele>
        <time>2026-04-27T08:16:53Z</time>
      </trkpt>
      <trkpt lat="52.291386220604181" lon="7.997743953019381">
        <ele>66.16796875</ele>
        <time>2026-04-27T08:16:57Z</time>
      </trkpt>
      <trkpt lat="52.291447157040238" lon="7.997360145673156">
        <ele>66.49609375</ele>
        <time>2026-04-27T08:17:01Z</time>
      </trkpt>
      <trkpt lat="52.291499627754092" lon="7.996987653896213">
        <ele>67.96484375</ele>
        <time>2026-04-27T08:17:05Z</time>
      </trkpt>
      <trkpt lat="52.291545895859599" lon="7.996616587042809">
        <ele>68.87890625</ele>
        <time>2026-04-27T08:17:09Z</time>
      </trkpt>
      <trkpt lat="52.291594091802835" lon="7.996263038367033">
        <ele>69.1484375</ele>
        <time>2026-04-27T08:17:13Z</time>
      </trkpt>
      <trkpt lat="52.291648406535387" lon="7.995889624580741">
        <ele>69.40234375</ele>
        <time>2026-04-27T08:17:17Z</time>
      </trkpt>
      <trkpt lat="52.291682604700327" lon="7.995530543848872">
        <ele>69.50390625</ele>
        <time>2026-04-27T08:17:21Z</time>
      </trkpt>
      <trkpt lat="52.291734488680959" lon="7.995175402611494">
        <ele>69.6484375</ele>
        <time>2026-04-27T08:17:25Z</time>
      </trkpt>
      <trkpt lat="52.291813781484962" lon="7.994794696569443">
        <ele>68.71484375</ele>
        <time>2026-04-27T08:17:29Z</time>
      </trkpt>
      <trkpt lat="52.291867760941386" lon="7.994416086003184">
        <ele>67.76953125</ele>
        <time>2026-04-27T08:17:33Z</time>
      </trkpt>
      <trkpt lat="52.291925009340048" lon="7.994069745764136">
        <ele>67.37109375</ele>
        <time>2026-04-27T08:17:37Z</time>
      </trkpt>
      <trkpt lat="52.291968259960413" lon="7.99372348934412">
        <ele>67.0546875</ele>
        <time>2026-04-27T08:17:41Z</time>
      </trkpt>
      <trkpt lat="52.29201260022819" lon="7.993378909304738">
        <ele>66.875</ele>
        <time>2026-04-27T08:17:45Z</time>
      </trkpt>
      <trkpt lat="52.292069932445884" lon="7.993030473589897">
        <ele>67.37890625</ele>
        <time>2026-04-27T08:17:49Z</time>
      </trkpt>
      <trkpt lat="52.292112093418837" lon="7.9926573112607">
        <ele>67.87890625</ele>
        <time>2026-04-27T08:17:53Z</time>
      </trkpt>
      <trkpt lat="52.292162552475929" lon="7.992300242185593">
        <ele>69.14453125</ele>
        <time>2026-04-27T08:17:57Z</time>
      </trkpt>
      <trkpt lat="52.292211502790451" lon="7.991964463144541">
        <ele>70.2109375</ele>
        <time>2026-04-27T08:18:01Z</time>
      </trkpt>
      <trkpt lat="52.292253160849214" lon="7.991629270836711">
        <ele>70.6796875</ele>
        <time>2026-04-27T08:18:05Z</time>
      </trkpt>
      <trkpt lat="52.292307391762733" lon="7.991291815415025">
        <ele>70.59765625</ele>
        <time>2026-04-27T08:18:09Z</time>
      </trkpt>
      <trkpt lat="52.292391294613481" lon="7.991014793515205">
        <ele>70.52734375</ele>
        <time>2026-04-27T08:18:13Z</time>
      </trkpt>
      <trkpt lat="52.292479639872909" lon="7.990720504894853">
        <ele>68.8203125</ele>
        <time>2026-04-27T08:18:17Z</time>
      </trkpt>
      <trkpt lat="52.292494978755713" lon="7.990344995632768">
        <ele>66.70703125</ele>
        <time>2026-04-27T08:18:21Z</time>
      </trkpt>
      <trkpt lat="52.292519370093942" lon="7.98999865539372">
        <ele>64.96484375</ele>
        <time>2026-04-27T08:18:25Z</time>
      </trkpt>
      <trkpt lat="52.292566560208797" lon="7.989689446985722">
        <ele>63.61328125</ele>
        <time>2026-04-27T08:18:29Z</time>
      </trkpt>
      <trkpt lat="52.292568739503622" lon="7.989374119788408">
        <ele>62.3515625</ele>
        <time>2026-04-27T08:18:33Z</time>
      </trkpt>
      <trkpt lat="52.292614672333002" lon="7.989024510607123">
        <ele>62.66796875</ele>
        <time>2026-04-27T08:18:37Z</time>
      </trkpt>
      <trkpt lat="52.292656917124987" lon="7.988625029101968">
        <ele>63.6953125</ele>
        <time>2026-04-27T08:18:41Z</time>
      </trkpt>
      <trkpt lat="52.292700670659542" lon="7.988216076046228">
        <ele>64.90625</ele>
        <time>2026-04-27T08:18:45Z</time>
      </trkpt>
      <trkpt lat="52.292734449729323" lon="7.987870071083307">
        <ele>66.1796875</ele>
        <time>2026-04-27T08:18:49Z</time>
      </trkpt>
      <trkpt lat="52.292765127494931" lon="7.987539572641254">
        <ele>66.7578125</ele>
        <time>2026-04-27T08:18:53Z</time>
      </trkpt>
      <trkpt lat="52.29278851300478" lon="7.987199854105711">
        <ele>65.23828125</ele>
        <time>2026-04-27T08:18:57Z</time>
      </trkpt>
      <trkpt lat="52.292854310944676" lon="7.986845383420587">
        <ele>63.8515625</ele>
        <time>2026-04-27T08:19:01Z</time>
      </trkpt>
      <trkpt lat="52.292914995923638" lon="7.986430730670691">
        <ele>63.27734375</ele>
        <time>2026-04-27T08:19:05Z</time>
      </trkpt>
      <trkpt lat="52.29296050965786" lon="7.986033344641328">
        <ele>62.69921875</ele>
        <time>2026-04-27T08:19:09Z</time>
      </trkpt>
      <trkpt lat="52.292979871854186" lon="7.985638305544853">
        <ele>62.6953125</ele>
        <time>2026-04-27T08:19:13Z</time>
      </trkpt>
      <trkpt lat="52.29298691265285" lon="7.985261538997293">
        <ele>62.7890625</ele>
        <time>2026-04-27T08:19:17Z</time>
      </trkpt>
      <trkpt lat="52.292971070855856" lon="7.984897596761584">
        <ele>63.0859375</ele>
        <time>2026-04-27T08:19:21Z</time>
      </trkpt>
      <trkpt lat="52.292962269857526" lon="7.984521249309182">
        <ele>63.5234375</ele>
        <time>2026-04-27T08:19:25Z</time>
      </trkpt>
      <trkpt lat="52.292939135804772" lon="7.984160240739584">
        <ele>64.1015625</ele>
        <time>2026-04-27T08:19:29Z</time>
      </trkpt>
      <trkpt lat="52.29292438365519" lon="7.983805602416396">
        <ele>64.93359375</ele>
        <time>2026-04-27T08:19:33Z</time>
      </trkpt>
      <trkpt lat="52.29292580857873" lon="7.983458004891872">
        <ele>65.76171875</ele>
        <time>2026-04-27T08:19:37Z</time>
      </trkpt>
      <trkpt lat="52.292925724759698" lon="7.983118118718267">
        <ele>66.2734375</ele>
        <time>2026-04-27T08:19:41Z</time>
      </trkpt>
      <trkpt lat="52.29291164316237" lon="7.982821315526962">
        <ele>66.71875</ele>
        <time>2026-04-27T08:19:45Z</time>
      </trkpt>
      <trkpt lat="52.292920108884573" lon="7.982493247836828">
        <ele>67.38671875</ele>
        <time>2026-04-27T08:19:49Z</time>
      </trkpt>
      <trkpt lat="52.292929161339998" lon="7.982189655303955">
        <ele>68.20703125</ele>
        <time>2026-04-27T08:19:53Z</time>
      </trkpt>
      <trkpt lat="52.293029576539993" lon="7.981945406645536">
        <ele>68.765625</ele>
        <time>2026-04-27T08:19:57Z</time>
      </trkpt>
      <trkpt lat="52.293156897649169" lon="7.981612142175436">
        <ele>69.6953125</ele>
        <time>2026-04-27T08:20:03Z</time>
      </trkpt>
      <trkpt lat="52.293322021141648" lon="7.981376107782126">
        <ele>70.65234375</ele>
        <time>2026-04-27T08:20:09Z</time>
      </trkpt>
      <trkpt lat="52.293516648933291" lon="7.981528909876943">
        <ele>70.13671875</ele>
        <time>2026-04-27T08:20:17Z</time>
      </trkpt>
      <trkpt lat="52.29366609826684" lon="7.981733344495297">
        <ele>69.3046875</ele>
        <time>2026-04-27T08:20:21Z</time>
      </trkpt>
      <trkpt lat="52.293813871219754" lon="7.982011120766401">
        <ele>68.09765625</ele>
        <time>2026-04-27T08:20:25Z</time>
      </trkpt>
      <trkpt lat="52.293988130986691" lon="7.982312450185418">
        <ele>66.55859375</ele>
        <time>2026-04-27T08:20:29Z</time>
      </trkpt>
      <trkpt lat="52.294177478179336" lon="7.982632806524634">
        <ele>64.7734375</ele>
        <time>2026-04-27T08:20:33Z</time>
      </trkpt>
      <trkpt lat="52.294369172304869" lon="7.982960790395737">
        <ele>63.9453125</ele>
        <time>2026-04-27T08:20:37Z</time>
      </trkpt>
      <trkpt lat="52.294568158686161" lon="7.983301933854818">
        <ele>62.91015625</ele>
        <time>2026-04-27T08:20:41Z</time>
      </trkpt>
      <trkpt lat="52.294771084561944" lon="7.983622374013066">
        <ele>62.0703125</ele>
        <time>2026-04-27T08:20:45Z</time>
      </trkpt>
      <trkpt lat="52.294970070943236" lon="7.983957566320896">
        <ele>62.71484375</ele>
        <time>2026-04-27T08:20:49Z</time>
      </trkpt>
      <trkpt lat="52.295165369287133" lon="7.98426023684442">
        <ele>63.71484375</ele>
        <time>2026-04-27T08:20:53Z</time>
      </trkpt>
      <trkpt lat="52.295363266021013" lon="7.984567601233721">
        <ele>64.578125</ele>
        <time>2026-04-27T08:20:57Z</time>
      </trkpt>
      <trkpt lat="52.295578261837363" lon="7.984846131876111">
        <ele>65.15625</ele>
        <time>2026-04-27T08:21:01Z</time>
      </trkpt>
      <trkpt lat="52.295795269310474" lon="7.985065570101142">
        <ele>64.703125</ele>
        <time>2026-04-27T08:21:05Z</time>
      </trkpt>
      <trkpt lat="52.295995010063052" lon="7.985202865675092">
        <ele>64.1640625</ele>
        <time>2026-04-27T08:21:09Z</time>
      </trkpt>
      <trkpt lat="52.296175891533494" lon="7.985313255339861">
        <ele>63.90625</ele>
        <time>2026-04-27T08:21:14Z</time>
      </trkpt>
      <trkpt lat="52.296341015025973" lon="7.985467649996281">
        <ele>63.921875</ele>
        <time>2026-04-27T08:21:18Z</time>
      </trkpt>
      <trkpt lat="52.296441178768873" lon="7.985199680551887">
        <ele>63.21484375</ele>
        <time>2026-04-27T08:21:22Z</time>
      </trkpt>
      <trkpt lat="52.296435059979558" lon="7.984827943146229">
        <ele>63.44921875</ele>
        <time>2026-04-27T08:21:26Z</time>
      </trkpt>
      <trkpt lat="52.296517957001925" lon="7.984487218782306">
        <ele>63.62890625</ele>
        <time>2026-04-27T08:21:30Z</time>
      </trkpt>
      <trkpt lat="52.296568164601922" lon="7.984159234911203">
        <ele>63.796875</ele>
        <time>2026-04-27T08:21:34Z</time>
      </trkpt>
      <trkpt lat="52.296656090766191" lon="7.983752377331257">
        <ele>63.83984375</ele>
        <time>2026-04-27T08:21:40Z</time>
      </trkpt>
      <trkpt lat="52.296735551208258" lon="7.983458423987031">
        <ele>63.73046875</ele>
        <time>2026-04-27T08:21:44Z</time>
      </trkpt>
      <trkpt lat="52.296820795163512" lon="7.983168158680201">
        <ele>63.6171875</ele>
        <time>2026-04-27T08:21:48Z</time>
      </trkpt>
      <trkpt lat="52.296904698014259" lon="7.982859956100583">
        <ele>63.67578125</ele>
        <time>2026-04-27T08:21:52Z</time>
      </trkpt>
      <trkpt lat="52.29700393974781" lon="7.982541276142001">
        <ele>63.83203125</ele>
        <time>2026-04-27T08:21:56Z</time>
      </trkpt>
      <trkpt lat="52.297110976651311" lon="7.982215555384755">
        <ele>63.96484375</ele>
        <time>2026-04-27T08:22:00Z</time>
      </trkpt>
      <trkpt lat="52.297202339395881" lon="7.981896372511983">
        <ele>64.12890625</ele>
        <time>2026-04-27T08:22:04Z</time>
      </trkpt>
      <trkpt lat="52.297282218933105" lon="7.981579704210162">
        <ele>64.046875</ele>
        <time>2026-04-27T08:22:08Z</time>
      </trkpt>
      <trkpt lat="52.297384981065989" lon="7.981264544650912">
        <ele>63.8671875</ele>
        <time>2026-04-27T08:22:12Z</time>
      </trkpt>
      <trkpt lat="52.297478942200541" lon="7.980936644598842">
        <ele>63.796875</ele>
        <time>2026-04-27T08:22:16Z</time>
      </trkpt>
      <trkpt lat="52.29756779037416" lon="7.980603547766805">
        <ele>63.8203125</ele>
        <time>2026-04-27T08:22:20Z</time>
      </trkpt>
      <trkpt lat="52.29765772819519" lon="7.980292746797204">
        <ele>63.921875</ele>
        <time>2026-04-27T08:22:24Z</time>
      </trkpt>
      <trkpt lat="52.297757137566805" lon="7.979983957484365">
        <ele>64.08203125</ele>
        <time>2026-04-27T08:22:28Z</time>
      </trkpt>
      <trkpt lat="52.297871299088001" lon="7.979641556739807">
        <ele>64.1875</ele>
        <time>2026-04-27T08:22:32Z</time>
      </trkpt>
      <trkpt lat="52.297960733994842" lon="7.979307202622294">
        <ele>64.20703125</ele>
        <time>2026-04-27T08:22:36Z</time>
      </trkpt>
      <trkpt lat="52.298061903566122" lon="7.978962538763881">
        <ele>64.5</ele>
        <time>2026-04-27T08:22:40Z</time>
      </trkpt>
      <trkpt lat="52.298163827508688" lon="7.978624580428004">
        <ele>64.71875</ele>
        <time>2026-04-27T08:22:44Z</time>
      </trkpt>
      <trkpt lat="52.298261979594827" lon="7.978297686204314">
        <ele>64.78515625</ele>
        <time>2026-04-27T08:22:48Z</time>
      </trkpt>
      <trkpt lat="52.298356359824538" lon="7.97796567901969">
        <ele>64.97265625</ele>
        <time>2026-04-27T08:22:52Z</time>
      </trkpt>
      <trkpt lat="52.298459289595485" lon="7.977650435641408">
        <ele>65.203125</ele>
        <time>2026-04-27T08:22:56Z</time>
      </trkpt>
      <trkpt lat="52.298560291528702" lon="7.977336952462792">
        <ele>64.97265625</ele>
        <time>2026-04-27T08:23:00Z</time>
      </trkpt>
      <trkpt lat="52.298656431958079" lon="7.977022798731923">
        <ele>64.5625</ele>
        <time>2026-04-27T08:23:04Z</time>
      </trkpt>
      <trkpt lat="52.298750812187791" lon="7.976689198985696">
        <ele>64.2890625</ele>
        <time>2026-04-27T08:23:08Z</time>
      </trkpt>
      <trkpt lat="52.298844270408154" lon="7.976355263963342">
        <ele>64.59765625</ele>
        <time>2026-04-27T08:23:12Z</time>
      </trkpt>
      <trkpt lat="52.29892767034471" lon="7.976038344204426">
        <ele>64.9921875</ele>
        <time>2026-04-27T08:23:16Z</time>
      </trkpt>
      <trkpt lat="52.299048034474254" lon="7.975695943459868">
        <ele>65.046875</ele>
        <time>2026-04-27T08:23:20Z</time>
      </trkpt>
      <trkpt lat="52.299140319228172" lon="7.975373240187764">
        <ele>65.1015625</ele>
        <time>2026-04-27T08:23:24Z</time>
      </trkpt>
      <trkpt lat="52.299227491021156" lon="7.975059673190117">
        <ele>65.19140625</ele>
        <time>2026-04-27T08:23:28Z</time>
      </trkpt>
      <trkpt lat="52.299316087737679" lon="7.974747866392136">
        <ele>65.4140625</ele>
        <time>2026-04-27T08:23:32Z</time>
      </trkpt>
      <trkpt lat="52.299400242045522" lon="7.974442932754755">
        <ele>65.71484375</ele>
        <time>2026-04-27T08:23:36Z</time>
      </trkpt>
      <trkpt lat="52.299480037763715" lon="7.974126432090998">
        <ele>66.375</ele>
        <time>2026-04-27T08:23:40Z</time>
      </trkpt>
      <trkpt lat="52.299579614773393" lon="7.973797274753451">
        <ele>67.08203125</ele>
        <time>2026-04-27T08:23:44Z</time>
      </trkpt>
      <trkpt lat="52.299693021923304" lon="7.973459316417575">
        <ele>67.56640625</ele>
        <time>2026-04-27T08:23:48Z</time>
      </trkpt>
      <trkpt lat="52.299792598932981" lon="7.973136948421598">
        <ele>67.87109375</ele>
        <time>2026-04-27T08:23:52Z</time>
      </trkpt>
      <trkpt lat="52.299896953627467" lon="7.972818184643984">
        <ele>68.05078125</ele>
        <time>2026-04-27T08:23:56Z</time>
      </trkpt>
      <trkpt lat="52.299996530637145" lon="7.972487853839994">
        <ele>67.8671875</ele>
        <time>2026-04-27T08:24:00Z</time>
      </trkpt>
      <trkpt lat="52.300083199515939" lon="7.972172107547522">
        <ele>67.49609375</ele>
        <time>2026-04-27T08:24:04Z</time>
      </trkpt>
      <trkpt lat="52.300178501754999" lon="7.971846805885434">
        <ele>67.1640625</ele>
        <time>2026-04-27T08:24:08Z</time>
      </trkpt>
      <trkpt lat="52.300266679376364" lon="7.971521420404315">
        <ele>67.109375</ele>
        <time>2026-04-27T08:24:12Z</time>
      </trkpt>
      <trkpt lat="52.300368519499898" lon="7.97121087089181">
        <ele>66.9921875</ele>
        <time>2026-04-27T08:24:16Z</time>
      </trkpt>
      <trkpt lat="52.300457200035453" lon="7.97089135274291">
        <ele>67.09765625</ele>
        <time>2026-04-27T08:24:20Z</time>
      </trkpt>
      <trkpt lat="52.300545126199722" lon="7.970588430762291">
        <ele>67.45703125</ele>
        <time>2026-04-27T08:24:24Z</time>
      </trkpt>
      <trkpt lat="52.300651911646128" lon="7.970288023352623">
        <ele>67.58984375</ele>
        <time>2026-04-27T08:24:28Z</time>
      </trkpt>
      <trkpt lat="52.300742771476507" lon="7.969975378364325">
        <ele>68.5390625</ele>
        <time>2026-04-27T08:24:32Z</time>
      </trkpt>
      <trkpt lat="52.300835140049458" lon="7.969656614586711">
        <ele>69.7734375</ele>
        <time>2026-04-27T08:24:36Z</time>
      </trkpt>
      <trkpt lat="52.300925832241774" lon="7.96935310587287">
        <ele>70.6953125</ele>
        <time>2026-04-27T08:24:40Z</time>
      </trkpt>
      <trkpt lat="52.301010405644774" lon="7.969047334045172">
        <ele>71.61328125</ele>
        <time>2026-04-27T08:24:44Z</time>
      </trkpt>
      <trkpt lat="52.301087183877826" lon="7.968757236376405">
        <ele>72.2734375</ele>
        <time>2026-04-27T08:24:48Z</time>
      </trkpt>
      <trkpt lat="52.301156586036086" lon="7.968478202819824">
        <ele>72.72265625</ele>
        <time>2026-04-27T08:24:52Z</time>
      </trkpt>
      <trkpt lat="52.301230849698186" lon="7.96820092946291">
        <ele>72.921875</ele>
        <time>2026-04-27T08:24:56Z</time>
      </trkpt>
      <trkpt lat="52.301303688436747" lon="7.967898258939385">
        <ele>73.1796875</ele>
        <time>2026-04-27T08:25:00Z</time>
      </trkpt>
      <trkpt lat="52.301377533003688" lon="7.967610927298665">
        <ele>73.296875</ele>
        <time>2026-04-27T08:25:04Z</time>
      </trkpt>
      <trkpt lat="52.30144115164876" lon="7.967332983389497">
        <ele>73.4609375</ele>
        <time>2026-04-27T08:25:08Z</time>
      </trkpt>
      <trkpt lat="52.301513319835067" lon="7.967045567929745">
        <ele>73.66796875</ele>
        <time>2026-04-27T08:25:12Z</time>
      </trkpt>
      <trkpt lat="52.301579872146249" lon="7.966762594878674">
        <ele>73.88671875</ele>
        <time>2026-04-27T08:25:16Z</time>
      </trkpt>
      <trkpt lat="52.301640640944242" lon="7.966464953497052">
        <ele>73.86328125</ele>
        <time>2026-04-27T08:25:20Z</time>
      </trkpt>
      <trkpt lat="52.301707360893488" lon="7.966184746474028">
        <ele>73.6875</ele>
        <time>2026-04-27T08:25:24Z</time>
      </trkpt>
      <trkpt lat="52.301780451089144" lon="7.965897666290402">
        <ele>73.48828125</ele>
        <time>2026-04-27T08:25:28Z</time>
      </trkpt>
      <trkpt lat="52.301848512142897" lon="7.965596755966544">
        <ele>73.58203125</ele>
        <time>2026-04-27T08:25:32Z</time>
      </trkpt>
      <trkpt lat="52.301919087767601" lon="7.965290732681751">
        <ele>73.59765625</ele>
        <time>2026-04-27T08:25:36Z</time>
      </trkpt>
      <trkpt lat="52.301999470219016" lon="7.964978674426675">
        <ele>73.234375</ele>
        <time>2026-04-27T08:25:40Z</time>
      </trkpt>
      <trkpt lat="52.30207733809948" lon="7.964640548452735">
        <ele>72.703125</ele>
        <time>2026-04-27T08:25:44Z</time>
      </trkpt>
      <trkpt lat="52.30217020958662" lon="7.964320192113519">
        <ele>71.8515625</ele>
        <time>2026-04-27T08:25:48Z</time>
      </trkpt>
      <trkpt lat="52.302249586209655" lon="7.963969325646758">
        <ele>70.7421875</ele>
        <time>2026-04-27T08:25:52Z</time>
      </trkpt>
      <trkpt lat="52.302322508767247" lon="7.96362248249352">
        <ele>69.78515625</ele>
        <time>2026-04-27T08:25:56Z</time>
      </trkpt>
      <trkpt lat="52.302410351112485" lon="7.963252505287528">
        <ele>68.421875</ele>
        <time>2026-04-27T08:26:00Z</time>
      </trkpt>
      <trkpt lat="52.302507078275084" lon="7.962891412898898">
        <ele>66.765625</ele>
        <time>2026-04-27T08:26:04Z</time>
      </trkpt>
      <trkpt lat="52.302597519010305" lon="7.962525626644492">
        <ele>65.3984375</ele>
        <time>2026-04-27T08:26:08Z</time>
      </trkpt>
      <trkpt lat="52.302697179839015" lon="7.962122792378068">
        <ele>64.32421875</ele>
        <time>2026-04-27T08:26:12Z</time>
      </trkpt>
      <trkpt lat="52.302810838446021" lon="7.961689615622163">
        <ele>63.34765625</ele>
        <time>2026-04-27T08:26:16Z</time>
      </trkpt>
      <trkpt lat="52.302954588085413" lon="7.961199190467596">
        <ele>62.703125</ele>
        <time>2026-04-27T08:26:20Z</time>
      </trkpt>
      <trkpt lat="52.303045280277729" lon="7.960940944030881">
        <ele>62.37109375</ele>
        <time>2026-04-27T08:26:22Z</time>
      </trkpt>
      <trkpt lat="52.303141672164202" lon="7.960682529956102">
        <ele>61.62109375</ele>
        <time>2026-04-27T08:26:24Z</time>
      </trkpt>
      <trkpt lat="52.303250217810273" lon="7.960438281297684">
        <ele>61.15625</ele>
        <time>2026-04-27T08:26:26Z</time>
      </trkpt>
      <trkpt lat="52.303368402644992" lon="7.960211215540767">
        <ele>60.76953125</ele>
        <time>2026-04-27T08:26:28Z</time>
      </trkpt>
      <trkpt lat="52.303601838648319" lon="7.95979899354279">
        <ele>60.19921875</ele>
        <time>2026-04-27T08:26:32Z</time>
      </trkpt>
      <trkpt lat="52.303836867213249" lon="7.959451228380203">
        <ele>59.4453125</ele>
        <time>2026-04-27T08:26:36Z</time>
      </trkpt>
      <trkpt lat="52.304065441712737" lon="7.959179989993572">
        <ele>59.078125</ele>
        <time>2026-04-27T08:26:40Z</time>
      </trkpt>
      <trkpt lat="52.304298961535096" lon="7.958973040804267">
        <ele>59.390625</ele>
        <time>2026-04-27T08:26:44Z</time>
      </trkpt>
      <trkpt lat="52.304523261263967" lon="7.958789141848683">
        <ele>59.70703125</ele>
        <time>2026-04-27T08:26:48Z</time>
      </trkpt>
      <trkpt lat="52.304757619276643" lon="7.95861161313951">
        <ele>60.0546875</ele>
        <time>2026-04-27T08:26:52Z</time>
      </trkpt>
      <trkpt lat="52.304963897913694" lon="7.958440789952874">
        <ele>60.1484375</ele>
        <time>2026-04-27T08:26:56Z</time>
      </trkpt>
      <trkpt lat="52.305145617574453" lon="7.958285473287106">
        <ele>60.1796875</ele>
        <time>2026-04-27T08:27:00Z</time>
      </trkpt>
      <trkpt lat="52.305324068292975" lon="7.958156475797296">
        <ele>60.23828125</ele>
        <time>2026-04-27T08:27:04Z</time>
      </trkpt>
      <trkpt lat="52.305453149601817" lon="7.957914574071765">
        <ele>60.1015625</ele>
        <time>2026-04-27T08:27:08Z</time>
      </trkpt>
      <trkpt lat="52.305446360260248" lon="7.957532862201333">
        <ele>59.69921875</ele>
        <time>2026-04-27T08:27:12Z</time>
      </trkpt>
      <trkpt lat="52.305433871224523" lon="7.957153413444758">
        <ele>59.44921875</ele>
        <time>2026-04-27T08:27:16Z</time>
      </trkpt>
      <trkpt lat="52.305441163480282" lon="7.956776395440102">
        <ele>59.265625</ele>
        <time>2026-04-27T08:27:20Z</time>
      </trkpt>
      <trkpt lat="52.305446192622185" lon="7.956404825672507">
        <ele>59.609375</ele>
        <time>2026-04-27T08:27:24Z</time>
      </trkpt>
      <trkpt lat="52.305428087711334" lon="7.956093354150653">
        <ele>59.90234375</ele>
        <time>2026-04-27T08:27:30Z</time>
      </trkpt>
      <trkpt lat="52.305442672222853" lon="7.955699237063527">
        <ele>59.734375</ele>
        <time>2026-04-27T08:27:56Z</time>
      </trkpt>
      <trkpt lat="52.305438313633204" lon="7.955357925966382">
        <ele>59.421875</ele>
        <time>2026-04-27T08:28:00Z</time>
      </trkpt>
      <trkpt lat="52.305435128509998" lon="7.954998426139355">
        <ele>58.94921875</ele>
        <time>2026-04-27T08:28:04Z</time>
      </trkpt>
      <trkpt lat="52.30543227866292" lon="7.954634735360742">
        <ele>58.2890625</ele>
        <time>2026-04-27T08:28:08Z</time>
      </trkpt>
      <trkpt lat="52.30540931224823" lon="7.954269200563431">
        <ele>57.796875</ele>
        <time>2026-04-27T08:28:12Z</time>
      </trkpt>
      <trkpt lat="52.305390872061253" lon="7.95391590334475">
        <ele>57.86328125</ele>
        <time>2026-04-27T08:28:16Z</time>
      </trkpt>
      <trkpt lat="52.305400427430868" lon="7.953509883955121">
        <ele>57.828125</ele>
        <time>2026-04-27T08:28:20Z</time>
      </trkpt>
      <trkpt lat="52.305400092154741" lon="7.953144600614905">
        <ele>57.41796875</ele>
        <time>2026-04-27T08:28:24Z</time>
      </trkpt>
      <trkpt lat="52.305412581190467" lon="7.952797841280699">
        <ele>56.95703125</ele>
        <time>2026-04-27T08:28:28Z</time>
      </trkpt>
      <trkpt lat="52.305412078276277" lon="7.952439095824957">
        <ele>57.23828125</ele>
        <time>2026-04-27T08:28:32Z</time>
      </trkpt>
      <trkpt lat="52.305419957265258" lon="7.952086972072721">
        <ele>57.94921875</ele>
        <time>2026-04-27T08:28:36Z</time>
      </trkpt>
      <trkpt lat="52.305423561483622" lon="7.951735686510801">
        <ele>58.57421875</ele>
        <time>2026-04-27T08:28:40Z</time>
      </trkpt>
      <trkpt lat="52.305420879274607" lon="7.95139504596591">
        <ele>58.88671875</ele>
        <time>2026-04-27T08:28:44Z</time>
      </trkpt>
      <trkpt lat="52.305411240085959" lon="7.951033785939217">
        <ele>59.22265625</ele>
        <time>2026-04-27T08:28:48Z</time>
      </trkpt>
      <trkpt lat="52.30540637858212" lon="7.950680907815695">
        <ele>59.640625</ele>
        <time>2026-04-27T08:28:52Z</time>
      </trkpt>
      <trkpt lat="52.305405037477612" lon="7.950332304462791">
        <ele>60.05859375</ele>
        <time>2026-04-27T08:28:56Z</time>
      </trkpt>
      <trkpt lat="52.305387267842889" lon="7.949974061921239">
        <ele>60.63671875</ele>
        <time>2026-04-27T08:29:00Z</time>
      </trkpt>
      <trkpt lat="52.305390788242221" lon="7.949639791622758">
        <ele>61.265625</ele>
        <time>2026-04-27T08:29:04Z</time>
      </trkpt>
      <trkpt lat="52.305393889546394" lon="7.94933008030057">
        <ele>61.83984375</ele>
        <time>2026-04-27T08:29:08Z</time>
      </trkpt>
      <trkpt lat="52.305486928671598" lon="7.949088010936976">
        <ele>61.75</ele>
        <time>2026-04-27T08:29:12Z</time>
      </trkpt>
      <trkpt lat="52.305684993043542" lon="7.949247853830457">
        <ele>61.01953125</ele>
        <time>2026-04-27T08:29:16Z</time>
      </trkpt>
      <trkpt lat="52.305883979424834" lon="7.94940778054297">
        <ele>60.59375</ele>
        <time>2026-04-27T08:29:20Z</time>
      </trkpt>
      <trkpt lat="52.306081121787429" lon="7.949560414999723">
        <ele>60.17578125</ele>
        <time>2026-04-27T08:29:24Z</time>
      </trkpt>
      <trkpt lat="52.306276252493262" lon="7.949707936495543">
        <ele>59.76171875</ele>
        <time>2026-04-27T08:29:28Z</time>
      </trkpt>
      <trkpt lat="52.306468449532986" lon="7.949857721105218">
        <ele>59.36328125</ele>
        <time>2026-04-27T08:29:32Z</time>
      </trkpt>
      <trkpt lat="52.306666010990739" lon="7.949999375268817">
        <ele>59.38671875</ele>
        <time>2026-04-27T08:29:36Z</time>
      </trkpt>
      <trkpt lat="52.30685125105083" lon="7.950158212333918">
        <ele>59.46484375</ele>
        <time>2026-04-27T08:29:40Z</time>
      </trkpt>
      <trkpt lat="52.3070427775383" lon="7.950312942266464">
        <ele>59.6953125</ele>
        <time>2026-04-27T08:29:44Z</time>
      </trkpt>
      <trkpt lat="52.307240171357989" lon="7.950463062152267">
        <ele>59.93359375</ele>
        <time>2026-04-27T08:29:48Z</time>
      </trkpt>
      <trkpt lat="52.307450892403722" lon="7.95058292336762">
        <ele>60.1796875</ele>
        <time>2026-04-27T08:29:52Z</time>
      </trkpt>
      <trkpt lat="52.307685920968652" lon="7.950591305270791">
        <ele>60.4453125</ele>
        <time>2026-04-27T08:29:56Z</time>
      </trkpt>
      <trkpt lat="52.307920278981328" lon="7.950549479573965">
        <ele>60.7890625</ele>
        <time>2026-04-27T08:30:00Z</time>
      </trkpt>
      <trkpt lat="52.308143908157945" lon="7.950507570058107">
        <ele>61.12890625</ele>
        <time>2026-04-27T08:30:04Z</time>
      </trkpt>
      <trkpt lat="52.308361502364278" lon="7.950460212305188">
        <ele>60.8125</ele>
        <time>2026-04-27T08:30:08Z</time>
      </trkpt>
      <trkpt lat="52.308572055771947" lon="7.950417129322887">
        <ele>60.4765625</ele>
        <time>2026-04-27T08:30:12Z</time>
      </trkpt>
      <trkpt lat="52.308789398521185" lon="7.950433976948261">
        <ele>60.01171875</ele>
        <time>2026-04-27T08:30:16Z</time>
      </trkpt>
      <trkpt lat="52.309011351317167" lon="7.950451914221048">
        <ele>59.5625</ele>
        <time>2026-04-27T08:30:20Z</time>
      </trkpt>
      <trkpt lat="52.309229783713818" lon="7.950474210083485">
        <ele>59.171875</ele>
        <time>2026-04-27T08:30:24Z</time>
      </trkpt>
      <trkpt lat="52.309436397626996" lon="7.950512347742915">
        <ele>58.7578125</ele>
        <time>2026-04-27T08:30:28Z</time>
      </trkpt>
      <trkpt lat="52.309639658778906" lon="7.950522489845753">
        <ele>58.38671875</ele>
        <time>2026-04-27T08:30:32Z</time>
      </trkpt>
      <trkpt lat="52.309844512492418" lon="7.95060588978231">
        <ele>58.16015625</ele>
        <time>2026-04-27T08:30:36Z</time>
      </trkpt>
      <trkpt lat="52.310026567429304" lon="7.950697084888816">
        <ele>58.8125</ele>
        <time>2026-04-27T08:30:42Z</time>
      </trkpt>
      <trkpt lat="52.310181632637978" lon="7.950535314157605">
        <ele>59.94921875</ele>
        <time>2026-04-27T08:30:50Z</time>
      </trkpt>
      <trkpt lat="52.310292609035969" lon="7.950281426310539">
        <ele>61.08984375</ele>
        <time>2026-04-27T08:30:54Z</time>
      </trkpt>
      <trkpt lat="52.310437029227614" lon="7.950049582868815">
        <ele>62.625</ele>
        <time>2026-04-27T08:30:58Z</time>
      </trkpt>
      <trkpt lat="52.310596369206905" lon="7.949794521555305">
        <ele>64.6015625</ele>
        <time>2026-04-27T08:31:02Z</time>
      </trkpt>
      <trkpt lat="52.310755541548133" lon="7.949536861851811">
        <ele>65.86328125</ele>
        <time>2026-04-27T08:31:06Z</time>
      </trkpt>
      <trkpt lat="52.310927370563149" lon="7.949266210198402">
        <ele>66.32421875</ele>
        <time>2026-04-27T08:31:10Z</time>
      </trkpt>
      <trkpt lat="52.311072293668985" lon="7.949023805558682">
        <ele>66.09765625</ele>
        <time>2026-04-27T08:31:14Z</time>
      </trkpt>
      <trkpt lat="52.311227945610881" lon="7.948789363726974">
        <ele>65.73828125</ele>
        <time>2026-04-27T08:31:18Z</time>
      </trkpt>
      <trkpt lat="52.311385357752442" lon="7.948524998500943">
        <ele>65.265625</ele>
        <time>2026-04-27T08:31:22Z</time>
      </trkpt>
      <trkpt lat="52.311559366062284" lon="7.948273792862892">
        <ele>64.79296875</ele>
        <time>2026-04-27T08:31:26Z</time>
      </trkpt>
      <trkpt lat="52.311763381585479" lon="7.947951927781105">
        <ele>64.5078125</ele>
        <time>2026-04-27T08:31:31Z</time>
      </trkpt>
      <trkpt lat="52.311937641352415" lon="7.947668116539717">
        <ele>64.41796875</ele>
        <time>2026-04-27T08:31:35Z</time>
      </trkpt>
      <trkpt lat="52.312113409861922" lon="7.947396375238895">
        <ele>64.21484375</ele>
        <time>2026-04-27T08:31:39Z</time>
      </trkpt>
      <trkpt lat="52.312297560274601" lon="7.947140978649259">
        <ele>63.9921875</ele>
        <time>2026-04-27T08:31:43Z</time>
      </trkpt>
      <trkpt lat="52.312468132004142" lon="7.946826992556453">
        <ele>63.37109375</ele>
        <time>2026-04-27T08:31:47Z</time>
      </trkpt>
      <trkpt lat="52.312546335160732" lon="7.946449806913734">
        <ele>62.1875</ele>
        <time>2026-04-27T08:31:51Z</time>
      </trkpt>
      <trkpt lat="52.312557399272919" lon="7.946019815281034">
        <ele>61.1171875</ele>
        <time>2026-04-27T08:31:55Z</time>
      </trkpt>
      <trkpt lat="52.312594866380095" lon="7.945547914132476">
        <ele>59.69921875</ele>
        <time>2026-04-27T08:31:59Z</time>
      </trkpt>
      <trkpt lat="52.312650438398123" lon="7.945092776790261">
        <ele>58.33203125</ele>
        <time>2026-04-27T08:32:03Z</time>
      </trkpt>
      <trkpt lat="52.312753368169069" lon="7.944677621126175">
        <ele>56.71484375</ele>
        <time>2026-04-27T08:32:07Z</time>
      </trkpt>
      <trkpt lat="52.312877839431167" lon="7.944303955882788">
        <ele>55.32421875</ele>
        <time>2026-04-27T08:32:11Z</time>
      </trkpt>
      <trkpt lat="52.31300650164485" lon="7.943974463269115">
        <ele>55.56640625</ele>
        <time>2026-04-27T08:32:15Z</time>
      </trkpt>
      <trkpt lat="52.313146311789751" lon="7.943678498268127">
        <ele>55.7578125</ele>
        <time>2026-04-27T08:32:19Z</time>
      </trkpt>
      <trkpt lat="52.313288301229477" lon="7.943384712561965">
        <ele>56.1953125</ele>
        <time>2026-04-27T08:32:23Z</time>
      </trkpt>
      <trkpt lat="52.313434230163693" lon="7.943075755611062">
        <ele>57.1328125</ele>
        <time>2026-04-27T08:32:27Z</time>
      </trkpt>
      <trkpt lat="52.313573872670531" lon="7.942753722891212">
        <ele>58.125</ele>
        <time>2026-04-27T08:32:31Z</time>
      </trkpt>
      <trkpt lat="52.313716197386384" lon="7.942439317703247">
        <ele>59.12109375</ele>
        <time>2026-04-27T08:32:35Z</time>
      </trkpt>
      <trkpt lat="52.313831867650151" lon="7.942120470106602">
        <ele>60.44921875</ele>
        <time>2026-04-27T08:32:39Z</time>
      </trkpt>
      <trkpt lat="52.313877129927278" lon="7.941777650266886">
        <ele>61.80859375</ele>
        <time>2026-04-27T08:32:43Z</time>
      </trkpt>
      <trkpt lat="52.313892468810081" lon="7.94144606217742">
        <ele>61.87890625</ele>
        <time>2026-04-27T08:32:47Z</time>
      </trkpt>
      <trkpt lat="52.314033452421427" lon="7.941247578710318">
        <ele>61.79296875</ele>
        <time>2026-04-27T08:32:51Z</time>
      </trkpt>
      <trkpt lat="52.31424911879003" lon="7.941197203472257">
        <ele>61.21875</ele>
        <time>2026-04-27T08:32:55Z</time>
      </trkpt>
      <trkpt lat="52.314476938918233" lon="7.94120860286057">
        <ele>60.59765625</ele>
        <time>2026-04-27T08:32:59Z</time>
      </trkpt>
      <trkpt lat="52.314718337729573" lon="7.94126627035439">
        <ele>59.87890625</ele>
        <time>2026-04-27T08:33:03Z</time>
      </trkpt>
      <trkpt lat="52.314961748197675" lon="7.941365512087941">
        <ele>58.828125</ele>
        <time>2026-04-27T08:33:07Z</time>
      </trkpt>
      <trkpt lat="52.315188311040401" lon="7.941487468779087">
        <ele>57.78515625</ele>
        <time>2026-04-27T08:33:11Z</time>
      </trkpt>
      <trkpt lat="52.315425351262093" lon="7.941602049395442">
        <ele>56.78125</ele>
        <time>2026-04-27T08:33:15Z</time>
      </trkpt>
      <trkpt lat="52.315652584657073" lon="7.94167865999043">
        <ele>56.0390625</ele>
        <time>2026-04-27T08:33:19Z</time>
      </trkpt>
      <trkpt lat="52.315822569653392" lon="7.941762395203114">
        <ele>56.2578125</ele>
        <time>2026-04-27T08:33:23Z</time>
      </trkpt>
      <trkpt lat="52.316056005656719" lon="7.941764071583748">
        <ele>56.55859375</ele>
        <time>2026-04-27T08:33:27Z</time>
      </trkpt>
      <trkpt lat="52.316314168274403" lon="7.94174462556839">
        <ele>56.91015625</ele>
        <time>2026-04-27T08:33:31Z</time>
      </trkpt>
      <trkpt lat="52.316563865169883" lon="7.941720150411129">
        <ele>57.80078125</ele>
        <time>2026-04-27T08:33:35Z</time>
      </trkpt>
      <trkpt lat="52.316800318658352" lon="7.94164446182549">
        <ele>59.4609375</ele>
        <time>2026-04-27T08:33:39Z</time>
      </trkpt>
      <trkpt lat="52.317023947834969" lon="7.941562989726663">
        <ele>61.15234375</ele>
        <time>2026-04-27T08:33:43Z</time>
      </trkpt>
      <trkpt lat="52.317226203158498" lon="7.941434243693948">
        <ele>62.9609375</ele>
        <time>2026-04-27T08:33:47Z</time>
      </trkpt>
      <trkpt lat="52.31741932220757" lon="7.941303569823504">
        <ele>63.65234375</ele>
        <time>2026-04-27T08:33:51Z</time>
      </trkpt>
      <trkpt lat="52.31760841794312" lon="7.941188821569085">
        <ele>63.51171875</ele>
        <time>2026-04-27T08:33:55Z</time>
      </trkpt>
      <trkpt lat="52.317847972735763" lon="7.940997211262584">
        <ele>62.98828125</ele>
        <time>2026-04-27T08:34:01Z</time>
      </trkpt>
      <trkpt lat="52.318037739023566" lon="7.940907776355743">
        <ele>62.40234375</ele>
        <time>2026-04-27T08:34:05Z</time>
      </trkpt>
      <trkpt lat="52.318234378471971" lon="7.94087827205658">
        <ele>61.625</ele>
        <time>2026-04-27T08:34:09Z</time>
      </trkpt>
      <trkpt lat="52.318413499742746" lon="7.940850863233209">
        <ele>60.83984375</ele>
        <time>2026-04-27T08:34:13Z</time>
      </trkpt>
      <trkpt lat="52.31859790161252" lon="7.940851952880621">
        <ele>59.98828125</ele>
        <time>2026-04-27T08:34:17Z</time>
      </trkpt>
      <trkpt lat="52.318852376192808" lon="7.940848264843226">
        <ele>58.828125</ele>
        <time>2026-04-27T08:34:23Z</time>
      </trkpt>
      <trkpt lat="52.319041220471263" lon="7.940876763314009">
        <ele>58.35546875</ele>
        <time>2026-04-27T08:34:27Z</time>
      </trkpt>
      <trkpt lat="52.319235848262906" lon="7.940852791070938">
        <ele>58.5625</ele>
        <time>2026-04-27T08:34:31Z</time>
      </trkpt>
      <trkpt lat="52.31944564729929" lon="7.940874164924026">
        <ele>58.70703125</ele>
        <time>2026-04-27T08:34:35Z</time>
      </trkpt>
      <trkpt lat="52.319650249555707" lon="7.94085631147027">
        <ele>58.890625</ele>
        <time>2026-04-27T08:34:39Z</time>
      </trkpt>
      <trkpt lat="52.319860970601439" lon="7.940862681716681">
        <ele>59.16015625</ele>
        <time>2026-04-27T08:34:43Z</time>
      </trkpt>
      <trkpt lat="52.320072613656521" lon="7.940857484936714">
        <ele>59.625</ele>
        <time>2026-04-27T08:34:47Z</time>
      </trkpt>
      <trkpt lat="52.320285178720951" lon="7.940856060013175">
        <ele>60.09375</ele>
        <time>2026-04-27T08:34:51Z</time>
      </trkpt>
      <trkpt lat="52.320510651916265" lon="7.940859496593475">
        <ele>60.59375</ele>
        <time>2026-04-27T08:34:55Z</time>
      </trkpt>
      <trkpt lat="52.320726402103901" lon="7.940843990072608">
        <ele>60.83984375</ele>
        <time>2026-04-27T08:34:59Z</time>
      </trkpt>
      <trkpt lat="52.320939218625426" lon="7.940826052799821">
        <ele>60.875</ele>
        <time>2026-04-27T08:35:03Z</time>
      </trkpt>
      <trkpt lat="52.321144659072161" lon="7.940822867676616">
        <ele>60.921875</ele>
        <time>2026-04-27T08:35:07Z</time>
      </trkpt>
      <trkpt lat="52.321363091468811" lon="7.940815575420857">
        <ele>60.9765625</ele>
        <time>2026-04-27T08:35:11Z</time>
      </trkpt>
      <trkpt lat="52.32158537954092" lon="7.940843570977449">
        <ele>61.12890625</ele>
        <time>2026-04-27T08:35:15Z</time>
      </trkpt>
      <trkpt lat="52.321829879656434" lon="7.940956642851234">
        <ele>61.4296875</ele>
        <time>2026-04-27T08:35:19Z</time>
      </trkpt>
      <trkpt lat="52.322061890736222" lon="7.941045574843884">
        <ele>61.7578125</ele>
        <time>2026-04-27T08:35:23Z</time>
      </trkpt>
      <trkpt lat="52.322285016998649" lon="7.941120341420174">
        <ele>62.1484375</ele>
        <time>2026-04-27T08:35:27Z</time>
      </trkpt>
      <trkpt lat="52.322517447173595" lon="7.94118027202785">
        <ele>60.83984375</ele>
        <time>2026-04-27T08:35:31Z</time>
      </trkpt>
      <trkpt lat="52.322747781872749" lon="7.941247830167413">
        <ele>59.5390625</ele>
        <time>2026-04-27T08:35:35Z</time>
      </trkpt>
      <trkpt lat="52.322970740497112" lon="7.941363081336021">
        <ele>58.3359375</ele>
        <time>2026-04-27T08:35:39Z</time>
      </trkpt>
      <trkpt lat="52.323207361623645" lon="7.941470537334681">
        <ele>57.44921875</ele>
        <time>2026-04-27T08:35:43Z</time>
      </trkpt>
      <trkpt lat="52.323456890881062" lon="7.941602384671569">
        <ele>57.140625</ele>
        <time>2026-04-27T08:35:47Z</time>
      </trkpt>
      <trkpt lat="52.323721339926124" lon="7.941741105169058">
        <ele>56.6015625</ele>
        <time>2026-04-27T08:35:51Z</time>
      </trkpt>
      <trkpt lat="52.32395812869072" lon="7.941855182871223">
        <ele>56.05859375</ele>
        <time>2026-04-27T08:35:55Z</time>
      </trkpt>
      <trkpt lat="52.324185948818922" lon="7.941986443474889">
        <ele>58.3046875</ele>
        <time>2026-04-27T08:35:59Z</time>
      </trkpt>
      <trkpt lat="52.324401531368494" lon="7.942104041576386">
        <ele>60.1328125</ele>
        <time>2026-04-27T08:36:03Z</time>
      </trkpt>
      <trkpt lat="52.324600014835596" lon="7.942224489524961">
        <ele>61.515625</ele>
        <time>2026-04-27T08:36:07Z</time>
      </trkpt>
      <trkpt lat="52.3247932177037" lon="7.942321635782719">
        <ele>62.7421875</ele>
        <time>2026-04-27T08:36:11Z</time>
      </trkpt>
      <trkpt lat="52.324981391429901" lon="7.942402856424451">
        <ele>65.1328125</ele>
        <time>2026-04-27T08:36:15Z</time>
      </trkpt>
      <trkpt lat="52.325162524357438" lon="7.942487429827452">
        <ele>67.35546875</ele>
        <time>2026-04-27T08:36:19Z</time>
      </trkpt>
      <trkpt lat="52.325408952310681" lon="7.942571919411421">
        <ele>70.48828125</ele>
        <time>2026-04-27T08:36:25Z</time>
      </trkpt>
      <trkpt lat="52.32558773830533" lon="7.942644841969013">
        <ele>72.65234375</ele>
        <time>2026-04-27T08:36:29Z</time>
      </trkpt>
      <trkpt lat="52.325845481827855" lon="7.942729415372014">
        <ele>73.703125</ele>
        <time>2026-04-27T08:36:35Z</time>
      </trkpt>
      <trkpt lat="52.326091071590781" lon="7.942816922441125">
        <ele>74.234375</ele>
        <time>2026-04-27T08:36:41Z</time>
      </trkpt>
      <trkpt lat="52.326347641646862" lon="7.942779120057821">
        <ele>76.5625</ele>
        <time>2026-04-27T08:36:47Z</time>
      </trkpt>
      <trkpt lat="52.326600020751357" lon="7.942681051790714">
        <ele>77.47265625</ele>
        <time>2026-04-27T08:36:53Z</time>
      </trkpt>
      <trkpt lat="52.326774029061198" lon="7.942583821713924">
        <ele>76.8984375</ele>
        <time>2026-04-27T08:36:57Z</time>
      </trkpt>
      <trkpt lat="52.32695491053164" lon="7.942509222775698">
        <ele>75.9296875</ele>
        <time>2026-04-27T08:37:01Z</time>
      </trkpt>
      <trkpt lat="52.327164458110929" lon="7.942497655749321">
        <ele>74.20703125</ele>
        <time>2026-04-27T08:37:05Z</time>
      </trkpt>
      <trkpt lat="52.327362019568682" lon="7.942551802843809">
        <ele>71.984375</ele>
        <time>2026-04-27T08:37:09Z</time>
      </trkpt>
      <trkpt lat="52.327558072283864" lon="7.942603435367346">
        <ele>69.69140625</ele>
        <time>2026-04-27T08:37:13Z</time>
      </trkpt>
      <trkpt lat="52.327768038958311" lon="7.942654648795724">
        <ele>67.37890625</ele>
        <time>2026-04-27T08:37:17Z</time>
      </trkpt>
      <trkpt lat="52.327984711155295" lon="7.942686248570681">
        <ele>65.203125</ele>
        <time>2026-04-27T08:37:21Z</time>
      </trkpt>
      <trkpt lat="52.328186631202698" lon="7.942717848345637">
        <ele>64.34375</ele>
        <time>2026-04-27T08:37:25Z</time>
      </trkpt>
      <trkpt lat="52.328378157690167" lon="7.942759925499558">
        <ele>65.41015625</ele>
        <time>2026-04-27T08:37:29Z</time>
      </trkpt>
      <trkpt lat="52.328568175435066" lon="7.942795716226101">
        <ele>66.4609375</ele>
        <time>2026-04-27T08:37:33Z</time>
      </trkpt>
      <trkpt lat="52.328748805448413" lon="7.942805355414748">
        <ele>67.48828125</ele>
        <time>2026-04-27T08:37:37Z</time>
      </trkpt>
      <trkpt lat="52.32893094420433" lon="7.942844331264496">
        <ele>68.44921875</ele>
        <time>2026-04-27T08:37:41Z</time>
      </trkpt>
      <trkpt lat="52.32911123894155" lon="7.942866627126932">
        <ele>68.796875</ele>
        <time>2026-04-27T08:37:45Z</time>
      </trkpt>
      <trkpt lat="52.329362696036696" lon="7.942890515550971">
        <ele>69.21875</ele>
        <time>2026-04-27T08:37:51Z</time>
      </trkpt>
      <trkpt lat="52.329602669924498" lon="7.942927731201053">
        <ele>69.64453125</ele>
        <time>2026-04-27T08:37:57Z</time>
      </trkpt>
      <trkpt lat="52.329831998795271" lon="7.942930497229099">
        <ele>70.25390625</ele>
        <time>2026-04-27T08:38:03Z</time>
      </trkpt>
      <trkpt lat="52.330077001824975" lon="7.942939465865493">
        <ele>71.53515625</ele>
        <time>2026-04-27T08:38:09Z</time>
      </trkpt>
      <trkpt lat="52.330327956005931" lon="7.942929491400719">
        <ele>72.80859375</ele>
        <time>2026-04-27T08:38:15Z</time>
      </trkpt>
      <trkpt lat="52.330583436414599" lon="7.942924546077848">
        <ele>74.10546875</ele>
        <time>2026-04-27T08:38:21Z</time>
      </trkpt>
      <trkpt lat="52.330831456929445" lon="7.942923456430435">
        <ele>75.3671875</ele>
        <time>2026-04-27T08:38:27Z</time>
      </trkpt>
      <trkpt lat="52.331096911802888" lon="7.943028230220079">
        <ele>77.51953125</ele>
        <time>2026-04-27T08:38:33Z</time>
      </trkpt>
      <trkpt lat="52.331294640898705" lon="7.943013813346624">
        <ele>78.52734375</ele>
        <time>2026-04-27T08:38:37Z</time>
      </trkpt>
      <trkpt lat="52.331494716927409" lon="7.94301800429821">
        <ele>79.16015625</ele>
        <time>2026-04-27T08:38:41Z</time>
      </trkpt>
      <trkpt lat="52.331699067726731" lon="7.943089250475168">
        <ele>78.6015625</ele>
        <time>2026-04-27T08:38:45Z</time>
      </trkpt>
      <trkpt lat="52.331936024129391" lon="7.94323350302875">
        <ele>78.35546875</ele>
        <time>2026-04-27T08:38:49Z</time>
      </trkpt>
      <trkpt lat="52.332121850922704" lon="7.943615466356278">
        <ele>79.44140625</ele>
        <time>2026-04-27T08:38:53Z</time>
      </trkpt>
      <trkpt lat="52.332266522571445" lon="7.944061886519194">
        <ele>79.46875</ele>
        <time>2026-04-27T08:38:57Z</time>
      </trkpt>
      <trkpt lat="52.332402560859919" lon="7.944524148479104">
        <ele>78.109375</ele>
        <time>2026-04-27T08:39:01Z</time>
      </trkpt>
      <trkpt lat="52.3325848672539" lon="7.944982554763556">
        <ele>74.47265625</ele>
        <time>2026-04-27T08:39:05Z</time>
      </trkpt>
      <trkpt lat="52.332868929952383" lon="7.945250440388918">
        <ele>68.02734375</ele>
        <time>2026-04-27T08:39:09Z</time>
      </trkpt>
      <trkpt lat="52.333161290735006" lon="7.945262845605612">
        <ele>63.20703125</ele>
        <time>2026-04-27T08:39:13Z</time>
      </trkpt>
      <trkpt lat="52.333429763093591" lon="7.945239963009954">
        <ele>62.375</ele>
        <time>2026-04-27T08:39:17Z</time>
      </trkpt>
      <trkpt lat="52.333675101399422" lon="7.945230826735497">
        <ele>61.546875</ele>
        <time>2026-04-27T08:39:21Z</time>
      </trkpt>
      <trkpt lat="52.333915159106255" lon="7.945195371285081">
        <ele>60.89453125</ele>
        <time>2026-04-27T08:39:25Z</time>
      </trkpt>
      <trkpt lat="52.334142560139298" lon="7.945166286081076">
        <ele>60.95703125</ele>
        <time>2026-04-27T08:39:29Z</time>
      </trkpt>
      <trkpt lat="52.334382617846131" lon="7.945188414305449">
        <ele>60.84375</ele>
        <time>2026-04-27T08:39:33Z</time>
      </trkpt>
      <trkpt lat="52.334589650854468" lon="7.945311544463038">
        <ele>60.2265625</ele>
        <time>2026-04-27T08:39:37Z</time>
      </trkpt>
      <trkpt lat="52.334805065765977" lon="7.945354795083404">
        <ele>59.98046875</ele>
        <time>2026-04-27T08:39:41Z</time>
      </trkpt>
      <trkpt lat="52.335007069632411" lon="7.945433082059026">
        <ele>59.04296875</ele>
        <time>2026-04-27T08:39:45Z</time>
      </trkpt>
      <trkpt lat="52.33522105962038" lon="7.945531234145165">
        <ele>58.09765625</ele>
        <time>2026-04-27T08:39:49Z</time>
      </trkpt>
      <trkpt lat="52.335467571392655" lon="7.945628967136145">
        <ele>57.1953125</ele>
        <time>2026-04-27T08:39:53Z</time>
      </trkpt>
      <trkpt lat="52.335736630484462" lon="7.945720916613936">
        <ele>56.15625</ele>
        <time>2026-04-27T08:39:57Z</time>
      </trkpt>
      <trkpt lat="52.336004599928856" lon="7.945796940475702">
        <ele>54.9453125</ele>
        <time>2026-04-27T08:40:01Z</time>
      </trkpt>
      <trkpt lat="52.33627307228744" lon="7.945775482803583">
        <ele>53.93359375</ele>
        <time>2026-04-27T08:40:05Z</time>
      </trkpt>
      <trkpt lat="52.336541041731834" lon="7.945726029574871">
        <ele>53.47265625</ele>
        <time>2026-04-27T08:40:09Z</time>
      </trkpt>
      <trkpt lat="52.336782356724143" lon="7.945650676265359">
        <ele>53.98046875</ele>
        <time>2026-04-27T08:40:13Z</time>
      </trkpt>
      <trkpt lat="52.337014870718122" lon="7.945592338219285">
        <ele>54.4921875</ele>
        <time>2026-04-27T08:40:17Z</time>
      </trkpt>
      <trkpt lat="52.337236320599914" lon="7.945527965202928">
        <ele>55.03515625</ele>
        <time>2026-04-27T08:40:21Z</time>
      </trkpt>
      <trkpt lat="52.33746481128037" lon="7.945467950776219">
        <ele>55.625</ele>
        <time>2026-04-27T08:40:25Z</time>
      </trkpt>
      <trkpt lat="52.337666312232614" lon="7.945321854203939">
        <ele>56.44921875</ele>
        <time>2026-04-27T08:40:29Z</time>
      </trkpt>
      <trkpt lat="52.337857838720083" lon="7.945100571960211">
        <ele>57.50390625</ele>
        <time>2026-04-27T08:40:33Z</time>
      </trkpt>
      <trkpt lat="52.33806436881423" lon="7.944890521466732">
        <ele>58.24609375</ele>
        <time>2026-04-27T08:40:37Z</time>
      </trkpt>
      <trkpt lat="52.338257990777493" lon="7.94470083899796">
        <ele>58.1171875</ele>
        <time>2026-04-27T08:40:41Z</time>
      </trkpt>
      <trkpt lat="52.338437279686332" lon="7.944527668878436">
        <ele>57.87890625</ele>
        <time>2026-04-27T08:40:45Z</time>
      </trkpt>
      <trkpt lat="52.338630398735404" lon="7.944384338334203">
        <ele>57.640625</ele>
        <time>2026-04-27T08:40:49Z</time>
      </trkpt>
      <trkpt lat="52.338850004598498" lon="7.944298172369599">
        <ele>57.2890625</ele>
        <time>2026-04-27T08:40:53Z</time>
      </trkpt>
      <trkpt lat="52.339057624340057" lon="7.944217203184962">
        <ele>56.8515625</ele>
        <time>2026-04-27T08:40:57Z</time>
      </trkpt>
      <trkpt lat="52.339077908545732" lon="7.943911179900169">
        <ele>57.51171875</ele>
        <time>2026-04-27T08:41:01Z</time>
      </trkpt>
      <trkpt lat="52.33902501873672" lon="7.943584956228733">
        <ele>58.48828125</ele>
        <time>2026-04-27T08:41:05Z</time>
      </trkpt>
      <trkpt lat="52.33898445032537" lon="7.943257391452789">
        <ele>58.83984375</ele>
        <time>2026-04-27T08:41:09Z</time>
      </trkpt>
      <trkpt lat="52.338946312665939" lon="7.942922366783023">
        <ele>58.98828125</ele>
        <time>2026-04-27T08:41:13Z</time>
      </trkpt>
      <trkpt lat="52.338900128379464" lon="7.942605530843139">
        <ele>59.04296875</ele>
        <time>2026-04-27T08:41:17Z</time>
      </trkpt>
      <trkpt lat="52.338863667100668" lon="7.942264471203089">
        <ele>58.76171875</ele>
        <time>2026-04-27T08:41:21Z</time>
      </trkpt>
      <trkpt lat="52.338822428137064" lon="7.94191955588758">
        <ele>58.53125</ele>
        <time>2026-04-27T08:41:25Z</time>
      </trkpt>
      <trkpt lat="52.338789151981473" lon="7.941567683592439">
        <ele>58.5546875</ele>
        <time>2026-04-27T08:41:29Z</time>
      </trkpt>
      <trkpt lat="52.338750595226884" lon="7.941224779933691">
        <ele>58.6953125</ele>
        <time>2026-04-27T08:41:33Z</time>
      </trkpt>
      <trkpt lat="52.338703321292996" lon="7.940890677273274">
        <ele>59.09765625</ele>
        <time>2026-04-27T08:41:37Z</time>
      </trkpt>
      <trkpt lat="52.338660741224885" lon="7.940530171617866">
        <ele>60.14453125</ele>
        <time>2026-04-27T08:41:41Z</time>
      </trkpt>
      <trkpt lat="52.338613132014871" lon="7.94017712585628">
        <ele>61.33984375</ele>
        <time>2026-04-27T08:41:45Z</time>
      </trkpt>
      <trkpt lat="52.338564516976476" lon="7.939826678484678">
        <ele>62.1328125</ele>
        <time>2026-04-27T08:41:49Z</time>
      </trkpt>
      <trkpt lat="52.338519254699349" lon="7.939482014626265">
        <ele>62.875</ele>
        <time>2026-04-27T08:41:53Z</time>
      </trkpt>
      <trkpt lat="52.338481871411204" lon="7.939142463728786">
        <ele>62.828125</ele>
        <time>2026-04-27T08:41:57Z</time>
      </trkpt>
      <trkpt lat="52.338435938581824" lon="7.938788160681725">
        <ele>62.07421875</ele>
        <time>2026-04-27T08:42:01Z</time>
      </trkpt>
      <trkpt lat="52.338455300778151" lon="7.938408711925149">
        <ele>60.9609375</ele>
        <time>2026-04-27T08:42:05Z</time>
      </trkpt>
      <trkpt lat="52.33857692219317" lon="7.938071088865399">
        <ele>59.859375</ele>
        <time>2026-04-27T08:42:09Z</time>
      </trkpt>
      <trkpt lat="52.338706003502011" lon="7.937759449705482">
        <ele>58.80078125</ele>
        <time>2026-04-27T08:42:13Z</time>
      </trkpt>
      <trkpt lat="52.338818069547415" lon="7.937434567138553">
        <ele>58.21875</ele>
        <time>2026-04-27T08:42:17Z</time>
      </trkpt>
      <trkpt lat="52.338941199705005" lon="7.937114462256432">
        <ele>58.00390625</ele>
        <time>2026-04-27T08:42:21Z</time>
      </trkpt>
      <trkpt lat="52.339062821120024" lon="7.936801146715879">
        <ele>57.890625</ele>
        <time>2026-04-27T08:42:25Z</time>
      </trkpt>
      <trkpt lat="52.339178742840886" lon="7.936473246663809">
        <ele>58.1484375</ele>
        <time>2026-04-27T08:42:29Z</time>
      </trkpt>
      <trkpt lat="52.339300448074937" lon="7.936157835647464">
        <ele>58.37890625</ele>
        <time>2026-04-27T08:42:33Z</time>
      </trkpt>
      <trkpt lat="52.339412849396467" lon="7.935834797099233">
        <ele>58.3515625</ele>
        <time>2026-04-27T08:42:37Z</time>
      </trkpt>
      <trkpt lat="52.339528100565076" lon="7.935550315305591">
        <ele>58.13671875</ele>
        <time>2026-04-27T08:42:41Z</time>
      </trkpt>
      <trkpt lat="52.339656930416822" lon="7.935254098847508">
        <ele>58.015625</ele>
        <time>2026-04-27T08:42:45Z</time>
      </trkpt>
      <trkpt lat="52.339770002290606" lon="7.934966180473566">
        <ele>58</ele>
        <time>2026-04-27T08:42:49Z</time>
      </trkpt>
      <trkpt lat="52.339914757758379" lon="7.934666778892279">
        <ele>57.69921875</ele>
        <time>2026-04-27T08:42:53Z</time>
      </trkpt>
      <trkpt lat="52.340046521276236" lon="7.934399647638202">
        <ele>57.625</ele>
        <time>2026-04-27T08:42:57Z</time>
      </trkpt>
      <trkpt lat="52.34018012881279" lon="7.934105945751071">
        <ele>57.515625</ele>
        <time>2026-04-27T08:43:01Z</time>
      </trkpt>
      <trkpt lat="52.340302169322968" lon="7.933807047083974">
        <ele>57.3671875</ele>
        <time>2026-04-27T08:43:05Z</time>
      </trkpt>
      <trkpt lat="52.340431669726968" lon="7.933501023799181">
        <ele>57.21484375</ele>
        <time>2026-04-27T08:43:09Z</time>
      </trkpt>
      <trkpt lat="52.340560331940651" lon="7.933217883110046">
        <ele>57.05859375</ele>
        <time>2026-04-27T08:43:13Z</time>
      </trkpt>
      <trkpt lat="52.340695448219776" lon="7.932903561741114">
        <ele>56.8984375</ele>
        <time>2026-04-27T08:43:17Z</time>
      </trkpt>
      <trkpt lat="52.340832911431789" lon="7.932580942288041">
        <ele>56.73046875</ele>
        <time>2026-04-27T08:43:21Z</time>
      </trkpt>
      <trkpt lat="52.340959561988711" lon="7.932263100519776">
        <ele>56.578125</ele>
        <time>2026-04-27T08:43:25Z</time>
      </trkpt>
      <trkpt lat="52.341089397668839" lon="7.931945761665702">
        <ele>56.421875</ele>
        <time>2026-04-27T08:43:29Z</time>
      </trkpt>
      <trkpt lat="52.341228201985359" lon="7.931637307628989">
        <ele>56.5546875</ele>
        <time>2026-04-27T08:43:33Z</time>
      </trkpt>
      <trkpt lat="52.341352170333266" lon="7.931342096999288">
        <ele>56.76171875</ele>
        <time>2026-04-27T08:43:37Z</time>
      </trkpt>
      <trkpt lat="52.341482089832425" lon="7.931047054007649">
        <ele>56.8515625</ele>
        <time>2026-04-27T08:43:41Z</time>
      </trkpt>
      <trkpt lat="52.341598430648446" lon="7.930746395140886">
        <ele>57.1796875</ele>
        <time>2026-04-27T08:43:45Z</time>
      </trkpt>
      <trkpt lat="52.341735558584332" lon="7.930431487038732">
        <ele>57.421875</ele>
        <time>2026-04-27T08:43:49Z</time>
      </trkpt>
      <trkpt lat="52.341874111443758" lon="7.930106772109866">
        <ele>57.59375</ele>
        <time>2026-04-27T08:43:53Z</time>
      </trkpt>
      <trkpt lat="52.342007635161281" lon="7.929782476276159">
        <ele>58.0546875</ele>
        <time>2026-04-27T08:43:57Z</time>
      </trkpt>
      <trkpt lat="52.342135794460773" lon="7.929490115493536">
        <ele>58.671875</ele>
        <time>2026-04-27T08:44:01Z</time>
      </trkpt>
      <trkpt lat="52.342278119176626" lon="7.929176799952984">
        <ele>59.57421875</ele>
        <time>2026-04-27T08:44:05Z</time>
      </trkpt>
      <trkpt lat="52.342419689521194" lon="7.928886031731963">
        <ele>60.79296875</ele>
        <time>2026-04-27T08:44:09Z</time>
      </trkpt>
      <trkpt lat="52.342536030337214" lon="7.928580846637487">
        <ele>62.03125</ele>
        <time>2026-04-27T08:44:13Z</time>
      </trkpt>
      <trkpt lat="52.342670811340213" lon="7.928275661543012">
        <ele>62.48828125</ele>
        <time>2026-04-27T08:44:17Z</time>
      </trkpt>
      <trkpt lat="52.342800730839372" lon="7.927948432043195">
        <ele>62.45703125</ele>
        <time>2026-04-27T08:44:21Z</time>
      </trkpt>
      <trkpt lat="52.342938361689448" lon="7.927655233070254">
        <ele>62.19140625</ele>
        <time>2026-04-27T08:44:25Z</time>
      </trkpt>
      <trkpt lat="52.343070460483432" lon="7.927366308867931">
        <ele>61.71484375</ele>
        <time>2026-04-27T08:44:29Z</time>
      </trkpt>
      <trkpt lat="52.343190321698785" lon="7.92706816457212">
        <ele>61.27734375</ele>
        <time>2026-04-27T08:44:33Z</time>
      </trkpt>
      <trkpt lat="52.343327030539513" lon="7.926768092438579">
        <ele>61.30859375</ele>
        <time>2026-04-27T08:44:37Z</time>
      </trkpt>
      <trkpt lat="52.343451250344515" lon="7.926474139094353">
        <ele>62.5625</ele>
        <time>2026-04-27T08:44:41Z</time>
      </trkpt>
      <trkpt lat="52.343570776283741" lon="7.926183873787522">
        <ele>63.69921875</ele>
        <time>2026-04-27T08:44:45Z</time>
      </trkpt>
      <trkpt lat="52.343710502609611" lon="7.925883801653981">
        <ele>64.4609375</ele>
        <time>2026-04-27T08:44:49Z</time>
      </trkpt>
      <trkpt lat="52.343842517584562" lon="7.925589680671692">
        <ele>64.67578125</ele>
        <time>2026-04-27T08:44:53Z</time>
      </trkpt>
      <trkpt lat="52.343964138999581" lon="7.925308803096414">
        <ele>64.85546875</ele>
        <time>2026-04-27T08:44:57Z</time>
      </trkpt>
      <trkpt lat="52.344095902517438" lon="7.925018453970552">
        <ele>65.22265625</ele>
        <time>2026-04-27T08:45:01Z</time>
      </trkpt>
      <trkpt lat="52.344215009361506" lon="7.924729781225324">
        <ele>65.50390625</ele>
        <time>2026-04-27T08:45:05Z</time>
      </trkpt>
      <trkpt lat="52.344340151175857" lon="7.924427865073085">
        <ele>65.90625</ele>
        <time>2026-04-27T08:45:09Z</time>
      </trkpt>
      <trkpt lat="52.344465963542461" lon="7.924156542867422">
        <ele>65.9609375</ele>
        <time>2026-04-27T08:45:13Z</time>
      </trkpt>
      <trkpt lat="52.344597559422255" lon="7.923858482390642">
        <ele>65.87890625</ele>
        <time>2026-04-27T08:45:17Z</time>
      </trkpt>
      <trkpt lat="52.344721695408225" lon="7.923554638400674">
        <ele>65.875</ele>
        <time>2026-04-27T08:45:21Z</time>
      </trkpt>
      <trkpt lat="52.344843400642276" lon="7.92325833812356">
        <ele>65.59765625</ele>
        <time>2026-04-27T08:45:25Z</time>
      </trkpt>
      <trkpt lat="52.344969799742103" lon="7.922954577952623">
        <ele>65.3046875</ele>
        <time>2026-04-27T08:45:29Z</time>
      </trkpt>
      <trkpt lat="52.345090415328741" lon="7.922680405899882">
        <ele>65.15625</ele>
        <time>2026-04-27T08:45:33Z</time>
      </trkpt>
      <trkpt lat="52.345210025086999" lon="7.922398438677192">
        <ele>64.6015625</ele>
        <time>2026-04-27T08:45:37Z</time>
      </trkpt>
      <trkpt lat="52.345333658158779" lon="7.922107838094235">
        <ele>64.21875</ele>
        <time>2026-04-27T08:45:41Z</time>
      </trkpt>
      <trkpt lat="52.34546952880919" lon="7.921803155913949">
        <ele>64.08203125</ele>
        <time>2026-04-27T08:45:45Z</time>
      </trkpt>
      <trkpt lat="52.345587126910686" lon="7.921500904485583">
        <ele>64.0625</ele>
        <time>2026-04-27T08:45:49Z</time>
      </trkpt>
      <trkpt lat="52.345687123015523" lon="7.921208292245865">
        <ele>63.703125</ele>
        <time>2026-04-27T08:45:53Z</time>
      </trkpt>
      <trkpt lat="52.34578468836844" lon="7.920913500711322">
        <ele>63.5546875</ele>
        <time>2026-04-27T08:45:57Z</time>
      </trkpt>
      <trkpt lat="52.345892060548067" lon="7.920604376122356">
        <ele>63.7109375</ele>
        <time>2026-04-27T08:46:01Z</time>
      </trkpt>
      <trkpt lat="52.346000438556075" lon="7.920282762497664">
        <ele>63.9609375</ele>
        <time>2026-04-27T08:46:05Z</time>
      </trkpt>
      <trkpt lat="52.346107810735703" lon="7.919939188286662">
        <ele>64.6328125</ele>
        <time>2026-04-27T08:46:09Z</time>
      </trkpt>
      <trkpt lat="52.346210991963744" lon="7.919599553570151">
        <ele>65.28125</ele>
        <time>2026-04-27T08:46:13Z</time>
      </trkpt>
      <trkpt lat="52.346316939219832" lon="7.919263271614909">
        <ele>65.74609375</ele>
        <time>2026-04-27T08:46:17Z</time>
      </trkpt>
      <trkpt lat="52.346435710787773" lon="7.918924894183874">
        <ele>65.99609375</ele>
        <time>2026-04-27T08:46:21Z</time>
      </trkpt>
      <trkpt lat="52.346543502062559" lon="7.91858752258122">
        <ele>66.125</ele>
        <time>2026-04-27T08:46:25Z</time>
      </trkpt>
      <trkpt lat="52.346640480682254" lon="7.918246798217297">
        <ele>66.40234375</ele>
        <time>2026-04-27T08:46:29Z</time>
      </trkpt>
      <trkpt lat="52.346734022721648" lon="7.917895596474409">
        <ele>66.5703125</ele>
        <time>2026-04-27T08:46:33Z</time>
      </trkpt>
      <trkpt lat="52.346820691600442" lon="7.917562583461404">
        <ele>66.60546875</ele>
        <time>2026-04-27T08:46:37Z</time>
      </trkpt>
      <trkpt lat="52.346914988011122" lon="7.917223367840052">
        <ele>66.73828125</ele>
        <time>2026-04-27T08:46:41Z</time>
      </trkpt>
      <trkpt lat="52.347000651061535" lon="7.91687048971653">
        <ele>66.9765625</ele>
        <time>2026-04-27T08:46:45Z</time>
      </trkpt>
      <trkpt lat="52.347100898623466" lon="7.916532531380653">
        <ele>66.62890625</ele>
        <time>2026-04-27T08:46:49Z</time>
      </trkpt>
      <trkpt lat="52.347197290509939" lon="7.916207732632756">
        <ele>66.23828125</ele>
        <time>2026-04-27T08:46:53Z</time>
      </trkpt>
      <trkpt lat="52.347296196967363" lon="7.915861140936613">
        <ele>65.828125</ele>
        <time>2026-04-27T08:46:57Z</time>
      </trkpt>
      <trkpt lat="52.347385212779045" lon="7.915531815961003">
        <ele>65.50390625</ele>
        <time>2026-04-27T08:47:01Z</time>
      </trkpt>
      <trkpt lat="52.347491998225451" lon="7.915206346660852">
        <ele>65.2890625</ele>
        <time>2026-04-27T08:47:05Z</time>
      </trkpt>
      <trkpt lat="52.347587719559669" lon="7.914893114939332">
        <ele>65.16796875</ele>
        <time>2026-04-27T08:47:09Z</time>
      </trkpt>
      <trkpt lat="52.347691487520933" lon="7.914557419717312">
        <ele>65.1328125</ele>
        <time>2026-04-27T08:47:13Z</time>
      </trkpt>
      <trkpt lat="52.34779248945415" lon="7.914220802485943">
        <ele>65.15625</ele>
        <time>2026-04-27T08:47:17Z</time>
      </trkpt>
      <trkpt lat="52.347900867462158" lon="7.913909582421184">
        <ele>65.1171875</ele>
        <time>2026-04-27T08:47:21Z</time>
      </trkpt>
      <trkpt lat="52.348015112802386" lon="7.913593584671617">
        <ele>64.98046875</ele>
        <time>2026-04-27T08:47:25Z</time>
      </trkpt>
      <trkpt lat="52.348136398941278" lon="7.91325269266963">
        <ele>64.46484375</ele>
        <time>2026-04-27T08:47:29Z</time>
      </trkpt>
      <trkpt lat="52.348265647888184" lon="7.912914901971817">
        <ele>64.08984375</ele>
        <time>2026-04-27T08:47:33Z</time>
      </trkpt>
      <trkpt lat="52.348404200747609" lon="7.912580128759146">
        <ele>64.00390625</ele>
        <time>2026-04-27T08:47:37Z</time>
      </trkpt>
      <trkpt lat="52.348553398624063" lon="7.91228424757719">
        <ele>64.3984375</ele>
        <time>2026-04-27T08:47:41Z</time>
      </trkpt>
      <trkpt lat="52.348716678097844" lon="7.911992724984884">
        <ele>64.984375</ele>
        <time>2026-04-27T08:47:45Z</time>
      </trkpt>
      <trkpt lat="52.348860930651426" lon="7.911704974249005">
        <ele>65.4609375</ele>
        <time>2026-04-27T08:47:49Z</time>
      </trkpt>
      <trkpt lat="52.349009960889816" lon="7.911415044218302">
        <ele>65.5234375</ele>
        <time>2026-04-27T08:47:53Z</time>
      </trkpt>
      <trkpt lat="52.349155554547906" lon="7.911147326231003">
        <ele>65.203125</ele>
        <time>2026-04-27T08:47:57Z</time>
      </trkpt>
      <trkpt lat="52.349321180954576" lon="7.910856558009982">
        <ele>64.24609375</ele>
        <time>2026-04-27T08:48:01Z</time>
      </trkpt>
      <trkpt lat="52.349491249769926" lon="7.910557491704822">
        <ele>62.8125</ele>
        <time>2026-04-27T08:48:05Z</time>
      </trkpt>
      <trkpt lat="52.349656540900469" lon="7.910286840051413">
        <ele>61.51171875</ele>
        <time>2026-04-27T08:48:09Z</time>
      </trkpt>
      <trkpt lat="52.349810851737857" lon="7.910027503967285">
        <ele>60.17578125</ele>
        <time>2026-04-27T08:48:13Z</time>
      </trkpt>
      <trkpt lat="52.349976310506463" lon="7.909796750172973">
        <ele>58.77734375</ele>
        <time>2026-04-27T08:48:17Z</time>
      </trkpt>
      <trkpt lat="52.350141350179911" lon="7.909549316391349">
        <ele>57.4140625</ele>
        <time>2026-04-27T08:48:21Z</time>
      </trkpt>
      <trkpt lat="52.350304210558534" lon="7.90929676964879">
        <ele>56.21484375</ele>
        <time>2026-04-27T08:48:25Z</time>
      </trkpt>
      <trkpt lat="52.350458018481731" lon="7.909045564010739">
        <ele>55.38671875</ele>
        <time>2026-04-27T08:48:29Z</time>
      </trkpt>
      <trkpt lat="52.350609228014946" lon="7.908778348937631">
        <ele>54.63671875</ele>
        <time>2026-04-27T08:48:33Z</time>
      </trkpt>
      <trkpt lat="52.350765382871032" lon="7.908513229340315">
        <ele>54.1953125</ele>
        <time>2026-04-27T08:48:37Z</time>
      </trkpt>
      <trkpt lat="52.350915502756834" lon="7.908261772245169">
        <ele>54.56640625</ele>
        <time>2026-04-27T08:48:41Z</time>
      </trkpt>
      <trkpt lat="52.351077357307076" lon="7.907995395362377">
        <ele>54.83984375</ele>
        <time>2026-04-27T08:48:45Z</time>
      </trkpt>
      <trkpt lat="52.351245163008571" lon="7.907731030136347">
        <ele>54.98828125</ele>
        <time>2026-04-27T08:48:49Z</time>
      </trkpt>
      <trkpt lat="52.351406682282686" lon="7.907459959387779">
        <ele>55</ele>
        <time>2026-04-27T08:48:53Z</time>
      </trkpt>
      <trkpt lat="52.35156468115747" lon="7.907193163409829">
        <ele>55</ele>
        <time>2026-04-27T08:48:57Z</time>
      </trkpt>
      <trkpt lat="52.351722931489348" lon="7.906939443200827">
        <ele>55</ele>
        <time>2026-04-27T08:49:01Z</time>
      </trkpt>
      <trkpt lat="52.351882103830576" lon="7.906672563403845">
        <ele>54.88671875</ele>
        <time>2026-04-27T08:49:05Z</time>
      </trkpt>
      <trkpt lat="52.352038426324725" lon="7.90641532279551">
        <ele>54.625</ele>
        <time>2026-04-27T08:49:09Z</time>
      </trkpt>
      <trkpt lat="52.352188294753432" lon="7.906181970611215">
        <ele>54.27734375</ele>
        <time>2026-04-27T08:49:13Z</time>
      </trkpt>
      <trkpt lat="52.352343192324042" lon="7.905915677547455">
        <ele>54.01171875</ele>
        <time>2026-04-27T08:49:17Z</time>
      </trkpt>
      <trkpt lat="52.352496329694986" lon="7.905668830499053">
        <ele>54.11328125</ele>
        <time>2026-04-27T08:49:21Z</time>
      </trkpt>
      <trkpt lat="52.352656926959753" lon="7.90541117079556">
        <ele>54.33984375</ele>
        <time>2026-04-27T08:49:25Z</time>
      </trkpt>
      <trkpt lat="52.352813249453902" lon="7.905163317918778">
        <ele>54.6953125</ele>
        <time>2026-04-27T08:49:29Z</time>
      </trkpt>
      <trkpt lat="52.352959681302309" lon="7.904915381222963">
        <ele>55.41796875</ele>
        <time>2026-04-27T08:49:33Z</time>
      </trkpt>
      <trkpt lat="52.353114830330014" lon="7.904660068452358">
        <ele>56.2421875</ele>
        <time>2026-04-27T08:49:37Z</time>
      </trkpt>
      <trkpt lat="52.353271320462227" lon="7.904389416798949">
        <ele>56.703125</ele>
        <time>2026-04-27T08:49:41Z</time>
      </trkpt>
      <trkpt lat="52.353436695411801" lon="7.904119268059731">
        <ele>56.7109375</ele>
        <time>2026-04-27T08:49:45Z</time>
      </trkpt>
      <trkpt lat="52.353601818904281" lon="7.903855908662081">
        <ele>56.7578125</ele>
        <time>2026-04-27T08:49:49Z</time>
      </trkpt>
      <trkpt lat="52.353759985417128" lon="7.903591794893146">
        <ele>56.9296875</ele>
        <time>2026-04-27T08:49:53Z</time>
      </trkpt>
      <trkpt lat="52.353918151929975" lon="7.903337404131889">
        <ele>56.7890625</ele>
        <time>2026-04-27T08:49:57Z</time>
      </trkpt>
      <trkpt lat="52.354063410311937" lon="7.903081839904189">
        <ele>56.328125</ele>
        <time>2026-04-27T08:50:01Z</time>
      </trkpt>
      <trkpt lat="52.354226103052497" lon="7.902820743620396">
        <ele>56.05078125</ele>
        <time>2026-04-27T08:50:05Z</time>
      </trkpt>
      <trkpt lat="52.354387538507581" lon="7.902572136372328">
        <ele>56.07421875</ele>
        <time>2026-04-27T08:50:09Z</time>
      </trkpt>
      <trkpt lat="52.354547968134284" lon="7.902320427820087">
        <ele>56.32421875</ele>
        <time>2026-04-27T08:50:13Z</time>
      </trkpt>
      <trkpt lat="52.354704961180687" lon="7.902060756459832">
        <ele>56.6953125</ele>
        <time>2026-04-27T08:50:17Z</time>
      </trkpt>
      <trkpt lat="52.354842172935605" lon="7.901777448132634">
        <ele>56.9921875</ele>
        <time>2026-04-27T08:50:21Z</time>
      </trkpt>
      <trkpt lat="52.354974690824747" lon="7.901462204754353">
        <ele>57.5390625</ele>
        <time>2026-04-27T08:50:25Z</time>
      </trkpt>
      <trkpt lat="52.355101173743606" lon="7.901162719354034">
        <ele>57.94921875</ele>
        <time>2026-04-27T08:50:29Z</time>
      </trkpt>
      <trkpt lat="52.355226650834084" lon="7.900862395763397">
        <ele>58.3984375</ele>
        <time>2026-04-27T08:50:33Z</time>
      </trkpt>
      <trkpt lat="52.355341147631407" lon="7.900570454075933">
        <ele>59.26953125</ele>
        <time>2026-04-27T08:50:37Z</time>
      </trkpt>
      <trkpt lat="52.355468720197678" lon="7.90027566254139">
        <ele>60.53125</ele>
        <time>2026-04-27T08:50:41Z</time>
      </trkpt>
      <trkpt lat="52.355590676888824" lon="7.899995455518365">
        <ele>60.76953125</ele>
        <time>2026-04-27T08:50:45Z</time>
      </trkpt>
      <trkpt lat="52.355705508962274" lon="7.899703178554773">
        <ele>60.09375</ele>
        <time>2026-04-27T08:50:49Z</time>
      </trkpt>
      <trkpt lat="52.355836685746908" lon="7.899398496374488">
        <ele>59.21875</ele>
        <time>2026-04-27T08:50:53Z</time>
      </trkpt>
      <trkpt lat="52.35596233047545" lon="7.899109991267324">
        <ele>57.7421875</ele>
        <time>2026-04-27T08:50:57Z</time>
      </trkpt>
      <trkpt lat="52.356104319915175" lon="7.898838752880693">
        <ele>56.58984375</ele>
        <time>2026-04-27T08:51:01Z</time>
      </trkpt>
      <trkpt lat="52.356237340718508" lon="7.898582350462675">
        <ele>55.91015625</ele>
        <time>2026-04-27T08:51:05Z</time>
      </trkpt>
      <trkpt lat="52.356375139206648" lon="7.898309100419283">
        <ele>56.18359375</ele>
        <time>2026-04-27T08:51:09Z</time>
      </trkpt>
      <trkpt lat="52.356521068140864" lon="7.898036185652018">
        <ele>56.73046875</ele>
        <time>2026-04-27T08:51:13Z</time>
      </trkpt>
      <trkpt lat="52.356660543009639" lon="7.897733682766557">
        <ele>57.234375</ele>
        <time>2026-04-27T08:51:17Z</time>
      </trkpt>
      <trkpt lat="52.356795072555542" lon="7.897425815463066">
        <ele>57.4765625</ele>
        <time>2026-04-27T08:51:21Z</time>
      </trkpt>
      <trkpt lat="52.356910994276404" lon="7.897114008665085">
        <ele>57.47265625</ele>
        <time>2026-04-27T08:51:25Z</time>
      </trkpt>
      <trkpt lat="52.357007805258036" lon="7.896799938753247">
        <ele>57.46484375</ele>
        <time>2026-04-27T08:51:29Z</time>
      </trkpt>
      <trkpt lat="52.357100090011954" lon="7.89647807367146">
        <ele>58.1953125</ele>
        <time>2026-04-27T08:51:33Z</time>
      </trkpt>
      <trkpt lat="52.357147363945842" lon="7.896135840564966">
        <ele>58.9921875</ele>
        <time>2026-04-27T08:51:37Z</time>
      </trkpt>
      <trkpt lat="52.357172928750515" lon="7.895779274404049">
        <ele>61.10546875</ele>
        <time>2026-04-27T08:51:41Z</time>
      </trkpt>
      <trkpt lat="52.357227830216289" lon="7.895453218370676">
        <ele>63.31640625</ele>
        <time>2026-04-27T08:51:45Z</time>
      </trkpt>
      <trkpt lat="52.357360180467367" lon="7.895152643322945">
        <ele>64.17578125</ele>
        <time>2026-04-27T08:51:49Z</time>
      </trkpt>
      <trkpt lat="52.357529243454337" lon="7.894904287531972">
        <ele>63.046875</ele>
        <time>2026-04-27T08:51:53Z</time>
      </trkpt>
      <trkpt lat="52.35771750099957" lon="7.894683927297592">
        <ele>61.546875</ele>
        <time>2026-04-27T08:51:57Z</time>
      </trkpt>
      <trkpt lat="52.357884971424937" lon="7.894467422738671">
        <ele>60.140625</ele>
        <time>2026-04-27T08:52:01Z</time>
      </trkpt>
      <trkpt lat="52.358071887865663" lon="7.894229711964726">
        <ele>58.2890625</ele>
        <time>2026-04-27T08:52:05Z</time>
      </trkpt>
      <trkpt lat="52.358244219794869" lon="7.893991749733686">
        <ele>57.9765625</ele>
        <time>2026-04-27T08:52:09Z</time>
      </trkpt>
      <trkpt lat="52.358399368822575" lon="7.89375345222652">
        <ele>58.16015625</ele>
        <time>2026-04-27T08:52:13Z</time>
      </trkpt>
      <trkpt lat="52.358553595840931" lon="7.893492355942726">
        <ele>58.60546875</ele>
        <time>2026-04-27T08:52:17Z</time>
      </trkpt>
      <trkpt lat="52.358702290803194" lon="7.893221536651254">
        <ele>59.3515625</ele>
        <time>2026-04-27T08:52:21Z</time>
      </trkpt>
      <trkpt lat="52.358845872804523" lon="7.892960608005524">
        <ele>60.1796875</ele>
        <time>2026-04-27T08:52:25Z</time>
      </trkpt>
      <trkpt lat="52.358991550281644" lon="7.892687190324068">
        <ele>60.99609375</ele>
        <time>2026-04-27T08:52:29Z</time>
      </trkpt>
      <trkpt lat="52.359136389568448" lon="7.892416035756469">
        <ele>60.58984375</ele>
        <time>2026-04-27T08:52:33Z</time>
      </trkpt>
      <trkpt lat="52.359276451170444" lon="7.892147228121758">
        <ele>60.078125</ele>
        <time>2026-04-27T08:52:37Z</time>
      </trkpt>
      <trkpt lat="52.359403101727366" lon="7.891899039968848">
        <ele>59.51171875</ele>
        <time>2026-04-27T08:52:41Z</time>
      </trkpt>
      <trkpt lat="52.359557328745723" lon="7.891606176272035">
        <ele>58.4921875</ele>
        <time>2026-04-27T08:52:47Z</time>
      </trkpt>
      <trkpt lat="52.359428834170103" lon="7.891291603446007">
        <ele>57.91015625</ele>
        <time>2026-04-27T08:52:53Z</time>
      </trkpt>
      <trkpt lat="52.359313080087304" lon="7.891025142744184">
        <ele>57.625</ele>
        <time>2026-04-27T08:52:57Z</time>
      </trkpt>
      <trkpt lat="52.359191374853253" lon="7.890749545767903">
        <ele>57.8359375</ele>
        <time>2026-04-27T08:53:01Z</time>
      </trkpt>
      <trkpt lat="52.359056090936065" lon="7.890480905771256">
        <ele>57.99609375</ele>
        <time>2026-04-27T08:53:05Z</time>
      </trkpt>
      <trkpt lat="52.358931200578809" lon="7.890189550817013">
        <ele>58</ele>
        <time>2026-04-27T08:53:09Z</time>
      </trkpt>
      <trkpt lat="52.358842687681317" lon="7.889868691563606">
        <ele>57.89453125</ele>
        <time>2026-04-27T08:53:13Z</time>
      </trkpt>
      <trkpt lat="52.358740260824561" lon="7.889549089595676">
        <ele>57.76953125</ele>
        <time>2026-04-27T08:53:17Z</time>
      </trkpt>
      <trkpt lat="52.35863221809268" lon="7.889226470142603">
        <ele>57.5390625</ele>
        <time>2026-04-27T08:53:21Z</time>
      </trkpt>
      <trkpt lat="52.358551248908043" lon="7.888933354988694">
        <ele>57.265625</ele>
        <time>2026-04-27T08:53:25Z</time>
      </trkpt>
      <trkpt lat="52.358517721295357" lon="7.888641245663166">
        <ele>57.0703125</ele>
        <time>2026-04-27T08:53:33Z</time>
      </trkpt>
      <trkpt lat="52.358713438734412" lon="7.888533873483539">
        <ele>57.0078125</ele>
        <time>2026-04-27T08:53:43Z</time>
      </trkpt>
      <trkpt lat="52.359002279117703" lon="7.888509482145309">
        <ele>57.02734375</ele>
        <time>2026-04-27T08:53:49Z</time>
      </trkpt>
      <trkpt lat="52.359243091195822" lon="7.888521803542972">
        <ele>57.359375</ele>
        <time>2026-04-27T08:53:53Z</time>
      </trkpt>
      <trkpt lat="52.35949857160449" lon="7.888542087748647">
        <ele>57.66015625</ele>
        <time>2026-04-27T08:53:57Z</time>
      </trkpt>
      <trkpt lat="52.359745167195797" lon="7.888529431074858">
        <ele>57.97265625</ele>
        <time>2026-04-27T08:54:01Z</time>
      </trkpt>
      <trkpt lat="52.359975166618824" lon="7.888514678925276">
        <ele>57.484375</ele>
        <time>2026-04-27T08:54:05Z</time>
      </trkpt>
      <trkpt lat="52.360197454690933" lon="7.888480983674526">
        <ele>56.93359375</ele>
        <time>2026-04-27T08:54:09Z</time>
      </trkpt>
      <trkpt lat="52.360405493527651" lon="7.888443935662508">
        <ele>56.4375</ele>
        <time>2026-04-27T08:54:13Z</time>
      </trkpt>
      <trkpt lat="52.360634570941329" lon="7.888428680598736">
        <ele>55.9609375</ele>
        <time>2026-04-27T08:54:17Z</time>
      </trkpt>
      <trkpt lat="52.360838251188397" lon="7.888370342552662">
        <ele>55.765625</ele>
        <time>2026-04-27T08:54:21Z</time>
      </trkpt>
      <trkpt lat="52.360999351367354" lon="7.888147300109267">
        <ele>55.73828125</ele>
        <time>2026-04-27T08:54:25Z</time>
      </trkpt>
      <trkpt lat="52.361145950853825" lon="7.887881677597761">
        <ele>55.8515625</ele>
        <time>2026-04-27T08:54:29Z</time>
      </trkpt>
      <trkpt lat="52.361282156780362" lon="7.887600548565388">
        <ele>56.203125</ele>
        <time>2026-04-27T08:54:33Z</time>
      </trkpt>
      <trkpt lat="52.361415009945631" lon="7.887319168075919">
        <ele>56.890625</ele>
        <time>2026-04-27T08:54:37Z</time>
      </trkpt>
      <trkpt lat="52.361546857282519" lon="7.887038122862577">
        <ele>57.2421875</ele>
        <time>2026-04-27T08:54:41Z</time>
      </trkpt>
      <trkpt lat="52.361681638285518" lon="7.886762022972107">
        <ele>57.046875</ele>
        <time>2026-04-27T08:54:45Z</time>
      </trkpt>
      <trkpt lat="52.361812395974994" lon="7.886494975537062">
        <ele>56.5859375</ele>
        <time>2026-04-27T08:54:49Z</time>
      </trkpt>
      <trkpt lat="52.361936112865806" lon="7.886188952252269">
        <ele>56.3515625</ele>
        <time>2026-04-27T08:54:53Z</time>
      </trkpt>
      <trkpt lat="52.36193586140871" lon="7.885820399969816">
        <ele>56.75</ele>
        <time>2026-04-27T08:54:57Z</time>
      </trkpt>
      <trkpt lat="52.361914152279496" lon="7.885473724454641">
        <ele>57.30078125</ele>
        <time>2026-04-27T08:55:01Z</time>
      </trkpt>
      <trkpt lat="52.361896215006709" lon="7.885135933756828">
        <ele>57.79296875</ele>
        <time>2026-04-27T08:55:05Z</time>
      </trkpt>
      <trkpt lat="52.36187526024878" lon="7.884799316525459">
        <ele>58.3359375</ele>
        <time>2026-04-27T08:55:09Z</time>
      </trkpt>
      <trkpt lat="52.361838379874825" lon="7.884492790326476">
        <ele>58.73046875</ele>
        <time>2026-04-27T08:55:13Z</time>
      </trkpt>
      <trkpt lat="52.361774845048785" lon="7.884209230542183">
        <ele>59.02734375</ele>
        <time>2026-04-27T08:55:17Z</time>
      </trkpt>
      <trkpt lat="52.361705945804715" lon="7.883895160630345">
        <ele>59.44921875</ele>
        <time>2026-04-27T08:55:21Z</time>
      </trkpt>
      <trkpt lat="52.361629921942949" lon="7.883536079898477">
        <ele>59.9453125</ele>
        <time>2026-04-27T08:55:25Z</time>
      </trkpt>
      <trkpt lat="52.361506288871169" lon="7.883173562586308">
        <ele>59.015625</ele>
        <time>2026-04-27T08:55:29Z</time>
      </trkpt>
      <trkpt lat="52.361345021054149" lon="7.882869048044086">
        <ele>57.859375</ele>
        <time>2026-04-27T08:55:33Z</time>
      </trkpt>
      <trkpt lat="52.361193560063839" lon="7.882569897919893">
        <ele>56.9296875</ele>
        <time>2026-04-27T08:55:37Z</time>
      </trkpt>
      <trkpt lat="52.361100940033793" lon="7.882194891571999">
        <ele>56.0859375</ele>
        <time>2026-04-27T08:55:41Z</time>
      </trkpt>
      <trkpt lat="52.361031202599406" lon="7.881806557998061">
        <ele>55.5859375</ele>
        <time>2026-04-27T08:55:45Z</time>
      </trkpt>
      <trkpt lat="52.360953502357006" lon="7.881426522508264">
        <ele>56.03125</ele>
        <time>2026-04-27T08:55:49Z</time>
      </trkpt>
      <trkpt lat="52.360806902870536" lon="7.881145561113954">
        <ele>56.54296875</ele>
        <time>2026-04-27T08:55:53Z</time>
      </trkpt>
      <trkpt lat="52.360746385529637" lon="7.880841800943017">
        <ele>56.90234375</ele>
        <time>2026-04-27T08:55:57Z</time>
      </trkpt>
      <trkpt lat="52.360945120453835" lon="7.880730992183089">
        <ele>56.8828125</ele>
        <time>2026-04-27T08:56:01Z</time>
      </trkpt>
      <trkpt lat="52.361143101006746" lon="7.880611047148705">
        <ele>57.0078125</ele>
        <time>2026-04-27T08:56:05Z</time>
      </trkpt>
      <trkpt lat="52.361406041309237" lon="7.88048816844821">
        <ele>57.296875</ele>
        <time>2026-04-27T08:56:10Z</time>
      </trkpt>
      <trkpt lat="52.361607206985354" lon="7.880378197878599">
        <ele>57.44921875</ele>
        <time>2026-04-27T08:56:14Z</time>
      </trkpt>
      <trkpt lat="52.361802337691188" lon="7.880208045244217">
        <ele>57.5390625</ele>
        <time>2026-04-27T08:56:18Z</time>
      </trkpt>
      <trkpt lat="52.361987410113215" lon="7.880002185702324">
        <ele>57.48828125</ele>
        <time>2026-04-27T08:56:22Z</time>
      </trkpt>
      <trkpt lat="52.3621522821486" lon="7.879787441343069">
        <ele>57.5625</ele>
        <time>2026-04-27T08:56:26Z</time>
      </trkpt>
      <trkpt lat="52.362321931868792" lon="7.879611421376467">
        <ele>57.74609375</ele>
        <time>2026-04-27T08:56:30Z</time>
      </trkpt>
      <trkpt lat="52.362510608509183" lon="7.879443867132068">
        <ele>57.9609375</ele>
        <time>2026-04-27T08:56:34Z</time>
      </trkpt>
      <trkpt lat="52.362709762528539" lon="7.879297602921724">
        <ele>57.8359375</ele>
        <time>2026-04-27T08:56:38Z</time>
      </trkpt>
      <trkpt lat="52.362905479967594" lon="7.879191404208541">
        <ele>57.58203125</ele>
        <time>2026-04-27T08:56:42Z</time>
      </trkpt>
      <trkpt lat="52.363105639815331" lon="7.879101969301701">
        <ele>57.40234375</ele>
        <time>2026-04-27T08:56:46Z</time>
      </trkpt>
      <trkpt lat="52.36331325955689" lon="7.879012702032924">
        <ele>57.9375</ele>
        <time>2026-04-27T08:56:50Z</time>
      </trkpt>
      <trkpt lat="52.363505121320486" lon="7.878943048417568">
        <ele>58.4609375</ele>
        <time>2026-04-27T08:56:54Z</time>
      </trkpt>
      <trkpt lat="52.363703856244683" lon="7.87887959741056">
        <ele>59.0234375</ele>
        <time>2026-04-27T08:56:58Z</time>
      </trkpt>
      <trkpt lat="52.363890018314123" lon="7.878822013735771">
        <ele>59.5546875</ele>
        <time>2026-04-27T08:57:02Z</time>
      </trkpt>
      <trkpt lat="52.364159245043993" lon="7.878729812800884">
        <ele>60.02734375</ele>
        <time>2026-04-27T08:57:08Z</time>
      </trkpt>
      <trkpt lat="52.364363092929125" lon="7.878692261874676">
        <ele>60.42578125</ele>
        <time>2026-04-27T08:57:12Z</time>
      </trkpt>
      <trkpt lat="52.364550931379199" lon="7.878661416471005">
        <ele>60.8046875</ele>
        <time>2026-04-27T08:57:16Z</time>
      </trkpt>
      <trkpt lat="52.36473374068737" lon="7.878631576895714">
        <ele>61.171875</ele>
        <time>2026-04-27T08:57:20Z</time>
      </trkpt>
      <trkpt lat="52.364992741495371" lon="7.878592098131776">
        <ele>61.69921875</ele>
        <time>2026-04-27T08:57:26Z</time>
      </trkpt>
      <trkpt lat="52.365239337086678" lon="7.878486989066005">
        <ele>61.95703125</ele>
        <time>2026-04-27T08:57:32Z</time>
      </trkpt>
      <trkpt lat="52.365456931293011" lon="7.878272999078035">
        <ele>61.68359375</ele>
        <time>2026-04-27T08:57:38Z</time>
      </trkpt>
      <trkpt lat="52.365672681480646" lon="7.878048028796911">
        <ele>61.49609375</ele>
        <time>2026-04-27T08:57:44Z</time>
      </trkpt>
      <trkpt lat="52.3658253159374" lon="7.877885000780225">
        <ele>61.4375</ele>
        <time>2026-04-27T08:57:48Z</time>
      </trkpt>
      <trkpt lat="52.365968562662601" lon="7.877694312483072">
        <ele>61.33203125</ele>
        <time>2026-04-27T08:57:52Z</time>
      </trkpt>
      <trkpt lat="52.366126561537385" lon="7.877539079636335">
        <ele>61.4609375</ele>
        <time>2026-04-27T08:57:56Z</time>
      </trkpt>
      <trkpt lat="52.366301324218512" lon="7.877444867044687">
        <ele>61.88671875</ele>
        <time>2026-04-27T08:58:00Z</time>
      </trkpt>
      <trkpt lat="52.366484217345715" lon="7.877479484304786">
        <ele>62.625</ele>
        <time>2026-04-27T08:58:04Z</time>
      </trkpt>
      <trkpt lat="52.366709941998124" lon="7.87754469551146">
        <ele>63.37109375</ele>
        <time>2026-04-27T08:58:10Z</time>
      </trkpt>
      <trkpt lat="52.366952178999782" lon="7.877524495124817">
        <ele>63.97265625</ele>
        <time>2026-04-27T08:58:16Z</time>
      </trkpt>
      <trkpt lat="52.367176311090589" lon="7.877444950863719">
        <ele>64.4609375</ele>
        <time>2026-04-27T08:58:22Z</time>
      </trkpt>
      <trkpt lat="52.367398431524634" lon="7.877348391339183">
        <ele>64.55078125</ele>
        <time>2026-04-27T08:58:28Z</time>
      </trkpt>
      <trkpt lat="52.367628598585725" lon="7.877236325293779">
        <ele>64.4921875</ele>
        <time>2026-04-27T08:58:34Z</time>
      </trkpt>
      <trkpt lat="52.367872092872858" lon="7.877118308097124">
        <ele>64.59375</ele>
        <time>2026-04-27T08:58:40Z</time>
      </trkpt>
      <trkpt lat="52.368116760626435" lon="7.876987718045712">
        <ele>64.76953125</ele>
        <time>2026-04-27T08:58:46Z</time>
      </trkpt>
      <trkpt lat="52.368287080898881" lon="7.876869952306151">
        <ele>64.296875</ele>
        <time>2026-04-27T08:58:50Z</time>
      </trkpt>
      <trkpt lat="52.368425214663148" lon="7.876644060015678">
        <ele>63.640625</ele>
        <time>2026-04-27T08:58:54Z</time>
      </trkpt>
      <trkpt lat="52.368536610156298" lon="7.876393189653754">
        <ele>63.1328125</ele>
        <time>2026-04-27T08:58:58Z</time>
      </trkpt>
      <trkpt lat="52.368635181337595" lon="7.876139720901847">
        <ele>62.7421875</ele>
        <time>2026-04-27T08:59:02Z</time>
      </trkpt>
      <trkpt lat="52.368742888793349" lon="7.875863453373313">
        <ele>62.7578125</ele>
        <time>2026-04-27T08:59:06Z</time>
      </trkpt>
      <trkpt lat="52.368837939575315" lon="7.875590538606048">
        <ele>63.1640625</ele>
        <time>2026-04-27T08:59:10Z</time>
      </trkpt>
      <trkpt lat="52.368940450251102" lon="7.875333214178681">
        <ele>63.73828125</ele>
        <time>2026-04-27T08:59:14Z</time>
      </trkpt>
      <trkpt lat="52.369043380022049" lon="7.875055018812418">
        <ele>64.22265625</ele>
        <time>2026-04-27T08:59:18Z</time>
      </trkpt>
      <trkpt lat="52.369164163246751" lon="7.874771459028125">
        <ele>64.1953125</ele>
        <time>2026-04-27T08:59:22Z</time>
      </trkpt>
      <trkpt lat="52.36927991732955" lon="7.874474572017789">
        <ele>64.03125</ele>
        <time>2026-04-27T08:59:26Z</time>
      </trkpt>
      <trkpt lat="52.369407992810011" lon="7.874172320589423">
        <ele>63.75</ele>
        <time>2026-04-27T08:59:30Z</time>
      </trkpt>
      <trkpt lat="52.369522154331207" lon="7.873870152980089">
        <ele>63.14453125</ele>
        <time>2026-04-27T08:59:34Z</time>
      </trkpt>
      <trkpt lat="52.369638746604323" lon="7.873572679236531">
        <ele>62.2578125</ele>
        <time>2026-04-27T08:59:38Z</time>
      </trkpt>
      <trkpt lat="52.369788782671094" lon="7.873189877718687">
        <ele>62.0625</ele>
        <time>2026-04-27T08:59:43Z</time>
      </trkpt>
      <trkpt lat="52.369911409914494" lon="7.872867258265615">
        <ele>62.109375</ele>
        <time>2026-04-27T08:59:47Z</time>
      </trkpt>
      <trkpt lat="52.370036300271749" lon="7.872551092877984">
        <ele>62.0625</ele>
        <time>2026-04-27T08:59:51Z</time>
      </trkpt>
      <trkpt lat="52.370163621380925" lon="7.872240040451288">
        <ele>62.015625</ele>
        <time>2026-04-27T08:59:55Z</time>
      </trkpt>
      <trkpt lat="52.370281890034676" lon="7.871935022994876">
        <ele>61.76171875</ele>
        <time>2026-04-27T08:59:59Z</time>
      </trkpt>
      <trkpt lat="52.370407618582249" lon="7.871622545644641">
        <ele>61.8671875</ele>
        <time>2026-04-27T09:00:03Z</time>
      </trkpt>
      <trkpt lat="52.370534101501107" lon="7.871318282559514">
        <ele>61.890625</ele>
        <time>2026-04-27T09:00:07Z</time>
      </trkpt>
      <trkpt lat="52.37066175788641" lon="7.871009074151516">
        <ele>62.23046875</ele>
        <time>2026-04-27T09:00:11Z</time>
      </trkpt>
      <trkpt lat="52.370781535282731" lon="7.87068285048008">
        <ele>63.015625</ele>
        <time>2026-04-27T09:00:15Z</time>
      </trkpt>
      <trkpt lat="52.370904581621289" lon="7.870375318452716">
        <ele>63.4453125</ele>
        <time>2026-04-27T09:00:19Z</time>
      </trkpt>
      <trkpt lat="52.371030058711767" lon="7.870080275461078">
        <ele>63.54296875</ele>
        <time>2026-04-27T09:00:23Z</time>
      </trkpt>
      <trkpt lat="52.371150171384215" lon="7.869780119508505">
        <ele>63.49609375</ele>
        <time>2026-04-27T09:00:27Z</time>
      </trkpt>
      <trkpt lat="52.371265841647983" lon="7.869480634108186">
        <ele>63.35546875</ele>
        <time>2026-04-27T09:00:31Z</time>
      </trkpt>
      <trkpt lat="52.371390899643302" lon="7.86916078068316">
        <ele>63.3515625</ele>
        <time>2026-04-27T09:00:35Z</time>
      </trkpt>
      <trkpt lat="52.371512604877353" lon="7.868817625567317">
        <ele>63.23828125</ele>
        <time>2026-04-27T09:00:39Z</time>
      </trkpt>
      <trkpt lat="52.371652415022254" lon="7.868472039699554">
        <ele>62.60546875</ele>
        <time>2026-04-27T09:00:43Z</time>
      </trkpt>
      <trkpt lat="52.371807061135769" lon="7.868106421083212">
        <ele>61.4609375</ele>
        <time>2026-04-27T09:00:47Z</time>
      </trkpt>
      <trkpt lat="52.371966317296028" lon="7.86773594096303">
        <ele>60.11328125</ele>
        <time>2026-04-27T09:00:51Z</time>
      </trkpt>
      <trkpt lat="52.372118700295687" lon="7.86734945140779">
        <ele>60.13671875</ele>
        <time>2026-04-27T09:00:55Z</time>
      </trkpt>
      <trkpt lat="52.372287679463625" lon="7.867010068148375">
        <ele>60.4453125</ele>
        <time>2026-04-27T09:00:59Z</time>
      </trkpt>
      <trkpt lat="52.37247359007597" lon="7.866690214723349">
        <ele>60.91015625</ele>
        <time>2026-04-27T09:01:03Z</time>
      </trkpt>
      <trkpt lat="52.372658075764775" lon="7.866409085690975">
        <ele>60.6328125</ele>
        <time>2026-04-27T09:01:07Z</time>
      </trkpt>
      <trkpt lat="52.37285572104156" lon="7.866136422380805">
        <ele>59.671875</ele>
        <time>2026-04-27T09:01:11Z</time>
      </trkpt>
      <trkpt lat="52.37306828610599" lon="7.865872392430902">
        <ele>58.140625</ele>
        <time>2026-04-27T09:01:15Z</time>
      </trkpt>
      <trkpt lat="52.373254112899303" lon="7.865678267553449">
        <ele>57.578125</ele>
        <time>2026-04-27T09:01:19Z</time>
      </trkpt>
      <trkpt lat="52.373419823125005" lon="7.86550241522491">
        <ele>57.32421875</ele>
        <time>2026-04-27T09:01:23Z</time>
      </trkpt>
      <trkpt lat="52.373576648533344" lon="7.865309631451964">
        <ele>57.2734375</ele>
        <time>2026-04-27T09:01:27Z</time>
      </trkpt>
      <trkpt lat="52.373750908300281" lon="7.865113662555814">
        <ele>57.58984375</ele>
        <time>2026-04-27T09:01:31Z</time>
      </trkpt>
      <trkpt lat="52.373942267149687" lon="7.864912999793887">
        <ele>58.375</ele>
        <time>2026-04-27T09:01:35Z</time>
      </trkpt>
      <trkpt lat="52.374163800850511" lon="7.864727843552828">
        <ele>58.6796875</ele>
        <time>2026-04-27T09:01:39Z</time>
      </trkpt>
      <trkpt lat="52.374400589615107" lon="7.864530449733138">
        <ele>58.74609375</ele>
        <time>2026-04-27T09:01:43Z</time>
      </trkpt>
      <trkpt lat="52.374607371166348" lon="7.86433020606637">
        <ele>58.640625</ele>
        <time>2026-04-27T09:01:47Z</time>
      </trkpt>
      <trkpt lat="52.374799065291882" lon="7.864127866923809">
        <ele>58.61328125</ele>
        <time>2026-04-27T09:01:51Z</time>
      </trkpt>
      <trkpt lat="52.374979108572006" lon="7.863922091200948">
        <ele>59.0625</ele>
        <time>2026-04-27T09:01:55Z</time>
      </trkpt>
      <trkpt lat="52.375157810747623" lon="7.863751016557217">
        <ele>59.2578125</ele>
        <time>2026-04-27T09:01:59Z</time>
      </trkpt>
      <trkpt lat="52.375338273122907" lon="7.863563597202301">
        <ele>59.28515625</ele>
        <time>2026-04-27T09:02:03Z</time>
      </trkpt>
      <trkpt lat="52.375516137108207" lon="7.863363772630692">
        <ele>59.30078125</ele>
        <time>2026-04-27T09:02:07Z</time>
      </trkpt>
      <trkpt lat="52.375680590048432" lon="7.86318825557828">
        <ele>59.50390625</ele>
        <time>2026-04-27T09:02:11Z</time>
      </trkpt>
      <trkpt lat="52.375851580873132" lon="7.863005865365267">
        <ele>59.6640625</ele>
        <time>2026-04-27T09:02:15Z</time>
      </trkpt>
      <trkpt lat="52.376040341332555" lon="7.862841496244073">
        <ele>59.55859375</ele>
        <time>2026-04-27T09:02:19Z</time>
      </trkpt>
      <trkpt lat="52.376259444281459" lon="7.862691543996334">
        <ele>59.1328125</ele>
        <time>2026-04-27T09:02:23Z</time>
      </trkpt>
      <trkpt lat="52.376458598300815" lon="7.862537987530232">
        <ele>58.390625</ele>
        <time>2026-04-27T09:02:27Z</time>
      </trkpt>
      <trkpt lat="52.376658171415329" lon="7.862402033060789">
        <ele>58</ele>
        <time>2026-04-27T09:02:31Z</time>
      </trkpt>
      <trkpt lat="52.376856738701463" lon="7.862252416089177">
        <ele>57.640625</ele>
        <time>2026-04-27T09:02:35Z</time>
      </trkpt>
      <trkpt lat="52.377054048702121" lon="7.862111432477832">
        <ele>57.390625</ele>
        <time>2026-04-27T09:02:39Z</time>
      </trkpt>
      <trkpt lat="52.377245156094432" lon="7.861979501321912">
        <ele>57.23828125</ele>
        <time>2026-04-27T09:02:43Z</time>
      </trkpt>
      <trkpt lat="52.377434922382236" lon="7.861850755289197">
        <ele>56.71875</ele>
        <time>2026-04-27T09:02:47Z</time>
      </trkpt>
      <trkpt lat="52.377589987590909" lon="7.861695606261492">
        <ele>56.16015625</ele>
        <time>2026-04-27T09:02:51Z</time>
      </trkpt>
      <trkpt lat="52.377777490764856" lon="7.861560238525271">
        <ele>55.61328125</ele>
        <time>2026-04-27T09:02:57Z</time>
      </trkpt>
      <trkpt lat="52.377976644784212" lon="7.861437276005745">
        <ele>55.078125</ele>
        <time>2026-04-27T09:05:07Z</time>
      </trkpt>
      <trkpt lat="52.37817294895649" lon="7.861291682347655">
        <ele>54.53515625</ele>
        <time>2026-04-27T09:05:13Z</time>
      </trkpt>
      <trkpt lat="52.378398170694709" lon="7.861120188608766">
        <ele>54.11328125</ele>
        <time>2026-04-27T09:05:19Z</time>
      </trkpt>
      <trkpt lat="52.378634121268988" lon="7.860936038196087">
        <ele>54.0859375</ele>
        <time>2026-04-27T09:05:25Z</time>
      </trkpt>
      <trkpt lat="52.378881052136421" lon="7.860747613012791">
        <ele>54.33984375</ele>
        <time>2026-04-27T09:05:31Z</time>
      </trkpt>
      <trkpt lat="52.379059167578816" lon="7.860623896121979">
        <ele>54.50390625</ele>
        <time>2026-04-27T09:05:35Z</time>
      </trkpt>
      <trkpt lat="52.379225129261613" lon="7.860486349090934">
        <ele>54.66796875</ele>
        <time>2026-04-27T09:05:39Z</time>
      </trkpt>
      <trkpt lat="52.379389414563775" lon="7.860366487875581">
        <ele>54.8125</ele>
        <time>2026-04-27T09:05:43Z</time>
      </trkpt>
      <trkpt lat="52.379560740664601" lon="7.860240675508976">
        <ele>54.96484375</ele>
        <time>2026-04-27T09:05:47Z</time>
      </trkpt>
      <trkpt lat="52.379735335707664" lon="7.860109163448215">
        <ele>55.24609375</ele>
        <time>2026-04-27T09:05:51Z</time>
      </trkpt>
      <trkpt lat="52.379919989034534" lon="7.859964994713664">
        <ele>55.328125</ele>
        <time>2026-04-27T09:05:55Z</time>
      </trkpt>
      <trkpt lat="52.380101457238197" lon="7.859846642240882">
        <ele>55.2734375</ele>
        <time>2026-04-27T09:05:59Z</time>
      </trkpt>
      <trkpt lat="52.380285272374749" lon="7.859694762155414">
        <ele>55.203125</ele>
        <time>2026-04-27T09:06:03Z</time>
      </trkpt>
      <trkpt lat="52.380476631224155" lon="7.859558807685971">
        <ele>55.015625</ele>
        <time>2026-04-27T09:06:07Z</time>
      </trkpt>
      <trkpt lat="52.380667151883245" lon="7.859424948692322">
        <ele>55.13671875</ele>
        <time>2026-04-27T09:06:11Z</time>
      </trkpt>
      <trkpt lat="52.380840573459864" lon="7.859295615926385">
        <ele>55.78125</ele>
        <time>2026-04-27T09:06:15Z</time>
      </trkpt>
      <trkpt lat="52.381025897338986" lon="7.859151111915708">
        <ele>56.4609375</ele>
        <time>2026-04-27T09:06:19Z</time>
      </trkpt>
      <trkpt lat="52.381200911477208" lon="7.859025970101357">
        <ele>57.01171875</ele>
        <time>2026-04-27T09:06:23Z</time>
      </trkpt>
      <trkpt lat="52.381376679986715" lon="7.858895799145103">
        <ele>57.5078125</ele>
        <time>2026-04-27T09:06:27Z</time>
      </trkpt>
      <trkpt lat="52.381556387990713" lon="7.858772585168481">
        <ele>58.30078125</ele>
        <time>2026-04-27T09:06:31Z</time>
      </trkpt>
      <trkpt lat="52.381741460412741" lon="7.858624644577503">
        <ele>59.38671875</ele>
        <time>2026-04-27T09:06:35Z</time>
      </trkpt>
      <trkpt lat="52.381924772635102" lon="7.858484080061317">
        <ele>60.46484375</ele>
        <time>2026-04-27T09:06:39Z</time>
      </trkpt>
      <trkpt lat="52.382101798430085" lon="7.858353657647967">
        <ele>61.328125</ele>
        <time>2026-04-27T09:06:43Z</time>
      </trkpt>
      <trkpt lat="52.382281003519893" lon="7.858214266598225">
        <ele>62</ele>
        <time>2026-04-27T09:06:47Z</time>
      </trkpt>
      <trkpt lat="52.382460460066795" lon="7.858078563585877">
        <ele>62</ele>
        <time>2026-04-27T09:06:51Z</time>
      </trkpt>
      <trkpt lat="52.382642095908523" lon="7.857929784804583">
        <ele>62</ele>
        <time>2026-04-27T09:06:55Z</time>
      </trkpt>
      <trkpt lat="52.38280369900167" lon="7.857783017680049">
        <ele>62</ele>
        <time>2026-04-27T09:06:59Z</time>
      </trkpt>
      <trkpt lat="52.382974941283464" lon="7.857629964128137">
        <ele>61.90234375</ele>
        <time>2026-04-27T09:07:03Z</time>
      </trkpt>
      <trkpt lat="52.383144171908498" lon="7.857520747929812">
        <ele>61.78515625</ele>
        <time>2026-04-27T09:07:07Z</time>
      </trkpt>
      <trkpt lat="52.383315498009324" lon="7.857395354658365">
        <ele>61.7265625</ele>
        <time>2026-04-27T09:07:11Z</time>
      </trkpt>
      <trkpt lat="52.383502079173923" lon="7.857255544513464">
        <ele>61.7265625</ele>
        <time>2026-04-27T09:07:15Z</time>
      </trkpt>
      <trkpt lat="52.383682290092111" lon="7.85710534080863">
        <ele>61.796875</ele>
        <time>2026-04-27T09:07:19Z</time>
      </trkpt>
      <trkpt lat="52.383885886520147" lon="7.856970140710473">
        <ele>61.96875</ele>
        <time>2026-04-27T09:07:23Z</time>
      </trkpt>
      <trkpt lat="52.384083028882742" lon="7.856832090765238">
        <ele>61.765625</ele>
        <time>2026-04-27T09:07:27Z</time>
      </trkpt>
      <trkpt lat="52.384275728836656" lon="7.856709631159902">
        <ele>61.5390625</ele>
        <time>2026-04-27T09:07:31Z</time>
      </trkpt>
      <trkpt lat="52.384477145969868" lon="7.856631595641375">
        <ele>61.4296875</ele>
        <time>2026-04-27T09:07:35Z</time>
      </trkpt>
      <trkpt lat="52.384675294160843" lon="7.856578873470426">
        <ele>61.38671875</ele>
        <time>2026-04-27T09:07:39Z</time>
      </trkpt>
      <trkpt lat="52.384884674102068" lon="7.856537802144885">
        <ele>61.3125</ele>
        <time>2026-04-27T09:07:43Z</time>
      </trkpt>
      <trkpt lat="52.385081397369504" lon="7.85648918710649">
        <ele>61.2578125</ele>
        <time>2026-04-27T09:07:47Z</time>
      </trkpt>
      <trkpt lat="52.385282646864653" lon="7.856447948142886">
        <ele>61.2109375</ele>
        <time>2026-04-27T09:07:51Z</time>
      </trkpt>
      <trkpt lat="52.385492781177163" lon="7.856384916231036">
        <ele>61.23046875</ele>
        <time>2026-04-27T09:07:55Z</time>
      </trkpt>
      <trkpt lat="52.385699059814215" lon="7.856288105249405">
        <ele>61.421875</ele>
        <time>2026-04-27T09:07:59Z</time>
      </trkpt>
      <trkpt lat="52.385897375643253" lon="7.856183080002666">
        <ele>61.671875</ele>
        <time>2026-04-27T09:08:03Z</time>
      </trkpt>
      <trkpt lat="52.386086471378803" lon="7.856057854369283">
        <ele>61.97265625</ele>
        <time>2026-04-27T09:08:07Z</time>
      </trkpt>
      <trkpt lat="52.386279422789812" lon="7.855932209640741">
        <ele>62.18359375</ele>
        <time>2026-04-27T09:08:11Z</time>
      </trkpt>
      <trkpt lat="52.386469943448901" lon="7.855797931551933">
        <ele>62.36328125</ele>
        <time>2026-04-27T09:08:15Z</time>
      </trkpt>
      <trkpt lat="52.386662308126688" lon="7.855670526623726">
        <ele>62.75</ele>
        <time>2026-04-27T09:08:19Z</time>
      </trkpt>
      <trkpt lat="52.386866407468915" lon="7.855550246313214">
        <ele>63.13671875</ele>
        <time>2026-04-27T09:08:23Z</time>
      </trkpt>
      <trkpt lat="52.387073440477252" lon="7.855431893840432">
        <ele>63.52734375</ele>
        <time>2026-04-27T09:08:27Z</time>
      </trkpt>
      <trkpt lat="52.387278629466891" lon="7.85533064045012">
        <ele>63.82421875</ele>
        <time>2026-04-27T09:08:31Z</time>
      </trkpt>
      <trkpt lat="52.387485830113292" lon="7.855203067883849">
        <ele>63.7265625</ele>
        <time>2026-04-27T09:08:35Z</time>
      </trkpt>
      <trkpt lat="52.387681128457189" lon="7.855094606056809">
        <ele>63.62109375</ele>
        <time>2026-04-27T09:08:39Z</time>
      </trkpt>
      <trkpt lat="52.387874247506261" lon="7.854996956884861">
        <ele>63.5078125</ele>
        <time>2026-04-27T09:08:43Z</time>
      </trkpt>
      <trkpt lat="52.38807063549757" lon="7.854874916374683">
        <ele>63.41796875</ele>
        <time>2026-04-27T09:08:47Z</time>
      </trkpt>
      <trkpt lat="52.388256462290883" lon="7.854771064594388">
        <ele>63.3203125</ele>
        <time>2026-04-27T09:08:51Z</time>
      </trkpt>
      <trkpt lat="52.388455700129271" lon="7.854658411815763">
        <ele>63.21484375</ele>
        <time>2026-04-27T09:08:55Z</time>
      </trkpt>
      <trkpt lat="52.388662230223417" lon="7.854548273608089">
        <ele>63.1015625</ele>
        <time>2026-04-27T09:08:59Z</time>
      </trkpt>
      <trkpt lat="52.388874962925911" lon="7.854457246139646">
        <ele>62.953125</ele>
        <time>2026-04-27T09:09:03Z</time>
      </trkpt>
      <trkpt lat="52.389077888801694" lon="7.854396477341652">
        <ele>62.98046875</ele>
        <time>2026-04-27T09:09:07Z</time>
      </trkpt>
      <trkpt lat="52.389292381703854" lon="7.854341240599752">
        <ele>63.00390625</ele>
        <time>2026-04-27T09:09:11Z</time>
      </trkpt>
      <trkpt lat="52.389514418318868" lon="7.854308802634478">
        <ele>62.9609375</ele>
        <time>2026-04-27T09:09:15Z</time>
      </trkpt>
      <trkpt lat="52.38975984044373" lon="7.854279633611441">
        <ele>62.84765625</ele>
        <time>2026-04-27T09:09:19Z</time>
      </trkpt>
      <trkpt lat="52.39000610075891" lon="7.854260187596083">
        <ele>62.3203125</ele>
        <time>2026-04-27T09:09:23Z</time>
      </trkpt>
      <trkpt lat="52.390253869816661" lon="7.854245100170374">
        <ele>61.81640625</ele>
        <time>2026-04-27T09:09:27Z</time>
      </trkpt>
      <trkpt lat="52.390502896159887" lon="7.854211321100593">
        <ele>61.34765625</ele>
        <time>2026-04-27T09:09:31Z</time>
      </trkpt>
      <trkpt lat="52.39074295386672" lon="7.854162286967039">
        <ele>61.40625</ele>
        <time>2026-04-27T09:09:35Z</time>
      </trkpt>
      <trkpt lat="52.390977311879396" lon="7.85411149263382">
        <ele>61.6484375</ele>
        <time>2026-04-27T09:09:39Z</time>
      </trkpt>
      <trkpt lat="52.391169341281056" lon="7.854050388559699">
        <ele>61.82421875</ele>
        <time>2026-04-27T09:09:43Z</time>
      </trkpt>
      <trkpt lat="52.391334129497409" lon="7.853934466838837">
        <ele>61.95703125</ele>
        <time>2026-04-27T09:09:47Z</time>
      </trkpt>
      <trkpt lat="52.391482824459672" lon="7.853652080520988">
        <ele>62.01171875</ele>
        <time>2026-04-27T09:09:53Z</time>
      </trkpt>
      <trkpt lat="52.391354329884052" lon="7.85343918018043">
        <ele>62.140625</ele>
        <time>2026-04-27T09:09:57Z</time>
      </trkpt>
      <trkpt lat="52.391251651570201" lon="7.853150591254234">
        <ele>62.5703125</ele>
        <time>2026-04-27T09:10:01Z</time>
      </trkpt>
      <trkpt lat="52.391159618273377" lon="7.852828642353416">
        <ele>63.125</ele>
        <time>2026-04-27T09:10:05Z</time>
      </trkpt>
      <trkpt lat="52.391098765656352" lon="7.852459838613868">
        <ele>63.68359375</ele>
        <time>2026-04-27T09:10:09Z</time>
      </trkpt>
      <trkpt lat="52.391053419560194" lon="7.852124646306038">
        <ele>64.140625</ele>
        <time>2026-04-27T09:10:13Z</time>
      </trkpt>
      <trkpt lat="52.391010252758861" lon="7.851700522005558">
        <ele>64.69921875</ele>
        <time>2026-04-27T09:10:19Z</time>
      </trkpt>
      <trkpt lat="52.390961218625307" lon="7.851397013291717">
        <ele>65.125</ele>
        <time>2026-04-27T09:10:23Z</time>
      </trkpt>
      <trkpt lat="52.390912100672722" lon="7.851088475435972">
        <ele>65.5546875</ele>
        <time>2026-04-27T09:10:27Z</time>
      </trkpt>
      <trkpt lat="52.390811517834663" lon="7.850709864869714">
        <ele>65.8359375</ele>
        <time>2026-04-27T09:10:33Z</time>
      </trkpt>
      <trkpt lat="52.390696350485086" lon="7.85034759901464">
        <ele>65.9765625</ele>
        <time>2026-04-27T09:10:39Z</time>
      </trkpt>
      <trkpt lat="52.390604987740517" lon="7.850008383393288">
        <ele>66.25</ele>
        <time>2026-04-27T09:10:45Z</time>
      </trkpt>
      <trkpt lat="52.390696937218308" lon="7.849717447534204">
        <ele>66.6015625</ele>
        <time>2026-04-27T09:10:49Z</time>
      </trkpt>
      <trkpt lat="52.390792826190591" lon="7.849440844729543">
        <ele>66.93359375</ele>
        <time>2026-04-27T09:10:53Z</time>
      </trkpt>
      <trkpt lat="52.390886368229985" lon="7.849148903042078">
        <ele>67</ele>
        <time>2026-04-27T09:10:57Z</time>
      </trkpt>
      <trkpt lat="52.391017209738493" lon="7.848881268873811">
        <ele>67</ele>
        <time>2026-04-27T09:11:01Z</time>
      </trkpt>
      <trkpt lat="52.391150230541825" lon="7.848617238923907">
        <ele>67</ele>
        <time>2026-04-27T09:11:05Z</time>
      </trkpt>
      <trkpt lat="52.391291549429297" lon="7.848362596705556">
        <ele>67</ele>
        <time>2026-04-27T09:11:09Z</time>
      </trkpt>
      <trkpt lat="52.391429431736469" lon="7.848107870668173">
        <ele>67</ele>
        <time>2026-04-27T09:11:13Z</time>
      </trkpt>
      <trkpt lat="52.391569996252656" lon="7.84783948212862">
        <ele>67</ele>
        <time>2026-04-27T09:11:17Z</time>
      </trkpt>
      <trkpt lat="52.391709974035621" lon="7.847577715292573">
        <ele>67.05859375</ele>
        <time>2026-04-27T09:11:21Z</time>
      </trkpt>
      <trkpt lat="52.391844000667334" lon="7.847312763333321">
        <ele>67.25390625</ele>
        <time>2026-04-27T09:11:25Z</time>
      </trkpt>
      <trkpt lat="52.391990181058645" lon="7.847054852172732">
        <ele>67.5546875</ele>
        <time>2026-04-27T09:11:29Z</time>
      </trkpt>
      <trkpt lat="52.392127979546785" lon="7.84678646363318">
        <ele>67.98046875</ele>
        <time>2026-04-27T09:11:33Z</time>
      </trkpt>
      <trkpt lat="52.392266113311052" lon="7.846529055386782">
        <ele>68.484375</ele>
        <time>2026-04-27T09:11:37Z</time>
      </trkpt>
      <trkpt lat="52.392405420541763" lon="7.846272066235542">
        <ele>69.03125</ele>
        <time>2026-04-27T09:11:41Z</time>
      </trkpt>
      <trkpt lat="52.392539530992508" lon="7.846044665202498">
        <ele>69.3359375</ele>
        <time>2026-04-27T09:11:45Z</time>
      </trkpt>
      <trkpt lat="52.392702642828226" lon="7.845803517848253">
        <ele>68.953125</ele>
        <time>2026-04-27T09:11:49Z</time>
      </trkpt>
      <trkpt lat="52.392864329740405" lon="7.845583409070969">
        <ele>68.6171875</ele>
        <time>2026-04-27T09:11:53Z</time>
      </trkpt>
      <trkpt lat="52.393024424090981" lon="7.845360115170479">
        <ele>68.2734375</ele>
        <time>2026-04-27T09:11:57Z</time>
      </trkpt>
      <trkpt lat="52.39317680709064" lon="7.845155345275998">
        <ele>67.890625</ele>
        <time>2026-04-27T09:12:01Z</time>
      </trkpt>
      <trkpt lat="52.393320892006159" lon="7.844920484349132">
        <ele>67.8125</ele>
        <time>2026-04-27T09:12:05Z</time>
      </trkpt>
      <trkpt lat="52.39346849732101" lon="7.844656789675355">
        <ele>67.84765625</ele>
        <time>2026-04-27T09:12:09Z</time>
      </trkpt>
      <trkpt lat="52.393608223646879" lon="7.844397956505418">
        <ele>67.9921875</ele>
        <time>2026-04-27T09:12:13Z</time>
      </trkpt>
      <trkpt lat="52.393741412088275" lon="7.844145745038986">
        <ele>68</ele>
        <time>2026-04-27T09:12:17Z</time>
      </trkpt>
      <trkpt lat="52.393888011574745" lon="7.84390065819025">
        <ele>68</ele>
        <time>2026-04-27T09:12:21Z</time>
      </trkpt>
      <trkpt lat="52.394028743728995" lon="7.84365682862699">
        <ele>68.125</ele>
        <time>2026-04-27T09:12:25Z</time>
      </trkpt>
      <trkpt lat="52.394177690148354" lon="7.843425739556551">
        <ele>68.375</ele>
        <time>2026-04-27T09:12:29Z</time>
      </trkpt>
      <trkpt lat="52.394325630739331" lon="7.843200601637363">
        <ele>68.5</ele>
        <time>2026-04-27T09:12:33Z</time>
      </trkpt>
      <trkpt lat="52.394481198862195" lon="7.842958867549896">
        <ele>68.421875</ele>
        <time>2026-04-27T09:12:37Z</time>
      </trkpt>
      <trkpt lat="52.394639616832137" lon="7.842710511758924">
        <ele>68.1328125</ele>
        <time>2026-04-27T09:12:41Z</time>
      </trkpt>
      <trkpt lat="52.394791832193732" lon="7.842484954744577">
        <ele>68.42578125</ele>
        <time>2026-04-27T09:12:45Z</time>
      </trkpt>
      <trkpt lat="52.394944718107581" lon="7.842244645580649">
        <ele>69.0234375</ele>
        <time>2026-04-27T09:12:49Z</time>
      </trkpt>
      <trkpt lat="52.395092574879527" lon="7.842004504054785">
        <ele>69.3984375</ele>
        <time>2026-04-27T09:12:53Z</time>
      </trkpt>
      <trkpt lat="52.395249819383025" lon="7.841780371963978">
        <ele>69.48046875</ele>
        <time>2026-04-27T09:12:57Z</time>
      </trkpt>
      <trkpt lat="52.395414272323251" lon="7.84167786128819">
        <ele>69.5546875</ele>
        <time>2026-04-27T09:13:01Z</time>
      </trkpt>
      <trkpt lat="52.395592555403709" lon="7.84172329120338">
        <ele>69.78125</ele>
        <time>2026-04-27T09:13:05Z</time>
      </trkpt>
      <trkpt lat="52.395790619775653" lon="7.841766374185681">
        <ele>69.59375</ele>
        <time>2026-04-27T09:13:09Z</time>
      </trkpt>
      <trkpt lat="52.395959347486496" lon="7.841632599011064">
        <ele>69.23046875</ele>
        <time>2026-04-27T09:13:13Z</time>
      </trkpt>
      <trkpt lat="52.396083064377308" lon="7.841355409473181">
        <ele>68.75</ele>
        <time>2026-04-27T09:13:17Z</time>
      </trkpt>
      <trkpt lat="52.396201668307185" lon="7.841063048690558">
        <ele>68.2578125</ele>
        <time>2026-04-27T09:13:21Z</time>
      </trkpt>
      <trkpt lat="52.396330498158932" lon="7.84073774702847">
        <ele>67.7109375</ele>
        <time>2026-04-27T09:13:25Z</time>
      </trkpt>
      <trkpt lat="52.396455220878124" lon="7.840425353497267">
        <ele>67.2421875</ele>
        <time>2026-04-27T09:13:29Z</time>
      </trkpt>
      <trkpt lat="52.396579189226031" lon="7.84014062024653">
        <ele>66.921875</ele>
        <time>2026-04-27T09:13:33Z</time>
      </trkpt>
      <trkpt lat="52.396742049604654" lon="7.839840045198798">
        <ele>66.72265625</ele>
        <time>2026-04-27T09:13:37Z</time>
      </trkpt>
      <trkpt lat="52.396902227774262" lon="7.8395826369524">
        <ele>66.6875</ele>
        <time>2026-04-27T09:13:41Z</time>
      </trkpt>
      <trkpt lat="52.397068692371249" lon="7.839299412444234">
        <ele>66.76953125</ele>
        <time>2026-04-27T09:13:45Z</time>
      </trkpt>
      <trkpt lat="52.397195929661393" lon="7.839004620909691">
        <ele>66.921875</ele>
        <time>2026-04-27T09:13:49Z</time>
      </trkpt>
      <trkpt lat="52.397300032898784" lon="7.838685438036919">
        <ele>67.09375</ele>
        <time>2026-04-27T09:13:53Z</time>
      </trkpt>
      <trkpt lat="52.397403381764889" lon="7.838337672874332">
        <ele>66.87890625</ele>
        <time>2026-04-27T09:13:57Z</time>
      </trkpt>
      <trkpt lat="52.397508239373565" lon="7.837986806407571">
        <ele>66.4140625</ele>
        <time>2026-04-27T09:14:01Z</time>
      </trkpt>
      <trkpt lat="52.397613599896431" lon="7.837653877213597">
        <ele>65.9140625</ele>
        <time>2026-04-27T09:14:05Z</time>
      </trkpt>
      <trkpt lat="52.397706219926476" lon="7.837334526702762">
        <ele>65.53125</ele>
        <time>2026-04-27T09:14:13Z</time>
      </trkpt>
      <trkpt lat="52.397701693698764" lon="7.837028587237001">
        <ele>65.1640625</ele>
        <time>2026-04-27T09:14:21Z</time>
      </trkpt>
      <trkpt lat="52.3976687528193" lon="7.836740165948868">
        <ele>65.08984375</ele>
        <time>2026-04-27T09:14:27Z</time>
      </trkpt>
      <trkpt lat="52.397458031773567" lon="7.836461300030351">
        <ele>65.3828125</ele>
        <time>2026-04-27T09:14:33Z</time>
      </trkpt>
      <trkpt lat="52.397302212193608" lon="7.836210764944553">
        <ele>65.7578125</ele>
        <time>2026-04-27T09:14:37Z</time>
      </trkpt>
      <trkpt lat="52.397312438115478" lon="7.8358319029212">
        <ele>65.6171875</ele>
        <time>2026-04-27T09:14:41Z</time>
      </trkpt>
      <trkpt lat="52.397458869963884" lon="7.835519090294838">
        <ele>64.921875</ele>
        <time>2026-04-27T09:14:45Z</time>
      </trkpt>
      <trkpt lat="52.397602451965213" lon="7.835197979584336">
        <ele>64.0625</ele>
        <time>2026-04-27T09:14:49Z</time>
      </trkpt>
      <trkpt lat="52.397725330665708" lon="7.834881814196706">
        <ele>63.078125</ele>
        <time>2026-04-27T09:14:53Z</time>
      </trkpt>
      <trkpt lat="52.397874612361193" lon="7.834571013227105">
        <ele>62.31640625</ele>
        <time>2026-04-27T09:14:57Z</time>
      </trkpt>
      <trkpt lat="52.397998413071036" lon="7.834242107346654">
        <ele>61.671875</ele>
        <time>2026-04-27T09:15:01Z</time>
      </trkpt>
      <trkpt lat="52.3981280811131" lon="7.833945974707604">
        <ele>60.92578125</ele>
        <time>2026-04-27T09:15:05Z</time>
      </trkpt>
      <trkpt lat="52.398287672549486" lon="7.833641795441508">
        <ele>60.1953125</ele>
        <time>2026-04-27T09:15:09Z</time>
      </trkpt>
      <trkpt lat="52.398452460765839" lon="7.833329401910305">
        <ele>59.5703125</ele>
        <time>2026-04-27T09:15:13Z</time>
      </trkpt>
      <trkpt lat="52.39860450848937" lon="7.833027066662908">
        <ele>59.125</ele>
        <time>2026-04-27T09:15:17Z</time>
      </trkpt>
      <trkpt lat="52.398760328069329" lon="7.832742417231202">
        <ele>58.84375</ele>
        <time>2026-04-27T09:15:21Z</time>
      </trkpt>
      <trkpt lat="52.39890550263226" lon="7.83244083635509">
        <ele>58.65234375</ele>
        <time>2026-04-27T09:15:25Z</time>
      </trkpt>
      <trkpt lat="52.399050509557128" lon="7.832161635160446">
        <ele>58.546875</ele>
        <time>2026-04-27T09:15:29Z</time>
      </trkpt>
      <trkpt lat="52.399204317480326" lon="7.831864329054952">
        <ele>58.3203125</ele>
        <time>2026-04-27T09:15:33Z</time>
      </trkpt>
      <trkpt lat="52.399343876168132" lon="7.831555791199207">
        <ele>58.1171875</ele>
        <time>2026-04-27T09:15:37Z</time>
      </trkpt>
      <trkpt lat="52.399437837302685" lon="7.831173408776522">
        <ele>57.76953125</ele>
        <time>2026-04-27T09:15:41Z</time>
      </trkpt>
      <trkpt lat="52.399513442069292" lon="7.830797312781215">
        <ele>57.32421875</ele>
        <time>2026-04-27T09:15:45Z</time>
      </trkpt>
      <trkpt lat="52.399579491466284" lon="7.830372517928481">
        <ele>56.8203125</ele>
        <time>2026-04-27T09:15:49Z</time>
      </trkpt>
      <trkpt lat="52.399586532264948" lon="7.82992685213685">
        <ele>55.90625</ele>
        <time>2026-04-27T09:15:53Z</time>
      </trkpt>
      <trkpt lat="52.399540431797504" lon="7.829466769471765">
        <ele>54.69140625</ele>
        <time>2026-04-27T09:15:57Z</time>
      </trkpt>
      <trkpt lat="52.39950648508966" lon="7.829004591330886">
        <ele>53.89453125</ele>
        <time>2026-04-27T09:16:01Z</time>
      </trkpt>
      <trkpt lat="52.399468682706356" lon="7.828540736809373">
        <ele>53.296875</ele>
        <time>2026-04-27T09:16:05Z</time>
      </trkpt>
      <trkpt lat="52.399439681321383" lon="7.828077804297209">
        <ele>52.77734375</ele>
        <time>2026-04-27T09:16:09Z</time>
      </trkpt>
      <trkpt lat="52.399404812604189" lon="7.827619230374694">
        <ele>52.26953125</ele>
        <time>2026-04-27T09:16:13Z</time>
      </trkpt>
      <trkpt lat="52.39936038851738" lon="7.827146239578724">
        <ele>51.75390625</ele>
        <time>2026-04-27T09:16:17Z</time>
      </trkpt>
      <trkpt lat="52.399322837591171" lon="7.826678864657879">
        <ele>51.3671875</ele>
        <time>2026-04-27T09:16:21Z</time>
      </trkpt>
      <trkpt lat="52.3992919921875" lon="7.826214339584112">
        <ele>51.09765625</ele>
        <time>2026-04-27T09:16:25Z</time>
      </trkpt>
      <trkpt lat="52.399244885891676" lon="7.825731122866273">
        <ele>50.92578125</ele>
        <time>2026-04-27T09:16:29Z</time>
      </trkpt>
      <trkpt lat="52.399198701605201" lon="7.825242877006531">
        <ele>50.703125</ele>
        <time>2026-04-27T09:16:33Z</time>
      </trkpt>
      <trkpt lat="52.39913759753108" lon="7.824797965586186">
        <ele>50.78515625</ele>
        <time>2026-04-27T09:16:37Z</time>
      </trkpt>
      <trkpt lat="52.399101722985506" lon="7.824377194046974">
        <ele>50.98828125</ele>
        <time>2026-04-27T09:16:41Z</time>
      </trkpt>
      <trkpt lat="52.399057969450951" lon="7.823988273739815">
        <ele>50.8203125</ele>
        <time>2026-04-27T09:16:45Z</time>
      </trkpt>
      <trkpt lat="52.399008683860302" lon="7.82358393073082">
        <ele>50.76171875</ele>
        <time>2026-04-27T09:16:49Z</time>
      </trkpt>
      <trkpt lat="52.398946825414896" lon="7.8231808450073">
        <ele>50.8828125</ele>
        <time>2026-04-27T09:16:53Z</time>
      </trkpt>
      <trkpt lat="52.398883961141109" lon="7.822832576930523">
        <ele>51.05078125</ele>
        <time>2026-04-27T09:16:57Z</time>
      </trkpt>
      <trkpt lat="52.398889577016234" lon="7.822533845901489">
        <ele>51.515625</ele>
        <time>2026-04-27T09:17:01Z</time>
      </trkpt>
      <trkpt lat="52.399005331099033" lon="7.822286831215024">
        <ele>51.65625</ele>
        <time>2026-04-27T09:17:05Z</time>
      </trkpt>
      <trkpt lat="52.39912485703826" lon="7.821972845122218">
        <ele>51.8046875</ele>
        <time>2026-04-27T09:17:09Z</time>
      </trkpt>
      <trkpt lat="52.399259218946099" lon="7.821655925363302">
        <ele>51.43359375</ele>
        <time>2026-04-27T09:17:13Z</time>
      </trkpt>
      <trkpt lat="52.399386120960116" lon="7.821357697248459">
        <ele>51.07421875</ele>
        <time>2026-04-27T09:17:17Z</time>
      </trkpt>
      <trkpt lat="52.399520231410861" lon="7.821062821894884">
        <ele>50.7890625</ele>
        <time>2026-04-27T09:17:21Z</time>
      </trkpt>
      <trkpt lat="52.399664232507348" lon="7.820742884650827">
        <ele>50.51953125</ele>
        <time>2026-04-27T09:17:25Z</time>
      </trkpt>
      <trkpt lat="52.39981141872704" lon="7.820436274632812">
        <ele>50.5</ele>
        <time>2026-04-27T09:17:29Z</time>
      </trkpt>
      <trkpt lat="52.399947121739388" lon="7.820125557482243">
        <ele>50.1875</ele>
        <time>2026-04-27T09:17:33Z</time>
      </trkpt>
      <trkpt lat="52.40008651278913" lon="7.81981366686523">
        <ele>49.66796875</ele>
        <time>2026-04-27T09:17:37Z</time>
      </trkpt>
      <trkpt lat="52.400224981829524" lon="7.819511163979769">
        <ele>49.39453125</ele>
        <time>2026-04-27T09:17:41Z</time>
      </trkpt>
      <trkpt lat="52.400370491668582" lon="7.819186365231872">
        <ele>49.1171875</ele>
        <time>2026-04-27T09:17:45Z</time>
      </trkpt>
      <trkpt lat="52.400503512471914" lon="7.81888185068965">
        <ele>48.98046875</ele>
        <time>2026-04-27T09:17:49Z</time>
      </trkpt>
      <trkpt lat="52.400620272383094" lon="7.818569876253605">
        <ele>49</ele>
        <time>2026-04-27T09:17:53Z</time>
      </trkpt>
      <trkpt lat="52.40071683190763" lon="7.818216914311051">
        <ele>48.50390625</ele>
        <time>2026-04-27T09:17:57Z</time>
      </trkpt>
      <trkpt lat="52.400781288743019" lon="7.817847523838282">
        <ele>47.9140625</ele>
        <time>2026-04-27T09:18:01Z</time>
      </trkpt>
      <trkpt lat="52.400847254320979" lon="7.81747511588037">
        <ele>47.671875</ele>
        <time>2026-04-27T09:18:05Z</time>
      </trkpt>
      <trkpt lat="52.400920009240508" lon="7.81710421666503">
        <ele>47.58203125</ele>
        <time>2026-04-27T09:18:09Z</time>
      </trkpt>
      <trkpt lat="52.400987818837166" lon="7.816739184781909">
        <ele>47.5</ele>
        <time>2026-04-27T09:18:13Z</time>
      </trkpt>
      <trkpt lat="52.401057304814458" lon="7.816370381042361">
        <ele>47.41796875</ele>
        <time>2026-04-27T09:18:17Z</time>
      </trkpt>
      <trkpt lat="52.401122348383069" lon="7.816028567031026">
        <ele>47.390625</ele>
        <time>2026-04-27T09:18:21Z</time>
      </trkpt>
      <trkpt lat="52.401196612045169" lon="7.815672755241394">
        <ele>47.73046875</ele>
        <time>2026-04-27T09:18:25Z</time>
      </trkpt>
      <trkpt lat="52.401256039738655" lon="7.815325073897839">
        <ele>48.07421875</ele>
        <time>2026-04-27T09:18:29Z</time>
      </trkpt>
      <trkpt lat="52.401319239288568" lon="7.814971441403031">
        <ele>48.0703125</ele>
        <time>2026-04-27T09:18:33Z</time>
      </trkpt>
      <trkpt lat="52.40139601752162" lon="7.8146156296134">
        <ele>48.00390625</ele>
        <time>2026-04-27T09:18:37Z</time>
      </trkpt>
      <trkpt lat="52.401454942300916" lon="7.81426970846951">
        <ele>48.10546875</ele>
        <time>2026-04-27T09:18:41Z</time>
      </trkpt>
      <trkpt lat="52.401518728584051" lon="7.813906772062182">
        <ele>48.4609375</ele>
        <time>2026-04-27T09:18:45Z</time>
      </trkpt>
      <trkpt lat="52.401576982811093" lon="7.81357049010694">
        <ele>48.79296875</ele>
        <time>2026-04-27T09:18:49Z</time>
      </trkpt>
      <trkpt lat="52.401648228988051" lon="7.81322943046689">
        <ele>48.70703125</ele>
        <time>2026-04-27T09:18:53Z</time>
      </trkpt>
      <trkpt lat="52.401715368032455" lon="7.81286439858377">
        <ele>48.62890625</ele>
        <time>2026-04-27T09:18:57Z</time>
      </trkpt>
      <trkpt lat="52.401780998334289" lon="7.812499366700649">
        <ele>48.23046875</ele>
        <time>2026-04-27T09:19:01Z</time>
      </trkpt>
      <trkpt lat="52.401859620586038" lon="7.812125282362104">
        <ele>47.78515625</ele>
        <time>2026-04-27T09:19:05Z</time>
      </trkpt>
      <trkpt lat="52.401930280029774" lon="7.811761759221554">
        <ele>47.6953125</ele>
        <time>2026-04-27T09:19:09Z</time>
      </trkpt>
      <trkpt lat="52.401997167617083" lon="7.811399158090353">
        <ele>47.88671875</ele>
        <time>2026-04-27T09:19:13Z</time>
      </trkpt>
      <trkpt lat="52.402057852596045" lon="7.811061115935445">
        <ele>48</ele>
        <time>2026-04-27T09:19:17Z</time>
      </trkpt>
      <trkpt lat="52.40212993696332" lon="7.810697508975864">
        <ele>48</ele>
        <time>2026-04-27T09:19:21Z</time>
      </trkpt>
      <trkpt lat="52.402191879227757" lon="7.810357119888067">
        <ele>48</ele>
        <time>2026-04-27T09:19:25Z</time>
      </trkpt>
      <trkpt lat="52.402254408225417" lon="7.810011701658368">
        <ele>47.7109375</ele>
        <time>2026-04-27T09:19:29Z</time>
      </trkpt>
      <trkpt lat="52.402319367974997" lon="7.809664607048035">
        <ele>47.27734375</ele>
        <time>2026-04-27T09:19:33Z</time>
      </trkpt>
      <trkpt lat="52.402386255562305" lon="7.809324804693461">
        <ele>47.08203125</ele>
        <time>2026-04-27T09:19:37Z</time>
      </trkpt>
      <trkpt lat="52.402450628578663" lon="7.808975866064429">
        <ele>47.38671875</ele>
        <time>2026-04-27T09:19:41Z</time>
      </trkpt>
      <trkpt lat="52.402523551136255" lon="7.808605134487152">
        <ele>47.6328125</ele>
        <time>2026-04-27T09:19:45Z</time>
      </trkpt>
      <trkpt lat="52.402582308277488" lon="7.808244377374649">
        <ele>47.1875</ele>
        <time>2026-04-27T09:19:49Z</time>
      </trkpt>
      <trkpt lat="52.402646010741591" lon="7.807923182845116">
        <ele>46.7265625</ele>
        <time>2026-04-27T09:19:53Z</time>
      </trkpt>
      <trkpt lat="52.402702504768968" lon="7.807597378268838">
        <ele>46.5390625</ele>
        <time>2026-04-27T09:19:57Z</time>
      </trkpt>
      <trkpt lat="52.402779869735241" lon="7.807186916470528">
        <ele>46.78515625</ele>
        <time>2026-04-27T09:20:02Z</time>
      </trkpt>
      <trkpt lat="52.402844410389662" lon="7.806841749697924">
        <ele>46.94140625</ele>
        <time>2026-04-27T09:20:06Z</time>
      </trkpt>
      <trkpt lat="52.402914064005017" lon="7.806487698107958">
        <ele>46.58984375</ele>
        <time>2026-04-27T09:20:10Z</time>
      </trkpt>
      <trkpt lat="52.40297525189817" lon="7.806148817762733">
        <ele>46.19140625</ele>
        <time>2026-04-27T09:20:14Z</time>
      </trkpt>
      <trkpt lat="52.403046162799001" lon="7.805794179439545">
        <ele>46.359375</ele>
        <time>2026-04-27T09:20:18Z</time>
      </trkpt>
      <trkpt lat="52.403120929375291" lon="7.805426213890314">
        <ele>46.734375</ele>
        <time>2026-04-27T09:20:22Z</time>
      </trkpt>
      <trkpt lat="52.403182871639729" lon="7.805037712678313">
        <ele>47.11328125</ele>
        <time>2026-04-27T09:20:26Z</time>
      </trkpt>
      <trkpt lat="52.403252525255084" lon="7.804660862311721">
        <ele>47.484375</ele>
        <time>2026-04-27T09:20:30Z</time>
      </trkpt>
      <trkpt lat="52.403325028717518" lon="7.804283760488033">
        <ele>47.7421875</ele>
        <time>2026-04-27T09:20:34Z</time>
      </trkpt>
      <trkpt lat="52.403385797515512" lon="7.803927445784211">
        <ele>47.84375</ele>
        <time>2026-04-27T09:20:38Z</time>
      </trkpt>
      <trkpt lat="52.403446733951569" lon="7.803568616509438">
        <ele>47.9921875</ele>
        <time>2026-04-27T09:20:42Z</time>
      </trkpt>
      <trkpt lat="52.403514292091131" lon="7.803229233250022">
        <ele>47.8046875</ele>
        <time>2026-04-27T09:20:46Z</time>
      </trkpt>
      <trkpt lat="52.403579419478774" lon="7.802876187488437">
        <ele>47.671875</ele>
        <time>2026-04-27T09:20:50Z</time>
      </trkpt>
      <trkpt lat="52.403645385056734" lon="7.802524985745549">
        <ele>47.60546875</ele>
        <time>2026-04-27T09:20:54Z</time>
      </trkpt>
      <trkpt lat="52.403720319271088" lon="7.802157355472446">
        <ele>47.625</ele>
        <time>2026-04-27T09:20:58Z</time>
      </trkpt>
      <trkpt lat="52.403789218515158" lon="7.801804896444082">
        <ele>47.72265625</ele>
        <time>2026-04-27T09:21:02Z</time>
      </trkpt>
      <trkpt lat="52.403852501884103" lon="7.80146911740303">
        <ele>47.875</ele>
        <time>2026-04-27T09:21:06Z</time>
      </trkpt>
      <trkpt lat="52.403910588473082" lon="7.801134847104549">
        <ele>48</ele>
        <time>2026-04-27T09:21:10Z</time>
      </trkpt>
      <trkpt lat="52.403972111642361" lon="7.800781214609742">
        <ele>48.328125</ele>
        <time>2026-04-27T09:21:14Z</time>
      </trkpt>
      <trkpt lat="52.404044028371572" lon="7.800416685640812">
        <ele>48.6640625</ele>
        <time>2026-04-27T09:21:18Z</time>
      </trkpt>
      <trkpt lat="52.404123907908797" lon="7.79998267069459">
        <ele>48.65234375</ele>
        <time>2026-04-27T09:21:23Z</time>
      </trkpt>
      <trkpt lat="52.404184928163886" lon="7.799605820327997">
        <ele>48.40234375</ele>
        <time>2026-04-27T09:21:27Z</time>
      </trkpt>
      <trkpt lat="52.404246451333165" lon="7.799288984388113">
        <ele>48.23828125</ele>
        <time>2026-04-27T09:21:31Z</time>
      </trkpt>
      <trkpt lat="52.404326414689422" lon="7.798927975818515">
        <ele>48.28125</ele>
        <time>2026-04-27T09:21:37Z</time>
      </trkpt>
      <trkpt lat="52.404371006414294" lon="7.79863796196878">
        <ele>48.40234375</ele>
        <time>2026-04-27T09:21:43Z</time>
      </trkpt>
      <trkpt lat="52.404426913708448" lon="7.798340488225222">
        <ele>48.62890625</ele>
        <time>2026-04-27T09:21:47Z</time>
      </trkpt>
      <trkpt lat="52.404493968933821" lon="7.797994650900364">
        <ele>49.0859375</ele>
        <time>2026-04-27T09:21:51Z</time>
      </trkpt>
      <trkpt lat="52.404560521245003" lon="7.7976353187114">
        <ele>49.60546875</ele>
        <time>2026-04-27T09:21:55Z</time>
      </trkpt>
      <trkpt lat="52.404624642804265" lon="7.797285541892052">
        <ele>49.8046875</ele>
        <time>2026-04-27T09:21:59Z</time>
      </trkpt>
      <trkpt lat="52.404689351096749" lon="7.796934591606259">
        <ele>49.94140625</ele>
        <time>2026-04-27T09:22:03Z</time>
      </trkpt>
      <trkpt lat="52.404763028025627" lon="7.796577019616962">
        <ele>49.5625</ele>
        <time>2026-04-27T09:22:07Z</time>
      </trkpt>
      <trkpt lat="52.404825808480382" lon="7.796198409050703">
        <ele>49.03125</ele>
        <time>2026-04-27T09:22:11Z</time>
      </trkpt>
      <trkpt lat="52.404889008030295" lon="7.795832119882107">
        <ele>48.76171875</ele>
        <time>2026-04-27T09:22:15Z</time>
      </trkpt>
      <trkpt lat="52.404958661645651" lon="7.795456275343895">
        <ele>48.53125</ele>
        <time>2026-04-27T09:22:19Z</time>
      </trkpt>
      <trkpt lat="52.405035858973861" lon="7.795084705576301">
        <ele>48.08203125</ele>
        <time>2026-04-27T09:22:23Z</time>
      </trkpt>
      <trkpt lat="52.40509687922895" lon="7.794719338417053">
        <ele>47.49609375</ele>
        <time>2026-04-27T09:22:27Z</time>
      </trkpt>
      <trkpt lat="52.405164437368512" lon="7.794364783912897">
        <ele>46.9765625</ele>
        <time>2026-04-27T09:22:31Z</time>
      </trkpt>
      <trkpt lat="52.40523568354547" lon="7.794003020972014">
        <ele>46.90234375</ele>
        <time>2026-04-27T09:22:35Z</time>
      </trkpt>
      <trkpt lat="52.405295949429274" lon="7.793653327971697">
        <ele>46.97265625</ele>
        <time>2026-04-27T09:22:39Z</time>
      </trkpt>
      <trkpt lat="52.40536225028336" lon="7.793305395171046">
        <ele>47.41796875</ele>
        <time>2026-04-27T09:22:43Z</time>
      </trkpt>
      <trkpt lat="52.405427293851972" lon="7.792948158457875">
        <ele>47.89453125</ele>
        <time>2026-04-27T09:22:47Z</time>
      </trkpt>
      <trkpt lat="52.405504239723086" lon="7.792597962543368">
        <ele>48.27734375</ele>
        <time>2026-04-27T09:22:51Z</time>
      </trkpt>
      <trkpt lat="52.405564002692699" lon="7.792254136875272">
        <ele>48.609375</ele>
        <time>2026-04-27T09:22:55Z</time>
      </trkpt>
      <trkpt lat="52.405624100938439" lon="7.79194769449532">
        <ele>48.96484375</ele>
        <time>2026-04-27T09:22:59Z</time>
      </trkpt>
      <trkpt lat="52.405679002404213" lon="7.791614597663283">
        <ele>49</ele>
        <time>2026-04-27T09:23:03Z</time>
      </trkpt>
      <trkpt lat="52.405742621049285" lon="7.791294408962131">
        <ele>49</ele>
        <time>2026-04-27T09:23:07Z</time>
      </trkpt>
      <trkpt lat="52.405801881104708" lon="7.790969526395202">
        <ele>49.1015625</ele>
        <time>2026-04-27T09:23:11Z</time>
      </trkpt>
      <trkpt lat="52.405862901359797" lon="7.790639530867338">
        <ele>49.34765625</ele>
        <time>2026-04-27T09:23:15Z</time>
      </trkpt>
      <trkpt lat="52.405933393165469" lon="7.790294447913766">
        <ele>49.53515625</ele>
        <time>2026-04-27T09:23:19Z</time>
      </trkpt>
      <trkpt lat="52.405994748696685" lon="7.789953975006938">
        <ele>49.48828125</ele>
        <time>2026-04-27T09:23:23Z</time>
      </trkpt>
      <trkpt lat="52.406061049550772" lon="7.789594978094101">
        <ele>49.41015625</ele>
        <time>2026-04-27T09:23:27Z</time>
      </trkpt>
      <trkpt lat="52.406132547184825" lon="7.789200693368912">
        <ele>49.41796875</ele>
        <time>2026-04-27T09:23:31Z</time>
      </trkpt>
      <trkpt lat="52.406199518591166" lon="7.788835493847728">
        <ele>49.60546875</ele>
        <time>2026-04-27T09:23:35Z</time>
      </trkpt>
      <trkpt lat="52.406261460855603" lon="7.788489069789648">
        <ele>50.0078125</ele>
        <time>2026-04-27T09:23:39Z</time>
      </trkpt>
      <trkpt lat="52.406324660405517" lon="7.788147004321218">
        <ele>50.81640625</ele>
        <time>2026-04-27T09:23:43Z</time>
      </trkpt>
      <trkpt lat="52.40639372728765" lon="7.78782220557332">
        <ele>51.80078125</ele>
        <time>2026-04-27T09:23:47Z</time>
      </trkpt>
      <trkpt lat="52.406455669552088" lon="7.787473266944289">
        <ele>52.80078125</ele>
        <time>2026-04-27T09:23:51Z</time>
      </trkpt>
      <trkpt lat="52.406520796939731" lon="7.787102116271853">
        <ele>53.46875</ele>
        <time>2026-04-27T09:23:55Z</time>
      </trkpt>
      <trkpt lat="52.406590115278959" lon="7.786723170429468">
        <ele>53.62890625</ele>
        <time>2026-04-27T09:23:59Z</time>
      </trkpt>
      <trkpt lat="52.406663876026869" lon="7.786383787170053">
        <ele>53.41015625</ele>
        <time>2026-04-27T09:24:03Z</time>
      </trkpt>
      <trkpt lat="52.40675481967628" lon="7.786044320091605">
        <ele>52.85546875</ele>
        <time>2026-04-27T09:24:07Z</time>
      </trkpt>
      <trkpt lat="52.406866466626525" lon="7.785734022036195">
        <ele>52.02734375</ele>
        <time>2026-04-27T09:24:11Z</time>
      </trkpt>
      <trkpt lat="52.406990183517337" lon="7.785425819456577">
        <ele>51.23828125</ele>
        <time>2026-04-27T09:24:15Z</time>
      </trkpt>
      <trkpt lat="52.407108452171087" lon="7.785109067335725">
        <ele>50.5</ele>
        <time>2026-04-27T09:24:19Z</time>
      </trkpt>
      <trkpt lat="52.407234599813819" lon="7.784777395427227">
        <ele>50</ele>
        <time>2026-04-27T09:24:23Z</time>
      </trkpt>
      <trkpt lat="52.407358065247536" lon="7.78446776792407">
        <ele>49.8515625</ele>
        <time>2026-04-27T09:24:27Z</time>
      </trkpt>
      <trkpt lat="52.407482787966728" lon="7.784148249775171">
        <ele>50.265625</ele>
        <time>2026-04-27T09:24:31Z</time>
      </trkpt>
      <trkpt lat="52.407604660838842" lon="7.783847339451313">
        <ele>50.6328125</ele>
        <time>2026-04-27T09:24:35Z</time>
      </trkpt>
      <trkpt lat="52.407720582559705" lon="7.783542573451996">
        <ele>50.92578125</ele>
        <time>2026-04-27T09:24:39Z</time>
      </trkpt>
      <trkpt lat="52.407837677747011" lon="7.783246943727136">
        <ele>51.265625</ele>
        <time>2026-04-27T09:24:43Z</time>
      </trkpt>
      <trkpt lat="52.407942870631814" lon="7.78297696262598">
        <ele>51.6640625</ele>
        <time>2026-04-27T09:24:47Z</time>
      </trkpt>
      <trkpt lat="52.408061642199755" lon="7.782737575471401">
        <ele>52.0546875</ele>
        <time>2026-04-27T09:24:51Z</time>
      </trkpt>
      <trkpt lat="52.408242607489228" lon="7.782452506944537">
        <ele>51.76171875</ele>
        <time>2026-04-27T09:24:57Z</time>
      </trkpt>
      <trkpt lat="52.408311758190393" lon="7.782152937725186">
        <ele>52.203125</ele>
        <time>2026-04-27T09:25:01Z</time>
      </trkpt>
      <trkpt lat="52.408413095399737" lon="7.781849931925535">
        <ele>52.25390625</ele>
        <time>2026-04-27T09:25:05Z</time>
      </trkpt>
      <trkpt lat="52.40851242095232" lon="7.78155941516161">
        <ele>51.42578125</ele>
        <time>2026-04-27T09:25:09Z</time>
      </trkpt>
      <trkpt lat="52.408622056245804" lon="7.781266467645764">
        <ele>50.546875</ele>
        <time>2026-04-27T09:25:13Z</time>
      </trkpt>
      <trkpt lat="52.408747030422091" lon="7.78096279129386">
        <ele>49.49609375</ele>
        <time>2026-04-27T09:25:17Z</time>
      </trkpt>
      <trkpt lat="52.408880889415741" lon="7.780653247609735">
        <ele>48.53125</ele>
        <time>2026-04-27T09:25:21Z</time>
      </trkpt>
      <trkpt lat="52.409009132534266" lon="7.780339261516929">
        <ele>48.05859375</ele>
        <time>2026-04-27T09:25:25Z</time>
      </trkpt>
      <trkpt lat="52.409148523584008" lon="7.779999459162355">
        <ele>48.09375</ele>
        <time>2026-04-27T09:25:29Z</time>
      </trkpt>
      <trkpt lat="52.409283388406038" lon="7.779649933800101">
        <ele>48.3359375</ele>
        <time>2026-04-27T09:25:33Z</time>
      </trkpt>
      <trkpt lat="52.409419845789671" lon="7.77931272983551">
        <ele>48.70703125</ele>
        <time>2026-04-27T09:25:37Z</time>
      </trkpt>
      <trkpt lat="52.409547921270132" lon="7.778997318819165">
        <ele>49.17578125</ele>
        <time>2026-04-27T09:25:41Z</time>
      </trkpt>
      <trkpt lat="52.409678930416703" lon="7.778665060177445">
        <ele>49.7890625</ele>
        <time>2026-04-27T09:25:45Z</time>
      </trkpt>
      <trkpt lat="52.409803736954927" lon="7.778333472087979">
        <ele>50.1171875</ele>
        <time>2026-04-27T09:25:49Z</time>
      </trkpt>
      <trkpt lat="52.409928292036057" lon="7.778005823493004">
        <ele>50.07421875</ele>
        <time>2026-04-27T09:25:53Z</time>
      </trkpt>
      <trkpt lat="52.410042118281126" lon="7.777715474367142">
        <ele>49.8359375</ele>
        <time>2026-04-27T09:25:57Z</time>
      </trkpt>
      <trkpt lat="52.410165751352906" lon="7.777375169098377">
        <ele>48.98046875</ele>
        <time>2026-04-27T09:26:01Z</time>
      </trkpt>
      <trkpt lat="52.410294832661748" lon="7.777047269046307">
        <ele>48.12109375</ele>
        <time>2026-04-27T09:26:05Z</time>
      </trkpt>
      <trkpt lat="52.410430535674095" lon="7.776731187477708">
        <ele>47.21484375</ele>
        <time>2026-04-27T09:26:09Z</time>
      </trkpt>
      <trkpt lat="52.410552576184273" lon="7.776421140879393">
        <ele>46.4296875</ele>
        <time>2026-04-27T09:26:13Z</time>
      </trkpt>
      <trkpt lat="52.410688949748874" lon="7.776078823953867">
        <ele>46.16796875</ele>
        <time>2026-04-27T09:26:17Z</time>
      </trkpt>
      <trkpt lat="52.410819958895445" lon="7.775749666616321">
        <ele>46.71875</ele>
        <time>2026-04-27T09:26:21Z</time>
      </trkpt>
      <trkpt lat="52.410947699099779" lon="7.775445738807321">
        <ele>47.23828125</ele>
        <time>2026-04-27T09:26:25Z</time>
      </trkpt>
      <trkpt lat="52.411059094592929" lon="7.775143990293145">
        <ele>47.58984375</ele>
        <time>2026-04-27T09:26:29Z</time>
      </trkpt>
      <trkpt lat="52.411171328276396" lon="7.774841906502843">
        <ele>47.7265625</ele>
        <time>2026-04-27T09:26:33Z</time>
      </trkpt>
      <trkpt lat="52.411291440948844" lon="7.774540157988668">
        <ele>47.87109375</ele>
        <time>2026-04-27T09:26:37Z</time>
      </trkpt>
      <trkpt lat="52.411412475630641" lon="7.774227345362306">
        <ele>47.984375</ele>
        <time>2026-04-27T09:26:41Z</time>
      </trkpt>
      <trkpt lat="52.411535102874041" lon="7.773930709809065">
        <ele>47.8359375</ele>
        <time>2026-04-27T09:26:45Z</time>
      </trkpt>
      <trkpt lat="52.411662256345153" lon="7.773626111447811">
        <ele>47.68359375</ele>
        <time>2026-04-27T09:26:49Z</time>
      </trkpt>
      <trkpt lat="52.411775831133127" lon="7.773312544450164">
        <ele>47.359375</ele>
        <time>2026-04-27T09:26:53Z</time>
      </trkpt>
      <trkpt lat="52.411896279081702" lon="7.773008113726974">
        <ele>47.1171875</ele>
        <time>2026-04-27T09:26:57Z</time>
      </trkpt>
      <trkpt lat="52.412017649039626" lon="7.772705610841513">
        <ele>46.9296875</ele>
        <time>2026-04-27T09:27:01Z</time>
      </trkpt>
      <trkpt lat="52.412143712863326" lon="7.772395983338356">
        <ele>46.55859375</ele>
        <time>2026-04-27T09:27:05Z</time>
      </trkpt>
      <trkpt lat="52.412259802222252" lon="7.772100688889623">
        <ele>46.23828125</ele>
        <time>2026-04-27T09:27:09Z</time>
      </trkpt>
      <trkpt lat="52.412380082532763" lon="7.771800197660923">
        <ele>46.17578125</ele>
        <time>2026-04-27T09:27:13Z</time>
      </trkpt>
      <trkpt lat="52.41248544305563" lon="7.771525857970119">
        <ele>46.3046875</ele>
        <time>2026-04-27T09:27:17Z</time>
      </trkpt>
      <trkpt lat="52.412543529644608" lon="7.771220589056611">
        <ele>46.375</ele>
        <time>2026-04-27T09:27:23Z</time>
      </trkpt>
      <trkpt lat="52.412340687587857" lon="7.770951949059963">
        <ele>46.28125</ele>
        <time>2026-04-27T09:27:29Z</time>
      </trkpt>
      <trkpt lat="52.412162404507399" lon="7.770745418965817">
        <ele>46.42578125</ele>
        <time>2026-04-27T09:27:33Z</time>
      </trkpt>
      <trkpt lat="52.411973560228944" lon="7.770494297146797">
        <ele>46.7265625</ele>
        <time>2026-04-27T09:27:37Z</time>
      </trkpt>
      <trkpt lat="52.411787733435631" lon="7.770216269418597">
        <ele>46.96875</ele>
        <time>2026-04-27T09:27:41Z</time>
      </trkpt>
      <trkpt lat="52.411640379577875" lon="7.769895577803254">
        <ele>46.68359375</ele>
        <time>2026-04-27T09:27:45Z</time>
      </trkpt>
      <trkpt lat="52.41152185946703" lon="7.769541023299098">
        <ele>46.2578125</ele>
        <time>2026-04-27T09:27:49Z</time>
      </trkpt>
      <trkpt lat="52.411443907767534" lon="7.769164005294442">
        <ele>46.03515625</ele>
        <time>2026-04-27T09:27:53Z</time>
      </trkpt>
      <trkpt lat="52.411394203081727" lon="7.768781203776598">
        <ele>46</ele>
        <time>2026-04-27T09:27:57Z</time>
      </trkpt>
      <trkpt lat="52.411347851157188" lon="7.768396139144898">
        <ele>46</ele>
        <time>2026-04-27T09:28:01Z</time>
      </trkpt>
      <trkpt lat="52.411295380443335" lon="7.768006296828389">
        <ele>46</ele>
        <time>2026-04-27T09:28:05Z</time>
      </trkpt>
      <trkpt lat="52.411249950528145" lon="7.767613520845771">
        <ele>45.84765625</ele>
        <time>2026-04-27T09:28:09Z</time>
      </trkpt>
      <trkpt lat="52.411193288862705" lon="7.767236502841115">
        <ele>45.51953125</ele>
        <time>2026-04-27T09:28:13Z</time>
      </trkpt>
      <trkpt lat="52.411148780956864" lon="7.766874572262168">
        <ele>45.32421875</ele>
        <time>2026-04-27T09:28:17Z</time>
      </trkpt>
      <trkpt lat="52.411100249737501" lon="7.766490513458848">
        <ele>45.55078125</ele>
        <time>2026-04-27T09:28:21Z</time>
      </trkpt>
      <trkpt lat="52.411046605557203" lon="7.766113076359034">
        <ele>45.83984375</ele>
        <time>2026-04-27T09:28:25Z</time>
      </trkpt>
      <trkpt lat="52.411001762375236" lon="7.7657435182482">
        <ele>45.97265625</ele>
        <time>2026-04-27T09:28:29Z</time>
      </trkpt>
      <trkpt lat="52.410959266126156" lon="7.765370523557067">
        <ele>46.0078125</ele>
        <time>2026-04-27T09:28:33Z</time>
      </trkpt>
      <trkpt lat="52.410904699936509" lon="7.765010939911008">
        <ele>46</ele>
        <time>2026-04-27T09:28:37Z</time>
      </trkpt>
      <trkpt lat="52.410862958058715" lon="7.76466753333807">
        <ele>46</ele>
        <time>2026-04-27T09:28:41Z</time>
      </trkpt>
      <trkpt lat="52.410807050764561" lon="7.764293784275651">
        <ele>45.94921875</ele>
        <time>2026-04-27T09:28:45Z</time>
      </trkpt>
      <trkpt lat="52.410760195925832" lon="7.763898745179176">
        <ele>45.8515625</ele>
        <time>2026-04-27T09:28:49Z</time>
      </trkpt>
      <trkpt lat="52.41070537827909" lon="7.763508651405573">
        <ele>45.96484375</ele>
        <time>2026-04-27T09:28:53Z</time>
      </trkpt>
      <trkpt lat="52.410655338317156" lon="7.763123251497746">
        <ele>46.53125</ele>
        <time>2026-04-27T09:28:57Z</time>
      </trkpt>
      <trkpt lat="52.410610914230347" lon="7.762759057804942">
        <ele>46.98828125</ele>
        <time>2026-04-27T09:29:01Z</time>
      </trkpt>
      <trkpt lat="52.41056514903903" lon="7.762375585734844">
        <ele>46.5234375</ele>
        <time>2026-04-27T09:29:05Z</time>
      </trkpt>
      <trkpt lat="52.410507649183273" lon="7.761996136978269">
        <ele>46.05859375</ele>
        <time>2026-04-27T09:29:09Z</time>
      </trkpt>
      <trkpt lat="52.410468840971589" lon="7.761645941063762">
        <ele>45.6484375</ele>
        <time>2026-04-27T09:29:13Z</time>
      </trkpt>
      <trkpt lat="52.410429278388619" lon="7.76127889752388">
        <ele>45.2109375</ele>
        <time>2026-04-27T09:29:17Z</time>
      </trkpt>
      <trkpt lat="52.41038384847343" lon="7.760905902832747">
        <ele>44.94921875</ele>
        <time>2026-04-27T09:29:21Z</time>
      </trkpt>
      <trkpt lat="52.410335568711162" lon="7.760507259517908">
        <ele>44.80078125</ele>
        <time>2026-04-27T09:29:25Z</time>
      </trkpt>
      <trkpt lat="52.410275638103485" lon="7.760097049176693">
        <ele>44.515625</ele>
        <time>2026-04-27T09:29:29Z</time>
      </trkpt>
      <trkpt lat="52.410227106884122" lon="7.759718857705593">
        <ele>44.19921875</ele>
        <time>2026-04-27T09:29:33Z</time>
      </trkpt>
      <trkpt lat="52.410177318379283" lon="7.759372433647513">
        <ele>44.0390625</ele>
        <time>2026-04-27T09:29:37Z</time>
      </trkpt>
      <trkpt lat="52.410134989768267" lon="7.75899751111865">
        <ele>44.2734375</ele>
        <time>2026-04-27T09:29:41Z</time>
      </trkpt>
      <trkpt lat="52.410092996433377" lon="7.75862661190331">
        <ele>44.5546875</ele>
        <time>2026-04-27T09:29:45Z</time>
      </trkpt>
      <trkpt lat="52.410043710842729" lon="7.75824598968029">
        <ele>44.7890625</ele>
        <time>2026-04-27T09:29:49Z</time>
      </trkpt>
      <trkpt lat="52.409992832690477" lon="7.757888669148088">
        <ele>44.95703125</ele>
        <time>2026-04-27T09:29:53Z</time>
      </trkpt>
      <trkpt lat="52.40994798950851" lon="7.757521625608206">
        <ele>44.77734375</ele>
        <time>2026-04-27T09:29:57Z</time>
      </trkpt>
      <trkpt lat="52.409901637583971" lon="7.757149804383516">
        <ele>44.40234375</ele>
        <time>2026-04-27T09:30:01Z</time>
      </trkpt>
      <trkpt lat="52.409849334508181" lon="7.756770690903068">
        <ele>44.3125</ele>
        <time>2026-04-27T09:30:05Z</time>
      </trkpt>
      <trkpt lat="52.409799210727215" lon="7.75638428516686">
        <ele>44.6953125</ele>
        <time>2026-04-27T09:30:09Z</time>
      </trkpt>
      <trkpt lat="52.409756882116199" lon="7.75601489469409">
        <ele>45.00390625</ele>
        <time>2026-04-27T09:30:13Z</time>
      </trkpt>
      <trkpt lat="52.409701561555266" lon="7.755635278299451">
        <ele>45</ele>
        <time>2026-04-27T09:30:17Z</time>
      </trkpt>
      <trkpt lat="52.409655880182981" lon="7.755253734067082">
        <ele>45.0234375</ele>
        <time>2026-04-27T09:30:21Z</time>
      </trkpt>
      <trkpt lat="52.409620927646756" lon="7.754868166521192">
        <ele>45.48828125</ele>
        <time>2026-04-27T09:30:25Z</time>
      </trkpt>
      <trkpt lat="52.409569462761283" lon="7.754503889009357">
        <ele>45.92578125</ele>
        <time>2026-04-27T09:30:29Z</time>
      </trkpt>
      <trkpt lat="52.409518416970968" lon="7.754148161038756">
        <ele>47.41015625</ele>
        <time>2026-04-27T09:30:33Z</time>
      </trkpt>
      <trkpt lat="52.409464353695512" lon="7.753765527158976">
        <ele>49.25</ele>
        <time>2026-04-27T09:30:37Z</time>
      </trkpt>
      <trkpt lat="52.409416828304529" lon="7.753403009846807">
        <ele>50.6484375</ele>
        <time>2026-04-27T09:30:41Z</time>
      </trkpt>
      <trkpt lat="52.409378690645099" lon="7.753037139773369">
        <ele>51.765625</ele>
        <time>2026-04-27T09:30:45Z</time>
      </trkpt>
      <trkpt lat="52.409325465559959" lon="7.752697337418795">
        <ele>52.46484375</ele>
        <time>2026-04-27T09:30:49Z</time>
      </trkpt>
      <trkpt lat="52.40928347222507" lon="7.752316882833839">
        <ele>52.16015625</ele>
        <time>2026-04-27T09:30:53Z</time>
      </trkpt>
      <trkpt lat="52.409236282110214" lon="7.751933159306645">
        <ele>51.78515625</ele>
        <time>2026-04-27T09:30:57Z</time>
      </trkpt>
      <trkpt lat="52.40919697098434" lon="7.751580867916346">
        <ele>50.99609375</ele>
        <time>2026-04-27T09:31:01Z</time>
      </trkpt>
      <trkpt lat="52.409161766991019" lon="7.751223044469953">
        <ele>50.16796875</ele>
        <time>2026-04-27T09:31:05Z</time>
      </trkpt>
      <trkpt lat="52.409106362611055" lon="7.750839907675982">
        <ele>49.08984375</ele>
        <time>2026-04-27T09:31:09Z</time>
      </trkpt>
      <trkpt lat="52.409036625176668" lon="7.750427182763815">
        <ele>47.84765625</ele>
        <time>2026-04-27T09:31:13Z</time>
      </trkpt>
      <trkpt lat="52.408990692347288" lon="7.750063827261329">
        <ele>47.01171875</ele>
        <time>2026-04-27T09:31:17Z</time>
      </trkpt>
      <trkpt lat="52.408943250775337" lon="7.749698543921113">
        <ele>46.38671875</ele>
        <time>2026-04-27T09:31:21Z</time>
      </trkpt>
      <trkpt lat="52.408892791718245" lon="7.74931825697422">
        <ele>46.03125</ele>
        <time>2026-04-27T09:31:25Z</time>
      </trkpt>
      <trkpt lat="52.408848870545626" lon="7.748927576467395">
        <ele>46.1875</ele>
        <time>2026-04-27T09:31:29Z</time>
      </trkpt>
      <trkpt lat="52.40879924967885" lon="7.748535973951221">
        <ele>46.4375</ele>
        <time>2026-04-27T09:31:33Z</time>
      </trkpt>
      <trkpt lat="52.408753484487534" lon="7.748113693669438">
        <ele>46.91796875</ele>
        <time>2026-04-27T09:31:37Z</time>
      </trkpt>
      <trkpt lat="52.40870394743979" lon="7.747741620987654">
        <ele>47.125</ele>
        <time>2026-04-27T09:31:41Z</time>
      </trkpt>
      <trkpt lat="52.408656505867839" lon="7.747385893017054">
        <ele>46.0703125</ele>
        <time>2026-04-27T09:31:45Z</time>
      </trkpt>
      <trkpt lat="52.408613339066505" lon="7.747033769264817">
        <ele>44.9375</ele>
        <time>2026-04-27T09:31:49Z</time>
      </trkpt>
      <trkpt lat="52.408623397350311" lon="7.746677538380027">
        <ele>44.34375</ele>
        <time>2026-04-27T09:31:53Z</time>
      </trkpt>
      <trkpt lat="52.408656338229775" lon="7.746320469304919">
        <ele>43.953125</ele>
        <time>2026-04-27T09:31:57Z</time>
      </trkpt>
      <trkpt lat="52.408713502809405" lon="7.745962981134653">
        <ele>43.9140625</ele>
        <time>2026-04-27T09:32:01Z</time>
      </trkpt>
      <trkpt lat="52.40877091884613" lon="7.745581101626158">
        <ele>44.3828125</ele>
        <time>2026-04-27T09:32:05Z</time>
      </trkpt>
      <trkpt lat="52.408855659887195" lon="7.745170304551721">
        <ele>44.890625</ele>
        <time>2026-04-27T09:32:09Z</time>
      </trkpt>
      <trkpt lat="52.408918272703886" lon="7.74482580833137">
        <ele>45.03125</ele>
        <time>2026-04-27T09:32:13Z</time>
      </trkpt>
      <trkpt lat="52.408982897177339" lon="7.744510397315025">
        <ele>45.1875</ele>
        <time>2026-04-27T09:32:17Z</time>
      </trkpt>
      <trkpt lat="52.409050287678838" lon="7.744181826710701">
        <ele>45.62109375</ele>
        <time>2026-04-27T09:32:21Z</time>
      </trkpt>
      <trkpt lat="52.409129748120904" lon="7.743823751807213">
        <ele>46.09375</ele>
        <time>2026-04-27T09:32:25Z</time>
      </trkpt>
      <trkpt lat="52.409231839701533" lon="7.74350356310606">
        <ele>46.6640625</ele>
        <time>2026-04-27T09:32:29Z</time>
      </trkpt>
      <trkpt lat="52.409351700916886" lon="7.743209861218929">
        <ele>47.515625</ele>
        <time>2026-04-27T09:32:33Z</time>
      </trkpt>
      <trkpt lat="52.409484051167965" lon="7.742946920916438">
        <ele>48.3046875</ele>
        <time>2026-04-27T09:32:37Z</time>
      </trkpt>
      <trkpt lat="52.409640289843082" lon="7.742701917886734">
        <ele>48.71484375</ele>
        <time>2026-04-27T09:32:41Z</time>
      </trkpt>
      <trkpt lat="52.409837348386645" lon="7.742508044466376">
        <ele>48.3828125</ele>
        <time>2026-04-27T09:32:45Z</time>
      </trkpt>
      <trkpt lat="52.410052428022027" lon="7.742386255413294">
        <ele>48.23046875</ele>
        <time>2026-04-27T09:32:49Z</time>
      </trkpt>
      <trkpt lat="52.410270441323519" lon="7.74236798286438">
        <ele>48.32421875</ele>
        <time>2026-04-27T09:32:53Z</time>
      </trkpt>
      <trkpt lat="52.410490298643708" lon="7.742379549890757">
        <ele>48.47265625</ele>
        <time>2026-04-27T09:32:57Z</time>
      </trkpt>
      <trkpt lat="52.410709988325834" lon="7.742326995357871">
        <ele>48.1875</ele>
        <time>2026-04-27T09:33:01Z</time>
      </trkpt>
      <trkpt lat="52.410919619724154" lon="7.742175366729498">
        <ele>47.5390625</ele>
        <time>2026-04-27T09:33:05Z</time>
      </trkpt>
      <trkpt lat="52.411111816763878" lon="7.741930531337857">
        <ele>46.69140625</ele>
        <time>2026-04-27T09:33:09Z</time>
      </trkpt>
      <trkpt lat="52.411270402371883" lon="7.741591231897473">
        <ele>46.30859375</ele>
        <time>2026-04-27T09:33:13Z</time>
      </trkpt>
      <trkpt lat="52.411364782601595" lon="7.741210358217359">
        <ele>46.08203125</ele>
        <time>2026-04-27T09:33:17Z</time>
      </trkpt>
      <trkpt lat="52.411449020728469" lon="7.740828478708863">
        <ele>46.61328125</ele>
        <time>2026-04-27T09:33:21Z</time>
      </trkpt>
      <trkpt lat="52.411543149501085" lon="7.740425812080503">
        <ele>47.34375</ele>
        <time>2026-04-27T09:33:25Z</time>
      </trkpt>
      <trkpt lat="52.411632752045989" lon="7.740032700821757">
        <ele>47.22265625</ele>
        <time>2026-04-27T09:33:29Z</time>
      </trkpt>
      <trkpt lat="52.41170953027904" lon="7.739660125225782">
        <ele>46.78515625</ele>
        <time>2026-04-27T09:33:33Z</time>
      </trkpt>
      <trkpt lat="52.411788487806916" lon="7.739300457760692">
        <ele>46.25390625</ele>
        <time>2026-04-27T09:33:37Z</time>
      </trkpt>
      <trkpt lat="52.411871217191219" lon="7.738942969590426">
        <ele>45.55859375</ele>
        <time>2026-04-27T09:33:41Z</time>
      </trkpt>
      <trkpt lat="52.411947827786207" lon="7.738587157800794">
        <ele>45.01171875</ele>
        <time>2026-04-27T09:33:45Z</time>
      </trkpt>
      <trkpt lat="52.412013541907072" lon="7.738233860582113">
        <ele>45.21875</ele>
        <time>2026-04-27T09:33:49Z</time>
      </trkpt>
      <trkpt lat="52.41209358908236" lon="7.737892046570778">
        <ele>45.58203125</ele>
        <time>2026-04-27T09:33:53Z</time>
      </trkpt>
      <trkpt lat="52.412173887714744" lon="7.73753983899951">
        <ele>45.859375</ele>
        <time>2026-04-27T09:33:57Z</time>
      </trkpt>
      <trkpt lat="52.412249827757478" lon="7.737208753824234">
        <ele>45.98046875</ele>
        <time>2026-04-27T09:34:01Z</time>
      </trkpt>
      <trkpt lat="52.412319229915738" lon="7.736868197098374">
        <ele>45.79296875</ele>
        <time>2026-04-27T09:34:05Z</time>
      </trkpt>
      <trkpt lat="52.412403719499707" lon="7.736498974263668">
        <ele>45.25</ele>
        <time>2026-04-27T09:34:09Z</time>
      </trkpt>
      <trkpt lat="52.41248301230371" lon="7.736114077270031">
        <ele>44.70703125</ele>
        <time>2026-04-27T09:34:13Z</time>
      </trkpt>
      <trkpt lat="52.412568256258965" lon="7.735755667090416">
        <ele>45.03515625</ele>
        <time>2026-04-27T09:34:17Z</time>
      </trkpt>
      <trkpt lat="52.412641430273652" lon="7.735397759824991">
        <ele>45.375</ele>
        <time>2026-04-27T09:34:21Z</time>
      </trkpt>
      <trkpt lat="52.41272684186697" lon="7.735027363523841">
        <ele>45.53125</ele>
        <time>2026-04-27T09:34:25Z</time>
      </trkpt>
      <trkpt lat="52.412817450240254" lon="7.734671048820019">
        <ele>45.515625</ele>
        <time>2026-04-27T09:34:29Z</time>
      </trkpt>
      <trkpt lat="52.412885511294007" lon="7.734309285879135">
        <ele>45.2578125</ele>
        <time>2026-04-27T09:34:33Z</time>
      </trkpt>
      <trkpt lat="52.412920128554106" lon="7.73394693620503">
        <ele>44.73828125</ele>
        <time>2026-04-27T09:34:37Z</time>
      </trkpt>
      <trkpt lat="52.412908980622888" lon="7.733592046424747">
        <ele>44.4375</ele>
        <time>2026-04-27T09:34:41Z</time>
      </trkpt>
      <trkpt lat="52.412903029471636" lon="7.733217040076852">
        <ele>45.265625</ele>
        <time>2026-04-27T09:34:45Z</time>
      </trkpt>
      <trkpt lat="52.412899257615209" lon="7.732848571613431">
        <ele>46.0703125</ele>
        <time>2026-04-27T09:34:49Z</time>
      </trkpt>
      <trkpt lat="52.412890875712037" lon="7.732479181140661">
        <ele>46.875</ele>
        <time>2026-04-27T09:34:53Z</time>
      </trkpt>
      <trkpt lat="52.41287293843925" lon="7.732094284147024">
        <ele>47.70703125</ele>
        <time>2026-04-27T09:34:57Z</time>
      </trkpt>
      <trkpt lat="52.412861790508032" lon="7.73172858171165">
        <ele>48.33984375</ele>
        <time>2026-04-27T09:35:01Z</time>
      </trkpt>
      <trkpt lat="52.412850391119719" lon="7.731395401060581">
        <ele>48.84765625</ele>
        <time>2026-04-27T09:35:05Z</time>
      </trkpt>
      <trkpt lat="52.412832202389836" lon="7.731083845719695">
        <ele>49.19921875</ele>
        <time>2026-04-27T09:35:09Z</time>
      </trkpt>
      <trkpt lat="52.412845278158784" lon="7.730758879333735">
        <ele>48.50390625</ele>
        <time>2026-04-27T09:35:13Z</time>
      </trkpt>
      <trkpt lat="52.412881152704358" lon="7.730375910177827">
        <ele>47.625</ele>
        <time>2026-04-27T09:35:17Z</time>
      </trkpt>
      <trkpt lat="52.412939239293337" lon="7.729956898838282">
        <ele>46.84375</ele>
        <time>2026-04-27T09:35:21Z</time>
      </trkpt>
      <trkpt lat="52.413005791604519" lon="7.729567894712091">
        <ele>46.21484375</ele>
        <time>2026-04-27T09:35:25Z</time>
      </trkpt>
      <trkpt lat="52.41307376883924" lon="7.729187775403261">
        <ele>46.33203125</ele>
        <time>2026-04-27T09:35:29Z</time>
      </trkpt>
      <trkpt lat="52.413147194311023" lon="7.72883296944201">
        <ele>46.84765625</ele>
        <time>2026-04-27T09:35:33Z</time>
      </trkpt>
      <trkpt lat="52.413209220394492" lon="7.728524850681424">
        <ele>47.1953125</ele>
        <time>2026-04-27T09:35:37Z</time>
      </trkpt>
      <trkpt lat="52.413236210122705" lon="7.728179600089788">
        <ele>47.31640625</ele>
        <time>2026-04-27T09:35:43Z</time>
      </trkpt>
      <trkpt lat="52.41301853209734" lon="7.727885227650404">
        <ele>46.94921875</ele>
        <time>2026-04-27T09:35:49Z</time>
      </trkpt>
      <trkpt lat="52.412901688367128" lon="7.727595381438732">
        <ele>46.37890625</ele>
        <time>2026-04-27T09:35:53Z</time>
      </trkpt>
      <trkpt lat="52.412783671170473" lon="7.727244012057781">
        <ele>45.5703125</ele>
        <time>2026-04-27T09:35:57Z</time>
      </trkpt>
      <trkpt lat="52.412635311484337" lon="7.726908400654793">
        <ele>44.94140625</ele>
        <time>2026-04-27T09:36:01Z</time>
      </trkpt>
      <trkpt lat="52.412449819967151" lon="7.726595671847463">
        <ele>44.5625</ele>
        <time>2026-04-27T09:36:05Z</time>
      </trkpt>
      <trkpt lat="52.412273548543453" lon="7.726330468431115">
        <ele>44.24609375</ele>
        <time>2026-04-27T09:36:09Z</time>
      </trkpt>
      <trkpt lat="52.41211554966867" lon="7.726073060184717">
        <ele>44.0078125</ele>
        <time>2026-04-27T09:36:13Z</time>
      </trkpt>
      <trkpt lat="52.411922430619597" lon="7.725872313603759">
        <ele>44.11328125</ele>
        <time>2026-04-27T09:36:17Z</time>
      </trkpt>
      <trkpt lat="52.411713721230626" lon="7.725712973624468">
        <ele>44.30859375</ele>
        <time>2026-04-27T09:36:21Z</time>
      </trkpt>
      <trkpt lat="52.411508280783892" lon="7.725589172914624">
        <ele>44.55859375</ele>
        <time>2026-04-27T09:36:25Z</time>
      </trkpt>
      <trkpt lat="52.411296386271715" lon="7.725471910089254">
        <ele>44.8828125</ele>
        <time>2026-04-27T09:36:29Z</time>
      </trkpt>
      <trkpt lat="52.411089856177568" lon="7.725414242595434">
        <ele>45.171875</ele>
        <time>2026-04-27T09:36:33Z</time>
      </trkpt>
      <trkpt lat="52.410904699936509" lon="7.72548439912498">
        <ele>45.2265625</ele>
        <time>2026-04-27T09:36:37Z</time>
      </trkpt>
      <trkpt lat="52.41065114736557" lon="7.725341571494937">
        <ele>45.7890625</ele>
        <time>2026-04-27T09:36:41Z</time>
      </trkpt>
      <trkpt lat="52.410454172641039" lon="7.725144764408469">
        <ele>45.6875</ele>
        <time>2026-04-27T09:36:45Z</time>
      </trkpt>
      <trkpt lat="52.410224340856075" lon="7.725070752203465">
        <ele>45.3203125</ele>
        <time>2026-04-27T09:36:49Z</time>
      </trkpt>
      <trkpt lat="52.410001214593649" lon="7.725064717233181">
        <ele>45.046875</ele>
        <time>2026-04-27T09:36:53Z</time>
      </trkpt>
      <trkpt lat="52.409787811338902" lon="7.724994393065572">
        <ele>44.70703125</ele>
        <time>2026-04-27T09:36:57Z</time>
      </trkpt>
      <trkpt lat="52.409583209082484" lon="7.724927086383104">
        <ele>44.71875</ele>
        <time>2026-04-27T09:37:01Z</time>
      </trkpt>
      <trkpt lat="52.409343821927905" lon="7.724893810227513">
        <ele>44.96875</ele>
        <time>2026-04-27T09:37:05Z</time>
      </trkpt>
      <trkpt lat="52.409085491672158" lon="7.724805800244212">
        <ele>45.32421875</ele>
        <time>2026-04-27T09:37:09Z</time>
      </trkpt>
      <trkpt lat="52.408834788948298" lon="7.724700691178441">
        <ele>45.6875</ele>
        <time>2026-04-27T09:37:13Z</time>
      </trkpt>
      <trkpt lat="52.408610908314586" lon="7.724602706730366">
        <ele>45.76953125</ele>
        <time>2026-04-27T09:37:17Z</time>
      </trkpt>
      <trkpt lat="52.408385686576366" lon="7.724510589614511">
        <ele>45.90234375</ele>
        <time>2026-04-27T09:37:21Z</time>
      </trkpt>
      <trkpt lat="52.408164823427796" lon="7.72440648637712">
        <ele>45.9296875</ele>
        <time>2026-04-27T09:37:25Z</time>
      </trkpt>
      <trkpt lat="52.407916802912951" lon="7.724304059520364">
        <ele>45.69921875</ele>
        <time>2026-04-27T09:37:29Z</time>
      </trkpt>
      <trkpt lat="52.407662412151694" lon="7.7241968549788">
        <ele>45.50390625</ele>
        <time>2026-04-27T09:37:33Z</time>
      </trkpt>
      <trkpt lat="52.407426042482257" lon="7.724160309880972">
        <ele>45.42578125</ele>
        <time>2026-04-27T09:37:37Z</time>
      </trkpt>
      <trkpt lat="52.407192690297961" lon="7.724226610735059">
        <ele>45.265625</ele>
        <time>2026-04-27T09:37:41Z</time>
      </trkpt>
      <trkpt lat="52.406967887654901" lon="7.724319566041231">
        <ele>45.11328125</ele>
        <time>2026-04-27T09:37:45Z</time>
      </trkpt>
      <trkpt lat="52.406748281791806" lon="7.72444018162787">
        <ele>45.01171875</ele>
        <time>2026-04-27T09:37:49Z</time>
      </trkpt>
      <trkpt lat="52.406529178842902" lon="7.72454378195107">
        <ele>44.8984375</ele>
        <time>2026-04-27T09:37:53Z</time>
      </trkpt>
      <trkpt lat="52.406303202733397" lon="7.724593738093972">
        <ele>44.7578125</ele>
        <time>2026-04-27T09:37:57Z</time>
      </trkpt>
      <trkpt lat="52.406052751466632" lon="7.724608071148396">
        <ele>44.55078125</ele>
        <time>2026-04-27T09:38:01Z</time>
      </trkpt>
      <trkpt lat="52.405797187238932" lon="7.724609412252903">
        <ele>44.35546875</ele>
        <time>2026-04-27T09:38:05Z</time>
      </trkpt>
      <trkpt lat="52.40555277094245" lon="7.724633300676942">
        <ele>44.19921875</ele>
        <time>2026-04-27T09:38:09Z</time>
      </trkpt>
      <trkpt lat="52.405306259170175" lon="7.7246078196913">
        <ele>44.06640625</ele>
        <time>2026-04-27T09:38:13Z</time>
      </trkpt>
      <trkpt lat="52.40506611764431" lon="7.724580997601152">
        <ele>43.96875</ele>
        <time>2026-04-27T09:38:17Z</time>
      </trkpt>
      <trkpt lat="52.404853887856007" lon="7.724567502737045">
        <ele>43.90625</ele>
        <time>2026-04-27T09:38:21Z</time>
      </trkpt>
      <trkpt lat="52.404620619490743" lon="7.724546547979116">
        <ele>43.91015625</ele>
        <time>2026-04-27T09:38:25Z</time>
      </trkpt>
      <trkpt lat="52.4043776281178" lon="7.724543446674943">
        <ele>43.94140625</ele>
        <time>2026-04-27T09:38:29Z</time>
      </trkpt>
      <trkpt lat="52.404120471328497" lon="7.724529281258583">
        <ele>43.9765625</ele>
        <time>2026-04-27T09:38:33Z</time>
      </trkpt>
      <trkpt lat="52.403865493834019" lon="7.724503632634878">
        <ele>44</ele>
        <time>2026-04-27T09:38:37Z</time>
      </trkpt>
      <trkpt lat="52.403633231297135" lon="7.724491646513343">
        <ele>44</ele>
        <time>2026-04-27T09:38:41Z</time>
      </trkpt>
      <trkpt lat="52.403403650969267" lon="7.724487036466599">
        <ele>44</ele>
        <time>2026-04-27T09:38:45Z</time>
      </trkpt>
      <trkpt lat="52.403135513886809" lon="7.724567418918014">
        <ele>44</ele>
        <time>2026-04-27T09:38:49Z</time>
      </trkpt>
      <trkpt lat="52.402878776192665" lon="7.724548811092973">
        <ele>44.23046875</ele>
        <time>2026-04-27T09:38:53Z</time>
      </trkpt>
      <trkpt lat="52.402630420401692" lon="7.724487790837884">
        <ele>44.52734375</ele>
        <time>2026-04-27T09:38:57Z</time>
      </trkpt>
      <trkpt lat="52.40239379927516" lon="7.724475134164095">
        <ele>44.8125</ele>
        <time>2026-04-27T09:39:01Z</time>
      </trkpt>
      <trkpt lat="52.402174109593034" lon="7.7244265191257">
        <ele>44.921875</ele>
        <time>2026-04-27T09:39:05Z</time>
      </trkpt>
      <trkpt lat="52.401951821520925" lon="7.724396260455251">
        <ele>44.65625</ele>
        <time>2026-04-27T09:39:09Z</time>
      </trkpt>
      <trkpt lat="52.401710590347648" lon="7.724428698420525">
        <ele>44.3671875</ele>
        <time>2026-04-27T09:39:13Z</time>
      </trkpt>
      <trkpt lat="52.401457792147994" lon="7.724422411993146">
        <ele>44.0625</ele>
        <time>2026-04-27T09:39:17Z</time>
      </trkpt>
      <trkpt lat="52.401211699470878" lon="7.724418304860592">
        <ele>44.234375</ele>
        <time>2026-04-27T09:39:21Z</time>
      </trkpt>
      <trkpt lat="52.400975581258535" lon="7.724403720349073">
        <ele>44.515625</ele>
        <time>2026-04-27T09:39:25Z</time>
      </trkpt>
      <trkpt lat="52.400743821635842" lon="7.724383352324367">
        <ele>44.79296875</ele>
        <time>2026-04-27T09:39:29Z</time>
      </trkpt>
      <trkpt lat="52.400506697595119" lon="7.72438108921051">
        <ele>44.921875</ele>
        <time>2026-04-27T09:39:33Z</time>
      </trkpt>
      <trkpt lat="52.40029614418745" lon="7.724377317354083">
        <ele>44.66796875</ele>
        <time>2026-04-27T09:39:37Z</time>
      </trkpt>
      <trkpt lat="52.400064300745726" lon="7.724445881322026">
        <ele>44.390625</ele>
        <time>2026-04-27T09:39:41Z</time>
      </trkpt>
      <trkpt lat="52.399820471182466" lon="7.724427860230207">
        <ele>44.09765625</ele>
        <time>2026-04-27T09:39:45Z</time>
      </trkpt>
      <trkpt lat="52.399571947753429" lon="7.724383184686303">
        <ele>44</ele>
        <time>2026-04-27T09:39:49Z</time>
      </trkpt>
      <trkpt lat="52.399310600012541" lon="7.724319063127041">
        <ele>44</ele>
        <time>2026-04-27T09:39:53Z</time>
      </trkpt>
      <trkpt lat="52.399064088240266" lon="7.724217223003507">
        <ele>44</ele>
        <time>2026-04-27T09:39:57Z</time>
      </trkpt>
      <trkpt lat="52.398830149322748" lon="7.724119490012527">
        <ele>43.9609375</ele>
        <time>2026-04-27T09:40:01Z</time>
      </trkpt>
      <trkpt lat="52.398605849593878" lon="7.724029049277306">
        <ele>43.8125</ele>
        <time>2026-04-27T09:40:05Z</time>
      </trkpt>
      <trkpt lat="52.398362271487713" lon="7.723946152254939">
        <ele>43.59765625</ele>
        <time>2026-04-27T09:40:09Z</time>
      </trkpt>
      <trkpt lat="52.398132272064686" lon="7.7238445635885">
        <ele>43.3125</ele>
        <time>2026-04-27T09:40:13Z</time>
      </trkpt>
      <trkpt lat="52.397894477471709" lon="7.723754458129406">
        <ele>43.3359375</ele>
        <time>2026-04-27T09:40:17Z</time>
      </trkpt>
      <trkpt lat="52.397657772526145" lon="7.723666867241263">
        <ele>43.5234375</ele>
        <time>2026-04-27T09:40:21Z</time>
      </trkpt>
      <trkpt lat="52.397430874407291" lon="7.723583970218897">
        <ele>43.73046875</ele>
        <time>2026-04-27T09:40:25Z</time>
      </trkpt>
      <trkpt lat="52.397195678204298" lon="7.723493445664644">
        <ele>43.89453125</ele>
        <time>2026-04-27T09:40:29Z</time>
      </trkpt>
      <trkpt lat="52.396968780085444" lon="7.723375177010894">
        <ele>44.0234375</ele>
        <time>2026-04-27T09:40:33Z</time>
      </trkpt>
      <trkpt lat="52.396753700450063" lon="7.723276438191533">
        <ele>44.1640625</ele>
        <time>2026-04-27T09:40:37Z</time>
      </trkpt>
      <trkpt lat="52.396538117900491" lon="7.72319077514112">
        <ele>44.3203125</ele>
        <time>2026-04-27T09:40:41Z</time>
      </trkpt>
      <trkpt lat="52.396312057971954" lon="7.723110811784864">
        <ele>44.56640625</ele>
        <time>2026-04-27T09:40:45Z</time>
      </trkpt>
      <trkpt lat="52.396088428795338" lon="7.72302363999188">
        <ele>44.9375</ele>
        <time>2026-04-27T09:40:49Z</time>
      </trkpt>
      <trkpt lat="52.395851388573647" lon="7.722921883687377">
        <ele>45.390625</ele>
        <time>2026-04-27T09:40:53Z</time>
      </trkpt>
      <trkpt lat="52.395616611465812" lon="7.722834795713425">
        <ele>45.90625</ele>
        <time>2026-04-27T09:40:57Z</time>
      </trkpt>
      <trkpt lat="52.395390886813402" lon="7.722751060500741">
        <ele>46.4453125</ele>
        <time>2026-04-27T09:41:01Z</time>
      </trkpt>
      <trkpt lat="52.39516943693161" lon="7.722674701362848">
        <ele>46.9765625</ele>
        <time>2026-04-27T09:41:05Z</time>
      </trkpt>
      <trkpt lat="52.39495393820107" lon="7.722640838474035">
        <ele>47.4921875</ele>
        <time>2026-04-27T09:41:09Z</time>
      </trkpt>
      <trkpt lat="52.394717568531632" lon="7.722571352496743">
        <ele>48.046875</ele>
        <time>2026-04-27T09:41:13Z</time>
      </trkpt>
      <trkpt lat="52.394469548016787" lon="7.722473619505763">
        <ele>48.58203125</ele>
        <time>2026-04-27T09:41:17Z</time>
      </trkpt>
      <trkpt lat="52.394228987395763" lon="7.722363900393248">
        <ele>49.25390625</ele>
        <time>2026-04-27T09:41:21Z</time>
      </trkpt>
      <trkpt lat="52.393966969102621" lon="7.722249235957861">
        <ele>50.15234375</ele>
        <time>2026-04-27T09:41:25Z</time>
      </trkpt>
      <trkpt lat="52.39370989613235" lon="7.722146892920137">
        <ele>50.3671875</ele>
        <time>2026-04-27T09:41:29Z</time>
      </trkpt>
      <trkpt lat="52.393447710201144" lon="7.72205326706171">
        <ele>50.28515625</ele>
        <time>2026-04-27T09:41:33Z</time>
      </trkpt>
      <trkpt lat="52.393192648887634" lon="7.721972800791264">
        <ele>50.125</ele>
        <time>2026-04-27T09:41:37Z</time>
      </trkpt>
      <trkpt lat="52.392956949770451" lon="7.721844054758549">
        <ele>49.55078125</ele>
        <time>2026-04-27T09:41:41Z</time>
      </trkpt>
      <trkpt lat="52.392730303108692" lon="7.721709525212646">
        <ele>48.8515625</ele>
        <time>2026-04-27T09:41:45Z</time>
      </trkpt>
      <trkpt lat="52.392486641183496" lon="7.721649259328842">
        <ele>48.2734375</ele>
        <time>2026-04-27T09:41:49Z</time>
      </trkpt>
      <trkpt lat="52.392248678952456" lon="7.721556974574924">
        <ele>47.55078125</ele>
        <time>2026-04-27T09:41:53Z</time>
      </trkpt>
      <trkpt lat="52.392018008977175" lon="7.721465360373259">
        <ele>48.30078125</ele>
        <time>2026-04-27T09:41:57Z</time>
      </trkpt>
      <trkpt lat="52.391804018989205" lon="7.721422193571925">
        <ele>49.171875</ele>
        <time>2026-04-27T09:42:01Z</time>
      </trkpt>
      <trkpt lat="52.391568655148149" lon="7.721385229378939">
        <ele>50.16796875</ele>
        <time>2026-04-27T09:42:05Z</time>
      </trkpt>
      <trkpt lat="52.391334380954504" lon="7.721316833049059">
        <ele>50.65625</ele>
        <time>2026-04-27T09:42:09Z</time>
      </trkpt>
      <trkpt lat="52.391118966042995" lon="7.721226140856743">
        <ele>50.30859375</ele>
        <time>2026-04-27T09:42:13Z</time>
      </trkpt>
      <trkpt lat="52.390921991318464" lon="7.721153721213341">
        <ele>50.0703125</ele>
        <time>2026-04-27T09:42:17Z</time>
      </trkpt>
      <trkpt lat="52.390701211988926" lon="7.721114074811339">
        <ele>49.93359375</ele>
        <time>2026-04-27T09:42:21Z</time>
      </trkpt>
      <trkpt lat="52.390436511486769" lon="7.721019107848406">
        <ele>49.02734375</ele>
        <time>2026-04-27T09:42:25Z</time>
      </trkpt>
      <trkpt lat="52.390179522335529" lon="7.720893966034055">
        <ele>47.83984375</ele>
        <time>2026-04-27T09:42:29Z</time>
      </trkpt>
      <trkpt lat="52.389925634488463" lon="7.720795227214694">
        <ele>46.98828125</ele>
        <time>2026-04-27T09:42:33Z</time>
      </trkpt>
      <trkpt lat="52.389677027240396" lon="7.720642173662782">
        <ele>46.4296875</ele>
        <time>2026-04-27T09:42:37Z</time>
      </trkpt>
      <trkpt lat="52.389438143000007" lon="7.72057369351387">
        <ele>46.45703125</ele>
        <time>2026-04-27T09:42:41Z</time>
      </trkpt>
      <trkpt lat="52.389227170497179" lon="7.720511835068464">
        <ele>46.55859375</ele>
        <time>2026-04-27T09:42:45Z</time>
      </trkpt>
      <trkpt lat="52.38903078250587" lon="7.720393147319555">
        <ele>46.7734375</ele>
        <time>2026-04-27T09:42:49Z</time>
      </trkpt>
      <trkpt lat="52.388837411999702" lon="7.720274962484837">
        <ele>46.88671875</ele>
        <time>2026-04-27T09:42:53Z</time>
      </trkpt>
      <trkpt lat="52.388601880520582" lon="7.720200447365642">
        <ele>46.5546875</ele>
        <time>2026-04-27T09:42:57Z</time>
      </trkpt>
      <trkpt lat="52.388356039300561" lon="7.720107911154628">
        <ele>46.2578125</ele>
        <time>2026-04-27T09:43:01Z</time>
      </trkpt>
      <trkpt lat="52.388121513649821" lon="7.720000119879842">
        <ele>46.03125</ele>
        <time>2026-04-27T09:43:05Z</time>
      </trkpt>
      <trkpt lat="52.387883048504591" lon="7.719936082139611">
        <ele>46</ele>
        <time>2026-04-27T09:43:09Z</time>
      </trkpt>
      <trkpt lat="52.38766998052597" lon="7.719866847619414">
        <ele>46</ele>
        <time>2026-04-27T09:43:13Z</time>
      </trkpt>
      <trkpt lat="52.387478202581406" lon="7.719855364412069">
        <ele>46</ele>
        <time>2026-04-27T09:43:17Z</time>
      </trkpt>
      <trkpt lat="52.387244431301951" lon="7.719805324450135">
        <ele>46.00390625</ele>
        <time>2026-04-27T09:43:21Z</time>
      </trkpt>
      <trkpt lat="52.386989202350378" lon="7.719703316688538">
        <ele>46.3984375</ele>
        <time>2026-04-27T09:43:25Z</time>
      </trkpt>
      <trkpt lat="52.386742439121008" lon="7.71961304359138">
        <ele>46.71484375</ele>
        <time>2026-04-27T09:43:29Z</time>
      </trkpt>
      <trkpt lat="52.386507075279951" lon="7.719524363055825">
        <ele>46.953125</ele>
        <time>2026-04-27T09:43:33Z</time>
      </trkpt>
      <trkpt lat="52.386286379769444" lon="7.719452949240804">
        <ele>47.4453125</ele>
        <time>2026-04-27T09:43:37Z</time>
      </trkpt>
      <trkpt lat="52.386071803048253" lon="7.719384636729956">
        <ele>48.0625</ele>
        <time>2026-04-27T09:43:41Z</time>
      </trkpt>
      <trkpt lat="52.38585420884192" lon="7.719303835183382">
        <ele>48.5703125</ele>
        <time>2026-04-27T09:43:45Z</time>
      </trkpt>
      <trkpt lat="52.385619431734085" lon="7.719210376963019">
        <ele>48.98046875</ele>
        <time>2026-04-27T09:43:49Z</time>
      </trkpt>
      <trkpt lat="52.385350037366152" lon="7.719090431928635">
        <ele>48.47265625</ele>
        <time>2026-04-27T09:43:53Z</time>
      </trkpt>
      <trkpt lat="52.385112829506397" lon="7.718974258750677">
        <ele>48.10546875</ele>
        <time>2026-04-27T09:43:57Z</time>
      </trkpt>
      <trkpt lat="52.384883416816592" lon="7.718871831893921">
        <ele>47.98046875</ele>
        <time>2026-04-27T09:44:01Z</time>
      </trkpt>
      <trkpt lat="52.384643610566854" lon="7.71876722574234">
        <ele>47.7265625</ele>
        <time>2026-04-27T09:44:05Z</time>
      </trkpt>
      <trkpt lat="52.384401122108102" lon="7.718661278486252">
        <ele>47.1484375</ele>
        <time>2026-04-27T09:44:09Z</time>
      </trkpt>
      <trkpt lat="52.384159471839666" lon="7.718549715355039">
        <ele>46.61328125</ele>
        <time>2026-04-27T09:44:13Z</time>
      </trkpt>
      <trkpt lat="52.383924359455705" lon="7.718441588804126">
        <ele>46.0234375</ele>
        <time>2026-04-27T09:44:17Z</time>
      </trkpt>
      <trkpt lat="52.383701987564564" lon="7.718331702053547">
        <ele>46.09375</ele>
        <time>2026-04-27T09:44:21Z</time>
      </trkpt>
      <trkpt lat="52.383475508540869" lon="7.718223156407476">
        <ele>46.2578125</ele>
        <time>2026-04-27T09:44:25Z</time>
      </trkpt>
      <trkpt lat="52.383266799151897" lon="7.718138583004475">
        <ele>46.4609375</ele>
        <time>2026-04-27T09:44:29Z</time>
      </trkpt>
      <trkpt lat="52.383081559091806" lon="7.718055685982108">
        <ele>46.69140625</ele>
        <time>2026-04-27T09:44:33Z</time>
      </trkpt>
      <trkpt lat="52.382880728691816" lon="7.717972034588456">
        <ele>46.7890625</ele>
        <time>2026-04-27T09:44:37Z</time>
      </trkpt>
      <trkpt lat="52.382661709561944" lon="7.717848652973771">
        <ele>46.9375</ele>
        <time>2026-04-27T09:44:41Z</time>
      </trkpt>
      <trkpt lat="52.382401283830404" lon="7.717726863920689">
        <ele>47.015625</ele>
        <time>2026-04-27T09:44:45Z</time>
      </trkpt>
      <trkpt lat="52.382126608863473" lon="7.717614797875285">
        <ele>46.8203125</ele>
        <time>2026-04-27T09:44:49Z</time>
      </trkpt>
      <trkpt lat="52.381865931674838" lon="7.717474233359098">
        <ele>46.359375</ele>
        <time>2026-04-27T09:44:53Z</time>
      </trkpt>
      <trkpt lat="52.381610618904233" lon="7.717359568923712">
        <ele>45.828125</ele>
        <time>2026-04-27T09:44:57Z</time>
      </trkpt>
      <trkpt lat="52.381376679986715" lon="7.717256136238575">
        <ele>45.36328125</ele>
        <time>2026-04-27T09:45:01Z</time>
      </trkpt>
      <trkpt lat="52.381139220669866" lon="7.717205006629229">
        <ele>45.4296875</ele>
        <time>2026-04-27T09:45:05Z</time>
      </trkpt>
      <trkpt lat="52.380907544866204" lon="7.717181788757443">
        <ele>45.5546875</ele>
        <time>2026-04-27T09:45:09Z</time>
      </trkpt>
      <trkpt lat="52.380661871284246" lon="7.717172652482987">
        <ele>45.703125</ele>
        <time>2026-04-27T09:45:13Z</time>
      </trkpt>
      <trkpt lat="52.380430279299617" lon="7.717162761837244">
        <ele>46.2734375</ele>
        <time>2026-04-27T09:45:17Z</time>
      </trkpt>
      <trkpt lat="52.380194831639528" lon="7.717171730473638">
        <ele>47.0390625</ele>
        <time>2026-04-27T09:45:21Z</time>
      </trkpt>
      <trkpt lat="52.379958881065249" lon="7.717197965830565">
        <ele>47.765625</ele>
        <time>2026-04-27T09:45:25Z</time>
      </trkpt>
      <trkpt lat="52.379723098129034" lon="7.717210119590163">
        <ele>48.4453125</ele>
        <time>2026-04-27T09:45:29Z</time>
      </trkpt>
      <trkpt lat="52.379488069564104" lon="7.717214226722717">
        <ele>48.71875</ele>
        <time>2026-04-27T09:45:33Z</time>
      </trkpt>
      <trkpt lat="52.379255471751094" lon="7.717183968052268">
        <ele>49.0703125</ele>
        <time>2026-04-27T09:45:37Z</time>
      </trkpt>
      <trkpt lat="52.379025975242257" lon="7.71721095778048">
        <ele>49.28125</ele>
        <time>2026-04-27T09:45:41Z</time>
      </trkpt>
      <trkpt lat="52.37880083732307" lon="7.717196457087994">
        <ele>49.27734375</ele>
        <time>2026-04-27T09:45:45Z</time>
      </trkpt>
      <trkpt lat="52.378589110448956" lon="7.71718799136579">
        <ele>48.98828125</ele>
        <time>2026-04-27T09:45:49Z</time>
      </trkpt>
      <trkpt lat="52.378361457958817" lon="7.717264266684651">
        <ele>48.6640625</ele>
        <time>2026-04-27T09:45:53Z</time>
      </trkpt>
      <trkpt lat="52.378153838217258" lon="7.71732428111136">
        <ele>48.48828125</ele>
        <time>2026-04-27T09:45:57Z</time>
      </trkpt>
      <trkpt lat="52.377931047230959" lon="7.717293687164784">
        <ele>48.20703125</ele>
        <time>2026-04-27T09:46:01Z</time>
      </trkpt>
      <trkpt lat="52.377741280943155" lon="7.717207605019212">
        <ele>47.87890625</ele>
        <time>2026-04-27T09:46:05Z</time>
      </trkpt>
      <trkpt lat="52.377701047807932" lon="7.717053042724729">
        <ele>47.64453125</ele>
        <time>2026-04-27T09:46:21Z</time>
      </trkpt>
      <trkpt lat="52.377861812710762" lon="7.716824803501368">
        <ele>47.484375</ele>
        <time>2026-04-27T09:46:27Z</time>
      </trkpt>
      <trkpt lat="52.378009250387549" lon="7.716645263135433">
        <ele>47.2109375</ele>
        <time>2026-04-27T09:46:31Z</time>
      </trkpt>
      <trkpt lat="52.378169260919094" lon="7.716494053602219">
        <ele>47.0703125</ele>
        <time>2026-04-27T09:46:39Z</time>
      </trkpt>
      <trkpt lat="52.378086363896728" lon="7.716593462973833">
        <ele>47.109375</ele>
        <time>2026-04-27T09:47:03Z</time>
      </trkpt>
      <trkpt lat="52.377912858501077" lon="7.716797478497028">
        <ele>47.47265625</ele>
        <time>2026-04-27T09:47:11Z</time>
      </trkpt>
      <trkpt lat="52.377711944282055" lon="7.716726148501039">
        <ele>47.234375</ele>
        <time>2026-04-27T09:47:19Z</time>
      </trkpt>
      <trkpt lat="52.377603566274047" lon="7.716475110501051">
        <ele>46.92578125</ele>
        <time>2026-04-27T09:47:23Z</time>
      </trkpt>
      <trkpt lat="52.377482783049345" lon="7.716084932908416">
        <ele>46.7109375</ele>
        <time>2026-04-27T09:47:29Z</time>
      </trkpt>
      <trkpt lat="52.377406172454357" lon="7.71580858156085">
        <ele>46.74609375</ele>
        <time>2026-04-27T09:47:33Z</time>
      </trkpt>
      <trkpt lat="52.377338781952858" lon="7.715505324304104">
        <ele>46.8203125</ele>
        <time>2026-04-27T09:47:37Z</time>
      </trkpt>
      <trkpt lat="52.377282790839672" lon="7.715181866660714">
        <ele>46.9296875</ele>
        <time>2026-04-27T09:47:41Z</time>
      </trkpt>
      <trkpt lat="52.377263931557536" lon="7.714819433167577">
        <ele>46.9765625</ele>
        <time>2026-04-27T09:47:45Z</time>
      </trkpt>
      <trkpt lat="52.377240210771561" lon="7.714433111250401">
        <ele>47.09375</ele>
        <time>2026-04-27T09:47:49Z</time>
      </trkpt>
      <trkpt lat="52.37722160294652" lon="7.714042766019702">
        <ele>48.015625</ele>
        <time>2026-04-27T09:47:53Z</time>
      </trkpt>
      <trkpt lat="52.377200061455369" lon="7.713674884289503">
        <ele>48.84375</ele>
        <time>2026-04-27T09:47:57Z</time>
      </trkpt>
      <trkpt lat="52.377160750329494" lon="7.713297866284847">
        <ele>48.484375</ele>
        <time>2026-04-27T09:48:01Z</time>
      </trkpt>
      <trkpt lat="52.377104088664055" lon="7.712916573509574">
        <ele>47.9609375</ele>
        <time>2026-04-27T09:48:05Z</time>
      </trkpt>
      <trkpt lat="52.377051617950201" lon="7.712518600746989">
        <ele>47.41796875</ele>
        <time>2026-04-27T09:48:09Z</time>
      </trkpt>
      <trkpt lat="52.376997554674745" lon="7.712105624377728">
        <ele>46.859375</ele>
        <time>2026-04-27T09:48:13Z</time>
      </trkpt>
      <trkpt lat="52.376923961564898" lon="7.711699018254876">
        <ele>46.80078125</ele>
        <time>2026-04-27T09:48:17Z</time>
      </trkpt>
      <trkpt lat="52.376818098127842" lon="7.711337255313993">
        <ele>46.83984375</ele>
        <time>2026-04-27T09:48:21Z</time>
      </trkpt>
      <trkpt lat="52.376689016819" lon="7.710928386077285">
        <ele>46.484375</ele>
        <time>2026-04-27T09:48:25Z</time>
      </trkpt>
      <trkpt lat="52.376566724851727" lon="7.710539884865284">
        <ele>46.1015625</ele>
        <time>2026-04-27T09:48:29Z</time>
      </trkpt>
      <trkpt lat="52.37646471709013" lon="7.710173008963466">
        <ele>45.9921875</ele>
        <time>2026-04-27T09:48:33Z</time>
      </trkpt>
      <trkpt lat="52.376391123980284" lon="7.709812251850963">
        <ele>45.96484375</ele>
        <time>2026-04-27T09:48:37Z</time>
      </trkpt>
      <trkpt lat="52.376332031562924" lon="7.709442023187876">
        <ele>45.8984375</ele>
        <time>2026-04-27T09:48:41Z</time>
      </trkpt>
      <trkpt lat="52.376277968287468" lon="7.709087720140815">
        <ele>45.90625</ele>
        <time>2026-04-27T09:48:45Z</time>
      </trkpt>
      <trkpt lat="52.376222899183631" lon="7.708674073219299">
        <ele>45.98828125</ele>
        <time>2026-04-27T09:48:49Z</time>
      </trkpt>
      <trkpt lat="52.376158777624369" lon="7.708274256438017">
        <ele>45.703125</ele>
        <time>2026-04-27T09:48:53Z</time>
      </trkpt>
      <trkpt lat="52.376092728227377" lon="7.70787569694221">
        <ele>45.4453125</ele>
        <time>2026-04-27T09:48:57Z</time>
      </trkpt>
      <trkpt lat="52.376034641638398" lon="7.707490129396319">
        <ele>45.83984375</ele>
        <time>2026-04-27T09:49:01Z</time>
      </trkpt>
      <trkpt lat="52.375974878668785" lon="7.707112524658442">
        <ele>46.3671875</ele>
        <time>2026-04-27T09:49:05Z</time>
      </trkpt>
      <trkpt lat="52.375912768766284" lon="7.706733327358961">
        <ele>46.32421875</ele>
        <time>2026-04-27T09:49:09Z</time>
      </trkpt>
      <trkpt lat="52.37583925947547" lon="7.706339545547962">
        <ele>45.94140625</ele>
        <time>2026-04-27T09:49:13Z</time>
      </trkpt>
      <trkpt lat="52.375750159844756" lon="7.705970406532288">
        <ele>45.60546875</ele>
        <time>2026-04-27T09:49:17Z</time>
      </trkpt>
      <trkpt lat="52.375656953081489" lon="7.705605290830135">
        <ele>45.27734375</ele>
        <time>2026-04-27T09:49:21Z</time>
      </trkpt>
      <trkpt lat="52.375557795166969" lon="7.705245036631823">
        <ele>45.21484375</ele>
        <time>2026-04-27T09:49:25Z</time>
      </trkpt>
      <trkpt lat="52.375441789627075" lon="7.704868689179421">
        <ele>46.30859375</ele>
        <time>2026-04-27T09:49:29Z</time>
      </trkpt>
      <trkpt lat="52.3753472417593" lon="7.704541375860572">
        <ele>47.1484375</ele>
        <time>2026-04-27T09:49:33Z</time>
      </trkpt>
      <trkpt lat="52.375291669741273" lon="7.704186486080289">
        <ele>47.796875</ele>
        <time>2026-04-27T09:49:37Z</time>
      </trkpt>
      <trkpt lat="52.375283036381006" lon="7.703820280730724">
        <ele>48.359375</ele>
        <time>2026-04-27T09:49:41Z</time>
      </trkpt>
      <trkpt lat="52.375301141291857" lon="7.703527249395847">
        <ele>48.69921875</ele>
        <time>2026-04-27T09:49:45Z</time>
      </trkpt>
      <trkpt lat="52.375334165990353" lon="7.703161714598537">
        <ele>48.91796875</ele>
        <time>2026-04-27T09:49:51Z</time>
      </trkpt>
      <trkpt lat="52.375202151015401" lon="7.703004218637943">
        <ele>48.59375</ele>
        <time>2026-04-27T09:50:01Z</time>
      </trkpt>
      <trkpt lat="52.374998135492206" lon="7.702965494245291">
        <ele>47.953125</ele>
        <time>2026-04-27T09:50:07Z</time>
      </trkpt>
      <trkpt lat="52.374731758609414" lon="7.70295225083828">
        <ele>47.11328125</ele>
        <time>2026-04-27T09:50:13Z</time>
      </trkpt>
      <trkpt lat="52.374517349526286" lon="7.702930709347129">
        <ele>46.53515625</ele>
        <time>2026-04-27T09:50:17Z</time>
      </trkpt>
      <trkpt lat="52.37431232817471" lon="7.702914280816913">
        <ele>45.99609375</ele>
        <time>2026-04-27T09:50:21Z</time>
      </trkpt>
      <trkpt lat="52.374103618785739" lon="7.702887039631605">
        <ele>45.45703125</ele>
        <time>2026-04-27T09:50:25Z</time>
      </trkpt>
      <trkpt lat="52.373897507786751" lon="7.702867090702057">
        <ele>45.02734375</ele>
        <time>2026-04-27T09:50:29Z</time>
      </trkpt>
      <trkpt lat="52.373673627153039" lon="7.702841861173511">
        <ele>45.28515625</ele>
        <time>2026-04-27T09:50:33Z</time>
      </trkpt>
      <trkpt lat="52.373446309939027" lon="7.702809507027268">
        <ele>45.5703125</ele>
        <time>2026-04-27T09:50:37Z</time>
      </trkpt>
      <trkpt lat="52.373229218646884" lon="7.702810177579522">
        <ele>45.828125</ele>
        <time>2026-04-27T09:50:41Z</time>
      </trkpt>
      <trkpt lat="52.373004080727696" lon="7.702856529504061">
        <ele>45.9453125</ele>
        <time>2026-04-27T09:50:45Z</time>
      </trkpt>
      <trkpt lat="52.37278388813138" lon="7.702918471768498">
        <ele>45.9140625</ele>
        <time>2026-04-27T09:50:49Z</time>
      </trkpt>
      <trkpt lat="52.372579872608185" lon="7.702958034351468">
        <ele>45.9296875</ele>
        <time>2026-04-27T09:50:53Z</time>
      </trkpt>
      <trkpt lat="52.37235439941287" lon="7.702996004372835">
        <ele>45.97265625</ele>
        <time>2026-04-27T09:50:57Z</time>
      </trkpt>
      <trkpt lat="52.372132278978825" lon="7.703057359904051">
        <ele>46.1484375</ele>
        <time>2026-04-27T09:51:01Z</time>
      </trkpt>
      <trkpt lat="52.371917199343443" lon="7.703116703778505">
        <ele>46.40625</ele>
        <time>2026-04-27T09:51:05Z</time>
      </trkpt>
      <trkpt lat="52.371723409742117" lon="7.703138329088688">
        <ele>46.640625</ele>
        <time>2026-04-27T09:51:09Z</time>
      </trkpt>
      <trkpt lat="52.37151050940156" lon="7.703132713213563">
        <ele>46.89453125</ele>
        <time>2026-04-27T09:51:13Z</time>
      </trkpt>
      <trkpt lat="52.371311690658331" lon="7.703155679628253">
        <ele>46.88671875</ele>
        <time>2026-04-27T09:51:17Z</time>
      </trkpt>
      <trkpt lat="52.371125360950828" lon="7.703161127865315">
        <ele>46.6953125</ele>
        <time>2026-04-27T09:51:21Z</time>
      </trkpt>
      <trkpt lat="52.370937187224627" lon="7.703176969662309">
        <ele>46.48046875</ele>
        <time>2026-04-27T09:51:25Z</time>
      </trkpt>
      <trkpt lat="52.370729651302099" lon="7.703309822827578">
        <ele>45.9921875</ele>
        <time>2026-04-27T09:51:31Z</time>
      </trkpt>
      <trkpt lat="52.37067055888474" lon="7.703664796426892">
        <ele>45.16015625</ele>
        <time>2026-04-27T09:51:35Z</time>
      </trkpt>
      <trkpt lat="52.370596379041672" lon="7.704022955149412">
        <ele>44.55078125</ele>
        <time>2026-04-27T09:51:39Z</time>
      </trkpt>
      <trkpt lat="52.370501914992929" lon="7.704346664249897">
        <ele>44.2421875</ele>
        <time>2026-04-27T09:51:43Z</time>
      </trkpt>
      <trkpt lat="52.370421281084418" lon="7.704634163528681">
        <ele>44.203125</ele>
        <time>2026-04-27T09:51:47Z</time>
      </trkpt>
      <trkpt lat="52.370299072936177" lon="7.70484521985054">
        <ele>44.3515625</ele>
        <time>2026-04-27T09:51:53Z</time>
      </trkpt>
      <trkpt lat="52.370077539235353" lon="7.704889811575413">
        <ele>44.6171875</ele>
        <time>2026-04-27T09:51:59Z</time>
      </trkpt>
      <trkpt lat="52.369876457378268" lon="7.705056024715304">
        <ele>44.859375</ele>
        <time>2026-04-27T09:52:03Z</time>
      </trkpt>
      <trkpt lat="52.369652492925525" lon="7.705132970586419">
        <ele>44.875</ele>
        <time>2026-04-27T09:52:07Z</time>
      </trkpt>
      <trkpt lat="52.369435569271445" lon="7.705254843458533">
        <ele>44.61328125</ele>
        <time>2026-04-27T09:52:11Z</time>
      </trkpt>
      <trkpt lat="52.369230380281806" lon="7.705387696623802">
        <ele>44.328125</ele>
        <time>2026-04-27T09:52:15Z</time>
      </trkpt>
      <trkpt lat="52.369036506861448" lon="7.705566566437483">
        <ele>44.08984375</ele>
        <time>2026-04-27T09:52:19Z</time>
      </trkpt>
      <trkpt lat="52.368862666189671" lon="7.70576722919941">
        <ele>44</ele>
        <time>2026-04-27T09:52:23Z</time>
      </trkpt>
      <trkpt lat="52.368679521605372" lon="7.705997144803405">
        <ele>44</ele>
        <time>2026-04-27T09:52:27Z</time>
      </trkpt>
      <trkpt lat="52.368506016209722" lon="7.706212224438787">
        <ele>43.95703125</ele>
        <time>2026-04-27T09:52:31Z</time>
      </trkpt>
      <trkpt lat="52.36831340007484" lon="7.706423364579678">
        <ele>43.91015625</ele>
        <time>2026-04-27T09:52:35Z</time>
      </trkpt>
      <trkpt lat="52.368128411471844" lon="7.706580860540271">
        <ele>43.9765625</ele>
        <time>2026-04-27T09:52:39Z</time>
      </trkpt>
      <trkpt lat="52.367935460060835" lon="7.706712959334254">
        <ele>44.05859375</ele>
        <time>2026-04-27T09:52:43Z</time>
      </trkpt>
      <trkpt lat="52.367729432880878" lon="7.706830473616719">
        <ele>44.07421875</ele>
        <time>2026-04-27T09:52:47Z</time>
      </trkpt>
      <trkpt lat="52.367520807310939" lon="7.706926111131907">
        <ele>44.03515625</ele>
        <time>2026-04-27T09:52:51Z</time>
      </trkpt>
      <trkpt lat="52.367303548380733" lon="7.706983527168632">
        <ele>44.02734375</ele>
        <time>2026-04-27T09:52:55Z</time>
      </trkpt>
      <trkpt lat="52.367075812071562" lon="7.707004984840751">
        <ele>44.07421875</ele>
        <time>2026-04-27T09:52:59Z</time>
      </trkpt>
      <trkpt lat="52.366864420473576" lon="7.707038093358278">
        <ele>44.125</ele>
        <time>2026-04-27T09:53:03Z</time>
      </trkpt>
      <trkpt lat="52.36667406745255" lon="7.707022754475474">
        <ele>44.08203125</ele>
        <time>2026-04-27T09:53:07Z</time>
      </trkpt>
      <trkpt lat="52.366492180153728" lon="7.707028705626726">
        <ele>44.07421875</ele>
        <time>2026-04-27T09:53:11Z</time>
      </trkpt>
      <trkpt lat="52.366287996992469" lon="7.707032645121217">
        <ele>44.21484375</ele>
        <time>2026-04-27T09:53:15Z</time>
      </trkpt>
      <trkpt lat="52.366077695041895" lon="7.707051085308194">
        <ele>44.43359375</ele>
        <time>2026-04-27T09:53:19Z</time>
      </trkpt>
      <trkpt lat="52.365857670083642" lon="7.707076985388994">
        <ele>44.63671875</ele>
        <time>2026-04-27T09:53:23Z</time>
      </trkpt>
      <trkpt lat="52.365649798884988" lon="7.707120906561613">
        <ele>44.77734375</ele>
        <time>2026-04-27T09:53:27Z</time>
      </trkpt>
      <trkpt lat="52.365417871624231" lon="7.707185028120875">
        <ele>44.953125</ele>
        <time>2026-04-27T09:53:31Z</time>
      </trkpt>
      <trkpt lat="52.365207821130753" lon="7.707260381430388">
        <ele>45.1171875</ele>
        <time>2026-04-27T09:53:35Z</time>
      </trkpt>
      <trkpt lat="52.364984024316072" lon="7.70735576748848">
        <ele>45.26953125</ele>
        <time>2026-04-27T09:53:39Z</time>
      </trkpt>
      <trkpt lat="52.364770453423262" lon="7.707466743886471">
        <ele>45.39453125</ele>
        <time>2026-04-27T09:53:43Z</time>
      </trkpt>
      <trkpt lat="52.364565096795559" lon="7.707603704184294">
        <ele>45.00390625</ele>
        <time>2026-04-27T09:53:47Z</time>
      </trkpt>
      <trkpt lat="52.364360578358173" lon="7.707748962566257">
        <ele>44.5859375</ele>
        <time>2026-04-27T09:53:51Z</time>
      </trkpt>
      <trkpt lat="52.364158490672708" lon="7.707915678620338">
        <ele>44.375</ele>
        <time>2026-04-27T09:53:55Z</time>
      </trkpt>
      <trkpt lat="52.363976016640663" lon="7.708089351654053">
        <ele>44.37890625</ele>
        <time>2026-04-27T09:53:59Z</time>
      </trkpt>
      <trkpt lat="52.363788848742843" lon="7.708283476531506">
        <ele>44.71875</ele>
        <time>2026-04-27T09:54:03Z</time>
      </trkpt>
      <trkpt lat="52.363614421337843" lon="7.708482043817639">
        <ele>44.953125</ele>
        <time>2026-04-27T09:54:07Z</time>
      </trkpt>
      <trkpt lat="52.363436641171575" lon="7.708708271384239">
        <ele>45</ele>
        <time>2026-04-27T09:54:11Z</time>
      </trkpt>
      <trkpt lat="52.3632747028023" lon="7.708942294120789">
        <ele>45</ele>
        <time>2026-04-27T09:54:15Z</time>
      </trkpt>
      <trkpt lat="52.363104885444045" lon="7.709178999066353">
        <ele>45</ele>
        <time>2026-04-27T09:54:19Z</time>
      </trkpt>
      <trkpt lat="52.36295560374856" lon="7.70944126881659">
        <ele>45</ele>
        <time>2026-04-27T09:54:23Z</time>
      </trkpt>
      <trkpt lat="52.36279777251184" lon="7.709733126685023">
        <ele>45.31640625</ele>
        <time>2026-04-27T09:54:29Z</time>
      </trkpt>
      <trkpt lat="52.362737590447068" lon="7.709578145295382">
        <ele>45.12890625</ele>
        <time>2026-04-27T09:54:41Z</time>
      </trkpt>
      <trkpt lat="52.362710181623697" lon="7.709293160587549">
        <ele>45</ele>
        <time>2026-04-27T09:54:51Z</time>
      </trkpt>
      <trkpt lat="52.362727029249072" lon="7.709354851394892">
        <ele>45</ele>
        <time>2026-04-27T10:32:29Z</time>
      </trkpt>
      <trkpt lat="52.362751085311174" lon="7.709727846086025">
        <ele>45.30859375</ele>
        <time>2026-04-27T10:32:39Z</time>
      </trkpt>
      <trkpt lat="52.362658968195319" lon="7.7100192848593">
        <ele>45.66015625</ele>
        <time>2026-04-27T10:32:45Z</time>
      </trkpt>
      <trkpt lat="52.362529803067446" lon="7.710340898483992">
        <ele>46.03125</ele>
        <time>2026-04-27T10:32:51Z</time>
      </trkpt>
      <trkpt lat="52.362404409796" lon="7.710665529593825">
        <ele>46.1484375</ele>
        <time>2026-04-27T10:32:57Z</time>
      </trkpt>
      <trkpt lat="52.362303240224719" lon="7.710979515686631">
        <ele>46.078125</ele>
        <time>2026-04-27T10:33:03Z</time>
      </trkpt>
      <trkpt lat="52.362196873873472" lon="7.711347481235862">
        <ele>46.078125</ele>
        <time>2026-04-27T10:33:09Z</time>
      </trkpt>
      <trkpt lat="52.362084137275815" lon="7.711736736819148">
        <ele>46.21484375</ele>
        <time>2026-04-27T10:33:15Z</time>
      </trkpt>
      <trkpt lat="52.362021189182997" lon="7.712036306038499">
        <ele>46.23046875</ele>
        <time>2026-04-27T10:33:19Z</time>
      </trkpt>
      <trkpt lat="52.361958660185337" lon="7.712358590215445">
        <ele>46.06640625</ele>
        <time>2026-04-27T10:33:23Z</time>
      </trkpt>
      <trkpt lat="52.361896215006709" lon="7.712681712582707">
        <ele>45.9609375</ele>
        <time>2026-04-27T10:33:27Z</time>
      </trkpt>
      <trkpt lat="52.361867297440767" lon="7.713023945689201">
        <ele>45.96484375</ele>
        <time>2026-04-27T10:33:31Z</time>
      </trkpt>
      <trkpt lat="52.361830919981003" lon="7.713351007550955">
        <ele>46.01171875</ele>
        <time>2026-04-27T10:33:35Z</time>
      </trkpt>
      <trkpt lat="52.361804516986012" lon="7.713682176545262">
        <ele>46.05859375</ele>
        <time>2026-04-27T10:33:39Z</time>
      </trkpt>
      <trkpt lat="52.361778533086181" lon="7.714024828746915">
        <ele>46.46875</ele>
        <time>2026-04-27T10:33:43Z</time>
      </trkpt>
      <trkpt lat="52.361739557236433" lon="7.714377623051405">
        <ele>46.89453125</ele>
        <time>2026-04-27T10:33:47Z</time>
      </trkpt>
      <trkpt lat="52.361714830622077" lon="7.71475849673152">
        <ele>47.58203125</ele>
        <time>2026-04-27T10:33:51Z</time>
      </trkpt>
      <trkpt lat="52.361671328544617" lon="7.715106094256043">
        <ele>48.3125</ele>
        <time>2026-04-27T10:33:55Z</time>
      </trkpt>
      <trkpt lat="52.361661689355969" lon="7.715436089783907">
        <ele>48.88671875</ele>
        <time>2026-04-27T10:33:59Z</time>
      </trkpt>
      <trkpt lat="52.361638220027089" lon="7.715771701186895">
        <ele>49.31640625</ele>
        <time>2026-04-27T10:34:03Z</time>
      </trkpt>
      <trkpt lat="52.361571500077844" lon="7.716104462742806">
        <ele>49.796875</ele>
        <time>2026-04-27T10:34:07Z</time>
      </trkpt>
      <trkpt lat="52.361495476216078" lon="7.716403193771839">
        <ele>49.97265625</ele>
        <time>2026-04-27T10:34:11Z</time>
      </trkpt>
      <trkpt lat="52.361407969146967" lon="7.716700583696365">
        <ele>49.97265625</ele>
        <time>2026-04-27T10:34:15Z</time>
      </trkpt>
      <trkpt lat="52.361290287226439" lon="7.716980539262295">
        <ele>49.8203125</ele>
        <time>2026-04-27T10:34:19Z</time>
      </trkpt>
      <trkpt lat="52.361154081299901" lon="7.717241970822215">
        <ele>49.5546875</ele>
        <time>2026-04-27T10:34:23Z</time>
      </trkpt>
      <trkpt lat="52.361026760190725" lon="7.717497870326042">
        <ele>49.49609375</ele>
        <time>2026-04-27T10:34:27Z</time>
      </trkpt>
      <trkpt lat="52.360905390232801" lon="7.71773524582386">
        <ele>49.609375</ele>
        <time>2026-04-27T10:34:31Z</time>
      </trkpt>
      <trkpt lat="52.360743032768369" lon="7.718029702082276">
        <ele>50.0546875</ele>
        <time>2026-04-27T10:34:37Z</time>
      </trkpt>
      <trkpt lat="52.360599869862199" lon="7.718206057325006">
        <ele>50.484375</ele>
        <time>2026-04-27T10:34:43Z</time>
      </trkpt>
      <trkpt lat="52.360448576509953" lon="7.71840563043952">
        <ele>50.6015625</ele>
        <time>2026-04-27T10:35:19Z</time>
      </trkpt>
      <trkpt lat="52.360300133004785" lon="7.718677874654532">
        <ele>50.64453125</ele>
        <time>2026-04-27T10:35:25Z</time>
      </trkpt>
      <trkpt lat="52.360092177987099" lon="7.718927152454853">
        <ele>50.39453125</ele>
        <time>2026-04-27T10:35:31Z</time>
      </trkpt>
      <trkpt lat="52.359944069758058" lon="7.719133263453841">
        <ele>50.21484375</ele>
        <time>2026-04-27T10:35:35Z</time>
      </trkpt>
      <trkpt lat="52.359796799719334" lon="7.719374913722277">
        <ele>50.0390625</ele>
        <time>2026-04-27T10:35:39Z</time>
      </trkpt>
      <trkpt lat="52.359614241868258" lon="7.719590412452817">
        <ele>50.02734375</ele>
        <time>2026-04-27T10:35:43Z</time>
      </trkpt>
      <trkpt lat="52.35942430794239" lon="7.719803983345628">
        <ele>50</ele>
        <time>2026-04-27T10:35:47Z</time>
      </trkpt>
      <trkpt lat="52.359226495027542" lon="7.720014955848455">
        <ele>49.984375</ele>
        <time>2026-04-27T10:35:51Z</time>
      </trkpt>
      <trkpt lat="52.359056929126382" lon="7.720210421830416">
        <ele>49.953125</ele>
        <time>2026-04-27T10:35:55Z</time>
      </trkpt>
      <trkpt lat="52.358896834775805" lon="7.720383675768971">
        <ele>49.9375</ele>
        <time>2026-04-27T10:35:59Z</time>
      </trkpt>
      <trkpt lat="52.358750989660621" lon="7.720572436228395">
        <ele>49.88671875</ele>
        <time>2026-04-27T10:36:03Z</time>
      </trkpt>
      <trkpt lat="52.358580082654953" lon="7.720716269686818">
        <ele>49.91796875</ele>
        <time>2026-04-27T10:36:07Z</time>
      </trkpt>
      <trkpt lat="52.358413031324744" lon="7.720883237197995">
        <ele>49.91796875</ele>
        <time>2026-04-27T10:36:11Z</time>
      </trkpt>
      <trkpt lat="52.35823935829103" lon="7.721061604097486">
        <ele>49.91015625</ele>
        <time>2026-04-27T10:36:15Z</time>
      </trkpt>
      <trkpt lat="52.358082616701722" lon="7.721251286566258">
        <ele>49.83984375</ele>
        <time>2026-04-27T10:36:19Z</time>
      </trkpt>
      <trkpt lat="52.357917912304401" lon="7.721412722021341">
        <ele>49.58984375</ele>
        <time>2026-04-27T10:36:23Z</time>
      </trkpt>
      <trkpt lat="52.357762679457664" lon="7.721571894362569">
        <ele>49.4921875</ele>
        <time>2026-04-27T10:36:27Z</time>
      </trkpt>
      <trkpt lat="52.357532177120447" lon="7.721808012574911">
        <ele>49.61328125</ele>
        <time>2026-04-27T10:36:33Z</time>
      </trkpt>
      <trkpt lat="52.357307290658355" lon="7.72202929481864">
        <ele>49.8671875</ele>
        <time>2026-04-27T10:36:39Z</time>
      </trkpt>
      <trkpt lat="52.357085756957531" lon="7.722254684194922">
        <ele>50.234375</ele>
        <time>2026-04-27T10:36:45Z</time>
      </trkpt>
      <trkpt lat="52.356931697577238" lon="7.722414191812277">
        <ele>50.6953125</ele>
        <time>2026-04-27T10:36:51Z</time>
      </trkpt>
      <trkpt lat="52.356710750609636" lon="7.722628097981215">
        <ele>51.59765625</ele>
        <time>2026-04-27T10:36:59Z</time>
      </trkpt>
      <trkpt lat="52.3564846906811" lon="7.722834711894393">
        <ele>52.75</ele>
        <time>2026-04-27T10:37:05Z</time>
      </trkpt>
      <trkpt lat="52.356246141716838" lon="7.723049456253648">
        <ele>52.70703125</ele>
        <time>2026-04-27T10:37:11Z</time>
      </trkpt>
      <trkpt lat="52.35606593079865" lon="7.723209634423256">
        <ele>52.33984375</ele>
        <time>2026-04-27T10:37:15Z</time>
      </trkpt>
      <trkpt lat="52.355872560292482" lon="7.723407363519073">
        <ele>51.83203125</ele>
        <time>2026-04-27T10:37:19Z</time>
      </trkpt>
      <trkpt lat="52.355672987177968" lon="7.72361246868968">
        <ele>51.19140625</ele>
        <time>2026-04-27T10:37:23Z</time>
      </trkpt>
      <trkpt lat="52.355445083230734" lon="7.723826123401523">
        <ele>50.1875</ele>
        <time>2026-04-27T10:37:27Z</time>
      </trkpt>
      <trkpt lat="52.35518348403275" lon="7.724055703729391">
        <ele>49.47265625</ele>
        <time>2026-04-27T10:37:31Z</time>
      </trkpt>
      <trkpt lat="52.354910569265485" lon="7.72429944947362">
        <ele>49.0859375</ele>
        <time>2026-04-27T10:37:35Z</time>
      </trkpt>
      <trkpt lat="52.354651317000389" lon="7.724562138319016">
        <ele>49.15625</ele>
        <time>2026-04-27T10:37:39Z</time>
      </trkpt>
      <trkpt lat="52.354391729459167" lon="7.724822061136365">
        <ele>49.46875</ele>
        <time>2026-04-27T10:37:43Z</time>
      </trkpt>
      <trkpt lat="52.354123676195741" lon="7.725096400827169">
        <ele>49.78125</ele>
        <time>2026-04-27T10:37:47Z</time>
      </trkpt>
      <trkpt lat="52.353882612660527" lon="7.725402843207121">
        <ele>49.953125</ele>
        <time>2026-04-27T10:37:51Z</time>
      </trkpt>
      <trkpt lat="52.353642638772726" lon="7.72568573243916">
        <ele>49.98046875</ele>
        <time>2026-04-27T10:37:55Z</time>
      </trkpt>
      <trkpt lat="52.35341708175838" lon="7.725934088230133">
        <ele>50.3359375</ele>
        <time>2026-04-27T10:37:59Z</time>
      </trkpt>
      <trkpt lat="52.353215580806136" lon="7.726119747385383">
        <ele>50.8515625</ele>
        <time>2026-04-27T10:38:03Z</time>
      </trkpt>
      <trkpt lat="52.353075770661235" lon="7.726394925266504">
        <ele>51.63671875</ele>
        <time>2026-04-27T10:38:07Z</time>
      </trkpt>
      <trkpt lat="52.352903774008155" lon="7.726602125912905">
        <ele>52.0078125</ele>
        <time>2026-04-27T10:38:11Z</time>
      </trkpt>
      <trkpt lat="52.352709649130702" lon="7.726813266053796">
        <ele>52.26171875</ele>
        <time>2026-04-27T10:38:15Z</time>
      </trkpt>
      <trkpt lat="52.352499850094318" lon="7.726957770064473">
        <ele>52.27734375</ele>
        <time>2026-04-27T10:38:19Z</time>
      </trkpt>
      <trkpt lat="52.352295583114028" lon="7.727068495005369">
        <ele>51.90625</ele>
        <time>2026-04-27T10:38:23Z</time>
      </trkpt>
      <trkpt lat="52.352092070505023" lon="7.727116523310542">
        <ele>51.59765625</ele>
        <time>2026-04-27T10:38:27Z</time>
      </trkpt>
      <trkpt lat="52.351878331974149" lon="7.727127755060792">
        <ele>51.328125</ele>
        <time>2026-04-27T10:38:31Z</time>
      </trkpt>
      <trkpt lat="52.351655121892691" lon="7.727091126143932">
        <ele>51.10546875</ele>
        <time>2026-04-27T10:38:35Z</time>
      </trkpt>
      <trkpt lat="52.351423026993871" lon="7.727037649601698">
        <ele>50.90625</ele>
        <time>2026-04-27T10:38:39Z</time>
      </trkpt>
      <trkpt lat="52.351210210472345" lon="7.727008229121566">
        <ele>50.95703125</ele>
        <time>2026-04-27T10:38:43Z</time>
      </trkpt>
      <trkpt lat="52.350993622094393" lon="7.726989118382335">
        <ele>50.984375</ele>
        <time>2026-04-27T10:38:47Z</time>
      </trkpt>
      <trkpt lat="52.350793210789561" lon="7.727007810026407">
        <ele>50.98828125</ele>
        <time>2026-04-27T10:38:51Z</time>
      </trkpt>
      <trkpt lat="52.350560780614614" lon="7.727131862193346">
        <ele>51.08984375</ele>
        <time>2026-04-27T10:38:57Z</time>
      </trkpt>
      <trkpt lat="52.350377887487411" lon="7.727303942665458">
        <ele>51.4296875</ele>
        <time>2026-04-27T10:39:01Z</time>
      </trkpt>
      <trkpt lat="52.350197592750192" lon="7.727512232959271">
        <ele>51.6484375</ele>
        <time>2026-04-27T10:39:05Z</time>
      </trkpt>
      <trkpt lat="52.350019728764892" lon="7.727664113044739">
        <ele>51.80859375</ele>
        <time>2026-04-27T10:39:09Z</time>
      </trkpt>
      <trkpt lat="52.349833818152547" lon="7.727795289829373">
        <ele>51.921875</ele>
        <time>2026-04-27T10:39:13Z</time>
      </trkpt>
      <trkpt lat="52.34966978430748" lon="7.72795488126576">
        <ele>51.828125</ele>
        <time>2026-04-27T10:39:17Z</time>
      </trkpt>
      <trkpt lat="52.349515808746219" lon="7.728150682523847">
        <ele>51.69921875</ele>
        <time>2026-04-27T10:39:21Z</time>
      </trkpt>
      <trkpt lat="52.349358899518847" lon="7.728380598127842">
        <ele>51.640625</ele>
        <time>2026-04-27T10:39:25Z</time>
      </trkpt>
      <trkpt lat="52.349199391901493" lon="7.728615710511804">
        <ele>51.6875</ele>
        <time>2026-04-27T10:39:29Z</time>
      </trkpt>
      <trkpt lat="52.349066454917192" lon="7.728863982483745">
        <ele>52.08984375</ele>
        <time>2026-04-27T10:39:33Z</time>
      </trkpt>
      <trkpt lat="52.348938630893826" lon="7.729135220870376">
        <ele>52.609375</ele>
        <time>2026-04-27T10:39:37Z</time>
      </trkpt>
      <trkpt lat="52.34879219904542" lon="7.729406794533134">
        <ele>52.78515625</ele>
        <time>2026-04-27T10:39:41Z</time>
      </trkpt>
      <trkpt lat="52.348649119958282" lon="7.729685660451651">
        <ele>52.55859375</ele>
        <time>2026-04-27T10:39:45Z</time>
      </trkpt>
      <trkpt lat="52.348506627604365" lon="7.729953294619918">
        <ele>52.17578125</ele>
        <time>2026-04-27T10:39:49Z</time>
      </trkpt>
      <trkpt lat="52.348341168835759" lon="7.730181282386184">
        <ele>51.66015625</ele>
        <time>2026-04-27T10:39:53Z</time>
      </trkpt>
      <trkpt lat="52.348265731707215" lon="7.730476157739759">
        <ele>51.34375</ele>
        <time>2026-04-27T10:39:57Z</time>
      </trkpt>
      <trkpt lat="52.348152240738273" lon="7.730762735009193">
        <ele>51.08203125</ele>
        <time>2026-04-27T10:40:01Z</time>
      </trkpt>
      <trkpt lat="52.348022907972336" lon="7.731035985052586">
        <ele>51</ele>
        <time>2026-04-27T10:40:05Z</time>
      </trkpt>
      <trkpt lat="52.347882259637117" lon="7.731301272287965">
        <ele>51.11328125</ele>
        <time>2026-04-27T10:40:09Z</time>
      </trkpt>
      <trkpt lat="52.347739599645138" lon="7.73158541880548">
        <ele>51.48828125</ele>
        <time>2026-04-27T10:40:13Z</time>
      </trkpt>
      <trkpt lat="52.347594425082207" lon="7.731825727969408">
        <ele>52.03515625</ele>
        <time>2026-04-27T10:40:17Z</time>
      </trkpt>
      <trkpt lat="52.347433995455503" lon="7.732041226699948">
        <ele>52.71484375</ele>
        <time>2026-04-27T10:40:21Z</time>
      </trkpt>
      <trkpt lat="52.347244648262858" lon="7.732265945523977">
        <ele>53.3828125</ele>
        <time>2026-04-27T10:40:27Z</time>
      </trkpt>
      <trkpt lat="52.347139706835151" lon="7.732583535835147">
        <ele>53.875</ele>
        <time>2026-04-27T10:40:35Z</time>
      </trkpt>
      <trkpt lat="52.347094779834151" lon="7.732945047318935">
        <ele>54.62890625</ele>
        <time>2026-04-27T10:40:41Z</time>
      </trkpt>
      <trkpt lat="52.347047422081232" lon="7.733330950140953">
        <ele>55.74609375</ele>
        <time>2026-04-27T10:40:47Z</time>
      </trkpt>
      <trkpt lat="52.347025126218796" lon="7.733659436926246">
        <ele>56.56640625</ele>
        <time>2026-04-27T10:40:53Z</time>
      </trkpt>
      <trkpt lat="52.34702043235302" lon="7.734005944803357">
        <ele>56.32421875</ele>
        <time>2026-04-27T10:41:01Z</time>
      </trkpt>
      <trkpt lat="52.347042392939329" lon="7.734392937272787">
        <ele>56.0390625</ele>
        <time>2026-04-27T10:41:09Z</time>
      </trkpt>
      <trkpt lat="52.347061168402433" lon="7.734759142622352">
        <ele>55.6328125</ele>
        <time>2026-04-27T10:41:15Z</time>
      </trkpt>
      <trkpt lat="52.34707466326654" lon="7.73512945510447">
        <ele>55.1875</ele>
        <time>2026-04-27T10:41:21Z</time>
      </trkpt>
      <trkpt lat="52.347046583890915" lon="7.735558608546853">
        <ele>54.76171875</ele>
        <time>2026-04-27T10:41:27Z</time>
      </trkpt>
      <trkpt lat="52.34701163135469" lon="7.735855244100094">
        <ele>54.53125</ele>
        <time>2026-04-27T10:41:31Z</time>
      </trkpt>
      <trkpt lat="52.346973493695259" lon="7.736245589330792">
        <ele>54.5078125</ele>
        <time>2026-04-27T10:41:37Z</time>
      </trkpt>
      <trkpt lat="52.3469403013587" lon="7.736544655635953">
        <ele>54.91015625</ele>
        <time>2026-04-27T10:41:41Z</time>
      </trkpt>
      <trkpt lat="52.346904510632157" lon="7.736891079694033">
        <ele>55.3671875</ele>
        <time>2026-04-27T10:41:45Z</time>
      </trkpt>
      <trkpt lat="52.346871821209788" lon="7.737249908968806">
        <ele>55.30859375</ele>
        <time>2026-04-27T10:41:49Z</time>
      </trkpt>
      <trkpt lat="52.346835946664214" lon="7.737594656646252">
        <ele>55.12109375</ele>
        <time>2026-04-27T10:41:53Z</time>
      </trkpt>
      <trkpt lat="52.346796970814466" lon="7.737917527556419">
        <ele>55.08984375</ele>
        <time>2026-04-27T10:41:57Z</time>
      </trkpt>
      <trkpt lat="52.346774423494935" lon="7.73822782561183">
        <ele>55.31640625</ele>
        <time>2026-04-27T10:42:01Z</time>
      </trkpt>
      <trkpt lat="52.346737207844853" lon="7.738538291305304">
        <ele>55.58203125</ele>
        <time>2026-04-27T10:42:05Z</time>
      </trkpt>
      <trkpt lat="52.346700998023152" lon="7.738846074789763">
        <ele>55.87109375</ele>
        <time>2026-04-27T10:42:09Z</time>
      </trkpt>
      <trkpt lat="52.346672248095274" lon="7.739220997318626">
        <ele>56.2421875</ele>
        <time>2026-04-27T10:42:14Z</time>
      </trkpt>
      <trkpt lat="52.346638971939683" lon="7.73951293900609">
        <ele>56.5390625</ele>
        <time>2026-04-27T10:42:18Z</time>
      </trkpt>
      <trkpt lat="52.346616256982088" lon="7.739839581772685">
        <ele>56.671875</ele>
        <time>2026-04-27T10:42:22Z</time>
      </trkpt>
      <trkpt lat="52.346584154292941" lon="7.74016966111958">
        <ele>56.80078125</ele>
        <time>2026-04-27T10:42:26Z</time>
      </trkpt>
      <trkpt lat="52.346553979441524" lon="7.740488341078162">
        <ele>57.07421875</ele>
        <time>2026-04-27T10:42:30Z</time>
      </trkpt>
      <trkpt lat="52.34655724838376" lon="7.740821689367294">
        <ele>57.4140625</ele>
        <time>2026-04-27T10:42:34Z</time>
      </trkpt>
      <trkpt lat="52.346559260040522" lon="7.741152690723538">
        <ele>57.75</ele>
        <time>2026-04-27T10:42:38Z</time>
      </trkpt>
      <trkpt lat="52.346568647772074" lon="7.741481512784958">
        <ele>58.05859375</ele>
        <time>2026-04-27T10:42:42Z</time>
      </trkpt>
      <trkpt lat="52.346545178443193" lon="7.741842521354556">
        <ele>58.50390625</ele>
        <time>2026-04-27T10:42:46Z</time>
      </trkpt>
      <trkpt lat="52.346533695235848" lon="7.742206212133169">
        <ele>58.078125</ele>
        <time>2026-04-27T10:42:50Z</time>
      </trkpt>
      <trkpt lat="52.346524391323328" lon="7.742609800770879">
        <ele>57.1875</ele>
        <time>2026-04-27T10:42:54Z</time>
      </trkpt>
      <trkpt lat="52.346517518162727" lon="7.743007522076368">
        <ele>56.8125</ele>
        <time>2026-04-27T10:42:58Z</time>
      </trkpt>
      <trkpt lat="52.346516009420156" lon="7.743376744911075">
        <ele>56.81640625</ele>
        <time>2026-04-27T10:43:02Z</time>
      </trkpt>
      <trkpt lat="52.346511986106634" lon="7.743707746267319">
        <ele>56.92578125</ele>
        <time>2026-04-27T10:43:06Z</time>
      </trkpt>
      <trkpt lat="52.346516512334347" lon="7.744011171162128">
        <ele>57.24609375</ele>
        <time>2026-04-27T10:43:10Z</time>
      </trkpt>
      <trkpt lat="52.346503771841526" lon="7.744372095912695">
        <ele>57.68359375</ele>
        <time>2026-04-27T10:43:14Z</time>
      </trkpt>
      <trkpt lat="52.346504190936685" lon="7.744696140289307">
        <ele>57.8125</ele>
        <time>2026-04-27T10:43:18Z</time>
      </trkpt>
      <trkpt lat="52.346497820690274" lon="7.745042480528355">
        <ele>57.890625</ele>
        <time>2026-04-27T10:43:22Z</time>
      </trkpt>
      <trkpt lat="52.346502849832177" lon="7.745374571532011">
        <ele>57.93359375</ele>
        <time>2026-04-27T10:43:26Z</time>
      </trkpt>
      <trkpt lat="52.346510728821158" lon="7.7456945925951">
        <ele>57.95703125</ele>
        <time>2026-04-27T10:43:30Z</time>
      </trkpt>
      <trkpt lat="52.346338648349047" lon="7.74582895450294">
        <ele>57.87890625</ele>
        <time>2026-04-27T10:43:34Z</time>
      </trkpt>
      <trkpt lat="52.346140667796135" lon="7.745814369991422">
        <ele>57.640625</ele>
        <time>2026-04-27T10:43:38Z</time>
      </trkpt>
      <trkpt lat="52.345960540696979" lon="7.745805233716965">
        <ele>57.42578125</ele>
        <time>2026-04-27T10:43:42Z</time>
      </trkpt>
      <trkpt lat="52.345829280093312" lon="7.746132630854845">
        <ele>57.27734375</ele>
        <time>2026-04-27T10:43:48Z</time>
      </trkpt>
      <trkpt lat="52.345812432467937" lon="7.746456172317267">
        <ele>57.45703125</ele>
        <time>2026-04-27T10:43:52Z</time>
      </trkpt>
      <trkpt lat="52.345791729167104" lon="7.746826400980353">
        <ele>57.69921875</ele>
        <time>2026-04-27T10:43:56Z</time>
      </trkpt>
      <trkpt lat="52.345772618427873" lon="7.747195539996028">
        <ele>57.80078125</ele>
        <time>2026-04-27T10:44:00Z</time>
      </trkpt>
      <trkpt lat="52.345759123563766" lon="7.747557805851102">
        <ele>57.81640625</ele>
        <time>2026-04-27T10:44:04Z</time>
      </trkpt>
      <trkpt lat="52.345735486596823" lon="7.747883023694158">
        <ele>57.73828125</ele>
        <time>2026-04-27T10:44:08Z</time>
      </trkpt>
      <trkpt lat="52.345724171027541" lon="7.748222909867764">
        <ele>57.40234375</ele>
        <time>2026-04-27T10:44:12Z</time>
      </trkpt>
      <trkpt lat="52.34571335837245" lon="7.748553827404976">
        <ele>57.0625</ele>
        <time>2026-04-27T10:44:16Z</time>
      </trkpt>
      <trkpt lat="52.3456986900419" lon="7.748894970864058">
        <ele>56.62109375</ele>
        <time>2026-04-27T10:44:20Z</time>
      </trkpt>
      <trkpt lat="52.345684021711349" lon="7.749268133193255">
        <ele>56.140625</ele>
        <time>2026-04-27T10:44:24Z</time>
      </trkpt>
      <trkpt lat="52.34566792845726" lon="7.749650431796908">
        <ele>56.15625</ele>
        <time>2026-04-27T10:44:28Z</time>
      </trkpt>
      <trkpt lat="52.345658289268613" lon="7.750030718743801">
        <ele>56.59765625</ele>
        <time>2026-04-27T10:44:32Z</time>
      </trkpt>
      <trkpt lat="52.345644710585475" lon="7.750383513048291">
        <ele>57.03515625</ele>
        <time>2026-04-27T10:44:36Z</time>
      </trkpt>
      <trkpt lat="52.345629036426544" lon="7.750733541324735">
        <ele>57.4921875</ele>
        <time>2026-04-27T10:44:40Z</time>
      </trkpt>
      <trkpt lat="52.34561612829566" lon="7.751088431105018">
        <ele>57.94921875</ele>
        <time>2026-04-27T10:44:44Z</time>
      </trkpt>
      <trkpt lat="52.345597520470619" lon="7.751473411917687">
        <ele>58.42578125</ele>
        <time>2026-04-27T10:44:48Z</time>
      </trkpt>
      <trkpt lat="52.345578912645578" lon="7.751842802390456">
        <ele>58.84765625</ele>
        <time>2026-04-27T10:44:52Z</time>
      </trkpt>
      <trkpt lat="52.345551420003176" lon="7.752212779596448">
        <ele>58.2890625</ele>
        <time>2026-04-27T10:44:56Z</time>
      </trkpt>
      <trkpt lat="52.345526358112693" lon="7.752571441233158">
        <ele>57.39453125</ele>
        <time>2026-04-27T10:45:00Z</time>
      </trkpt>
      <trkpt lat="52.345501128584146" lon="7.752947118133307">
        <ele>57.0546875</ele>
        <time>2026-04-27T10:45:04Z</time>
      </trkpt>
      <trkpt lat="52.345495847985148" lon="7.753325896337628">
        <ele>57.44140625</ele>
        <time>2026-04-27T10:45:08Z</time>
      </trkpt>
      <trkpt lat="52.345482772216201" lon="7.753705512732267">
        <ele>57.73828125</ele>
        <time>2026-04-27T10:45:12Z</time>
      </trkpt>
      <trkpt lat="52.345459470525384" lon="7.754071801900864">
        <ele>57.84375</ele>
        <time>2026-04-27T10:45:16Z</time>
      </trkpt>
      <trkpt lat="52.345432229340076" lon="7.754452591761947">
        <ele>57.98046875</ele>
        <time>2026-04-27T10:45:20Z</time>
      </trkpt>
      <trkpt lat="52.345414292067289" lon="7.754820054396987">
        <ele>57.30078125</ele>
        <time>2026-04-27T10:45:24Z</time>
      </trkpt>
      <trkpt lat="52.345388056710362" lon="7.755170250311494">
        <ele>56.7109375</ele>
        <time>2026-04-27T10:45:28Z</time>
      </trkpt>
      <trkpt lat="52.345361318439245" lon="7.755504352971911">
        <ele>56.1171875</ele>
        <time>2026-04-27T10:45:32Z</time>
      </trkpt>
      <trkpt lat="52.345331478863955" lon="7.755855806171894">
        <ele>55.49609375</ele>
        <time>2026-04-27T10:45:36Z</time>
      </trkpt>
      <trkpt lat="52.34528680332005" lon="7.756227124482393">
        <ele>55.0625</ele>
        <time>2026-04-27T10:45:40Z</time>
      </trkpt>
      <trkpt lat="52.345255874097347" lon="7.756592240184546">
        <ele>54.92578125</ele>
        <time>2026-04-27T10:45:44Z</time>
      </trkpt>
      <trkpt lat="52.345222849398851" lon="7.756945956498385">
        <ele>54.8359375</ele>
        <time>2026-04-27T10:45:48Z</time>
      </trkpt>
      <trkpt lat="52.345181191340089" lon="7.757280729711056">
        <ele>54.625</ele>
        <time>2026-04-27T10:45:52Z</time>
      </trkpt>
      <trkpt lat="52.345157973468304" lon="7.757641151547432">
        <ele>54.24609375</ele>
        <time>2026-04-27T10:45:56Z</time>
      </trkpt>
      <trkpt lat="52.345119919627905" lon="7.757989838719368">
        <ele>54.16796875</ele>
        <time>2026-04-27T10:46:00Z</time>
      </trkpt>
      <trkpt lat="52.345082452520728" lon="7.758333245292306">
        <ele>54.2578125</ele>
        <time>2026-04-27T10:46:04Z</time>
      </trkpt>
      <trkpt lat="52.345047248527408" lon="7.758656954392791">
        <ele>54.30078125</ele>
        <time>2026-04-27T10:46:08Z</time>
      </trkpt>
      <trkpt lat="52.345021348446608" lon="7.758969012647867">
        <ele>54.09765625</ele>
        <time>2026-04-27T10:46:12Z</time>
      </trkpt>
      <trkpt lat="52.34498530626297" lon="7.759293140843511">
        <ele>53.875</ele>
        <time>2026-04-27T10:46:16Z</time>
      </trkpt>
      <trkpt lat="52.344954209402204" lon="7.759630596265197">
        <ele>53.83203125</ele>
        <time>2026-04-27T10:46:20Z</time>
      </trkpt>
      <trkpt lat="52.344919592142105" lon="7.75995765812695">
        <ele>53.93359375</ele>
        <time>2026-04-27T10:46:24Z</time>
      </trkpt>
      <trkpt lat="52.344895200803876" lon="7.760280696675181">
        <ele>54.0078125</ele>
        <time>2026-04-27T10:46:28Z</time>
      </trkpt>
      <trkpt lat="52.344860499724746" lon="7.760595101863146">
        <ele>54.34765625</ele>
        <time>2026-04-27T10:46:32Z</time>
      </trkpt>
      <trkpt lat="52.344831079244614" lon="7.760944543406367">
        <ele>54.75</ele>
        <time>2026-04-27T10:46:36Z</time>
      </trkpt>
      <trkpt lat="52.344806687906384" lon="7.761283004656434">
        <ele>54.9609375</ele>
        <time>2026-04-27T10:46:40Z</time>
      </trkpt>
      <trkpt lat="52.344765700399876" lon="7.761626159772277">
        <ele>54.99609375</ele>
        <time>2026-04-27T10:46:44Z</time>
      </trkpt>
      <trkpt lat="52.344733849167824" lon="7.76195028796792">
        <ele>54.921875</ele>
        <time>2026-04-27T10:46:48Z</time>
      </trkpt>
      <trkpt lat="52.344704261049628" lon="7.762321019545198">
        <ele>53.99609375</ele>
        <time>2026-04-27T10:46:54Z</time>
      </trkpt>
      <trkpt lat="52.344820098951459" lon="7.762579265981913">
        <ele>53.48828125</ele>
        <time>2026-04-27T10:47:08Z</time>
      </trkpt>
      <trkpt lat="52.345000812783837" lon="7.762639615684748">
        <ele>53.5</ele>
        <time>2026-04-27T10:47:12Z</time>
      </trkpt>
      <trkpt lat="52.345176329836249" lon="7.762747406959534">
        <ele>53.51171875</ele>
        <time>2026-04-27T10:47:16Z</time>
      </trkpt>
      <trkpt lat="52.345373807474971" lon="7.762862993404269">
        <ele>53.72265625</ele>
        <time>2026-04-27T10:47:20Z</time>
      </trkpt>
      <trkpt lat="52.345563741400838" lon="7.762981094419956">
        <ele>53.94921875</ele>
        <time>2026-04-27T10:47:24Z</time>
      </trkpt>
      <trkpt lat="52.345759039744735" lon="7.763081090524793">
        <ele>54.11328125</ele>
        <time>2026-04-27T10:47:28Z</time>
      </trkpt>
      <trkpt lat="52.345950482413173" lon="7.763180751353502">
        <ele>54.2109375</ele>
        <time>2026-04-27T10:47:32Z</time>
      </trkpt>
      <trkpt lat="52.346133040264249" lon="7.763290051370859">
        <ele>54.23828125</ele>
        <time>2026-04-27T10:47:36Z</time>
      </trkpt>
      <trkpt lat="52.346240077167749" lon="7.763512674719095">
        <ele>54.08203125</ele>
        <time>2026-04-27T10:47:40Z</time>
      </trkpt>
      <trkpt lat="52.346256170421839" lon="7.76383345015347">
        <ele>53.87890625</ele>
        <time>2026-04-27T10:47:44Z</time>
      </trkpt>
      <trkpt lat="52.346261870115995" lon="7.764163194224238">
        <ele>53.71484375</ele>
        <time>2026-04-27T10:47:48Z</time>
      </trkpt>
      <trkpt lat="52.346271090209484" lon="7.764496207237244">
        <ele>53.46484375</ele>
        <time>2026-04-27T10:47:52Z</time>
      </trkpt>
      <trkpt lat="52.346288356930017" lon="7.764863669872284">
        <ele>52.703125</ele>
        <time>2026-04-27T10:47:56Z</time>
      </trkpt>
      <trkpt lat="52.346299169585109" lon="7.765223924070597">
        <ele>51.9296875</ele>
        <time>2026-04-27T10:48:00Z</time>
      </trkpt>
      <trkpt lat="52.346315430477262" lon="7.76558417826891">
        <ele>51.52734375</ele>
        <time>2026-04-27T10:48:04Z</time>
      </trkpt>
      <trkpt lat="52.346325404942036" lon="7.765954658389092">
        <ele>51.15234375</ele>
        <time>2026-04-27T10:48:08Z</time>
      </trkpt>
      <trkpt lat="52.346331188455224" lon="7.766304099932313">
        <ele>51.2421875</ele>
        <time>2026-04-27T10:48:12Z</time>
      </trkpt>
      <trkpt lat="52.346343928948045" lon="7.766653038561344">
        <ele>51.6640625</ele>
        <time>2026-04-27T10:48:16Z</time>
      </trkpt>
      <trkpt lat="52.346357591450214" lon="7.766979597508907">
        <ele>52</ele>
        <time>2026-04-27T10:48:20Z</time>
      </trkpt>
      <trkpt lat="52.346373181790113" lon="7.767328284680843">
        <ele>52</ele>
        <time>2026-04-27T10:48:24Z</time>
      </trkpt>
      <trkpt lat="52.346386592835188" lon="7.767680995166302">
        <ele>52</ele>
        <time>2026-04-27T10:48:28Z</time>
      </trkpt>
      <trkpt lat="52.346385922282934" lon="7.768006548285484">
        <ele>51.4609375</ele>
        <time>2026-04-27T10:48:32Z</time>
      </trkpt>
      <trkpt lat="52.346403691917658" lon="7.768358755856752">
        <ele>50.640625</ele>
        <time>2026-04-27T10:48:36Z</time>
      </trkpt>
      <trkpt lat="52.346415091305971" lon="7.768691098317504">
        <ele>50.2734375</ele>
        <time>2026-04-27T10:48:40Z</time>
      </trkpt>
      <trkpt lat="52.346426323056221" lon="7.76902025565505">
        <ele>51.03125</ele>
        <time>2026-04-27T10:48:44Z</time>
      </trkpt>
      <trkpt lat="52.346434202045202" lon="7.769365170970559">
        <ele>51.84375</ele>
        <time>2026-04-27T10:48:48Z</time>
      </trkpt>
      <trkpt lat="52.346433699131012" lon="7.769723581150174">
        <ele>52.0078125</ele>
        <time>2026-04-27T10:48:52Z</time>
      </trkpt>
      <trkpt lat="52.346418863162398" lon="7.770106801763177">
        <ele>52.0234375</ele>
        <time>2026-04-27T10:48:56Z</time>
      </trkpt>
      <trkpt lat="52.346396651118994" lon="7.770484825596213">
        <ele>51.7734375</ele>
        <time>2026-04-27T10:49:00Z</time>
      </trkpt>
      <trkpt lat="52.346385670825839" lon="7.770865531638265">
        <ele>51.296875</ele>
        <time>2026-04-27T10:49:04Z</time>
      </trkpt>
      <trkpt lat="52.346388269215822" lon="7.771240118891001">
        <ele>50.8203125</ele>
        <time>2026-04-27T10:49:08Z</time>
      </trkpt>
      <trkpt lat="52.346377205103636" lon="7.771625434979796">
        <ele>50.3203125</ele>
        <time>2026-04-27T10:49:12Z</time>
      </trkpt>
      <trkpt lat="52.346375109627843" lon="7.772011840716004">
        <ele>50.109375</ele>
        <time>2026-04-27T10:49:16Z</time>
      </trkpt>
      <trkpt lat="52.346370499581099" lon="7.772395564243197">
        <ele>50.98828125</ele>
        <time>2026-04-27T10:49:20Z</time>
      </trkpt>
      <trkpt lat="52.346364296972752" lon="7.772767469286919">
        <ele>51.828125</ele>
        <time>2026-04-27T10:49:24Z</time>
      </trkpt>
      <trkpt lat="52.346353735774755" lon="7.773135434836149">
        <ele>52.6875</ele>
        <time>2026-04-27T10:49:28Z</time>
      </trkpt>
      <trkpt lat="52.346314424648881" lon="7.773471800610423">
        <ele>53.3984375</ele>
        <time>2026-04-27T10:49:32Z</time>
      </trkpt>
      <trkpt lat="52.346097081899643" lon="7.773548914119601">
        <ele>53.0625</ele>
        <time>2026-04-27T10:49:36Z</time>
      </trkpt>
      <trkpt lat="52.345874961465597" lon="7.773516979068518">
        <ele>52.453125</ele>
        <time>2026-04-27T10:49:40Z</time>
      </trkpt>
      <trkpt lat="52.345644878223538" lon="7.773504238575697">
        <ele>51.87109375</ele>
        <time>2026-04-27T10:49:44Z</time>
      </trkpt>
      <trkpt lat="52.345419991761446" lon="7.773494683206081">
        <ele>51.36328125</ele>
        <time>2026-04-27T10:49:48Z</time>
      </trkpt>
      <trkpt lat="52.345195356756449" lon="7.773591158911586">
        <ele>51.0078125</ele>
        <time>2026-04-27T10:49:52Z</time>
      </trkpt>
      <trkpt lat="52.3450165707618" lon="7.773809172213078">
        <ele>50.83984375</ele>
        <time>2026-04-27T10:49:56Z</time>
      </trkpt>
      <trkpt lat="52.344838622957468" lon="7.774060964584351">
        <ele>50.71484375</ele>
        <time>2026-04-27T10:50:00Z</time>
      </trkpt>
      <trkpt lat="52.344656148925424" lon="7.774305967614055">
        <ele>50.9921875</ele>
        <time>2026-04-27T10:50:04Z</time>
      </trkpt>
      <trkpt lat="52.344486331567168" lon="7.774542337283492">
        <ele>51.390625</ele>
        <time>2026-04-27T10:50:08Z</time>
      </trkpt>
      <trkpt lat="52.344317100942135" lon="7.774779126048088">
        <ele>51.77734375</ele>
        <time>2026-04-27T10:50:12Z</time>
      </trkpt>
      <trkpt lat="52.344141248613596" lon="7.775016417726874">
        <ele>52.29296875</ele>
        <time>2026-04-27T10:50:16Z</time>
      </trkpt>
      <trkpt lat="52.343958523124456" lon="7.775260331109166">
        <ele>52.953125</ele>
        <time>2026-04-27T10:50:20Z</time>
      </trkpt>
      <trkpt lat="52.34378962777555" lon="7.775486726313829">
        <ele>52.73046875</ele>
        <time>2026-04-27T10:50:24Z</time>
      </trkpt>
      <trkpt lat="52.343625593930483" lon="7.775733321905136">
        <ele>52.43359375</ele>
        <time>2026-04-27T10:50:28Z</time>
      </trkpt>
      <trkpt lat="52.343457117676735" lon="7.7759700268507">
        <ele>52.15234375</ele>
        <time>2026-04-27T10:50:32Z</time>
      </trkpt>
      <trkpt lat="52.343287551775575" lon="7.776202205568552">
        <ele>52.1015625</ele>
        <time>2026-04-27T10:50:36Z</time>
      </trkpt>
      <trkpt lat="52.34311823733151" lon="7.776437066495419">
        <ele>52.40625</ele>
        <time>2026-04-27T10:50:40Z</time>
      </trkpt>
      <trkpt lat="52.342954790219665" lon="7.776667317375541">
        <ele>52.80078125</ele>
        <time>2026-04-27T10:50:44Z</time>
      </trkpt>
      <trkpt lat="52.342811040580273" lon="7.776887509971857">
        <ele>52.984375</ele>
        <time>2026-04-27T10:50:48Z</time>
      </trkpt>
      <trkpt lat="52.342901146039367" lon="7.777283973991871">
        <ele>53.75</ele>
        <time>2026-04-27T10:50:54Z</time>
      </trkpt>
      <trkpt lat="52.343024527654052" lon="7.777566611766815">
        <ele>54.45703125</ele>
        <time>2026-04-27T10:50:58Z</time>
      </trkpt>
      <trkpt lat="52.3431480769068" lon="7.777841538190842">
        <ele>54.859375</ele>
        <time>2026-04-27T10:51:02Z</time>
      </trkpt>
      <trkpt lat="52.3432931676507" lon="7.778103472664952">
        <ele>54.421875</ele>
        <time>2026-04-27T10:51:06Z</time>
      </trkpt>
      <trkpt lat="52.343440102413297" lon="7.778402287513018">
        <ele>54.109375</ele>
        <time>2026-04-27T10:51:10Z</time>
      </trkpt>
      <trkpt lat="52.343579828739166" lon="7.778694815933704">
        <ele>53.828125</ele>
        <time>2026-04-27T10:51:14Z</time>
      </trkpt>
      <trkpt lat="52.343722740188241" lon="7.778973849490285">
        <ele>53.62109375</ele>
        <time>2026-04-27T10:51:18Z</time>
      </trkpt>
      <trkpt lat="52.343869172036648" lon="7.779264869168401">
        <ele>53.76953125</ele>
        <time>2026-04-27T10:51:22Z</time>
      </trkpt>
      <trkpt lat="52.344010742381215" lon="7.779563935473561">
        <ele>53.9140625</ele>
        <time>2026-04-27T10:51:26Z</time>
      </trkpt>
      <trkpt lat="52.344145691022277" lon="7.779850345104933">
        <ele>53.75390625</ele>
        <time>2026-04-27T10:51:30Z</time>
      </trkpt>
      <trkpt lat="52.344283908605576" lon="7.780145891010761">
        <ele>53.5859375</ele>
        <time>2026-04-27T10:51:34Z</time>
      </trkpt>
      <trkpt lat="52.344427071511745" lon="7.780457446351647">
        <ele>53.4140625</ele>
        <time>2026-04-27T10:51:38Z</time>
      </trkpt>
      <trkpt lat="52.344577107578516" lon="7.780756428837776">
        <ele>53.234375</ele>
        <time>2026-04-27T10:51:42Z</time>
      </trkpt>
      <trkpt lat="52.344717169180512" lon="7.781061781570315">
        <ele>53.06640625</ele>
        <time>2026-04-27T10:51:46Z</time>
      </trkpt>
      <trkpt lat="52.344863098114729" lon="7.781366715207696">
        <ele>52.8203125</ele>
        <time>2026-04-27T10:51:50Z</time>
      </trkpt>
      <trkpt lat="52.344999555498362" lon="7.781667374074459">
        <ele>52.64453125</ele>
        <time>2026-04-27T10:51:54Z</time>
      </trkpt>
      <trkpt lat="52.345134671777487" lon="7.781990161165595">
        <ele>52.64453125</ele>
        <time>2026-04-27T10:51:58Z</time>
      </trkpt>
      <trkpt lat="52.345261657610536" lon="7.782293250784278">
        <ele>52.85546875</ele>
        <time>2026-04-27T10:52:02Z</time>
      </trkpt>
      <trkpt lat="52.345385458320379" lon="7.782618552446365">
        <ele>53.09765625</ele>
        <time>2026-04-27T10:52:06Z</time>
      </trkpt>
      <trkpt lat="52.345475647598505" lon="7.782965311780572">
        <ele>53.40625</ele>
        <time>2026-04-27T10:52:10Z</time>
      </trkpt>
      <trkpt lat="52.345524681732059" lon="7.783324308693409">
        <ele>53.77734375</ele>
        <time>2026-04-27T10:52:14Z</time>
      </trkpt>
      <trkpt lat="52.345482688397169" lon="7.783685317263007">
        <ele>53.95703125</ele>
        <time>2026-04-27T10:52:18Z</time>
      </trkpt>
      <trkpt lat="52.345324857160449" lon="7.783958567306399">
        <ele>53.75390625</ele>
        <time>2026-04-27T10:52:22Z</time>
      </trkpt>
      <trkpt lat="52.345413286238909" lon="7.78430012986064">
        <ele>52.921875</ele>
        <time>2026-04-27T10:52:28Z</time>
      </trkpt>
      <trkpt lat="52.345505319535732" lon="7.784622078761458">
        <ele>52.3359375</ele>
        <time>2026-04-27T10:52:32Z</time>
      </trkpt>
      <trkpt lat="52.34554085880518" lon="7.784987194463611">
        <ele>52.18359375</ele>
        <time>2026-04-27T10:52:36Z</time>
      </trkpt>
      <trkpt lat="52.345499619841576" lon="7.785330517217517">
        <ele>52.43359375</ele>
        <time>2026-04-27T10:52:40Z</time>
      </trkpt>
      <trkpt lat="52.345415381714702" lon="7.785634025931358">
        <ele>53.36328125</ele>
        <time>2026-04-27T10:52:44Z</time>
      </trkpt>
      <trkpt lat="52.345373807474971" lon="7.785971397534013">
        <ele>54.2734375</ele>
        <time>2026-04-27T10:52:48Z</time>
      </trkpt>
      <trkpt lat="52.345319911837578" lon="7.786347074434161">
        <ele>54.6875</ele>
        <time>2026-04-27T10:52:52Z</time>
      </trkpt>
      <trkpt lat="52.345269871875644" lon="7.786715626716614">
        <ele>54.80859375</ele>
        <time>2026-04-27T10:52:56Z</time>
      </trkpt>
      <trkpt lat="52.345243887975812" lon="7.787081664428115">
        <ele>54.703125</ele>
        <time>2026-04-27T10:53:00Z</time>
      </trkpt>
      <trkpt lat="52.345250677317381" lon="7.787430519238114">
        <ele>54.33203125</ele>
        <time>2026-04-27T10:53:04Z</time>
      </trkpt>
      <trkpt lat="52.345278169959784" lon="7.787780379876494">
        <ele>53.9765625</ele>
        <time>2026-04-27T10:53:08Z</time>
      </trkpt>
      <trkpt lat="52.345325611531734" lon="7.788130575791001">
        <ele>53.6953125</ele>
        <time>2026-04-27T10:53:12Z</time>
      </trkpt>
      <trkpt lat="52.345381770282984" lon="7.788461660966277">
        <ele>53.54296875</ele>
        <time>2026-04-27T10:53:16Z</time>
      </trkpt>
      <trkpt lat="52.345447819679976" lon="7.788810599595308">
        <ele>53.40234375</ele>
        <time>2026-04-27T10:53:20Z</time>
      </trkpt>
      <trkpt lat="52.345518562942743" lon="7.789140427485108">
        <ele>53.1953125</ele>
        <time>2026-04-27T10:53:24Z</time>
      </trkpt>
      <trkpt lat="52.345594754442573" lon="7.789472518488765">
        <ele>53.171875</ele>
        <time>2026-04-27T10:53:28Z</time>
      </trkpt>
      <trkpt lat="52.345706317573786" lon="7.789815673604608">
        <ele>54.30859375</ele>
        <time>2026-04-27T10:53:32Z</time>
      </trkpt>
      <trkpt lat="52.345869261771441" lon="7.790091941133142">
        <ele>54.91015625</ele>
        <time>2026-04-27T10:53:36Z</time>
      </trkpt>
      <trkpt lat="52.346046958118677" lon="7.790304590016604">
        <ele>54.97265625</ele>
        <time>2026-04-27T10:53:40Z</time>
      </trkpt>
      <trkpt lat="52.346237981691957" lon="7.790493266656995">
        <ele>54.703125</ele>
        <time>2026-04-27T10:53:44Z</time>
      </trkpt>
      <trkpt lat="52.346438392996788" lon="7.790623689070344">
        <ele>54.4453125</ele>
        <time>2026-04-27T10:53:48Z</time>
      </trkpt>
      <trkpt lat="52.346649365499616" lon="7.790752602741122">
        <ele>53.83984375</ele>
        <time>2026-04-27T10:53:52Z</time>
      </trkpt>
      <trkpt lat="52.346875173971057" lon="7.790890485048294">
        <ele>53.1953125</ele>
        <time>2026-04-27T10:53:56Z</time>
      </trkpt>
      <trkpt lat="52.347092684358358" lon="7.791007244959474">
        <ele>52.55078125</ele>
        <time>2026-04-27T10:54:00Z</time>
      </trkpt>
      <trkpt lat="52.347305500879884" lon="7.79112920165062">
        <ele>52.11328125</ele>
        <time>2026-04-27T10:54:04Z</time>
      </trkpt>
      <trkpt lat="52.347525442019105" lon="7.791247721761465">
        <ele>52.21875</ele>
        <time>2026-04-27T10:54:08Z</time>
      </trkpt>
      <trkpt lat="52.34774119220674" lon="7.791356518864632">
        <ele>52.2265625</ele>
        <time>2026-04-27T10:54:12Z</time>
      </trkpt>
      <trkpt lat="52.347955852746964" lon="7.791475541889668">
        <ele>52.1953125</ele>
        <time>2026-04-27T10:54:16Z</time>
      </trkpt>
      <trkpt lat="52.348166992887855" lon="7.791580148041248">
        <ele>52.09765625</ele>
        <time>2026-04-27T10:54:20Z</time>
      </trkpt>
      <trkpt lat="52.348379138857126" lon="7.791686682030559">
        <ele>51.96484375</ele>
        <time>2026-04-27T10:54:24Z</time>
      </trkpt>
      <trkpt lat="52.3486119043082" lon="7.79179816134274">
        <ele>51.66796875</ele>
        <time>2026-04-27T10:54:28Z</time>
      </trkpt>
      <trkpt lat="52.348832851275802" lon="7.791906371712685">
        <ele>51.24609375</ele>
        <time>2026-04-27T10:54:32Z</time>
      </trkpt>
      <trkpt lat="52.34905413351953" lon="7.792011564597487">
        <ele>51.21875</ele>
        <time>2026-04-27T10:54:36Z</time>
      </trkpt>
      <trkpt lat="52.349272565916181" lon="7.792123043909669">
        <ele>51.44921875</ele>
        <time>2026-04-27T10:54:40Z</time>
      </trkpt>
      <trkpt lat="52.349496195092797" lon="7.792235445231199">
        <ele>51.54296875</ele>
        <time>2026-04-27T10:54:44Z</time>
      </trkpt>
      <trkpt lat="52.349719740450382" lon="7.792336279526353">
        <ele>51.5</ele>
        <time>2026-04-27T10:54:48Z</time>
      </trkpt>
      <trkpt lat="52.349941022694111" lon="7.792444238439202">
        <ele>51.5</ele>
        <time>2026-04-27T10:54:52Z</time>
      </trkpt>
      <trkpt lat="52.350155850872397" lon="7.792550185695291">
        <ele>51.59375</ele>
        <time>2026-04-27T10:54:56Z</time>
      </trkpt>
      <trkpt lat="52.350381072610617" lon="7.792656887322664">
        <ele>51.765625</ele>
        <time>2026-04-27T10:55:00Z</time>
      </trkpt>
      <trkpt lat="52.350604617968202" lon="7.792773144319654">
        <ele>51.97265625</ele>
        <time>2026-04-27T10:55:04Z</time>
      </trkpt>
      <trkpt lat="52.350822631269693" lon="7.79286677017808">
        <ele>51.671875</ele>
        <time>2026-04-27T10:55:08Z</time>
      </trkpt>
      <trkpt lat="52.35105405561626" lon="7.792938938364387">
        <ele>51.4765625</ele>
        <time>2026-04-27T10:55:12Z</time>
      </trkpt>
      <trkpt lat="52.351274751126766" lon="7.79303097166121">
        <ele>51.3984375</ele>
        <time>2026-04-27T10:55:16Z</time>
      </trkpt>
      <trkpt lat="52.351479940116405" lon="7.793119987472892">
        <ele>51.4765625</ele>
        <time>2026-04-27T10:55:20Z</time>
      </trkpt>
      <trkpt lat="52.351712537929416" lon="7.793243285268545">
        <ele>51.66796875</ele>
        <time>2026-04-27T10:55:26Z</time>
      </trkpt>
      <trkpt lat="52.351832650601864" lon="7.793495999649167">
        <ele>51.5703125</ele>
        <time>2026-04-27T10:55:32Z</time>
      </trkpt>
      <trkpt lat="52.3518031463027" lon="7.793773608282208">
        <ele>51.88671875</ele>
        <time>2026-04-27T10:55:36Z</time>
      </trkpt>
      <trkpt lat="52.351683201268315" lon="7.794016599655151">
        <ele>52.375</ele>
        <time>2026-04-27T10:55:40Z</time>
      </trkpt>
      <trkpt lat="52.351565519347787" lon="7.794252717867494">
        <ele>52.76953125</ele>
        <time>2026-04-27T10:55:44Z</time>
      </trkpt>
      <trkpt lat="52.35139955766499" lon="7.794565362855792">
        <ele>52.8828125</ele>
        <time>2026-04-27T10:55:50Z</time>
      </trkpt>
      <trkpt lat="52.351238541305065" lon="7.794886557385325">
        <ele>52.5546875</ele>
        <time>2026-04-27T10:55:56Z</time>
      </trkpt>
      <trkpt lat="52.351123290136456" lon="7.795125609263778">
        <ele>52.51171875</ele>
        <time>2026-04-27T10:56:00Z</time>
      </trkpt>
      <trkpt lat="52.350993119180202" lon="7.795342616736889">
        <ele>52.41796875</ele>
        <time>2026-04-27T10:56:04Z</time>
      </trkpt>
      <trkpt lat="52.350851548835635" lon="7.795579573139548">
        <ele>52.1796875</ele>
        <time>2026-04-27T10:56:08Z</time>
      </trkpt>
      <trkpt lat="52.350699668750167" lon="7.795826336368918">
        <ele>52.03515625</ele>
        <time>2026-04-27T10:56:12Z</time>
      </trkpt>
      <trkpt lat="52.350559271872044" lon="7.796081649139524">
        <ele>51.94921875</ele>
        <time>2026-04-27T10:56:16Z</time>
      </trkpt>
      <trkpt lat="52.350405463948846" lon="7.796351714059711">
        <ele>52.23828125</ele>
        <time>2026-04-27T10:56:20Z</time>
      </trkpt>
      <trkpt lat="52.350259451195598" lon="7.796619767323136">
        <ele>52.76171875</ele>
        <time>2026-04-27T10:56:24Z</time>
      </trkpt>
      <trkpt lat="52.350135231390595" lon="7.796891424804926">
        <ele>53.5</ele>
        <time>2026-04-27T10:56:28Z</time>
      </trkpt>
      <trkpt lat="52.35006507486105" lon="7.797207674011588">
        <ele>53.5234375</ele>
        <time>2026-04-27T10:56:32Z</time>
      </trkpt>
      <trkpt lat="52.349913530051708" lon="7.797481343150139">
        <ele>53.7109375</ele>
        <time>2026-04-27T10:56:36Z</time>
      </trkpt>
      <trkpt lat="52.349762069061399" lon="7.797744954004884">
        <ele>53.98828125</ele>
        <time>2026-04-27T10:56:40Z</time>
      </trkpt>
      <trkpt lat="52.349628461524844" lon="7.798007894307375">
        <ele>53.625</ele>
        <time>2026-04-27T10:56:44Z</time>
      </trkpt>
      <trkpt lat="52.349485717713833" lon="7.798294052481651">
        <ele>53.44921875</ele>
        <time>2026-04-27T10:56:48Z</time>
      </trkpt>
      <trkpt lat="52.349350098520517" lon="7.798565542325378">
        <ele>53.50390625</ele>
        <time>2026-04-27T10:56:52Z</time>
      </trkpt>
      <trkpt lat="52.349198721349239" lon="7.798840636387467">
        <ele>53.8984375</ele>
        <time>2026-04-27T10:56:56Z</time>
      </trkpt>
      <trkpt lat="52.349015409126878" lon="7.799076838418841">
        <ele>54.4453125</ele>
        <time>2026-04-27T10:57:00Z</time>
      </trkpt>
      <trkpt lat="52.348865289241076" lon="7.799331145361066">
        <ele>54.6484375</ele>
        <time>2026-04-27T10:57:04Z</time>
      </trkpt>
      <trkpt lat="52.348710559308529" lon="7.799603641033173">
        <ele>54.24609375</ele>
        <time>2026-04-27T10:57:08Z</time>
      </trkpt>
      <trkpt lat="52.348565887659788" lon="7.799864234402776">
        <ele>53.90234375</ele>
        <time>2026-04-27T10:57:12Z</time>
      </trkpt>
      <trkpt lat="52.348419707268476" lon="7.800155086442828">
        <ele>53.6875</ele>
        <time>2026-04-27T10:57:16Z</time>
      </trkpt>
      <trkpt lat="52.348296828567982" lon="7.800455326214433">
        <ele>53.2109375</ele>
        <time>2026-04-27T10:57:20Z</time>
      </trkpt>
      <trkpt lat="52.348143439739943" lon="7.800732096657157">
        <ele>52.51171875</ele>
        <time>2026-04-27T10:57:24Z</time>
      </trkpt>
      <trkpt lat="52.347991224378347" lon="7.801019512116909">
        <ele>52.07421875</ele>
        <time>2026-04-27T10:57:28Z</time>
      </trkpt>
      <trkpt lat="52.347842529416084" lon="7.801322182640433">
        <ele>51.7109375</ele>
        <time>2026-04-27T10:57:32Z</time>
      </trkpt>
      <trkpt lat="52.34769525937736" lon="7.801595684140921">
        <ele>51.3828125</ele>
        <time>2026-04-27T10:57:36Z</time>
      </trkpt>
      <trkpt lat="52.347554778680205" lon="7.801881255581975">
        <ele>51.0390625</ele>
        <time>2026-04-27T10:57:40Z</time>
      </trkpt>
      <trkpt lat="52.347401641309261" lon="7.802181076258421">
        <ele>51</ele>
        <time>2026-04-27T10:57:44Z</time>
      </trkpt>
      <trkpt lat="52.347256215289235" lon="7.802492966875434">
        <ele>51.04296875</ele>
        <time>2026-04-27T10:57:48Z</time>
      </trkpt>
      <trkpt lat="52.347119841724634" lon="7.802783567458391">
        <ele>51.35546875</ele>
        <time>2026-04-27T10:57:52Z</time>
      </trkpt>
      <trkpt lat="52.346989586949348" lon="7.803068803623319">
        <ele>51.546875</ele>
        <time>2026-04-27T10:57:56Z</time>
      </trkpt>
      <trkpt lat="52.34685723669827" lon="7.80335227958858">
        <ele>51.6328125</ele>
        <time>2026-04-27T10:58:00Z</time>
      </trkpt>
      <trkpt lat="52.346719689667225" lon="7.803654531016946">
        <ele>51.6328125</ele>
        <time>2026-04-27T10:58:04Z</time>
      </trkpt>
      <trkpt lat="52.346585663035512" lon="7.803968098014593">
        <ele>51.51953125</ele>
        <time>2026-04-27T10:58:08Z</time>
      </trkpt>
      <trkpt lat="52.346442919224501" lon="7.804263476282358">
        <ele>51.1796875</ele>
        <time>2026-04-27T10:58:12Z</time>
      </trkpt>
      <trkpt lat="52.346292631700635" lon="7.8045410849154">
        <ele>51.203125</ele>
        <time>2026-04-27T10:58:16Z</time>
      </trkpt>
      <trkpt lat="52.346160365268588" lon="7.804834116250277">
        <ele>51.50390625</ele>
        <time>2026-04-27T10:58:20Z</time>
      </trkpt>
      <trkpt lat="52.346028601750731" lon="7.805129159241915">
        <ele>51.91796875</ele>
        <time>2026-04-27T10:58:24Z</time>
      </trkpt>
      <trkpt lat="52.34589122235775" lon="7.805424453690648">
        <ele>52.390625</ele>
        <time>2026-04-27T10:58:28Z</time>
      </trkpt>
      <trkpt lat="52.345777647569776" lon="7.805745396763086">
        <ele>52.7109375</ele>
        <time>2026-04-27T10:58:32Z</time>
      </trkpt>
      <trkpt lat="52.345664827153087" lon="7.806056784465909">
        <ele>52.9296875</ele>
        <time>2026-04-27T10:58:36Z</time>
      </trkpt>
      <trkpt lat="52.345517389476299" lon="7.806432209908962">
        <ele>53</ele>
        <time>2026-04-27T10:58:41Z</time>
      </trkpt>
      <trkpt lat="52.345397528260946" lon="7.806713087484241">
        <ele>53</ele>
        <time>2026-04-27T10:58:45Z</time>
      </trkpt>
      <trkpt lat="52.345273308455944" lon="7.80702237971127">
        <ele>53.0546875</ele>
        <time>2026-04-27T10:58:49Z</time>
      </trkpt>
      <trkpt lat="52.345134587958455" lon="7.807347010821104">
        <ele>53.296875</ele>
        <time>2026-04-27T10:58:53Z</time>
      </trkpt>
      <trkpt lat="52.345004919916391" lon="7.807655464857817">
        <ele>53.64453125</ele>
        <time>2026-04-27T10:58:57Z</time>
      </trkpt>
      <trkpt lat="52.344888998195529" lon="7.807957967743278">
        <ele>53.859375</ele>
        <time>2026-04-27T10:59:01Z</time>
      </trkpt>
      <trkpt lat="52.344780201092362" lon="7.808258207514882">
        <ele>53.9921875</ele>
        <time>2026-04-27T10:59:05Z</time>
      </trkpt>
      <trkpt lat="52.344663441181183" lon="7.808544365689158">
        <ele>53.7421875</ele>
        <time>2026-04-27T10:59:09Z</time>
      </trkpt>
      <trkpt lat="52.344556152820587" lon="7.808842845261097">
        <ele>53.32421875</ele>
        <time>2026-04-27T10:59:13Z</time>
      </trkpt>
      <trkpt lat="52.344447020441294" lon="7.809133445844054">
        <ele>53.0703125</ele>
        <time>2026-04-27T10:59:17Z</time>
      </trkpt>
      <trkpt lat="52.34433202072978" lon="7.809441816061735">
        <ele>53.01953125</ele>
        <time>2026-04-27T10:59:21Z</time>
      </trkpt>
      <trkpt lat="52.344218362122774" lon="7.80974842607975">
        <ele>53.2734375</ele>
        <time>2026-04-27T10:59:25Z</time>
      </trkpt>
      <trkpt lat="52.344103865325451" lon="7.810061071068049">
        <ele>53.62890625</ele>
        <time>2026-04-27T10:59:29Z</time>
      </trkpt>
      <trkpt lat="52.343985680490732" lon="7.810367681086063">
        <ele>53.9453125</ele>
        <time>2026-04-27T10:59:33Z</time>
      </trkpt>
      <trkpt lat="52.343876464292407" lon="7.810658700764179">
        <ele>53.9609375</ele>
        <time>2026-04-27T10:59:37Z</time>
      </trkpt>
      <trkpt lat="52.343777641654015" lon="7.810964556410909">
        <ele>53.83203125</ele>
        <time>2026-04-27T10:59:41Z</time>
      </trkpt>
      <trkpt lat="52.343673370778561" lon="7.811257252469659">
        <ele>53.96875</ele>
        <time>2026-04-27T10:59:45Z</time>
      </trkpt>
      <trkpt lat="52.343570860102773" lon="7.811548272147775">
        <ele>54.37890625</ele>
        <time>2026-04-27T10:59:49Z</time>
      </trkpt>
      <trkpt lat="52.343463068827987" lon="7.811825880780816">
        <ele>54.84765625</ele>
        <time>2026-04-27T10:59:53Z</time>
      </trkpt>
      <trkpt lat="52.343359217047691" lon="7.812105249613524">
        <ele>55.78515625</ele>
        <time>2026-04-27T10:59:57Z</time>
      </trkpt>
      <trkpt lat="52.343263830989599" lon="7.812391826882958">
        <ele>56.85546875</ele>
        <time>2026-04-27T11:00:01Z</time>
      </trkpt>
      <trkpt lat="52.343163667246699" lon="7.812673542648554">
        <ele>57.82421875</ele>
        <time>2026-04-27T11:00:05Z</time>
      </trkpt>
      <trkpt lat="52.343061156570911" lon="7.812941512092948">
        <ele>57.95703125</ele>
        <time>2026-04-27T11:00:09Z</time>
      </trkpt>
      <trkpt lat="52.342970129102468" lon="7.813200429081917">
        <ele>57.92578125</ele>
        <time>2026-04-27T11:00:13Z</time>
      </trkpt>
      <trkpt lat="52.342839371412992" lon="7.813598737120628">
        <ele>57.95703125</ele>
        <time>2026-04-27T11:00:19Z</time>
      </trkpt>
      <trkpt lat="52.342705680057406" lon="7.813972570002079">
        <ele>57.50390625</ele>
        <time>2026-04-27T11:00:25Z</time>
      </trkpt>
      <trkpt lat="52.342611299827695" lon="7.814251268282533">
        <ele>57.33984375</ele>
        <time>2026-04-27T11:00:29Z</time>
      </trkpt>
      <trkpt lat="52.342524630948901" lon="7.814522674307227">
        <ele>57.54296875</ele>
        <time>2026-04-27T11:00:33Z</time>
      </trkpt>
      <trkpt lat="52.342430502176285" lon="7.814783770591021">
        <ele>58.08203125</ele>
        <time>2026-04-27T11:00:37Z</time>
      </trkpt>
      <trkpt lat="52.342334110289812" lon="7.815041849389672">
        <ele>58.62109375</ele>
        <time>2026-04-27T11:00:41Z</time>
      </trkpt>
      <trkpt lat="52.342249704524875" lon="7.8153011854738">
        <ele>59.03125</ele>
        <time>2026-04-27T11:00:45Z</time>
      </trkpt>
      <trkpt lat="52.342160940170288" lon="7.815565299242735">
        <ele>59.19140625</ele>
        <time>2026-04-27T11:00:49Z</time>
      </trkpt>
      <trkpt lat="52.342040659859776" lon="7.815797226503491">
        <ele>59.46875</ele>
        <time>2026-04-27T11:00:53Z</time>
      </trkpt>
      <trkpt lat="52.34192306175828" lon="7.816191511228681">
        <ele>59.96875</ele>
        <time>2026-04-27T11:00:59Z</time>
      </trkpt>
      <trkpt lat="52.341780150309205" lon="7.816533911973238">
        <ele>60.84765625</ele>
        <time>2026-04-27T11:01:05Z</time>
      </trkpt>
      <trkpt lat="52.341624582186341" lon="7.816877067089081">
        <ele>62.07421875</ele>
        <time>2026-04-27T11:01:11Z</time>
      </trkpt>
      <trkpt lat="52.341476557776332" lon="7.817260203883052">
        <ele>63.69140625</ele>
        <time>2026-04-27T11:01:17Z</time>
      </trkpt>
      <trkpt lat="52.34135527163744" lon="7.817534040659666">
        <ele>64.51171875</ele>
        <time>2026-04-27T11:01:21Z</time>
      </trkpt>
      <trkpt lat="52.341229878365993" lon="7.817789856344461">
        <ele>64.921875</ele>
        <time>2026-04-27T11:01:25Z</time>
      </trkpt>
      <trkpt lat="52.341095935553312" lon="7.81802580691874">
        <ele>64.5078125</ele>
        <time>2026-04-27T11:01:29Z</time>
      </trkpt>
      <trkpt lat="52.340968027710915" lon="7.818258153274655">
        <ele>64.015625</ele>
        <time>2026-04-27T11:01:33Z</time>
      </trkpt>
      <trkpt lat="52.340838611125946" lon="7.818541880697012">
        <ele>63.33203125</ele>
        <time>2026-04-27T11:01:37Z</time>
      </trkpt>
      <trkpt lat="52.340714810416102" lon="7.818793253973126">
        <ele>62.58984375</ele>
        <time>2026-04-27T11:01:41Z</time>
      </trkpt>
      <trkpt lat="52.340572318062186" lon="7.819056697189808">
        <ele>61.79296875</ele>
        <time>2026-04-27T11:01:45Z</time>
      </trkpt>
      <trkpt lat="52.340453211218119" lon="7.819292899221182">
        <ele>61.21484375</ele>
        <time>2026-04-27T11:01:49Z</time>
      </trkpt>
      <trkpt lat="52.340333098545671" lon="7.81955324113369">
        <ele>60.8203125</ele>
        <time>2026-04-27T11:01:53Z</time>
      </trkpt>
      <trkpt lat="52.340167891234159" lon="7.819806793704629">
        <ele>60.515625</ele>
        <time>2026-04-27T11:01:57Z</time>
      </trkpt>
      <trkpt lat="52.340027829632163" lon="7.820078115910292">
        <ele>60.1875</ele>
        <time>2026-04-27T11:02:01Z</time>
      </trkpt>
      <trkpt lat="52.339889360591769" lon="7.820353880524635">
        <ele>59.98046875</ele>
        <time>2026-04-27T11:02:05Z</time>
      </trkpt>
      <trkpt lat="52.339755417779088" lon="7.820632243528962">
        <ele>59.98828125</ele>
        <time>2026-04-27T11:02:09Z</time>
      </trkpt>
      <trkpt lat="52.339617786929011" lon="7.820904823020101">
        <ele>59.9609375</ele>
        <time>2026-04-27T11:02:13Z</time>
      </trkpt>
      <trkpt lat="52.339476551860571" lon="7.821194333955646">
        <ele>59.84765625</ele>
        <time>2026-04-27T11:02:17Z</time>
      </trkpt>
      <trkpt lat="52.339330622926354" lon="7.821470182389021">
        <ele>59.515625</ele>
        <time>2026-04-27T11:02:21Z</time>
      </trkpt>
      <trkpt lat="52.339210594072938" lon="7.821728345006704">
        <ele>59.20703125</ele>
        <time>2026-04-27T11:02:25Z</time>
      </trkpt>
      <trkpt lat="52.339083021506667" lon="7.821987345814705">
        <ele>59</ele>
        <time>2026-04-27T11:02:29Z</time>
      </trkpt>
      <trkpt lat="52.338951341807842" lon="7.822254477068782">
        <ele>59</ele>
        <time>2026-04-27T11:02:33Z</time>
      </trkpt>
      <trkpt lat="52.338827289640903" lon="7.822503671050072">
        <ele>59.140625</ele>
        <time>2026-04-27T11:02:37Z</time>
      </trkpt>
      <trkpt lat="52.338702483102679" lon="7.822762923315167">
        <ele>59.31640625</ele>
        <time>2026-04-27T11:02:41Z</time>
      </trkpt>
      <trkpt lat="52.338585639372468" lon="7.823014548048377">
        <ele>59.62109375</ele>
        <time>2026-04-27T11:02:45Z</time>
      </trkpt>
      <trkpt lat="52.33845379203558" lon="7.823277907446027">
        <ele>59.85546875</ele>
        <time>2026-04-27T11:02:49Z</time>
      </trkpt>
      <trkpt lat="52.338326219469309" lon="7.823537411168218">
        <ele>59.9921875</ele>
        <time>2026-04-27T11:02:53Z</time>
      </trkpt>
      <trkpt lat="52.338203508406878" lon="7.82378819771111">
        <ele>60.265625</ele>
        <time>2026-04-27T11:02:57Z</time>
      </trkpt>
      <trkpt lat="52.338077360764146" lon="7.824049880728126">
        <ele>60.60546875</ele>
        <time>2026-04-27T11:03:01Z</time>
      </trkpt>
      <trkpt lat="52.337944423779845" lon="7.824300164356828">
        <ele>61.05859375</ele>
        <time>2026-04-27T11:03:05Z</time>
      </trkpt>
      <trkpt lat="52.337820958346128" lon="7.824542401358485">
        <ele>61.51953125</ele>
        <time>2026-04-27T11:03:09Z</time>
      </trkpt>
      <trkpt lat="52.337696151807904" lon="7.824796456843615">
        <ele>61.9765625</ele>
        <time>2026-04-27T11:03:13Z</time>
      </trkpt>
      <trkpt lat="52.337571596726775" lon="7.825048333033919">
        <ele>62.42578125</ele>
        <time>2026-04-27T11:03:17Z</time>
      </trkpt>
      <trkpt lat="52.337477970868349" lon="7.825326193124056">
        <ele>62.78515625</ele>
        <time>2026-04-27T11:03:21Z</time>
      </trkpt>
      <trkpt lat="52.337354589253664" lon="7.825554348528385">
        <ele>62.9453125</ele>
        <time>2026-04-27T11:03:25Z</time>
      </trkpt>
      <trkpt lat="52.337195249274373" lon="7.825766578316689">
        <ele>62.96484375</ele>
        <time>2026-04-27T11:03:29Z</time>
      </trkpt>
      <trkpt lat="52.337082009762526" lon="7.82605248503387">
        <ele>62.99609375</ele>
        <time>2026-04-27T11:03:33Z</time>
      </trkpt>
      <trkpt lat="52.336947144940495" lon="7.826317772269249">
        <ele>63.05859375</ele>
        <time>2026-04-27T11:03:37Z</time>
      </trkpt>
      <trkpt lat="52.336806412786245" lon="7.8265914414078">
        <ele>63.44140625</ele>
        <time>2026-04-27T11:03:41Z</time>
      </trkpt>
      <trkpt lat="52.336681103333831" lon="7.826848765835166">
        <ele>64.08203125</ele>
        <time>2026-04-27T11:03:45Z</time>
      </trkpt>
      <trkpt lat="52.336550261825323" lon="7.827114891260862">
        <ele>64.62109375</ele>
        <time>2026-04-27T11:03:49Z</time>
      </trkpt>
      <trkpt lat="52.336416319012642" lon="7.827377999201417">
        <ele>64.984375</ele>
        <time>2026-04-27T11:03:53Z</time>
      </trkpt>
      <trkpt lat="52.336287908256054" lon="7.827643789350987">
        <ele>64.98046875</ele>
        <time>2026-04-27T11:03:57Z</time>
      </trkpt>
      <trkpt lat="52.336161006242037" lon="7.827898850664496">
        <ele>64.6640625</ele>
        <time>2026-04-27T11:04:01Z</time>
      </trkpt>
      <trkpt lat="52.336030500009656" lon="7.82816874794662">
        <ele>64.2109375</ele>
        <time>2026-04-27T11:04:05Z</time>
      </trkpt>
      <trkpt lat="52.335893120616674" lon="7.828444261103869">
        <ele>63.85546875</ele>
        <time>2026-04-27T11:04:09Z</time>
      </trkpt>
      <trkpt lat="52.335742330178618" lon="7.828727904707193">
        <ele>63.98046875</ele>
        <time>2026-04-27T11:04:13Z</time>
      </trkpt>
      <trkpt lat="52.335615679621696" lon="7.828992940485477">
        <ele>64.5078125</ele>
        <time>2026-04-27T11:04:17Z</time>
      </trkpt>
      <trkpt lat="52.335459273308516" lon="7.829326372593641">
        <ele>65.1171875</ele>
        <time>2026-04-27T11:04:23Z</time>
      </trkpt>
      <trkpt lat="52.335344441235065" lon="7.829554947093129">
        <ele>66.08984375</ele>
        <time>2026-04-27T11:04:29Z</time>
      </trkpt>
      <trkpt lat="52.335417699068785" lon="7.829814115539193">
        <ele>67.390625</ele>
        <time>2026-04-27T11:04:53Z</time>
      </trkpt>
      <trkpt lat="52.33567644841969" lon="7.82998887822032">
        <ele>68.2734375</ele>
        <time>2026-04-27T11:04:59Z</time>
      </trkpt>
      <trkpt lat="52.335882224142551" lon="7.830109409987927">
        <ele>68.03125</ele>
        <time>2026-04-27T11:05:03Z</time>
      </trkpt>
      <trkpt lat="52.336082886904478" lon="7.830210328102112">
        <ele>67.640625</ele>
        <time>2026-04-27T11:05:07Z</time>
      </trkpt>
      <trkpt lat="52.336294110864401" lon="7.830333961173892">
        <ele>67.6640625</ele>
        <time>2026-04-27T11:05:11Z</time>
      </trkpt>
      <trkpt lat="52.336499551311135" lon="7.83043010160327">
        <ele>67.703125</ele>
        <time>2026-04-27T11:05:15Z</time>
      </trkpt>
      <trkpt lat="52.336722258478403" lon="7.830544849857688">
        <ele>67.78125</ele>
        <time>2026-04-27T11:05:19Z</time>
      </trkpt>
      <trkpt lat="52.336941109970212" lon="7.830676697194576">
        <ele>67.87109375</ele>
        <time>2026-04-27T11:05:23Z</time>
      </trkpt>
      <trkpt lat="52.337167840451002" lon="7.830800330266357">
        <ele>67.6953125</ele>
        <time>2026-04-27T11:05:27Z</time>
      </trkpt>
      <trkpt lat="52.337393313646317" lon="7.830923376604915">
        <ele>67.23828125</ele>
        <time>2026-04-27T11:05:31Z</time>
      </trkpt>
      <trkpt lat="52.337601436302066" lon="7.831049608066678">
        <ele>66.59765625</ele>
        <time>2026-04-27T11:05:35Z</time>
      </trkpt>
      <trkpt lat="52.33780293725431" lon="7.831139713525772">
        <ele>65.89453125</ele>
        <time>2026-04-27T11:05:39Z</time>
      </trkpt>
      <trkpt lat="52.337996140122414" lon="7.83126519061625">
        <ele>65.7109375</ele>
        <time>2026-04-27T11:05:43Z</time>
      </trkpt>
      <trkpt lat="52.338196886703372" lon="7.831367366015911">
        <ele>65.7265625</ele>
        <time>2026-04-27T11:05:47Z</time>
      </trkpt>
      <trkpt lat="52.338389335200191" lon="7.831457471475005">
        <ele>66.12890625</ele>
        <time>2026-04-27T11:05:51Z</time>
      </trkpt>
      <trkpt lat="52.338585387915373" lon="7.831576662138104">
        <ele>66.8046875</ele>
        <time>2026-04-27T11:05:55Z</time>
      </trkpt>
      <trkpt lat="52.338797198608518" lon="7.831663750112057">
        <ele>67.1328125</ele>
        <time>2026-04-27T11:05:59Z</time>
      </trkpt>
      <trkpt lat="52.338994257152081" lon="7.831783024594188">
        <ele>67.59375</ele>
        <time>2026-04-27T11:06:03Z</time>
      </trkpt>
      <trkpt lat="52.339176395907998" lon="7.831890061497688">
        <ele>67.28515625</ele>
        <time>2026-04-27T11:06:07Z</time>
      </trkpt>
      <trkpt lat="52.339369850233197" lon="7.831991733983159">
        <ele>66.5078125</ele>
        <time>2026-04-27T11:06:11Z</time>
      </trkpt>
      <trkpt lat="52.339572440832853" lon="7.832100614905357">
        <ele>65.578125</ele>
        <time>2026-04-27T11:06:15Z</time>
      </trkpt>
      <trkpt lat="52.339782323688269" lon="7.832220895215869">
        <ele>64.5390625</ele>
        <time>2026-04-27T11:06:19Z</time>
      </trkpt>
      <trkpt lat="52.339996816590428" lon="7.832332458347082">
        <ele>63.87890625</ele>
        <time>2026-04-27T11:06:23Z</time>
      </trkpt>
      <trkpt lat="52.340232180431485" lon="7.832465814426541">
        <ele>62.7734375</ele>
        <time>2026-04-27T11:06:27Z</time>
      </trkpt>
      <trkpt lat="52.340437453240156" lon="7.832573186606169">
        <ele>61.4375</ele>
        <time>2026-04-27T11:06:31Z</time>
      </trkpt>
      <trkpt lat="52.340579861775041" lon="7.832812992855907">
        <ele>60.1484375</ele>
        <time>2026-04-27T11:06:35Z</time>
      </trkpt>
      <trkpt lat="52.340487828478217" lon="7.833110885694623">
        <ele>60.62890625</ele>
        <time>2026-04-27T11:06:39Z</time>
      </trkpt>
      <trkpt lat="52.340388335287571" lon="7.833433169871569">
        <ele>61.234375</ele>
        <time>2026-04-27T11:06:43Z</time>
      </trkpt>
      <trkpt lat="52.340292278677225" lon="7.833774564787746">
        <ele>61.7265625</ele>
        <time>2026-04-27T11:06:47Z</time>
      </trkpt>
      <trkpt lat="52.3401796258986" lon="7.834120402112603">
        <ele>62.4765625</ele>
        <time>2026-04-27T11:06:51Z</time>
      </trkpt>
      <trkpt lat="52.34008532948792" lon="7.834449056535959">
        <ele>63.09765625</ele>
        <time>2026-04-27T11:06:55Z</time>
      </trkpt>
      <trkpt lat="52.340007210150361" lon="7.834782907739282">
        <ele>62.74609375</ele>
        <time>2026-04-27T11:06:59Z</time>
      </trkpt>
      <trkpt lat="52.339905789121985" lon="7.835154728963971">
        <ele>62.21484375</ele>
        <time>2026-04-27T11:07:03Z</time>
      </trkpt>
      <trkpt lat="52.339803278446198" lon="7.835520347580314">
        <ele>60.72265625</ele>
        <time>2026-04-27T11:07:07Z</time>
      </trkpt>
      <trkpt lat="52.339694565162063" lon="7.835872806608677">
        <ele>58.6015625</ele>
        <time>2026-04-27T11:07:11Z</time>
      </trkpt>
      <trkpt lat="52.339579649269581" lon="7.83624479547143">
        <ele>56.97265625</ele>
        <time>2026-04-27T11:07:15Z</time>
      </trkpt>
      <trkpt lat="52.339474372565746" lon="7.836599182337523">
        <ele>56.19140625</ele>
        <time>2026-04-27T11:07:19Z</time>
      </trkpt>
      <trkpt lat="52.339384183287621" lon="7.836942253634334">
        <ele>55.47265625</ele>
        <time>2026-04-27T11:07:23Z</time>
      </trkpt>
      <trkpt lat="52.339286031201482" lon="7.837303094565868">
        <ele>55.58984375</ele>
        <time>2026-04-27T11:07:27Z</time>
      </trkpt>
      <trkpt lat="52.339175222441554" lon="7.8376520331949">
        <ele>55.72265625</ele>
        <time>2026-04-27T11:07:31Z</time>
      </trkpt>
      <trkpt lat="52.339073130860925" lon="7.838001223281026">
        <ele>55.4609375</ele>
        <time>2026-04-27T11:07:35Z</time>
      </trkpt>
      <trkpt lat="52.33899274840951" lon="7.838331134989858">
        <ele>55.16796875</ele>
        <time>2026-04-27T11:07:39Z</time>
      </trkpt>
      <trkpt lat="52.338881101459265" lon="7.838676888495684">
        <ele>54.80078125</ele>
        <time>2026-04-27T11:07:43Z</time>
      </trkpt>
      <trkpt lat="52.338761994615197" lon="7.839028341695666">
        <ele>54.2109375</ele>
        <time>2026-04-27T11:07:47Z</time>
      </trkpt>
      <trkpt lat="52.338645150884986" lon="7.839382393285632">
        <ele>53.73046875</ele>
        <time>2026-04-27T11:07:51Z</time>
      </trkpt>
      <trkpt lat="52.338538449257612" lon="7.839727308601141">
        <ele>54.37890625</ele>
        <time>2026-04-27T11:07:55Z</time>
      </trkpt>
      <trkpt lat="52.338436860591173" lon="7.840062668547034">
        <ele>55.0234375</ele>
        <time>2026-04-27T11:07:59Z</time>
      </trkpt>
      <trkpt lat="52.338343067094684" lon="7.840412110090256">
        <ele>55.44140625</ele>
        <time>2026-04-27T11:08:03Z</time>
      </trkpt>
      <trkpt lat="52.338237287476659" lon="7.840745709836483">
        <ele>55.6953125</ele>
        <time>2026-04-27T11:08:07Z</time>
      </trkpt>
      <trkpt lat="52.338130418211222" lon="7.84108123742044">
        <ele>55.953125</ele>
        <time>2026-04-27T11:08:11Z</time>
      </trkpt>
      <trkpt lat="52.338023213669658" lon="7.841428583487868">
        <ele>56</ele>
        <time>2026-04-27T11:08:15Z</time>
      </trkpt>
      <trkpt lat="52.337926318868995" lon="7.841756651178002">
        <ele>56</ele>
        <time>2026-04-27T11:08:19Z</time>
      </trkpt>
      <trkpt lat="52.33781810849905" lon="7.842091005295515">
        <ele>55.515625</ele>
        <time>2026-04-27T11:08:23Z</time>
      </trkpt>
      <trkpt lat="52.337714759632945" lon="7.842440698295832">
        <ele>54.67578125</ele>
        <time>2026-04-27T11:08:27Z</time>
      </trkpt>
      <trkpt lat="52.337608141824603" lon="7.842763988301158">
        <ele>53.9609375</ele>
        <time>2026-04-27T11:08:31Z</time>
      </trkpt>
      <trkpt lat="52.337496494874358" lon="7.843123069033027">
        <ele>53.74609375</ele>
        <time>2026-04-27T11:08:35Z</time>
      </trkpt>
      <trkpt lat="52.337388200685382" lon="7.843471588566899">
        <ele>53.76171875</ele>
        <time>2026-04-27T11:08:39Z</time>
      </trkpt>
      <trkpt lat="52.33725811354816" lon="7.843815162777901">
        <ele>54.0078125</ele>
        <time>2026-04-27T11:08:43Z</time>
      </trkpt>
      <trkpt lat="52.337101707234979" lon="7.844126718118787">
        <ele>54.37109375</ele>
        <time>2026-04-27T11:08:47Z</time>
      </trkpt>
      <trkpt lat="52.33691512607038" lon="7.844397621229291">
        <ele>55.30859375</ele>
        <time>2026-04-27T11:08:51Z</time>
      </trkpt>
      <trkpt lat="52.33674606308341" lon="7.844652933999896">
        <ele>55.91796875</ele>
        <time>2026-04-27T11:08:55Z</time>
      </trkpt>
      <trkpt lat="52.336586890742183" lon="7.844932554289699">
        <ele>56.48828125</ele>
        <time>2026-04-27T11:08:59Z</time>
      </trkpt>
      <trkpt lat="52.33644406311214" lon="7.845220221206546">
        <ele>57</ele>
        <time>2026-04-27T11:09:03Z</time>
      </trkpt>
      <trkpt lat="52.336307941004634" lon="7.845512749627233">
        <ele>57.59765625</ele>
        <time>2026-04-27T11:09:07Z</time>
      </trkpt>
      <trkpt lat="52.336145332083106" lon="7.845794381573796">
        <ele>58.26953125</ele>
        <time>2026-04-27T11:09:11Z</time>
      </trkpt>
      <trkpt lat="52.335997810587287" lon="7.846059668809176">
        <ele>59.02734375</ele>
        <time>2026-04-27T11:09:15Z</time>
      </trkpt>
      <trkpt lat="52.335861017927527" lon="7.84630567766726">
        <ele>60.125</ele>
        <time>2026-04-27T11:09:19Z</time>
      </trkpt>
      <trkpt lat="52.335719866678119" lon="7.846569204702973">
        <ele>61.3984375</ele>
        <time>2026-04-27T11:09:23Z</time>
      </trkpt>
      <trkpt lat="52.335587767884135" lon="7.846837006509304">
        <ele>62.59375</ele>
        <time>2026-04-27T11:09:27Z</time>
      </trkpt>
      <trkpt lat="52.335441252216697" lon="7.847105311229825">
        <ele>61.55859375</ele>
        <time>2026-04-27T11:09:31Z</time>
      </trkpt>
      <trkpt lat="52.335298005491495" lon="7.847412927076221">
        <ele>60.33984375</ele>
        <time>2026-04-27T11:09:35Z</time>
      </trkpt>
      <trkpt lat="52.335180239751935" lon="7.84774954430759">
        <ele>59.390625</ele>
        <time>2026-04-27T11:09:39Z</time>
      </trkpt>
      <trkpt lat="52.335070772096515" lon="7.848058082163334">
        <ele>58.8515625</ele>
        <time>2026-04-27T11:09:43Z</time>
      </trkpt>
      <trkpt lat="52.334965830668807" lon="7.848371481522918">
        <ele>58.80859375</ele>
        <time>2026-04-27T11:09:47Z</time>
      </trkpt>
      <trkpt lat="52.334846640005708" lon="7.84869116730988">
        <ele>59.296875</ele>
        <time>2026-04-27T11:09:51Z</time>
      </trkpt>
      <trkpt lat="52.334727114066482" lon="7.849001800641418">
        <ele>59.89453125</ele>
        <time>2026-04-27T11:09:55Z</time>
      </trkpt>
      <trkpt lat="52.334598619490862" lon="7.849337747320533">
        <ele>60.23828125</ele>
        <time>2026-04-27T11:09:59Z</time>
      </trkpt>
      <trkpt lat="52.334486050531268" lon="7.849652990698814">
        <ele>59.5234375</ele>
        <time>2026-04-27T11:10:03Z</time>
      </trkpt>
      <trkpt lat="52.334378510713577" lon="7.849978124722838">
        <ele>58.81640625</ele>
        <time>2026-04-27T11:10:07Z</time>
      </trkpt>
      <trkpt lat="52.334261583164334" lon="7.850320357829332">
        <ele>58.25390625</ele>
        <time>2026-04-27T11:10:11Z</time>
      </trkpt>
      <trkpt lat="52.334163095802069" lon="7.850647000595927">
        <ele>57.7421875</ele>
        <time>2026-04-27T11:10:15Z</time>
      </trkpt>
      <trkpt lat="52.33406838029623" lon="7.850973978638649">
        <ele>57.23828125</ele>
        <time>2026-04-27T11:10:19Z</time>
      </trkpt>
      <trkpt lat="52.33397115021944" lon="7.851286707445979">
        <ele>57.0390625</ele>
        <time>2026-04-27T11:10:23Z</time>
      </trkpt>
      <trkpt lat="52.333873752504587" lon="7.85159507766366">
        <ele>57.0859375</ele>
        <time>2026-04-27T11:10:27Z</time>
      </trkpt>
      <trkpt lat="52.333784066140652" lon="7.851923312991858">
        <ele>57.234375</ele>
        <time>2026-04-27T11:10:31Z</time>
      </trkpt>
      <trkpt lat="52.333692368119955" lon="7.852248530834913">
        <ele>57.609375</ele>
        <time>2026-04-27T11:10:35Z</time>
      </trkpt>
      <trkpt lat="52.333602849394083" lon="7.852596547454596">
        <ele>57.91796875</ele>
        <time>2026-04-27T11:10:39Z</time>
      </trkpt>
      <trkpt lat="52.333515090867877" lon="7.852958226576448">
        <ele>57.84765625</ele>
        <time>2026-04-27T11:10:43Z</time>
      </trkpt>
      <trkpt lat="52.333424231037498" lon="7.853335160762072">
        <ele>57.53125</ele>
        <time>2026-04-27T11:10:47Z</time>
      </trkpt>
      <trkpt lat="52.333342339843512" lon="7.853732965886593">
        <ele>57.17578125</ele>
        <time>2026-04-27T11:10:51Z</time>
      </trkpt>
      <trkpt lat="52.333257431164384" lon="7.854144936427474">
        <ele>56.703125</ele>
        <time>2026-04-27T11:10:55Z</time>
      </trkpt>
      <trkpt lat="52.333153244107962" lon="7.854519356042147">
        <ele>55.9765625</ele>
        <time>2026-04-27T11:10:59Z</time>
      </trkpt>
      <trkpt lat="52.333052828907967" lon="7.854902744293213">
        <ele>55.640625</ele>
        <time>2026-04-27T11:11:03Z</time>
      </trkpt>
      <trkpt lat="52.332950988784432" lon="7.855282360687852">
        <ele>55.83203125</ele>
        <time>2026-04-27T11:11:07Z</time>
      </trkpt>
      <trkpt lat="52.332853842526674" lon="7.855656528845429">
        <ele>56.44921875</ele>
        <time>2026-04-27T11:11:11Z</time>
      </trkpt>
      <trkpt lat="52.332719899713993" lon="7.855985518544912">
        <ele>56.94140625</ele>
        <time>2026-04-27T11:11:15Z</time>
      </trkpt>
      <trkpt lat="52.33257707208395" lon="7.856301935389638">
        <ele>57.08984375</ele>
        <time>2026-04-27T11:11:19Z</time>
      </trkpt>
      <trkpt lat="52.332432568073273" lon="7.856619777157903">
        <ele>57.07421875</ele>
        <time>2026-04-27T11:11:23Z</time>
      </trkpt>
      <trkpt lat="52.332270881161094" lon="7.856913730502129">
        <ele>56.91796875</ele>
        <time>2026-04-27T11:11:27Z</time>
      </trkpt>
      <trkpt lat="52.33210408128798" lon="7.857177844271064">
        <ele>56.359375</ele>
        <time>2026-04-27T11:11:31Z</time>
      </trkpt>
      <trkpt lat="52.331935688853264" lon="7.857440197840333">
        <ele>55.93359375</ele>
        <time>2026-04-27T11:11:35Z</time>
      </trkpt>
      <trkpt lat="52.331772660836577" lon="7.857699282467365">
        <ele>55.6328125</ele>
        <time>2026-04-27T11:11:39Z</time>
      </trkpt>
      <trkpt lat="52.331586750224233" lon="7.857996169477701">
        <ele>56.17578125</ele>
        <time>2026-04-27T11:11:43Z</time>
      </trkpt>
      <trkpt lat="52.331406120210886" lon="7.85828341729939">
        <ele>56.75390625</ele>
        <time>2026-04-27T11:11:47Z</time>
      </trkpt>
      <trkpt lat="52.331226831302047" lon="7.858556834980846">
        <ele>57.26953125</ele>
        <time>2026-04-27T11:11:51Z</time>
      </trkpt>
      <trkpt lat="52.331049051135778" lon="7.858832767233253">
        <ele>57.64453125</ele>
        <time>2026-04-27T11:11:55Z</time>
      </trkpt>
      <trkpt lat="52.330869426950812" lon="7.859119428321719">
        <ele>58.17578125</ele>
        <time>2026-04-27T11:11:59Z</time>
      </trkpt>
      <trkpt lat="52.330734143033624" lon="7.859420841559768">
        <ele>58.71484375</ele>
        <time>2026-04-27T11:12:03Z</time>
      </trkpt>
      <trkpt lat="52.330642780289054" lon="7.859764164313674">
        <ele>58.93359375</ele>
        <time>2026-04-27T11:12:07Z</time>
      </trkpt>
      <trkpt lat="52.330609587952495" lon="7.860144870355725">
        <ele>59</ele>
        <time>2026-04-27T11:12:11Z</time>
      </trkpt>
      <trkpt lat="52.330620652064681" lon="7.860517110675573">
        <ele>58.25</ele>
        <time>2026-04-27T11:12:15Z</time>
      </trkpt>
      <trkpt lat="52.330666249617934" lon="7.860891195014119">
        <ele>57.2421875</ele>
        <time>2026-04-27T11:12:19Z</time>
      </trkpt>
      <trkpt lat="52.330730622634292" lon="7.861302914097905">
        <ele>56.41015625</ele>
        <time>2026-04-27T11:12:23Z</time>
      </trkpt>
      <trkpt lat="52.330793822184205" lon="7.861676076427102">
        <ele>55.8125</ele>
        <time>2026-04-27T11:12:27Z</time>
      </trkpt>
      <trkpt lat="52.330868588760495" lon="7.862038174644113">
        <ele>55.390625</ele>
        <time>2026-04-27T11:12:31Z</time>
      </trkpt>
      <trkpt lat="52.330942349508405" lon="7.86238401196897">
        <ele>55.21484375</ele>
        <time>2026-04-27T11:12:35Z</time>
      </trkpt>
      <trkpt lat="52.331015355885029" lon="7.862745355814695">
        <ele>55.0625</ele>
        <time>2026-04-27T11:12:39Z</time>
      </trkpt>
      <trkpt lat="52.331082411110401" lon="7.863110052421689">
        <ele>55.08984375</ele>
        <time>2026-04-27T11:12:43Z</time>
      </trkpt>
      <trkpt lat="52.331159021705389" lon="7.863469133153558">
        <ele>55.01171875</ele>
        <time>2026-04-27T11:12:47Z</time>
      </trkpt>
      <trkpt lat="52.331226579844952" lon="7.863847073167563">
        <ele>55.62890625</ele>
        <time>2026-04-27T11:12:51Z</time>
      </trkpt>
      <trkpt lat="52.331305118277669" lon="7.864213446155191">
        <ele>56.265625</ele>
        <time>2026-04-27T11:12:55Z</time>
      </trkpt>
      <trkpt lat="52.331371838226914" lon="7.864566827192903">
        <ele>56.38671875</ele>
        <time>2026-04-27T11:12:59Z</time>
      </trkpt>
      <trkpt lat="52.331406539306045" lon="7.864939067512751">
        <ele>56.234375</ele>
        <time>2026-04-27T11:13:03Z</time>
      </trkpt>
      <trkpt lat="52.331408550962806" lon="7.865338381379843">
        <ele>56.06640625</ele>
        <time>2026-04-27T11:13:07Z</time>
      </trkpt>
      <trkpt lat="52.331409640610218" lon="7.865720177069306">
        <ele>55.55859375</ele>
        <time>2026-04-27T11:13:11Z</time>
      </trkpt>
      <trkpt lat="52.331415927037597" lon="7.866096775978804">
        <ele>55.046875</ele>
        <time>2026-04-27T11:13:15Z</time>
      </trkpt>
      <trkpt lat="52.331414753571153" lon="7.866483349353075">
        <ele>54.58984375</ele>
        <time>2026-04-27T11:13:19Z</time>
      </trkpt>
      <trkpt lat="52.331421123817563" lon="7.866859026253223">
        <ele>54.11328125</ele>
        <time>2026-04-27T11:13:23Z</time>
      </trkpt>
      <trkpt lat="52.331422381103039" lon="7.867249874398112">
        <ele>54.078125</ele>
        <time>2026-04-27T11:13:27Z</time>
      </trkpt>
      <trkpt lat="52.331416849046946" lon="7.86762940697372">
        <ele>54.078125</ele>
        <time>2026-04-27T11:13:31Z</time>
      </trkpt>
      <trkpt lat="52.331417100504041" lon="7.867997037246823">
        <ele>54.1015625</ele>
        <time>2026-04-27T11:13:35Z</time>
      </trkpt>
      <trkpt lat="52.331415843218565" lon="7.868378246203065">
        <ele>54.140625</ele>
        <time>2026-04-27T11:13:39Z</time>
      </trkpt>
      <trkpt lat="52.33140679076314" lon="7.868763729929924">
        <ele>54.765625</ele>
        <time>2026-04-27T11:13:43Z</time>
      </trkpt>
      <trkpt lat="52.331399330869317" lon="7.869125157594681">
        <ele>55.7265625</ele>
        <time>2026-04-27T11:13:47Z</time>
      </trkpt>
      <trkpt lat="52.331379298120737" lon="7.869506366550922">
        <ele>56.36328125</ele>
        <time>2026-04-27T11:13:51Z</time>
      </trkpt>
      <trkpt lat="52.331343842670321" lon="7.869903165847063">
        <ele>56.2734375</ele>
        <time>2026-04-27T11:13:55Z</time>
      </trkpt>
      <trkpt lat="52.331275278702378" lon="7.870267778635025">
        <ele>56.5390625</ele>
        <time>2026-04-27T11:13:59Z</time>
      </trkpt>
      <trkpt lat="52.331144688650966" lon="7.870577154681087">
        <ele>56.98046875</ele>
        <time>2026-04-27T11:14:03Z</time>
      </trkpt>
      <trkpt lat="52.330994149670005" lon="7.87085191346705">
        <ele>57.3125</ele>
        <time>2026-04-27T11:14:07Z</time>
      </trkpt>
      <trkpt lat="52.330824332311749" lon="7.871103202924132">
        <ele>57.56640625</ele>
        <time>2026-04-27T11:14:11Z</time>
      </trkpt>
      <trkpt lat="52.330654766410589" lon="7.871338902041316">
        <ele>57.73046875</ele>
        <time>2026-04-27T11:14:15Z</time>
      </trkpt>
      <trkpt lat="52.330481261014938" lon="7.871579211205244">
        <ele>57.265625</ele>
        <time>2026-04-27T11:14:19Z</time>
      </trkpt>
      <trkpt lat="52.330312030389905" lon="7.871819855645299">
        <ele>56.5703125</ele>
        <time>2026-04-27T11:14:23Z</time>
      </trkpt>
      <trkpt lat="52.330135004594922" lon="7.872075000777841">
        <ele>56.0859375</ele>
        <time>2026-04-27T11:14:27Z</time>
      </trkpt>
      <trkpt lat="52.329958230257034" lon="7.872323775663972">
        <ele>55.69921875</ele>
        <time>2026-04-27T11:14:31Z</time>
      </trkpt>
      <trkpt lat="52.329800818115473" lon="7.872605156153441">
        <ele>55.21484375</ele>
        <time>2026-04-27T11:14:35Z</time>
      </trkpt>
      <trkpt lat="52.329683471471071" lon="7.872926350682974">
        <ele>54.8515625</ele>
        <time>2026-04-27T11:14:39Z</time>
      </trkpt>
      <trkpt lat="52.329753963276744" lon="7.873267410323024">
        <ele>54.35546875</ele>
        <time>2026-04-27T11:14:43Z</time>
      </trkpt>
      <trkpt lat="52.329856641590595" lon="7.873605452477932">
        <ele>53.9296875</ele>
        <time>2026-04-27T11:14:47Z</time>
      </trkpt>
      <trkpt lat="52.329949848353863" lon="7.873935028910637">
        <ele>53.71484375</ele>
        <time>2026-04-27T11:14:51Z</time>
      </trkpt>
      <trkpt lat="52.33004204928875" lon="7.874269131571055">
        <ele>53.66796875</ele>
        <time>2026-04-27T11:14:55Z</time>
      </trkpt>
      <trkpt lat="52.330120503902435" lon="7.874604323878884">
        <ele>53.98046875</ele>
        <time>2026-04-27T11:14:59Z</time>
      </trkpt>
      <trkpt lat="52.330195270478725" lon="7.874958710744977">
        <ele>54.34765625</ele>
        <time>2026-04-27T11:15:03Z</time>
      </trkpt>
      <trkpt lat="52.330271461978555" lon="7.875306056812406">
        <ele>54.91796875</ele>
        <time>2026-04-27T11:15:07Z</time>
      </trkpt>
      <trkpt lat="52.330355029553175" lon="7.875630939379334">
        <ele>55.84765625</ele>
        <time>2026-04-27T11:15:11Z</time>
      </trkpt>
      <trkpt lat="52.33042661100626" lon="7.875939644873142">
        <ele>56.4609375</ele>
        <time>2026-04-27T11:15:15Z</time>
      </trkpt>
      <trkpt lat="52.330501629039645" lon="7.876229993999004">
        <ele>57.7109375</ele>
        <time>2026-04-27T11:15:19Z</time>
      </trkpt>
      <trkpt lat="52.330562649294734" lon="7.876509027555585">
        <ele>59.18359375</ele>
        <time>2026-04-27T11:15:23Z</time>
      </trkpt>
      <trkpt lat="52.330662729218602" lon="7.876917142421007">
        <ele>60.7734375</ele>
        <time>2026-04-27T11:15:29Z</time>
      </trkpt>
      <trkpt lat="52.330744536593556" lon="7.8772456292063">
        <ele>60.8359375</ele>
        <time>2026-04-27T11:15:33Z</time>
      </trkpt>
      <trkpt lat="52.330830870196223" lon="7.877573780715466">
        <ele>60.703125</ele>
        <time>2026-04-27T11:15:37Z</time>
      </trkpt>
      <trkpt lat="52.330924328416586" lon="7.877887180075049">
        <ele>59.30078125</ele>
        <time>2026-04-27T11:15:41Z</time>
      </trkpt>
      <trkpt lat="52.331031197682023" lon="7.878212230280042">
        <ele>57.16015625</ele>
        <time>2026-04-27T11:15:45Z</time>
      </trkpt>
      <trkpt lat="52.331140581518412" lon="7.878477182239294">
        <ele>55.3984375</ele>
        <time>2026-04-27T11:15:49Z</time>
      </trkpt>
      <trkpt lat="52.331275613978505" lon="7.878835424780846">
        <ele>54.7421875</ele>
        <time>2026-04-27T11:15:55Z</time>
      </trkpt>
      <trkpt lat="52.331342501565814" lon="7.879130635410547">
        <ele>54.921875</ele>
        <time>2026-04-27T11:15:59Z</time>
      </trkpt>
      <trkpt lat="52.331401342526078" lon="7.879446549341083">
        <ele>55.35546875</ele>
        <time>2026-04-27T11:16:03Z</time>
      </trkpt>
      <trkpt lat="52.331444509327412" lon="7.879735557362437">
        <ele>55.8984375</ele>
        <time>2026-04-27T11:16:07Z</time>
      </trkpt>
      <trkpt lat="52.331463284790516" lon="7.88004401139915">
        <ele>56.578125</ele>
        <time>2026-04-27T11:16:11Z</time>
      </trkpt>
      <trkpt lat="52.33150159008801" lon="7.880351124331355">
        <ele>56.625</ele>
        <time>2026-04-27T11:16:15Z</time>
      </trkpt>
      <trkpt lat="52.331543248146772" lon="7.880798634141684">
        <ele>55.9375</ele>
        <time>2026-04-27T11:16:21Z</time>
      </trkpt>
      <trkpt lat="52.331579038873315" lon="7.881101472303271">
        <ele>55.375</ele>
        <time>2026-04-27T11:16:25Z</time>
      </trkpt>
      <trkpt lat="52.331605441868305" lon="7.881413195282221">
        <ele>54.6015625</ele>
        <time>2026-04-27T11:16:29Z</time>
      </trkpt>
      <trkpt lat="52.331630168482661" lon="7.881738329306245">
        <ele>53.83203125</ele>
        <time>2026-04-27T11:16:33Z</time>
      </trkpt>
      <trkpt lat="52.331670820713043" lon="7.882067319005728">
        <ele>53.7734375</ele>
        <time>2026-04-27T11:16:37Z</time>
      </trkpt>
      <trkpt lat="52.331689931452274" lon="7.882418939843774">
        <ele>54.27734375</ele>
        <time>2026-04-27T11:16:41Z</time>
      </trkpt>
      <trkpt lat="52.331668641418219" lon="7.882782714441419">
        <ele>54.76171875</ele>
        <time>2026-04-27T11:16:45Z</time>
      </trkpt>
      <trkpt lat="52.33161591924727" lon="7.883145231753588">
        <ele>54.90625</ele>
        <time>2026-04-27T11:16:49Z</time>
      </trkpt>
      <trkpt lat="52.331570908427238" lon="7.883505066856742">
        <ele>54.99609375</ele>
        <time>2026-04-27T11:16:53Z</time>
      </trkpt>
      <trkpt lat="52.331490274518728" lon="7.883869092911482">
        <ele>55.3671875</ele>
        <time>2026-04-27T11:16:57Z</time>
      </trkpt>
      <trkpt lat="52.331373346969485" lon="7.884174780920148">
        <ele>55.953125</ele>
        <time>2026-04-27T11:17:01Z</time>
      </trkpt>
      <trkpt lat="52.331255245953798" lon="7.884483570232987">
        <ele>56.49609375</ele>
        <time>2026-04-27T11:17:05Z</time>
      </trkpt>
      <trkpt lat="52.33112976886332" lon="7.884804094210267">
        <ele>56.96875</ele>
        <time>2026-04-27T11:17:09Z</time>
      </trkpt>
      <trkpt lat="52.331009907647967" lon="7.885098047554493">
        <ele>57.515625</ele>
        <time>2026-04-27T11:17:13Z</time>
      </trkpt>
      <trkpt lat="52.330881329253316" lon="7.885405663400888">
        <ele>58.21484375</ele>
        <time>2026-04-27T11:17:17Z</time>
      </trkpt>
      <trkpt lat="52.330754511058331" lon="7.885702047497034">
        <ele>59.00390625</ele>
        <time>2026-04-27T11:17:21Z</time>
      </trkpt>
      <trkpt lat="52.330640852451324" lon="7.885998850688338">
        <ele>59.84375</ele>
        <time>2026-04-27T11:17:25Z</time>
      </trkpt>
      <trkpt lat="52.330516632646322" lon="7.886300347745419">
        <ele>59.94921875</ele>
        <time>2026-04-27T11:17:29Z</time>
      </trkpt>
      <trkpt lat="52.330401632934809" lon="7.886600587517023">
        <ele>60.00390625</ele>
        <time>2026-04-27T11:17:33Z</time>
      </trkpt>
      <trkpt lat="52.330282609909773" lon="7.886909209191799">
        <ele>60.02734375</ele>
        <time>2026-04-27T11:17:37Z</time>
      </trkpt>
      <trkpt lat="52.33014858327806" lon="7.887224787846208">
        <ele>59.37109375</ele>
        <time>2026-04-27T11:17:41Z</time>
      </trkpt>
      <trkpt lat="52.330045737326145" lon="7.887498121708632">
        <ele>58.7578125</ele>
        <time>2026-04-27T11:17:45Z</time>
      </trkpt>
      <trkpt lat="52.329943310469389" lon="7.887789644300938">
        <ele>58.12109375</ele>
        <time>2026-04-27T11:17:49Z</time>
      </trkpt>
      <trkpt lat="52.329815570265055" lon="7.888088375329971">
        <ele>57.5</ele>
        <time>2026-04-27T11:17:53Z</time>
      </trkpt>
      <trkpt lat="52.329700402915478" lon="7.888385429978371">
        <ele>56.65625</ele>
        <time>2026-04-27T11:17:57Z</time>
      </trkpt>
      <trkpt lat="52.329575009644032" lon="7.888696063309908">
        <ele>56.5</ele>
        <time>2026-04-27T11:18:01Z</time>
      </trkpt>
      <trkpt lat="52.329456070438027" lon="7.889033602550626">
        <ele>56.78515625</ele>
        <time>2026-04-27T11:18:05Z</time>
      </trkpt>
      <trkpt lat="52.329324055463076" lon="7.889325460419059">
        <ele>57.1015625</ele>
        <time>2026-04-27T11:18:09Z</time>
      </trkpt>
      <trkpt lat="52.329195812344551" lon="7.889623688533902">
        <ele>57.1484375</ele>
        <time>2026-04-27T11:18:13Z</time>
      </trkpt>
      <trkpt lat="52.329077208414674" lon="7.889929795637727">
        <ele>56.7421875</ele>
        <time>2026-04-27T11:18:17Z</time>
      </trkpt>
      <trkpt lat="52.328961035236716" lon="7.89022802375257">
        <ele>56.15234375</ele>
        <time>2026-04-27T11:18:21Z</time>
      </trkpt>
      <trkpt lat="52.328833630308509" lon="7.890527090057731">
        <ele>57.31640625</ele>
        <time>2026-04-27T11:18:25Z</time>
      </trkpt>
      <trkpt lat="52.328706979751587" lon="7.890828670933843">
        <ele>58.20703125</ele>
        <time>2026-04-27T11:18:29Z</time>
      </trkpt>
      <trkpt lat="52.328590303659439" lon="7.891129329800606">
        <ele>59.06640625</ele>
        <time>2026-04-27T11:18:33Z</time>
      </trkpt>
      <trkpt lat="52.328477902337909" lon="7.891439711675048">
        <ele>60.421875</ele>
        <time>2026-04-27T11:18:37Z</time>
      </trkpt>
      <trkpt lat="52.328377151861787" lon="7.891729054972529">
        <ele>61.69140625</ele>
        <time>2026-04-27T11:18:41Z</time>
      </trkpt>
      <trkpt lat="52.328255111351609" lon="7.892021080479026">
        <ele>61.875</ele>
        <time>2026-04-27T11:18:45Z</time>
      </trkpt>
      <trkpt lat="52.328139105811715" lon="7.892337329685688">
        <ele>61.40625</ele>
        <time>2026-04-27T11:18:49Z</time>
      </trkpt>
      <trkpt lat="52.328017149120569" lon="7.892646035179496">
        <ele>60.9140625</ele>
        <time>2026-04-27T11:18:53Z</time>
      </trkpt>
      <trkpt lat="52.327890917658806" lon="7.892946358770132">
        <ele>59.75390625</ele>
        <time>2026-04-27T11:18:57Z</time>
      </trkpt>
      <trkpt lat="52.327756891027093" lon="7.893251711502671">
        <ele>58.74609375</ele>
        <time>2026-04-27T11:19:01Z</time>
      </trkpt>
      <trkpt lat="52.327632000669837" lon="7.893546335399151">
        <ele>58.109375</ele>
        <time>2026-04-27T11:19:05Z</time>
      </trkpt>
      <trkpt lat="52.327513732016087" lon="7.893852610141039">
        <ele>57.66015625</ele>
        <time>2026-04-27T11:19:09Z</time>
      </trkpt>
      <trkpt lat="52.327380543574691" lon="7.894174307584763">
        <ele>57.20703125</ele>
        <time>2026-04-27T11:19:13Z</time>
      </trkpt>
      <trkpt lat="52.327256742864847" lon="7.894475301727653">
        <ele>56.5625</ele>
        <time>2026-04-27T11:19:17Z</time>
      </trkpt>
      <trkpt lat="52.327141659334302" lon="7.894761962816119">
        <ele>55.78515625</ele>
        <time>2026-04-27T11:19:21Z</time>
      </trkpt>
      <trkpt lat="52.327011907473207" lon="7.895058011636138">
        <ele>55.5234375</ele>
        <time>2026-04-27T11:19:25Z</time>
      </trkpt>
      <trkpt lat="52.326849969103932" lon="7.895311815664172">
        <ele>56.0078125</ele>
        <time>2026-04-27T11:19:29Z</time>
      </trkpt>
      <trkpt lat="52.326661879196763" lon="7.895509963855147">
        <ele>56.69921875</ele>
        <time>2026-04-27T11:19:33Z</time>
      </trkpt>
      <trkpt lat="52.326472448185086" lon="7.89571532048285">
        <ele>57.28125</ele>
        <time>2026-04-27T11:19:37Z</time>
      </trkpt>
      <trkpt lat="52.326283184811473" lon="7.895909445360303">
        <ele>57.0546875</ele>
        <time>2026-04-27T11:19:41Z</time>
      </trkpt>
      <trkpt lat="52.326099118217826" lon="7.896096361801028">
        <ele>56.859375</ele>
        <time>2026-04-27T11:19:45Z</time>
      </trkpt>
      <trkpt lat="52.325917901471257" lon="7.8962791711092">
        <ele>56.58203125</ele>
        <time>2026-04-27T11:19:49Z</time>
      </trkpt>
      <trkpt lat="52.325727296993136" lon="7.896464746445417">
        <ele>56.3984375</ele>
        <time>2026-04-27T11:19:53Z</time>
      </trkpt>
      <trkpt lat="52.325542224571109" lon="7.896679993718863">
        <ele>56.26171875</ele>
        <time>2026-04-27T11:19:57Z</time>
      </trkpt>
      <trkpt lat="52.32535463757813" lon="7.896874286234379">
        <ele>56.27734375</ele>
        <time>2026-04-27T11:20:01Z</time>
      </trkpt>
      <trkpt lat="52.325158668681979" lon="7.897051814943552">
        <ele>56.2109375</ele>
        <time>2026-04-27T11:20:05Z</time>
      </trkpt>
      <trkpt lat="52.32496228069067" lon="7.897264463827014">
        <ele>56.19140625</ele>
        <time>2026-04-27T11:20:09Z</time>
      </trkpt>
      <trkpt lat="52.324768491089344" lon="7.897482141852379">
        <ele>56.2578125</ele>
        <time>2026-04-27T11:20:13Z</time>
      </trkpt>
      <trkpt lat="52.324599344283342" lon="7.897665202617645">
        <ele>56.23828125</ele>
        <time>2026-04-27T11:20:17Z</time>
      </trkpt>
      <trkpt lat="52.324422150850296" lon="7.897852286696434">
        <ele>56.5234375</ele>
        <time>2026-04-27T11:20:21Z</time>
      </trkpt>
      <trkpt lat="52.324235821142793" lon="7.898041801527143">
        <ele>56.94140625</ele>
        <time>2026-04-27T11:20:25Z</time>
      </trkpt>
      <trkpt lat="52.324061058461666" lon="7.898233998566866">
        <ele>57.44140625</ele>
        <time>2026-04-27T11:20:29Z</time>
      </trkpt>
      <trkpt lat="52.323874309659004" lon="7.898410856723785">
        <ele>58.13671875</ele>
        <time>2026-04-27T11:20:33Z</time>
      </trkpt>
      <trkpt lat="52.323702648282051" lon="7.898606657981873">
        <ele>58.890625</ele>
        <time>2026-04-27T11:20:37Z</time>
      </trkpt>
      <trkpt lat="52.323492094874382" lon="7.898679999634624">
        <ele>59.78515625</ele>
        <time>2026-04-27T11:20:41Z</time>
      </trkpt>
      <trkpt lat="52.32327944599092" lon="7.898525772616267">
        <ele>60.43359375</ele>
        <time>2026-04-27T11:20:45Z</time>
      </trkpt>
      <trkpt lat="52.32307224534452" lon="7.898372719064355">
        <ele>60.9765625</ele>
        <time>2026-04-27T11:20:49Z</time>
      </trkpt>
      <trkpt lat="52.322864457964897" lon="7.898224191740155">
        <ele>62.01953125</ele>
        <time>2026-04-27T11:20:53Z</time>
      </trkpt>
      <trkpt lat="52.322667147964239" lon="7.898152442649007">
        <ele>63.13671875</ele>
        <time>2026-04-27T11:20:57Z</time>
      </trkpt>
      <trkpt lat="52.322455253452063" lon="7.898168116807938">
        <ele>64.60546875</ele>
        <time>2026-04-27T11:21:01Z</time>
      </trkpt>
      <trkpt lat="52.322247801348567" lon="7.898152358829975">
        <ele>65.59765625</ele>
        <time>2026-04-27T11:21:05Z</time>
      </trkpt>
      <trkpt lat="52.322031632065773" lon="7.89816090837121">
        <ele>65.22265625</ele>
        <time>2026-04-27T11:21:09Z</time>
      </trkpt>
      <trkpt lat="52.321826023980975" lon="7.898161578923464">
        <ele>64.8359375</ele>
        <time>2026-04-27T11:21:13Z</time>
      </trkpt>
      <trkpt lat="52.321620918810368" lon="7.898148167878389">
        <ele>64.4140625</ele>
        <time>2026-04-27T11:21:17Z</time>
      </trkpt>
      <trkpt lat="52.321408772841096" lon="7.898144479840994">
        <ele>63.92578125</ele>
        <time>2026-04-27T11:21:21Z</time>
      </trkpt>
      <trkpt lat="52.321199728175998" lon="7.898135930299759">
        <ele>63.13671875</ele>
        <time>2026-04-27T11:21:25Z</time>
      </trkpt>
      <trkpt lat="52.320978781208396" lon="7.898131655529141">
        <ele>62.31640625</ele>
        <time>2026-04-27T11:21:29Z</time>
      </trkpt>
      <trkpt lat="52.320777028799057" lon="7.898128135129809">
        <ele>61.5703125</ele>
        <time>2026-04-27T11:21:33Z</time>
      </trkpt>
      <trkpt lat="52.320572258904576" lon="7.898113299161196">
        <ele>60.94140625</ele>
        <time>2026-04-27T11:21:37Z</time>
      </trkpt>
      <trkpt lat="52.320370841771364" lon="7.898035263642669">
        <ele>60.69921875</ele>
        <time>2026-04-27T11:21:41Z</time>
      </trkpt>
      <trkpt lat="52.320182751864195" lon="7.897923951968551">
        <ele>60.47265625</ele>
        <time>2026-04-27T11:21:45Z</time>
      </trkpt>
      <trkpt lat="52.319999523460865" lon="7.898070383816958">
        <ele>60.25390625</ele>
        <time>2026-04-27T11:21:51Z</time>
      </trkpt>
      <trkpt lat="52.319896928966045" lon="7.898352686315775">
        <ele>60.12890625</ele>
        <time>2026-04-27T11:21:55Z</time>
      </trkpt>
      <trkpt lat="52.31984730809927" lon="7.898662397637963">
        <ele>60.41015625</ele>
        <time>2026-04-27T11:21:59Z</time>
      </trkpt>
      <trkpt lat="52.319851331412792" lon="7.898978814482689">
        <ele>61.17578125</ele>
        <time>2026-04-27T11:22:03Z</time>
      </trkpt>
      <trkpt lat="52.319895001128316" lon="7.899284418672323">
        <ele>61.9609375</ele>
        <time>2026-04-27T11:22:07Z</time>
      </trkpt>
      <trkpt lat="52.319911429658532" lon="7.899742657318711">
        <ele>63.41015625</ele>
        <time>2026-04-27T11:22:13Z</time>
      </trkpt>
      <trkpt lat="52.319882679730654" lon="7.900078687816858">
        <ele>64.52734375</ele>
        <time>2026-04-27T11:22:17Z</time>
      </trkpt>
      <trkpt lat="52.319769775494933" lon="7.900392925366759">
        <ele>65.07421875</ele>
        <time>2026-04-27T11:22:21Z</time>
      </trkpt>
      <trkpt lat="52.319622589275241" lon="7.900653099641204">
        <ele>65.7109375</ele>
        <time>2026-04-27T11:22:25Z</time>
      </trkpt>
      <trkpt lat="52.319480935111642" lon="7.900882596150041">
        <ele>66.41796875</ele>
        <time>2026-04-27T11:22:29Z</time>
      </trkpt>
      <trkpt lat="52.319326121360064" lon="7.901138579472899">
        <ele>66.5546875</ele>
        <time>2026-04-27T11:22:33Z</time>
      </trkpt>
      <trkpt lat="52.319178599864244" lon="7.901365226134658">
        <ele>65.76953125</ele>
        <time>2026-04-27T11:22:37Z</time>
      </trkpt>
      <trkpt lat="52.319042980670929" lon="7.901594722643495">
        <ele>64.65234375</ele>
        <time>2026-04-27T11:22:41Z</time>
      </trkpt>
      <trkpt lat="52.318900991231203" lon="7.901806114241481">
        <ele>63.76953125</ele>
        <time>2026-04-27T11:22:45Z</time>
      </trkpt>
      <trkpt lat="52.318754643201828" lon="7.902055140584707">
        <ele>64.14453125</ele>
        <time>2026-04-27T11:22:49Z</time>
      </trkpt>
      <trkpt lat="52.318613408133388" lon="7.902270304039121">
        <ele>64.66796875</ele>
        <time>2026-04-27T11:22:53Z</time>
      </trkpt>
      <trkpt lat="52.318468149751425" lon="7.902501476928592">
        <ele>65.08203125</ele>
        <time>2026-04-27T11:22:57Z</time>
      </trkpt>
      <trkpt lat="52.318325154483318" lon="7.902717646211386">
        <ele>65.5625</ele>
        <time>2026-04-27T11:23:01Z</time>
      </trkpt>
      <trkpt lat="52.318228427320719" lon="7.902970192953944">
        <ele>66.328125</ele>
        <time>2026-04-27T11:23:05Z</time>
      </trkpt>
      <trkpt lat="52.318173609673977" lon="7.903417116031051">
        <ele>66.7421875</ele>
        <time>2026-04-27T11:23:11Z</time>
      </trkpt>
      <trkpt lat="52.318156510591507" lon="7.903728168457747">
        <ele>66.87890625</ele>
        <time>2026-04-27T11:23:15Z</time>
      </trkpt>
      <trkpt lat="52.318137735128403" lon="7.904037879779935">
        <ele>66.97265625</ele>
        <time>2026-04-27T11:23:19Z</time>
      </trkpt>
      <trkpt lat="52.318088198080659" lon="7.904365863651037">
        <ele>66.765625</ele>
        <time>2026-04-27T11:23:23Z</time>
      </trkpt>
      <trkpt lat="52.31803011149168" lon="7.90472955442965">
        <ele>65.0390625</ele>
        <time>2026-04-27T11:23:27Z</time>
      </trkpt>
      <trkpt lat="52.317986190319061" lon="7.905073296278715">
        <ele>63.7265625</ele>
        <time>2026-04-27T11:23:31Z</time>
      </trkpt>
      <trkpt lat="52.317946879193187" lon="7.905390132218599">
        <ele>63.3828125</ele>
        <time>2026-04-27T11:23:35Z</time>
      </trkpt>
      <trkpt lat="52.31790404766798" lon="7.905699089169502">
        <ele>63.55859375</ele>
        <time>2026-04-27T11:23:39Z</time>
      </trkpt>
      <trkpt lat="52.31786884367466" lon="7.906003603711724">
        <ele>63.828125</ele>
        <time>2026-04-27T11:23:43Z</time>
      </trkpt>
      <trkpt lat="52.31782634742558" lon="7.906319098547101">
        <ele>65.6171875</ele>
        <time>2026-04-27T11:23:47Z</time>
      </trkpt>
      <trkpt lat="52.317796926945448" lon="7.906630653887987">
        <ele>67.4296875</ele>
        <time>2026-04-27T11:23:51Z</time>
      </trkpt>
      <trkpt lat="52.31777211651206" lon="7.90695327334106">
        <ele>69.0625</ele>
        <time>2026-04-27T11:23:55Z</time>
      </trkpt>
      <trkpt lat="52.317748479545116" lon="7.907294752076268">
        <ele>70.171875</ele>
        <time>2026-04-27T11:23:59Z</time>
      </trkpt>
      <trkpt lat="52.317718807607889" lon="7.907623741775751">
        <ele>71.25390625</ele>
        <time>2026-04-27T11:24:03Z</time>
      </trkpt>
      <trkpt lat="52.317669773474336" lon="7.907927334308624">
        <ele>71.78125</ele>
        <time>2026-04-27T11:24:07Z</time>
      </trkpt>
      <trkpt lat="52.317628869786859" lon="7.908246349543333">
        <ele>72.02734375</ele>
        <time>2026-04-27T11:24:11Z</time>
      </trkpt>
      <trkpt lat="52.317581931129098" lon="7.908590007573366">
        <ele>72.2734375</ele>
        <time>2026-04-27T11:24:15Z</time>
      </trkpt>
      <trkpt lat="52.317548738792539" lon="7.90892343968153">
        <ele>72.6328125</ele>
        <time>2026-04-27T11:24:19Z</time>
      </trkpt>
      <trkpt lat="52.317534489557147" lon="7.909252597019076">
        <ele>72.8984375</ele>
        <time>2026-04-27T11:24:23Z</time>
      </trkpt>
      <trkpt lat="52.317501297220588" lon="7.90960798971355">
        <ele>72.6796875</ele>
        <time>2026-04-27T11:24:27Z</time>
      </trkpt>
      <trkpt lat="52.317468523979187" lon="7.909983247518539">
        <ele>72.13671875</ele>
        <time>2026-04-27T11:24:31Z</time>
      </trkpt>
      <trkpt lat="52.317419741302729" lon="7.910355990752578">
        <ele>71.7421875</ele>
        <time>2026-04-27T11:24:35Z</time>
      </trkpt>
      <trkpt lat="52.317374227568507" lon="7.910744240507484">
        <ele>71.24609375</ele>
        <time>2026-04-27T11:24:39Z</time>
      </trkpt>
      <trkpt lat="52.317328210920095" lon="7.911120252683759">
        <ele>70.73046875</ele>
        <time>2026-04-27T11:24:43Z</time>
      </trkpt>
      <trkpt lat="52.317271130159497" lon="7.911506071686745">
        <ele>70.44921875</ele>
        <time>2026-04-27T11:24:47Z</time>
      </trkpt>
      <trkpt lat="52.317224945873022" lon="7.911869091913104">
        <ele>70.2109375</ele>
        <time>2026-04-27T11:24:51Z</time>
      </trkpt>
      <trkpt lat="52.317181108519435" lon="7.912229932844639">
        <ele>69.9921875</ele>
        <time>2026-04-27T11:24:55Z</time>
      </trkpt>
      <trkpt lat="52.317140121012926" lon="7.912588343024254">
        <ele>69.80859375</ele>
        <time>2026-04-27T11:24:59Z</time>
      </trkpt>
      <trkpt lat="52.31710609048605" lon="7.912934683263302">
        <ele>70.0546875</ele>
        <time>2026-04-27T11:25:03Z</time>
      </trkpt>
      <trkpt lat="52.317062756046653" lon="7.913262750953436">
        <ele>70.41015625</ele>
        <time>2026-04-27T11:25:07Z</time>
      </trkpt>
      <trkpt lat="52.31702302582562" lon="7.913594339042902">
        <ele>70.4453125</ele>
        <time>2026-04-27T11:25:11Z</time>
      </trkpt>
      <trkpt lat="52.316980948671699" lon="7.913937577977777">
        <ele>69.66015625</ele>
        <time>2026-04-27T11:25:15Z</time>
      </trkpt>
      <trkpt lat="52.31694096699357" lon="7.914271093904972">
        <ele>68.78125</ele>
        <time>2026-04-27T11:25:19Z</time>
      </trkpt>
      <trkpt lat="52.316904589533806" lon="7.914598993957043">
        <ele>67.80859375</ele>
        <time>2026-04-27T11:25:23Z</time>
      </trkpt>
      <trkpt lat="52.316876091063023" lon="7.914932258427143">
        <ele>66.74609375</ele>
        <time>2026-04-27T11:25:27Z</time>
      </trkpt>
      <trkpt lat="52.316833091899753" lon="7.91523702442646">
        <ele>65.875</ele>
        <time>2026-04-27T11:25:31Z</time>
      </trkpt>
      <trkpt lat="52.316794786602259" lon="7.915546735748649">
        <ele>66.0625</ele>
        <time>2026-04-27T11:25:35Z</time>
      </trkpt>
      <trkpt lat="52.316753128543496" lon="7.915856614708901">
        <ele>66.23828125</ele>
        <time>2026-04-27T11:25:39Z</time>
      </trkpt>
      <trkpt lat="52.316698981449008" lon="7.916281912475824">
        <ele>67.5078125</ele>
        <time>2026-04-27T11:25:45Z</time>
      </trkpt>
      <trkpt lat="52.316663274541497" lon="7.91658072732389">
        <ele>68.90625</ele>
        <time>2026-04-27T11:25:49Z</time>
      </trkpt>
      <trkpt lat="52.316630920395255" lon="7.916870322078466">
        <ele>70.38671875</ele>
        <time>2026-04-27T11:25:53Z</time>
      </trkpt>
      <trkpt lat="52.316587083041668" lon="7.917156061157584">
        <ele>72.15234375</ele>
        <time>2026-04-27T11:25:57Z</time>
      </trkpt>
      <trkpt lat="52.316545927897096" lon="7.917568115517497">
        <ele>74.64453125</ele>
        <time>2026-04-27T11:26:03Z</time>
      </trkpt>
      <trkpt lat="52.316507119685411" lon="7.917975727468729">
        <ele>75.625</ele>
        <time>2026-04-27T11:26:09Z</time>
      </trkpt>
      <trkpt lat="52.316460181027651" lon="7.918341932818294">
        <ele>75.8203125</ele>
        <time>2026-04-27T11:26:15Z</time>
      </trkpt>
      <trkpt lat="52.316392958164215" lon="7.918755915015936">
        <ele>74.41015625</ele>
        <time>2026-04-27T11:26:21Z</time>
      </trkpt>
      <trkpt lat="52.316341996192932" lon="7.919041821733117">
        <ele>73</ele>
        <time>2026-04-27T11:26:25Z</time>
      </trkpt>
      <trkpt lat="52.316302768886089" lon="7.919330913573504">
        <ele>71.8515625</ele>
        <time>2026-04-27T11:26:29Z</time>
      </trkpt>
      <trkpt lat="52.316248118877411" lon="7.919647749513388">
        <ele>71.01171875</ele>
        <time>2026-04-27T11:26:33Z</time>
      </trkpt>
      <trkpt lat="52.316181734204292" lon="7.919961316511035">
        <ele>70.1796875</ele>
        <time>2026-04-27T11:26:37Z</time>
      </trkpt>
      <trkpt lat="52.316089952364564" lon="7.920309752225876">
        <ele>69.66796875</ele>
        <time>2026-04-27T11:26:41Z</time>
      </trkpt>
      <trkpt lat="52.315999427810311" lon="7.920649973675609">
        <ele>69.65234375</ele>
        <time>2026-04-27T11:26:45Z</time>
      </trkpt>
      <trkpt lat="52.315895827487111" lon="7.920995308086276">
        <ele>69.3046875</ele>
        <time>2026-04-27T11:26:49Z</time>
      </trkpt>
      <trkpt lat="52.315797759220004" lon="7.921369140967727">
        <ele>69.265625</ele>
        <time>2026-04-27T11:26:53Z</time>
      </trkpt>
      <trkpt lat="52.315695500001311" lon="7.921738615259528">
        <ele>69.21875</ele>
        <time>2026-04-27T11:26:57Z</time>
      </trkpt>
      <trkpt lat="52.315608160570264" lon="7.922113873064518">
        <ele>68.97265625</ele>
        <time>2026-04-27T11:27:01Z</time>
      </trkpt>
      <trkpt lat="52.315507661551237" lon="7.92249214835465">
        <ele>68.75</ele>
        <time>2026-04-27T11:27:05Z</time>
      </trkpt>
      <trkpt lat="52.315413197502494" lon="7.922841506078839">
        <ele>68.6484375</ele>
        <time>2026-04-27T11:27:09Z</time>
      </trkpt>
      <trkpt lat="52.315317811444402" lon="7.923218356445432">
        <ele>68.98828125</ele>
        <time>2026-04-27T11:27:13Z</time>
      </trkpt>
      <trkpt lat="52.315232483670115" lon="7.923610545694828">
        <ele>69.14453125</ele>
        <time>2026-04-27T11:27:17Z</time>
      </trkpt>
      <trkpt lat="52.315164422616363" lon="7.92400348931551">
        <ele>68.15234375</ele>
        <time>2026-04-27T11:27:21Z</time>
      </trkpt>
      <trkpt lat="52.315054452046752" lon="7.924356618896127">
        <ele>67.6796875</ele>
        <time>2026-04-27T11:27:25Z</time>
      </trkpt>
      <trkpt lat="52.314919419586658" lon="7.92474034242332">
        <ele>67.01171875</ele>
        <time>2026-04-27T11:27:29Z</time>
      </trkpt>
      <trkpt lat="52.314785560593009" lon="7.925115264952183">
        <ele>66.21484375</ele>
        <time>2026-04-27T11:27:33Z</time>
      </trkpt>
      <trkpt lat="52.314640386030078" lon="7.925480883568525">
        <ele>65.75390625</ele>
        <time>2026-04-27T11:27:37Z</time>
      </trkpt>
      <trkpt lat="52.314488757401705" lon="7.925847927108407">
        <ele>65.6953125</ele>
        <time>2026-04-27T11:27:41Z</time>
      </trkpt>
      <trkpt lat="52.314318269491196" lon="7.926161997020245">
        <ele>65.89453125</ele>
        <time>2026-04-27T11:27:45Z</time>
      </trkpt>
      <trkpt lat="52.314161444082856" lon="7.926496854051948">
        <ele>65.84375</ele>
        <time>2026-04-27T11:27:49Z</time>
      </trkpt>
      <trkpt lat="52.313998751342297" lon="7.926798770204186">
        <ele>65.8984375</ele>
        <time>2026-04-27T11:27:53Z</time>
      </trkpt>
      <trkpt lat="52.313862461596727" lon="7.927081575617194">
        <ele>66.01953125</ele>
        <time>2026-04-27T11:27:57Z</time>
      </trkpt>
      <trkpt lat="52.313709827139974" lon="7.92736429721117">
        <ele>66.07421875</ele>
        <time>2026-04-27T11:28:01Z</time>
      </trkpt>
      <trkpt lat="52.31352785602212" lon="7.927665878087282">
        <ele>66.04296875</ele>
        <time>2026-04-27T11:28:05Z</time>
      </trkpt>
      <trkpt lat="52.313320571556687" lon="7.927917083725333">
        <ele>66.0078125</ele>
        <time>2026-04-27T11:28:09Z</time>
      </trkpt>
      <trkpt lat="52.31313792988658" lon="7.928038369864225">
        <ele>66.09375</ele>
        <time>2026-04-27T11:28:15Z</time>
      </trkpt>
      <trkpt lat="52.313036508858204" lon="7.928381273522973">
        <ele>65.5234375</ele>
        <time>2026-04-27T11:28:39Z</time>
      </trkpt>
      <trkpt lat="52.312968950718641" lon="7.928670533001423">
        <ele>64.734375</ele>
        <time>2026-04-27T11:28:43Z</time>
      </trkpt>
      <trkpt lat="52.312894435599446" lon="7.929024081677198">
        <ele>63.50390625</ele>
        <time>2026-04-27T11:28:47Z</time>
      </trkpt>
      <trkpt lat="52.312843222171068" lon="7.929372433573008">
        <ele>62.296875</ele>
        <time>2026-04-27T11:28:51Z</time>
      </trkpt>
      <trkpt lat="52.312785387039185" lon="7.929731095209718">
        <ele>61.93359375</ele>
        <time>2026-04-27T11:28:55Z</time>
      </trkpt>
      <trkpt lat="52.312700981274247" lon="7.930070897564292">
        <ele>61.62890625</ele>
        <time>2026-04-27T11:28:59Z</time>
      </trkpt>
      <trkpt lat="52.31265421025455" lon="7.930422853678465">
        <ele>61.39453125</ele>
        <time>2026-04-27T11:29:03Z</time>
      </trkpt>
      <trkpt lat="52.312602577731013" lon="7.930796351283789">
        <ele>61.15625</ele>
        <time>2026-04-27T11:29:07Z</time>
      </trkpt>
      <trkpt lat="52.312562260776758" lon="7.931151743978262">
        <ele>60.87890625</ele>
        <time>2026-04-27T11:29:11Z</time>
      </trkpt>
      <trkpt lat="52.312504509463906" lon="7.931514848023653">
        <ele>60.5390625</ele>
        <time>2026-04-27T11:29:15Z</time>
      </trkpt>
      <trkpt lat="52.312468718737364" lon="7.931891866028309">
        <ele>60.125</ele>
        <time>2026-04-27T11:29:19Z</time>
      </trkpt>
      <trkpt lat="52.312425803393126" lon="7.932253209874034">
        <ele>59.57421875</ele>
        <time>2026-04-27T11:29:23Z</time>
      </trkpt>
      <trkpt lat="52.312376853078604" lon="7.932600220665336">
        <ele>59.0859375</ele>
        <time>2026-04-27T11:29:27Z</time>
      </trkpt>
      <trkpt lat="52.312315497547388" lon="7.932941783219576">
        <ele>58.9921875</ele>
        <time>2026-04-27T11:29:31Z</time>
      </trkpt>
      <trkpt lat="52.312238551676273" lon="7.933360626921058">
        <ele>59.1875</ele>
        <time>2026-04-27T11:29:37Z</time>
      </trkpt>
      <trkpt lat="52.312204269692302" lon="7.933676457032561">
        <ele>59.0859375</ele>
        <time>2026-04-27T11:29:41Z</time>
      </trkpt>
      <trkpt lat="52.312108632177114" lon="7.933986587449908">
        <ele>58.94921875</ele>
        <time>2026-04-27T11:29:45Z</time>
      </trkpt>
      <trkpt lat="52.311932360753417" lon="7.93411809951067">
        <ele>59.234375</ele>
        <time>2026-04-27T11:29:49Z</time>
      </trkpt>
      <trkpt lat="52.311798669397831" lon="7.934317672625184">
        <ele>59.21484375</ele>
        <time>2026-04-27T11:29:53Z</time>
      </trkpt>
      <trkpt lat="52.311705211177468" lon="7.934618247672916">
        <ele>59.16796875</ele>
        <time>2026-04-27T11:29:57Z</time>
      </trkpt>
      <trkpt lat="52.311635557562113" lon="7.934958217665553">
        <ele>58.984375</ele>
        <time>2026-04-27T11:30:01Z</time>
      </trkpt>
      <trkpt lat="52.311590379104018" lon="7.935269186273217">
        <ele>58.86328125</ele>
        <time>2026-04-27T11:30:05Z</time>
      </trkpt>
      <trkpt lat="52.311537740752101" lon="7.935580406337977">
        <ele>58.953125</ele>
        <time>2026-04-27T11:30:09Z</time>
      </trkpt>
      <trkpt lat="52.311479151248932" lon="7.935877544805408">
        <ele>58.99609375</ele>
        <time>2026-04-27T11:30:13Z</time>
      </trkpt>
      <trkpt lat="52.311385190114379" lon="7.936175018548966">
        <ele>59</ele>
        <time>2026-04-27T11:30:17Z</time>
      </trkpt>
      <trkpt lat="52.311285026371479" lon="7.936487076804042">
        <ele>59</ele>
        <time>2026-04-27T11:30:23Z</time>
      </trkpt>
      <trkpt lat="52.311212690547109" lon="7.93675278313458">
        <ele>59</ele>
        <time>2026-04-27T11:30:29Z</time>
      </trkpt>
      <trkpt lat="52.31108863838017" lon="7.93702594935894">
        <ele>58.7421875</ele>
        <time>2026-04-27T11:30:33Z</time>
      </trkpt>
      <trkpt lat="52.310987804085016" lon="7.937349826097488">
        <ele>58.4609375</ele>
        <time>2026-04-27T11:30:37Z</time>
      </trkpt>
      <trkpt lat="52.310940027236938" lon="7.937721395865083">
        <ele>58.27734375</ele>
        <time>2026-04-27T11:30:41Z</time>
      </trkpt>
      <trkpt lat="52.310927538201213" lon="7.938060192391276">
        <ele>58.44921875</ele>
        <time>2026-04-27T11:30:45Z</time>
      </trkpt>
      <trkpt lat="52.310857381671667" lon="7.938335286453366">
        <ele>58.671875</ele>
        <time>2026-04-27T11:30:49Z</time>
      </trkpt>
      <trkpt lat="52.31072117574513" lon="7.938596718013287">
        <ele>58.5390625</ele>
        <time>2026-04-27T11:30:53Z</time>
      </trkpt>
      <trkpt lat="52.310555800795555" lon="7.938847336918116">
        <ele>57.89453125</ele>
        <time>2026-04-27T11:30:57Z</time>
      </trkpt>
      <trkpt lat="52.310398388653994" lon="7.939059566706419">
        <ele>57.6171875</ele>
        <time>2026-04-27T11:31:01Z</time>
      </trkpt>
      <trkpt lat="52.310247765854001" lon="7.939257714897394">
        <ele>57.546875</ele>
        <time>2026-04-27T11:31:05Z</time>
      </trkpt>
      <trkpt lat="52.310099489986897" lon="7.93943390250206">
        <ele>58.02734375</ele>
        <time>2026-04-27T11:31:09Z</time>
      </trkpt>
      <trkpt lat="52.309916261583567" lon="7.939512273296714">
        <ele>58.78125</ele>
        <time>2026-04-27T11:31:15Z</time>
      </trkpt>
      <trkpt lat="52.309726998209953" lon="7.939784517511725">
        <ele>59.62890625</ele>
        <time>2026-04-27T11:31:21Z</time>
      </trkpt>
      <trkpt lat="52.309528682380915" lon="7.940007476136088">
        <ele>60.1328125</ele>
        <time>2026-04-27T11:31:27Z</time>
      </trkpt>
      <trkpt lat="52.309283930808306" lon="7.94018592685461">
        <ele>60.63671875</ele>
        <time>2026-04-27T11:31:33Z</time>
      </trkpt>
      <trkpt lat="52.309041358530521" lon="7.940365383401513">
        <ele>60.94921875</ele>
        <time>2026-04-27T11:31:39Z</time>
      </trkpt>
      <trkpt lat="52.308847736567259" lon="7.940568728372455">
        <ele>61.0703125</ele>
        <time>2026-04-27T11:31:45Z</time>
      </trkpt>
      <trkpt lat="52.308919401839375" lon="7.941009029746056">
        <ele>60.984375</ele>
        <time>2026-04-27T11:31:51Z</time>
      </trkpt>
      <trkpt lat="52.308993330225348" lon="7.941341372206807">
        <ele>60.63671875</ele>
        <time>2026-04-27T11:31:55Z</time>
      </trkpt>
      <trkpt lat="52.309075640514493" lon="7.941646557301283">
        <ele>60.4609375</ele>
        <time>2026-04-27T11:31:59Z</time>
      </trkpt>
      <trkpt lat="52.309176558628678" lon="7.941925087943673">
        <ele>60.6328125</ele>
        <time>2026-04-27T11:32:03Z</time>
      </trkpt>
      <trkpt lat="52.309318967163563" lon="7.942222896963358">
        <ele>61.33203125</ele>
        <time>2026-04-27T11:32:07Z</time>
      </trkpt>
      <trkpt lat="52.309479815885425" lon="7.942490614950657">
        <ele>62.0390625</ele>
        <time>2026-04-27T11:32:11Z</time>
      </trkpt>
      <trkpt lat="52.309641502797604" lon="7.942728409543634">
        <ele>62.6484375</ele>
        <time>2026-04-27T11:32:15Z</time>
      </trkpt>
      <trkpt lat="52.309774607419968" lon="7.942942483350635">
        <ele>62.9609375</ele>
        <time>2026-04-27T11:32:19Z</time>
      </trkpt>
      <trkpt lat="52.309929337352514" lon="7.94314993545413">
        <ele>62.19140625</ele>
        <time>2026-04-27T11:32:23Z</time>
      </trkpt>
      <trkpt lat="52.310088844969869" lon="7.9433898255229">
        <ele>61.234375</ele>
        <time>2026-04-27T11:32:27Z</time>
      </trkpt>
      <trkpt lat="52.310243491083384" lon="7.943626865744591">
        <ele>60.73828125</ele>
        <time>2026-04-27T11:32:31Z</time>
      </trkpt>
      <trkpt lat="52.310395119711757" lon="7.943843537941575">
        <ele>60.91015625</ele>
        <time>2026-04-27T11:32:35Z</time>
      </trkpt>
      <trkpt lat="52.310566529631615" lon="7.944063562899828">
        <ele>61.5390625</ele>
        <time>2026-04-27T11:32:39Z</time>
      </trkpt>
      <trkpt lat="52.310783369466662" lon="7.94431627728045">
        <ele>62.0078125</ele>
        <time>2026-04-27T11:32:45Z</time>
      </trkpt>
      <trkpt lat="52.310985624790192" lon="7.944595981389284">
        <ele>62.28515625</ele>
        <time>2026-04-27T11:32:51Z</time>
      </trkpt>
      <trkpt lat="52.311034658923745" lon="7.944913487881422">
        <ele>63.72265625</ele>
        <time>2026-04-27T11:32:57Z</time>
      </trkpt>
      <trkpt lat="52.311050752177835" lon="7.945268545299768">
        <ele>65.09765625</ele>
        <time>2026-04-27T11:33:05Z</time>
      </trkpt>
      <trkpt lat="52.311090230941772" lon="7.945608347654343">
        <ele>65.31640625</ele>
        <time>2026-04-27T11:33:13Z</time>
      </trkpt>
      <trkpt lat="52.31112970970571" lon="7.945986120030284">
        <ele>65.58203125</ele>
        <time>2026-04-27T11:33:21Z</time>
      </trkpt>
      <trkpt lat="52.31117706745863" lon="7.946349894627929">
        <ele>65.7890625</ele>
        <time>2026-04-27T11:33:29Z</time>
      </trkpt>
      <trkpt lat="52.311194585636258" lon="7.946645189076662">
        <ele>66.0625</ele>
        <time>2026-04-27T11:33:35Z</time>
      </trkpt>
      <trkpt lat="52.311216462403536" lon="7.946985494345427">
        <ele>66.171875</ele>
        <time>2026-04-27T11:33:41Z</time>
      </trkpt>
      <trkpt lat="52.311247307807207" lon="7.947377432137728">
        <ele>66.0234375</ele>
        <time>2026-04-27T11:33:47Z</time>
      </trkpt>
      <trkpt lat="52.311273710802197" lon="7.947768783196807">
        <ele>65.8671875</ele>
        <time>2026-04-27T11:33:53Z</time>
      </trkpt>
      <trkpt lat="52.311312351375818" lon="7.948154099285603">
        <ele>65.60546875</ele>
        <time>2026-04-27T11:33:59Z</time>
      </trkpt>
      <trkpt lat="52.311339257284999" lon="7.948514856398106">
        <ele>65.43359375</ele>
        <time>2026-04-27T11:34:05Z</time>
      </trkpt>
      <trkpt lat="52.31118586845696" lon="7.948743179440498">
        <ele>65.890625</ele>
        <time>2026-04-27T11:34:09Z</time>
      </trkpt>
      <trkpt lat="52.311044298112392" lon="7.948978208005428">
        <ele>66.20703125</ele>
        <time>2026-04-27T11:34:13Z</time>
      </trkpt>
      <trkpt lat="52.310895184054971" lon="7.949215499684215">
        <ele>66.4453125</ele>
        <time>2026-04-27T11:34:17Z</time>
      </trkpt>
      <trkpt lat="52.310751350596547" lon="7.949464190751314">
        <ele>66.15234375</ele>
        <time>2026-04-27T11:34:21Z</time>
      </trkpt>
      <trkpt lat="52.31059368699789" lon="7.949780188500881">
        <ele>64.66015625</ele>
        <time>2026-04-27T11:34:25Z</time>
      </trkpt>
      <trkpt lat="52.310393527150154" lon="7.949997782707214">
        <ele>62.69140625</ele>
        <time>2026-04-27T11:34:29Z</time>
      </trkpt>
      <trkpt lat="52.310253130272031" lon="7.950240522623062">
        <ele>61</ele>
        <time>2026-04-27T11:34:33Z</time>
      </trkpt>
      <trkpt lat="52.310135113075376" lon="7.950498182326555">
        <ele>59.8125</ele>
        <time>2026-04-27T11:34:37Z</time>
      </trkpt>
      <trkpt lat="52.310035033151507" lon="7.950777132064104">
        <ele>58.6640625</ele>
        <time>2026-04-27T11:34:41Z</time>
      </trkpt>
      <trkpt lat="52.309955069795251" lon="7.951082065701485">
        <ele>57.90234375</ele>
        <time>2026-04-27T11:34:45Z</time>
      </trkpt>
      <trkpt lat="52.309884577989578" lon="7.951409881934524">
        <ele>57.9921875</ele>
        <time>2026-04-27T11:34:49Z</time>
      </trkpt>
      <trkpt lat="52.309822971001267" lon="7.951742224395275">
        <ele>58.0703125</ele>
        <time>2026-04-27T11:34:53Z</time>
      </trkpt>
      <trkpt lat="52.309766057878733" lon="7.952097868546844">
        <ele>59.31640625</ele>
        <time>2026-04-27T11:34:57Z</time>
      </trkpt>
      <trkpt lat="52.309693889692426" lon="7.952454267069697">
        <ele>60.79296875</ele>
        <time>2026-04-27T11:35:01Z</time>
      </trkpt>
      <trkpt lat="52.309636557474732" lon="7.952789878472686">
        <ele>61.88671875</ele>
        <time>2026-04-27T11:35:05Z</time>
      </trkpt>
      <trkpt lat="52.309584422037005" lon="7.953116521239281">
        <ele>62.765625</ele>
        <time>2026-04-27T11:35:09Z</time>
      </trkpt>
      <trkpt lat="52.309525329619646" lon="7.953435871750116">
        <ele>63.5390625</ele>
        <time>2026-04-27T11:35:13Z</time>
      </trkpt>
      <trkpt lat="52.309468165040016" lon="7.953747594729066">
        <ele>63.2421875</ele>
        <time>2026-04-27T11:35:17Z</time>
      </trkpt>
      <trkpt lat="52.309403289109468" lon="7.954025035724044">
        <ele>62.77734375</ele>
        <time>2026-04-27T11:35:21Z</time>
      </trkpt>
      <trkpt lat="52.309275297448039" lon="7.954286299645901">
        <ele>62.14453125</ele>
        <time>2026-04-27T11:35:25Z</time>
      </trkpt>
      <trkpt lat="52.309112688526511" lon="7.954499367624521">
        <ele>61.50390625</ele>
        <time>2026-04-27T11:35:29Z</time>
      </trkpt>
      <trkpt lat="52.308928286656737" lon="7.954689553007484">
        <ele>60.91796875</ele>
        <time>2026-04-27T11:35:33Z</time>
      </trkpt>
      <trkpt lat="52.308735670521855" lon="7.954865992069244">
        <ele>60.45703125</ele>
        <time>2026-04-27T11:35:37Z</time>
      </trkpt>
      <trkpt lat="52.308563841506839" lon="7.955021392554045">
        <ele>60.04296875</ele>
        <time>2026-04-27T11:35:41Z</time>
      </trkpt>
      <trkpt lat="52.308391341939569" lon="7.955173440277576">
        <ele>59.62890625</ele>
        <time>2026-04-27T11:35:45Z</time>
      </trkpt>
      <trkpt lat="52.308186739683151" lon="7.955361446365714">
        <ele>59.13671875</ele>
        <time>2026-04-27T11:35:49Z</time>
      </trkpt>
      <trkpt lat="52.307988340035081" lon="7.955580465495586">
        <ele>58.8359375</ele>
        <time>2026-04-27T11:35:53Z</time>
      </trkpt>
      <trkpt lat="52.307801758870482" lon="7.95576436445117">
        <ele>58.7890625</ele>
        <time>2026-04-27T11:35:57Z</time>
      </trkpt>
      <trkpt lat="52.307599587365985" lon="7.955917082726955">
        <ele>58.89453125</ele>
        <time>2026-04-27T11:36:01Z</time>
      </trkpt>
      <trkpt lat="52.30740143917501" lon="7.956055970862508">
        <ele>59.1484375</ele>
        <time>2026-04-27T11:36:05Z</time>
      </trkpt>
      <trkpt lat="52.307197423651814" lon="7.956130905076861">
        <ele>59.328125</ele>
        <time>2026-04-27T11:36:09Z</time>
      </trkpt>
      <trkpt lat="52.30698661878705" lon="7.956194188445807">
        <ele>59.40625</ele>
        <time>2026-04-27T11:36:13Z</time>
      </trkpt>
      <trkpt lat="52.306755026802421" lon="7.956222435459495">
        <ele>59.3828125</ele>
        <time>2026-04-27T11:36:17Z</time>
      </trkpt>
      <trkpt lat="52.306505162268877" lon="7.956203492358327">
        <ele>59.2734375</ele>
        <time>2026-04-27T11:36:21Z</time>
      </trkpt>
      <trkpt lat="52.306266445666552" lon="7.956131575629115">
        <ele>59.328125</ele>
        <time>2026-04-27T11:36:25Z</time>
      </trkpt>
      <trkpt lat="52.306062094867229" lon="7.956030825152993">
        <ele>59.484375</ele>
        <time>2026-04-27T11:36:29Z</time>
      </trkpt>
      <trkpt lat="52.30586470104754" lon="7.955931331962347">
        <ele>59.63671875</ele>
        <time>2026-04-27T11:36:33Z</time>
      </trkpt>
      <trkpt lat="52.305607041344047" lon="7.955830162391067">
        <ele>59.8203125</ele>
        <time>2026-04-27T11:36:39Z</time>
      </trkpt>
      <trkpt lat="52.305437559261918" lon="7.955757072195411">
        <ele>59.7890625</ele>
        <time>2026-04-27T11:36:43Z</time>
      </trkpt>
      <trkpt lat="52.305371509864926" lon="7.956023281440139">
        <ele>59.96875</ele>
        <time>2026-04-27T11:36:53Z</time>
      </trkpt>
      <trkpt lat="52.305416017770767" lon="7.956414883956313">
        <ele>59.6171875</ele>
        <time>2026-04-27T11:37:41Z</time>
      </trkpt>
      <trkpt lat="52.305395901203156" lon="7.956861723214388">
        <ele>59.3046875</ele>
        <time>2026-04-27T11:37:47Z</time>
      </trkpt>
      <trkpt lat="52.305405037477612" lon="7.957195993512869">
        <ele>59.4765625</ele>
        <time>2026-04-27T11:37:51Z</time>
      </trkpt>
      <trkpt lat="52.305414928123355" lon="7.95751852914691">
        <ele>59.6640625</ele>
        <time>2026-04-27T11:37:55Z</time>
      </trkpt>
      <trkpt lat="52.305411407724023" lon="7.957829665392637">
        <ele>59.94921875</ele>
        <time>2026-04-27T11:37:59Z</time>
      </trkpt>
      <trkpt lat="52.30533161200583" lon="7.958107609301806">
        <ele>60.1875</ele>
        <time>2026-04-27T11:38:03Z</time>
      </trkpt>
      <trkpt lat="52.305145617574453" lon="7.958260076120496">
        <ele>60.1484375</ele>
        <time>2026-04-27T11:38:07Z</time>
      </trkpt>
      <trkpt lat="52.304965239018202" lon="7.958406088873744">
        <ele>60.10546875</ele>
        <time>2026-04-27T11:38:11Z</time>
      </trkpt>
      <trkpt lat="52.304778406396508" lon="7.95854807831347">
        <ele>60.03125</ele>
        <time>2026-04-27T11:38:15Z</time>
      </trkpt>
      <trkpt lat="52.3045888915658" lon="7.958705658093095">
        <ele>59.765625</ele>
        <time>2026-04-27T11:38:19Z</time>
      </trkpt>
      <trkpt lat="52.304395772516727" lon="7.958864746615291">
        <ele>59.4921875</ele>
        <time>2026-04-27T11:38:23Z</time>
      </trkpt>
      <trkpt lat="52.304211370646954" lon="7.959007741883397">
        <ele>59.21875</ele>
        <time>2026-04-27T11:38:27Z</time>
      </trkpt>
      <trkpt lat="52.304045241326094" lon="7.959192395210266">
        <ele>59.04296875</ele>
        <time>2026-04-27T11:38:31Z</time>
      </trkpt>
      <trkpt lat="52.303880201652646" lon="7.959381742402911">
        <ele>59.2734375</ele>
        <time>2026-04-27T11:38:35Z</time>
      </trkpt>
      <trkpt lat="52.303715078160167" lon="7.959621548652649">
        <ele>59.85546875</ele>
        <time>2026-04-27T11:38:39Z</time>
      </trkpt>
      <trkpt lat="52.303549200296402" lon="7.959878956899047">
        <ele>60.3359375</ele>
        <time>2026-04-27T11:38:43Z</time>
      </trkpt>
      <trkpt lat="52.303399331867695" lon="7.960137203335762">
        <ele>60.67578125</ele>
        <time>2026-04-27T11:38:47Z</time>
      </trkpt>
      <trkpt lat="52.303262036293745" lon="7.96038287691772">
        <ele>61.078125</ele>
        <time>2026-04-27T11:38:51Z</time>
      </trkpt>
      <trkpt lat="52.303145779296756" lon="7.960630226880312">
        <ele>61.55078125</ele>
        <time>2026-04-27T11:38:55Z</time>
      </trkpt>
      <trkpt lat="52.30304192751646" lon="7.960899956524372">
        <ele>62.34375</ele>
        <time>2026-04-27T11:38:59Z</time>
      </trkpt>
      <trkpt lat="52.302911588922143" lon="7.961276806890965">
        <ele>62.89453125</ele>
        <time>2026-04-27T11:39:05Z</time>
      </trkpt>
      <trkpt lat="52.302816789597273" lon="7.961658434942365">
        <ele>63.31640625</ele>
        <time>2026-04-27T11:39:11Z</time>
      </trkpt>
      <trkpt lat="52.302714362740517" lon="7.961988681927323">
        <ele>64.11328125</ele>
        <time>2026-04-27T11:39:17Z</time>
      </trkpt>
      <trkpt lat="52.302629370242357" lon="7.962331753224134">
        <ele>64.99609375</ele>
        <time>2026-04-27T11:39:23Z</time>
      </trkpt>
      <trkpt lat="52.302552675828338" lon="7.9626530315727">
        <ele>65.87890625</ele>
        <time>2026-04-27T11:39:29Z</time>
      </trkpt>
      <trkpt lat="52.302471455186605" lon="7.962963245809078">
        <ele>67.23046875</ele>
        <time>2026-04-27T11:39:35Z</time>
      </trkpt>
      <trkpt lat="52.302399119362235" lon="7.963249571621418">
        <ele>68.51953125</ele>
        <time>2026-04-27T11:39:41Z</time>
      </trkpt>
      <trkpt lat="52.302326951175928" lon="7.96356238424778">
        <ele>69.7421875</ele>
        <time>2026-04-27T11:39:47Z</time>
      </trkpt>
      <trkpt lat="52.302252519875765" lon="7.963864635676146">
        <ele>70.703125</ele>
        <time>2026-04-27T11:39:53Z</time>
      </trkpt>
      <trkpt lat="52.302167108282447" lon="7.964189685881138">
        <ele>71.9296875</ele>
        <time>2026-04-27T11:39:59Z</time>
      </trkpt>
      <trkpt lat="52.302078595384955" lon="7.96455136500299">
        <ele>72.8203125</ele>
        <time>2026-04-27T11:40:05Z</time>
      </trkpt>
      <trkpt lat="52.30197717435658" lon="7.964929640293121">
        <ele>73.6171875</ele>
        <time>2026-04-27T11:40:11Z</time>
      </trkpt>
      <trkpt lat="52.301888158544898" lon="7.965317638590932">
        <ele>73.91796875</ele>
        <time>2026-04-27T11:40:17Z</time>
      </trkpt>
      <trkpt lat="52.301796209067106" lon="7.965710163116455">
        <ele>73.8828125</ele>
        <time>2026-04-27T11:40:23Z</time>
      </trkpt>
      <trkpt lat="52.301733680069447" lon="7.966008391231298">
        <ele>73.734375</ele>
        <time>2026-04-27T11:40:27Z</time>
      </trkpt>
      <trkpt lat="52.301660757511854" lon="7.966319443657994">
        <ele>73.9453125</ele>
        <time>2026-04-27T11:40:31Z</time>
      </trkpt>
      <trkpt lat="52.301582470536232" lon="7.966641141101718">
        <ele>74.12890625</ele>
        <time>2026-04-27T11:40:35Z</time>
      </trkpt>
      <trkpt lat="52.301503596827388" lon="7.966974908486009">
        <ele>74.0234375</ele>
        <time>2026-04-27T11:40:39Z</time>
      </trkpt>
      <trkpt lat="52.301422962918878" lon="7.967331893742085">
        <ele>73.703125</ele>
        <time>2026-04-27T11:40:43Z</time>
      </trkpt>
      <trkpt lat="52.301325900480151" lon="7.967715952545404">
        <ele>73.58984375</ele>
        <time>2026-04-27T11:40:47Z</time>
      </trkpt>
      <trkpt lat="52.301236297935247" lon="7.968089617788792">
        <ele>73.29296875</ele>
        <time>2026-04-27T11:40:51Z</time>
      </trkpt>
      <trkpt lat="52.301140828058124" lon="7.968460433185101">
        <ele>72.98046875</ele>
        <time>2026-04-27T11:40:55Z</time>
      </trkpt>
      <trkpt lat="52.301036389544606" lon="7.968858405947685">
        <ele>72.30859375</ele>
        <time>2026-04-27T11:40:59Z</time>
      </trkpt>
      <trkpt lat="52.300915690138936" lon="7.969302143901587">
        <ele>71.01953125</ele>
        <time>2026-04-27T11:41:03Z</time>
      </trkpt>
      <trkpt lat="52.300792140886188" lon="7.969716461375356">
        <ele>69.703125</ele>
        <time>2026-04-27T11:41:07Z</time>
      </trkpt>
      <trkpt lat="52.300669848918915" lon="7.970157936215401">
        <ele>67.8359375</ele>
        <time>2026-04-27T11:41:11Z</time>
      </trkpt>
      <trkpt lat="52.300544288009405" lon="7.970557166263461">
        <ele>67.54296875</ele>
        <time>2026-04-27T11:41:15Z</time>
      </trkpt>
      <trkpt lat="52.300426857545972" lon="7.970945164561272">
        <ele>67.0859375</ele>
        <time>2026-04-27T11:41:19Z</time>
      </trkpt>
      <trkpt lat="52.300310768187046" lon="7.97135453671217">
        <ele>67.09765625</ele>
        <time>2026-04-27T11:41:23Z</time>
      </trkpt>
      <trkpt lat="52.300210269168019" lon="7.971716718748212">
        <ele>67.14453125</ele>
        <time>2026-04-27T11:41:27Z</time>
      </trkpt>
      <trkpt lat="52.300123432651162" lon="7.972031543031335">
        <ele>67.34765625</ele>
        <time>2026-04-27T11:41:31Z</time>
      </trkpt>
      <trkpt lat="52.300034500658512" lon="7.972317533567548">
        <ele>67.70703125</ele>
        <time>2026-04-27T11:41:35Z</time>
      </trkpt>
      <trkpt lat="52.299951435998082" lon="7.972605200484395">
        <ele>68.10546875</ele>
        <time>2026-04-27T11:41:39Z</time>
      </trkpt>
      <trkpt lat="52.299869209527969" lon="7.97288591042161">
        <ele>68.05078125</ele>
        <time>2026-04-27T11:41:43Z</time>
      </trkpt>
      <trkpt lat="52.299774494022131" lon="7.973173493519425">
        <ele>67.90625</ele>
        <time>2026-04-27T11:41:47Z</time>
      </trkpt>
      <trkpt lat="52.299675419926643" lon="7.973508853465319">
        <ele>67.5078125</ele>
        <time>2026-04-27T11:41:51Z</time>
      </trkpt>
      <trkpt lat="52.299579782411456" lon="7.973835663869977">
        <ele>66.96484375</ele>
        <time>2026-04-27T11:41:55Z</time>
      </trkpt>
      <trkpt lat="52.299479618668556" lon="7.974145961925387">
        <ele>66.30859375</ele>
        <time>2026-04-27T11:41:59Z</time>
      </trkpt>
      <trkpt lat="52.299393201246858" lon="7.97445491887629">
        <ele>65.7109375</ele>
        <time>2026-04-27T11:42:03Z</time>
      </trkpt>
      <trkpt lat="52.299292031675577" lon="7.974782148376107">
        <ele>65.4296875</ele>
        <time>2026-04-27T11:42:07Z</time>
      </trkpt>
      <trkpt lat="52.299202512949705" lon="7.975097224116325">
        <ele>65.22265625</ele>
        <time>2026-04-27T11:42:11Z</time>
      </trkpt>
      <trkpt lat="52.299101008102298" lon="7.975421771407127">
        <ele>65.18359375</ele>
        <time>2026-04-27T11:42:15Z</time>
      </trkpt>
      <trkpt lat="52.29900386184454" lon="7.975758975371718">
        <ele>65.12890625</ele>
        <time>2026-04-27T11:42:19Z</time>
      </trkpt>
      <trkpt lat="52.29891006834805" lon="7.976075392216444">
        <ele>64.97265625</ele>
        <time>2026-04-27T11:42:23Z</time>
      </trkpt>
      <trkpt lat="52.298816274851561" lon="7.976390467956662">
        <ele>64.63671875</ele>
        <time>2026-04-27T11:42:27Z</time>
      </trkpt>
      <trkpt lat="52.298725582659245" lon="7.976690623909235">
        <ele>64.40234375</ele>
        <time>2026-04-27T11:42:31Z</time>
      </trkpt>
      <trkpt lat="52.298628771677613" lon="7.977009974420071">
        <ele>64.67578125</ele>
        <time>2026-04-27T11:42:35Z</time>
      </trkpt>
      <trkpt lat="52.298533720895648" lon="7.977322619408369">
        <ele>65.05859375</ele>
        <time>2026-04-27T11:42:39Z</time>
      </trkpt>
      <trkpt lat="52.298447052016854" lon="7.977644400671125">
        <ele>65.2421875</ele>
        <time>2026-04-27T11:42:43Z</time>
      </trkpt>
      <trkpt lat="52.298350660130382" lon="7.977954111993313">
        <ele>65.0078125</ele>
        <time>2026-04-27T11:42:47Z</time>
      </trkpt>
      <trkpt lat="52.29825384914875" lon="7.978280503302813">
        <ele>64.8359375</ele>
        <time>2026-04-27T11:42:51Z</time>
      </trkpt>
      <trkpt lat="52.298154691234231" lon="7.978596417233348">
        <ele>64.78515625</ele>
        <time>2026-04-27T11:42:55Z</time>
      </trkpt>
      <trkpt lat="52.298063160851598" lon="7.97892146743834">
        <ele>64.546875</ele>
        <time>2026-04-27T11:42:59Z</time>
      </trkpt>
      <trkpt lat="52.297963751479983" lon="7.979244254529476">
        <ele>64.27734375</ele>
        <time>2026-04-27T11:43:03Z</time>
      </trkpt>
      <trkpt lat="52.297868868336082" lon="7.979553630575538">
        <ele>64.22265625</ele>
        <time>2026-04-27T11:43:07Z</time>
      </trkpt>
      <trkpt lat="52.297782199457288" lon="7.979875914752483">
        <ele>64.1328125</ele>
        <time>2026-04-27T11:43:11Z</time>
      </trkpt>
      <trkpt lat="52.297672647982836" lon="7.980192331597209">
        <ele>63.97265625</ele>
        <time>2026-04-27T11:43:15Z</time>
      </trkpt>
      <trkpt lat="52.297593355178833" lon="7.980511765927076">
        <ele>63.84375</ele>
        <time>2026-04-27T11:43:19Z</time>
      </trkpt>
      <trkpt lat="52.297500818967819" lon="7.980835810303688">
        <ele>63.80078125</ele>
        <time>2026-04-27T11:43:23Z</time>
      </trkpt>
      <trkpt lat="52.297407360747457" lon="7.981138564646244">
        <ele>63.84765625</ele>
        <time>2026-04-27T11:43:27Z</time>
      </trkpt>
      <trkpt lat="52.297313399612904" lon="7.981460178270936">
        <ele>63.98046875</ele>
        <time>2026-04-27T11:43:31Z</time>
      </trkpt>
      <trkpt lat="52.297210050746799" lon="7.981779612600803">
        <ele>64.22265625</ele>
        <time>2026-04-27T11:43:35Z</time>
      </trkpt>
      <trkpt lat="52.297122208401561" lon="7.982079517096281">
        <ele>64.1015625</ele>
        <time>2026-04-27T11:43:39Z</time>
      </trkpt>
      <trkpt lat="52.297031851485372" lon="7.98241512849927">
        <ele>63.9140625</ele>
        <time>2026-04-27T11:43:43Z</time>
      </trkpt>
      <trkpt lat="52.296932358294725" lon="7.982734143733978">
        <ele>63.7578125</ele>
        <time>2026-04-27T11:43:47Z</time>
      </trkpt>
      <trkpt lat="52.296832194551826" lon="7.98307042568922">
        <ele>63.67578125</ele>
        <time>2026-04-27T11:43:51Z</time>
      </trkpt>
      <trkpt lat="52.296754829585552" lon="7.983387261629105">
        <ele>63.6953125</ele>
        <time>2026-04-27T11:43:55Z</time>
      </trkpt>
      <trkpt lat="52.296672267839313" lon="7.983693787828088">
        <ele>63.8203125</ele>
        <time>2026-04-27T11:43:59Z</time>
      </trkpt>
      <trkpt lat="52.296601608395576" lon="7.983989249914885">
        <ele>63.83984375</ele>
        <time>2026-04-27T11:44:03Z</time>
      </trkpt>
      <trkpt lat="52.296540671959519" lon="7.984304577112198">
        <ele>63.7421875</ele>
        <time>2026-04-27T11:44:07Z</time>
      </trkpt>
      <trkpt lat="52.296457691118121" lon="7.984604984521866">
        <ele>63.6640625</ele>
        <time>2026-04-27T11:44:11Z</time>
      </trkpt>
      <trkpt lat="52.296384433284402" lon="7.98501712270081">
        <ele>63.34375</ele>
        <time>2026-04-27T11:44:17Z</time>
      </trkpt>
      <trkpt lat="52.296270355582237" lon="7.98536111600697">
        <ele>63.828125</ele>
        <time>2026-04-27T11:44:23Z</time>
      </trkpt>
      <trkpt lat="52.29631301946938" lon="7.985642915591598">
        <ele>64.25390625</ele>
        <time>2026-04-27T11:44:29Z</time>
      </trkpt>
      <trkpt lat="52.29620698839426" lon="7.985891606658697">
        <ele>64.58984375</ele>
        <time>2026-04-27T11:48:05Z</time>
      </trkpt>
      <trkpt lat="52.296135993674397" lon="7.98620592802763">
        <ele>65</ele>
        <time>2026-04-27T11:48:13Z</time>
      </trkpt>
      <trkpt lat="52.296011690050364" lon="7.986461659893394">
        <ele>65.37109375</ele>
        <time>2026-04-27T11:48:19Z</time>
      </trkpt>
      <trkpt lat="52.295840950682759" lon="7.98659342341125">
        <ele>65.5625</ele>
        <time>2026-04-27T11:48:24Z</time>
      </trkpt>
      <trkpt lat="52.295679766684771" lon="7.986676404252648">
        <ele>65.7109375</ele>
        <time>2026-04-27T11:48:31Z</time>
      </trkpt>
      <trkpt lat="52.295697368681431" lon="7.98710304312408">
        <ele>65.63671875</ele>
        <time>2026-04-27T11:48:37Z</time>
      </trkpt>
      <trkpt lat="52.295723520219326" lon="7.987424740567803">
        <ele>65.25</ele>
        <time>2026-04-27T11:48:41Z</time>
      </trkpt>
      <trkpt lat="52.295739864930511" lon="7.98777493648231">
        <ele>64.46875</ele>
        <time>2026-04-27T11:48:45Z</time>
      </trkpt>
      <trkpt lat="52.295756712555885" lon="7.988147428259254">
        <ele>63.05859375</ele>
        <time>2026-04-27T11:48:49Z</time>
      </trkpt>
      <trkpt lat="52.295780433341861" lon="7.98850785009563">
        <ele>61.80859375</ele>
        <time>2026-04-27T11:48:53Z</time>
      </trkpt>
      <trkpt lat="52.295799627900124" lon="7.98886944539845">
        <ele>61.61328125</ele>
        <time>2026-04-27T11:48:57Z</time>
      </trkpt>
      <trkpt lat="52.295817481353879" lon="7.989214612171054">
        <ele>61.39453125</ele>
        <time>2026-04-27T11:49:01Z</time>
      </trkpt>
      <trkpt lat="52.295806501060724" lon="7.989556510001421">
        <ele>62.0703125</ele>
        <time>2026-04-27T11:49:05Z</time>
      </trkpt>
      <trkpt lat="52.295770961791277" lon="7.989885415881872">
        <ele>63.0390625</ele>
        <time>2026-04-27T11:49:09Z</time>
      </trkpt>
      <trkpt lat="52.295612879097462" lon="7.990091694518924">
        <ele>63.91015625</ele>
        <time>2026-04-27T11:49:13Z</time>
      </trkpt>
      <trkpt lat="52.295386400073767" lon="7.990096220746636">
        <ele>63.98046875</ele>
        <time>2026-04-27T11:49:17Z</time>
      </trkpt>
      <trkpt lat="52.295163189992309" lon="7.990103764459491">
        <ele>64.02734375</ele>
        <time>2026-04-27T11:49:21Z</time>
      </trkpt>
      <trkpt lat="52.294961689040065" lon="7.990072835236788">
        <ele>64.14453125</ele>
        <time>2026-04-27T11:49:25Z</time>
      </trkpt>
      <trkpt lat="52.294694054871798" lon="7.990019358694553">
        <ele>64.578125</ele>
        <time>2026-04-27T11:49:31Z</time>
      </trkpt>
      <trkpt lat="52.294490961357951" lon="7.989998906850815">
        <ele>64.9296875</ele>
        <time>2026-04-27T11:49:35Z</time>
      </trkpt>
      <trkpt lat="52.294297758489847" lon="7.989976275712252">
        <ele>65.20703125</ele>
        <time>2026-04-27T11:49:39Z</time>
      </trkpt>
      <trkpt lat="52.294090557843447" lon="7.989937886595726">
        <ele>65.4140625</ele>
        <time>2026-04-27T11:49:43Z</time>
      </trkpt>
      <trkpt lat="52.29389869607985" lon="7.989886002615094">
        <ele>65.18359375</ele>
        <time>2026-04-27T11:49:47Z</time>
      </trkpt>
      <trkpt lat="52.293698787689209" lon="7.989850547164679">
        <ele>64.44921875</ele>
        <time>2026-04-27T11:49:51Z</time>
      </trkpt>
      <trkpt lat="52.293480690568686" lon="7.989790365099907">
        <ele>63.51953125</ele>
        <time>2026-04-27T11:49:55Z</time>
      </trkpt>
      <trkpt lat="52.293253289535642" lon="7.989760022610426">
        <ele>62.61328125</ele>
        <time>2026-04-27T11:49:59Z</time>
      </trkpt>
      <trkpt lat="52.293035024777055" lon="7.989657260477543">
        <ele>62.0390625</ele>
        <time>2026-04-27T11:50:03Z</time>
      </trkpt>
      <trkpt lat="52.292813826352358" lon="7.989632785320282">
        <ele>62.6171875</ele>
        <time>2026-04-27T11:50:07Z</time>
      </trkpt>
      <trkpt lat="52.292609810829163" lon="7.989590708166361">
        <ele>63.08203125</ele>
        <time>2026-04-27T11:50:11Z</time>
      </trkpt>
      <trkpt lat="52.292571924626827" lon="7.989917434751988">
        <ele>64.50390625</ele>
        <time>2026-04-27T11:50:17Z</time>
      </trkpt>
      <trkpt lat="52.292534289881587" lon="7.990316497161984">
        <ele>66.4375</ele>
        <time>2026-04-27T11:50:23Z</time>
      </trkpt>
      <trkpt lat="52.292494643479586" lon="7.990716816857457">
        <ele>68.73828125</ele>
        <time>2026-04-27T11:50:29Z</time>
      </trkpt>
      <trkpt lat="52.292368579655886" lon="7.991122836247087">
        <ele>70.5078125</ele>
        <time>2026-04-27T11:50:35Z</time>
      </trkpt>
      <trkpt lat="52.292296830564737" lon="7.991410670801997">
        <ele>70.53515625</ele>
        <time>2026-04-27T11:50:39Z</time>
      </trkpt>
      <trkpt lat="52.292240001261234" lon="7.991855079308152">
        <ele>70.3984375</ele>
        <time>2026-04-27T11:50:45Z</time>
      </trkpt>
      <trkpt lat="52.292197840288281" lon="7.992166969925165">
        <ele>69.47265625</ele>
        <time>2026-04-27T11:50:49Z</time>
      </trkpt>
      <trkpt lat="52.292155846953392" lon="7.992481039837003">
        <ele>68.3828125</ele>
        <time>2026-04-27T11:50:53Z</time>
      </trkpt>
      <trkpt lat="52.292114356532693" lon="7.99278580583632">
        <ele>67.64453125</ele>
        <time>2026-04-27T11:50:57Z</time>
      </trkpt>
      <trkpt lat="52.292064484208822" lon="7.993121333420277">
        <ele>67.2265625</ele>
        <time>2026-04-27T11:51:01Z</time>
      </trkpt>
      <trkpt lat="52.292019389569759" lon="7.99347672611475">
        <ele>66.703125</ele>
        <time>2026-04-27T11:51:05Z</time>
      </trkpt>
      <trkpt lat="52.291972953826189" lon="7.993818037211895">
        <ele>67.140625</ele>
        <time>2026-04-27T11:51:09Z</time>
      </trkpt>
      <trkpt lat="52.291908329352736" lon="7.994144931435585">
        <ele>67.421875</ele>
        <time>2026-04-27T11:51:13Z</time>
      </trkpt>
      <trkpt lat="52.291852422058582" lon="7.994490098208189">
        <ele>67.94140625</ele>
        <time>2026-04-27T11:51:17Z</time>
      </trkpt>
      <trkpt lat="52.291808249428868" lon="7.994842724874616">
        <ele>68.84375</ele>
        <time>2026-04-27T11:51:21Z</time>
      </trkpt>
      <trkpt lat="52.291763992980123" lon="7.995191579684615">
        <ele>69.59765625</ele>
        <time>2026-04-27T11:51:25Z</time>
      </trkpt>
      <trkpt lat="52.291713701561093" lon="7.995538339018822">
        <ele>69.42578125</ele>
        <time>2026-04-27T11:51:29Z</time>
      </trkpt>
      <trkpt lat="52.291675060987473" lon="7.995867161080241">
        <ele>69.32421875</ele>
        <time>2026-04-27T11:51:33Z</time>
      </trkpt>
      <trkpt lat="52.291620913892984" lon="7.996176369488239">
        <ele>69.16015625</ele>
        <time>2026-04-27T11:51:37Z</time>
      </trkpt>
      <trkpt lat="52.291566180065274" lon="7.996488679200411">
        <ele>68.95703125</ele>
        <time>2026-04-27T11:51:41Z</time>
      </trkpt>
      <trkpt lat="52.291524605825543" lon="7.996815489605069">
        <ele>68.65234375</ele>
        <time>2026-04-27T11:51:45Z</time>
      </trkpt>
      <trkpt lat="52.291460232809186" lon="7.997143724933267">
        <ele>67.40234375</ele>
        <time>2026-04-27T11:51:49Z</time>
      </trkpt>
      <trkpt lat="52.291416479274631" lon="7.997488472610712">
        <ele>66.203125</ele>
        <time>2026-04-27T11:51:53Z</time>
      </trkpt>
      <trkpt lat="52.291367361322045" lon="7.997814528644085">
        <ele>66.5</ele>
        <time>2026-04-27T11:51:57Z</time>
      </trkpt>
      <trkpt lat="52.291325200349092" lon="7.998131113126874">
        <ele>67.48046875</ele>
        <time>2026-04-27T11:52:01Z</time>
      </trkpt>
      <trkpt lat="52.291285721585155" lon="7.998450128361583">
        <ele>68.33203125</ele>
        <time>2026-04-27T11:52:05Z</time>
      </trkpt>
      <trkpt lat="52.291241632774472" lon="7.998774759471417">
        <ele>70.57421875</ele>
        <time>2026-04-27T11:52:09Z</time>
      </trkpt>
      <trkpt lat="52.291204165667295" lon="7.999113388359547">
        <ele>72.65625</ele>
        <time>2026-04-27T11:52:13Z</time>
      </trkpt>
      <trkpt lat="52.291162675246596" lon="7.999444641172886">
        <ele>74.10546875</ele>
        <time>2026-04-27T11:52:17Z</time>
      </trkpt>
      <trkpt lat="52.291111964732409" lon="7.99977907910943">
        <ele>75.06640625</ele>
        <time>2026-04-27T11:52:21Z</time>
      </trkpt>
      <trkpt lat="52.291047424077988" lon="8.000119384378195">
        <ele>75.9609375</ele>
        <time>2026-04-27T11:52:25Z</time>
      </trkpt>
      <trkpt lat="52.290995875373483" lon="8.000448122620583">
        <ele>77.12890625</ele>
        <time>2026-04-27T11:52:29Z</time>
      </trkpt>
      <trkpt lat="52.290952121838927" lon="8.000760683789849">
        <ele>78.41796875</ele>
        <time>2026-04-27T11:52:33Z</time>
      </trkpt>
      <trkpt lat="52.290896214544773" lon="8.001059666275978">
        <ele>79.140625</ele>
        <time>2026-04-27T11:52:37Z</time>
      </trkpt>
      <trkpt lat="52.290826309472322" lon="8.001441210508347">
        <ele>78.390625</ele>
        <time>2026-04-27T11:52:43Z</time>
      </trkpt>
      <trkpt lat="52.290754141286016" lon="8.001824850216508">
        <ele>77.484375</ele>
        <time>2026-04-27T11:52:49Z</time>
      </trkpt>
      <trkpt lat="52.290683900937438" lon="8.002213099971414">
        <ele>74.85546875</ele>
        <time>2026-04-27T11:52:55Z</time>
      </trkpt>
      <trkpt lat="52.290612990036607" lon="8.002522308379412">
        <ele>72.796875</ele>
        <time>2026-04-27T11:52:59Z</time>
      </trkpt>
      <trkpt lat="52.290523638948798" lon="8.002913910895586">
        <ele>71.28515625</ele>
        <time>2026-04-27T11:53:05Z</time>
      </trkpt>
      <trkpt lat="52.290469659492373" lon="8.003220688551664">
        <ele>70.40625</ele>
        <time>2026-04-27T11:53:09Z</time>
      </trkpt>
      <trkpt lat="52.290416769683361" lon="8.003517910838127">
        <ele>69.94921875</ele>
        <time>2026-04-27T11:53:13Z</time>
      </trkpt>
      <trkpt lat="52.290353402495384" lon="8.003810355439782">
        <ele>70.87890625</ele>
        <time>2026-04-27T11:53:17Z</time>
      </trkpt>
      <trkpt lat="52.290297327563167" lon="8.00411126576364">
        <ele>71.8046875</ele>
        <time>2026-04-27T11:53:21Z</time>
      </trkpt>
      <trkpt lat="52.29023496620357" lon="8.004530780017376">
        <ele>72.31640625</ele>
        <time>2026-04-27T11:53:27Z</time>
      </trkpt>
      <trkpt lat="52.290168330073357" lon="8.004834624007344">
        <ele>72.328125</ele>
        <time>2026-04-27T11:53:31Z</time>
      </trkpt>
      <trkpt lat="52.290106974542141" lon="8.005148023366928">
        <ele>72.23046875</ele>
        <time>2026-04-27T11:53:35Z</time>
      </trkpt>
      <trkpt lat="52.290030028671026" lon="8.005448179319501">
        <ele>71.7109375</ele>
        <time>2026-04-27T11:53:39Z</time>
      </trkpt>
      <trkpt lat="52.289956770837307" lon="8.005753196775913">
        <ele>70.9140625</ele>
        <time>2026-04-27T11:53:43Z</time>
      </trkpt>
      <trkpt lat="52.289870521053672" lon="8.006076570600271">
        <ele>70.33203125</ele>
        <time>2026-04-27T11:53:47Z</time>
      </trkpt>
      <trkpt lat="52.289780667051673" lon="8.006422910839319">
        <ele>70.4921875</ele>
        <time>2026-04-27T11:53:51Z</time>
      </trkpt>
      <trkpt lat="52.289684442803264" lon="8.00673027522862">
        <ele>70.3828125</ele>
        <time>2026-04-27T11:53:55Z</time>
      </trkpt>
      <trkpt lat="52.28958117775619" lon="8.007033197209239">
        <ele>70.2109375</ele>
        <time>2026-04-27T11:53:59Z</time>
      </trkpt>
      <trkpt lat="52.289465088397264" lon="8.007358834147453">
        <ele>70.04296875</ele>
        <time>2026-04-27T11:54:03Z</time>
      </trkpt>
      <trkpt lat="52.289359392598271" lon="8.007722860202193">
        <ele>69.859375</ele>
        <time>2026-04-27T11:54:07Z</time>
      </trkpt>
      <trkpt lat="52.289238441735506" lon="8.008071044459939">
        <ele>69.46875</ele>
        <time>2026-04-27T11:54:11Z</time>
      </trkpt>
      <trkpt lat="52.289099721238017" lon="8.008436663076282">
        <ele>69.2890625</ele>
        <time>2026-04-27T11:54:15Z</time>
      </trkpt>
      <trkpt lat="52.288974998518825" lon="8.008779399096966">
        <ele>69</ele>
        <time>2026-04-27T11:54:19Z</time>
      </trkpt>
      <trkpt lat="52.288852538913488" lon="8.009122051298618">
        <ele>69.26171875</ele>
        <time>2026-04-27T11:54:23Z</time>
      </trkpt>
      <trkpt lat="52.288716081529856" lon="8.009435366839171">
        <ele>69.62109375</ele>
        <time>2026-04-27T11:54:27Z</time>
      </trkpt>
      <trkpt lat="52.288620192557573" lon="8.009762596338987">
        <ele>69.8515625</ele>
        <time>2026-04-27T11:54:31Z</time>
      </trkpt>
      <trkpt lat="52.288531679660082" lon="8.010075995698571">
        <ele>70.0625</ele>
        <time>2026-04-27T11:54:35Z</time>
      </trkpt>
      <trkpt lat="52.288437550887465" lon="8.010380677878857">
        <ele>70.2890625</ele>
        <time>2026-04-27T11:54:39Z</time>
      </trkpt>
      <trkpt lat="52.288343003019691" lon="8.010723581537604">
        <ele>70.515625</ele>
        <time>2026-04-27T11:54:43Z</time>
      </trkpt>
      <trkpt lat="52.288261950016022" lon="8.011026922613382">
        <ele>70.72265625</ele>
        <time>2026-04-27T11:54:47Z</time>
      </trkpt>
      <trkpt lat="52.288174778223038" lon="8.011306710541248">
        <ele>70.9375</ele>
        <time>2026-04-27T11:54:53Z</time>
      </trkpt>
      <trkpt lat="52.28806153871119" lon="8.011539978906512">
        <ele>70.76953125</ele>
        <time>2026-04-27T11:55:01Z</time>
      </trkpt>
      <trkpt lat="52.288044188171625" lon="8.011844409629703">
        <ele>70.53125</ele>
        <time>2026-04-27T11:55:05Z</time>
      </trkpt>
      <trkpt lat="52.288007810711861" lon="8.012151690199971">
        <ele>69.8515625</ele>
        <time>2026-04-27T11:55:09Z</time>
      </trkpt>
      <trkpt lat="52.287956681102514" lon="8.012491576373577">
        <ele>69.203125</ele>
        <time>2026-04-27T11:55:13Z</time>
      </trkpt>
      <trkpt lat="52.287883507087827" lon="8.012884268537164">
        <ele>68.7578125</ele>
        <time>2026-04-27T11:55:19Z</time>
      </trkpt>
      <trkpt lat="52.28781133890152" lon="8.013271512463689">
        <ele>68.67578125</ele>
        <time>2026-04-27T11:55:25Z</time>
      </trkpt>
      <trkpt lat="52.287767501547933" lon="8.013572171330452">
        <ele>68.796875</ele>
        <time>2026-04-27T11:55:29Z</time>
      </trkpt>
      <trkpt lat="52.287716371938586" lon="8.013891857117415">
        <ele>69.0390625</ele>
        <time>2026-04-27T11:55:33Z</time>
      </trkpt>
      <trkpt lat="52.287675216794014" lon="8.014199221506715">
        <ele>69.23828125</ele>
        <time>2026-04-27T11:55:37Z</time>
      </trkpt>
      <trkpt lat="52.287627188488841" lon="8.014507759362459">
        <ele>69.3046875</ele>
        <time>2026-04-27T11:55:41Z</time>
      </trkpt>
      <trkpt lat="52.287601372227073" lon="8.014811854809523">
        <ele>69.18359375</ele>
        <time>2026-04-27T11:55:45Z</time>
      </trkpt>
      <trkpt lat="52.287577819079161" lon="8.015116956084967">
        <ele>69.03125</ele>
        <time>2026-04-27T11:55:49Z</time>
      </trkpt>
      <trkpt lat="52.287550074979663" lon="8.015433121472597">
        <ele>70</ele>
        <time>2026-04-27T11:55:53Z</time>
      </trkpt>
      <trkpt lat="52.287523420527577" lon="8.015738055109978">
        <ele>70.91015625</ele>
        <time>2026-04-27T11:55:57Z</time>
      </trkpt>
      <trkpt lat="52.287502968683839" lon="8.016064027324319">
        <ele>71.7421875</ele>
        <time>2026-04-27T11:56:01Z</time>
      </trkpt>
      <trkpt lat="52.287464579567313" lon="8.016372313722968">
        <ele>72.44921875</ele>
        <time>2026-04-27T11:56:05Z</time>
      </trkpt>
      <trkpt lat="52.287439433857799" lon="8.016687640920281">
        <ele>73.1796875</ele>
        <time>2026-04-27T11:56:09Z</time>
      </trkpt>
      <trkpt lat="52.287388555705547" lon="8.016993077471852">
        <ele>74.07421875</ele>
        <time>2026-04-27T11:56:13Z</time>
      </trkpt>
      <trkpt lat="52.28734077885747" lon="8.017415693029761">
        <ele>75.30859375</ele>
        <time>2026-04-27T11:56:19Z</time>
      </trkpt>
      <trkpt lat="52.287298114970326" lon="8.017727080732584">
        <ele>75.84375</ele>
        <time>2026-04-27T11:56:23Z</time>
      </trkpt>
      <trkpt lat="52.287266179919243" lon="8.018022878095508">
        <ele>75.484375</ele>
        <time>2026-04-27T11:56:27Z</time>
      </trkpt>
      <trkpt lat="52.287229048088193" lon="8.018318256363273">
        <ele>75.20703125</ele>
        <time>2026-04-27T11:56:31Z</time>
      </trkpt>
      <trkpt lat="52.287206668406725" lon="8.018624112010002">
        <ele>74.3515625</ele>
        <time>2026-04-27T11:56:35Z</time>
      </trkpt>
      <trkpt lat="52.287161657586694" lon="8.018939858302474">
        <ele>73.125</ele>
        <time>2026-04-27T11:56:39Z</time>
      </trkpt>
      <trkpt lat="52.28712578304112" lon="8.019231716170907">
        <ele>72.07421875</ele>
        <time>2026-04-27T11:56:43Z</time>
      </trkpt>
      <trkpt lat="52.287100469693542" lon="8.019555509090424">
        <ele>71.50390625</ele>
        <time>2026-04-27T11:56:47Z</time>
      </trkpt>
      <trkpt lat="52.287076748907566" lon="8.019919032230973">
        <ele>70.91796875</ele>
        <time>2026-04-27T11:56:51Z</time>
      </trkpt>
      <trkpt lat="52.287038778886199" lon="8.020238131284714">
        <ele>70.50390625</ele>
        <time>2026-04-27T11:56:55Z</time>
      </trkpt>
      <trkpt lat="52.287009861320257" lon="8.020561756566167">
        <ele>70.13671875</ele>
        <time>2026-04-27T11:56:59Z</time>
      </trkpt>
      <trkpt lat="52.286967281252146" lon="8.020913796499372">
        <ele>69.63671875</ele>
        <time>2026-04-27T11:57:03Z</time>
      </trkpt>
      <trkpt lat="52.286927048116922" lon="8.021268099546433">
        <ele>68.76953125</ele>
        <time>2026-04-27T11:57:07Z</time>
      </trkpt>
      <trkpt lat="52.28688346222043" lon="8.021631790325046">
        <ele>67.84375</ele>
        <time>2026-04-27T11:57:11Z</time>
      </trkpt>
      <trkpt lat="52.286841552704573" lon="8.021994726732373">
        <ele>67.32421875</ele>
        <time>2026-04-27T11:57:15Z</time>
      </trkpt>
      <trkpt lat="52.286823028698564" lon="8.022354897111654">
        <ele>67.12890625</ele>
        <time>2026-04-27T11:57:19Z</time>
      </trkpt>
      <trkpt lat="52.286790842190385" lon="8.022682294249535">
        <ele>67.05078125</ele>
        <time>2026-04-27T11:57:23Z</time>
      </trkpt>
      <trkpt lat="52.28675396181643" lon="8.023029053583741">
        <ele>67.33203125</ele>
        <time>2026-04-27T11:57:27Z</time>
      </trkpt>
      <trkpt lat="52.286710292100906" lon="8.023362485691905">
        <ele>67.6484375</ele>
        <time>2026-04-27T11:57:31Z</time>
      </trkpt>
      <trkpt lat="52.286660587415099" lon="8.023656271398068">
        <ele>67.63671875</ele>
        <time>2026-04-27T11:57:35Z</time>
      </trkpt>
      <trkpt lat="52.286639967933297" lon="8.023964557796717">
        <ele>67.42578125</ele>
        <time>2026-04-27T11:57:41Z</time>
      </trkpt>
      <trkpt lat="52.286627227440476" lon="8.024333864450455">
        <ele>67.19921875</ele>
        <time>2026-04-27T11:58:15Z</time>
      </trkpt>
      <trkpt lat="52.286609541624784" lon="8.024718593806028">
        <ele>67.3515625</ele>
        <time>2026-04-27T11:58:21Z</time>
      </trkpt>
      <trkpt lat="52.286578947678208" lon="8.02513207308948">
        <ele>67.671875</ele>
        <time>2026-04-27T11:58:27Z</time>
      </trkpt>
      <trkpt lat="52.286555059254169" lon="8.025434659793973">
        <ele>68.3828125</ele>
        <time>2026-04-27T11:58:31Z</time>
      </trkpt>
      <trkpt lat="52.286496469751" lon="8.025769097730517">
        <ele>69.4453125</ele>
        <time>2026-04-27T11:58:35Z</time>
      </trkpt>
      <trkpt lat="52.286468641832471" lon="8.026065230369568">
        <ele>69.7109375</ele>
        <time>2026-04-27T11:58:39Z</time>
      </trkpt>
      <trkpt lat="52.2864636965096" lon="8.026366559788585">
        <ele>68.99609375</ele>
        <time>2026-04-27T11:58:43Z</time>
      </trkpt>
      <trkpt lat="52.286456236615777" lon="8.026683479547501">
        <ele>68.26171875</ele>
        <time>2026-04-27T11:58:47Z</time>
      </trkpt>
      <trkpt lat="52.286446765065193" lon="8.02697760052979">
        <ele>67.59375</ele>
        <time>2026-04-27T11:58:51Z</time>
      </trkpt>
      <trkpt lat="52.286441316828132" lon="8.0273362621665">
        <ele>66.765625</ele>
        <time>2026-04-27T11:58:57Z</time>
      </trkpt>
      <trkpt lat="52.286484567448497" lon="8.027620827779174">
        <ele>65.9765625</ele>
        <time>2026-04-27T11:59:37Z</time>
      </trkpt>
      <trkpt lat="52.286454979330301" lon="8.027933556586504">
        <ele>66.08203125</ele>
        <time>2026-04-27T11:59:43Z</time>
      </trkpt>
      <trkpt lat="52.286387337371707" lon="8.028232371434569">
        <ele>66.3984375</ele>
        <time>2026-04-27T11:59:47Z</time>
      </trkpt>
      <trkpt lat="52.286300249397755" lon="8.028570162132382">
        <ele>67.2734375</ele>
        <time>2026-04-27T11:59:51Z</time>
      </trkpt>
      <trkpt lat="52.286218861117959" lon="8.028925135731697">
        <ele>68.796875</ele>
        <time>2026-04-27T11:59:55Z</time>
      </trkpt>
      <trkpt lat="52.286125151440501" lon="8.029282120987773">
        <ele>70.26171875</ele>
        <time>2026-04-27T11:59:59Z</time>
      </trkpt>
      <trkpt lat="52.286048540845513" lon="8.029635669663549">
        <ele>70.5390625</ele>
        <time>2026-04-27T12:00:03Z</time>
      </trkpt>
      <trkpt lat="52.285977881401777" lon="8.029975052922964">
        <ele>70.79296875</ele>
        <time>2026-04-27T12:00:07Z</time>
      </trkpt>
      <trkpt lat="52.285924237221479" lon="8.030306892469525">
        <ele>70.90625</ele>
        <time>2026-04-27T12:00:11Z</time>
      </trkpt>
      <trkpt lat="52.285851147025824" lon="8.030607802793384">
        <ele>71.09765625</ele>
        <time>2026-04-27T12:00:15Z</time>
      </trkpt>
      <trkpt lat="52.285780822858214" lon="8.030904522165656">
        <ele>71.34375</ele>
        <time>2026-04-27T12:00:19Z</time>
      </trkpt>
      <trkpt lat="52.285675378516316" lon="8.031308865174651">
        <ele>71.82421875</ele>
        <time>2026-04-27T12:00:25Z</time>
      </trkpt>
      <trkpt lat="52.285591810941696" lon="8.031711028888822">
        <ele>72.125</ele>
        <time>2026-04-27T12:00:31Z</time>
      </trkpt>
      <trkpt lat="52.285491647198796" lon="8.032102463766933">
        <ele>71.89453125</ele>
        <time>2026-04-27T12:00:37Z</time>
      </trkpt>
      <trkpt lat="52.285387963056564" lon="8.032506136223674">
        <ele>71.4609375</ele>
        <time>2026-04-27T12:00:43Z</time>
      </trkpt>
      <trkpt lat="52.285290900617838" lon="8.032766478136182">
        <ele>70.89453125</ele>
        <time>2026-04-27T12:00:47Z</time>
      </trkpt>
      <trkpt lat="52.28518009185791" lon="8.033015839755535">
        <ele>70.40625</ele>
        <time>2026-04-27T12:00:51Z</time>
      </trkpt>
      <trkpt lat="52.285116808488965" lon="8.033316330984235">
        <ele>69.8359375</ele>
        <time>2026-04-27T12:00:55Z</time>
      </trkpt>
      <trkpt lat="52.285071797668934" lon="8.033620426431298">
        <ele>68.87109375</ele>
        <time>2026-04-27T12:00:59Z</time>
      </trkpt>
      <trkpt lat="52.284894352778792" lon="8.033779850229621">
        <ele>68.95703125</ele>
        <time>2026-04-27T12:01:03Z</time>
      </trkpt>
      <trkpt lat="52.284668795764446" lon="8.033910524100065">
        <ele>69.75</ele>
        <time>2026-04-27T12:01:07Z</time>
      </trkpt>
      <trkpt lat="52.284448770806193" lon="8.034050418063998">
        <ele>70.6640625</ele>
        <time>2026-04-27T12:01:11Z</time>
      </trkpt>
      <trkpt lat="52.284253891557455" lon="8.03421126678586">
        <ele>71.296875</ele>
        <time>2026-04-27T12:01:15Z</time>
      </trkpt>
      <trkpt lat="52.2840322740376" lon="8.034406984224916">
        <ele>71.984375</ele>
        <time>2026-04-27T12:01:19Z</time>
      </trkpt>
      <trkpt lat="52.283819122239947" lon="8.034587614238262">
        <ele>71.8359375</ele>
        <time>2026-04-27T12:01:23Z</time>
      </trkpt>
      <trkpt lat="52.283601360395551" lon="8.034765310585499">
        <ele>71.1796875</ele>
        <time>2026-04-27T12:01:27Z</time>
      </trkpt>
      <trkpt lat="52.283387621864676" lon="8.034901516512036">
        <ele>70.4921875</ele>
        <time>2026-04-27T12:01:31Z</time>
      </trkpt>
      <trkpt lat="52.283164830878377" lon="8.035057839006186">
        <ele>69.38671875</ele>
        <time>2026-04-27T12:01:35Z</time>
      </trkpt>
      <trkpt lat="52.282946230843663" lon="8.035232434049249">
        <ele>70.1953125</ele>
        <time>2026-04-27T12:01:39Z</time>
      </trkpt>
      <trkpt lat="52.282725619152188" lon="8.03542060777545">
        <ele>71.12890625</ele>
        <time>2026-04-27T12:01:43Z</time>
      </trkpt>
      <trkpt lat="52.282521771267056" lon="8.035586401820183">
        <ele>71.5859375</ele>
        <time>2026-04-27T12:01:47Z</time>
      </trkpt>
      <trkpt lat="52.282318761572242" lon="8.035758566111326">
        <ele>71.625</ele>
        <time>2026-04-27T12:01:51Z</time>
      </trkpt>
      <trkpt lat="52.282102759927511" lon="8.035911116749048">
        <ele>71.3671875</ele>
        <time>2026-04-27T12:01:55Z</time>
      </trkpt>
      <trkpt lat="52.281886506825686" lon="8.036066181957722">
        <ele>70.96484375</ele>
        <time>2026-04-27T12:01:59Z</time>
      </trkpt>
      <trkpt lat="52.281672600656748" lon="8.036213116720319">
        <ele>70.51953125</ele>
        <time>2026-04-27T12:02:03Z</time>
      </trkpt>
      <trkpt lat="52.281448468565941" lon="8.036345550790429">
        <ele>70.1640625</ele>
        <time>2026-04-27T12:02:07Z</time>
      </trkpt>
      <trkpt lat="52.281200448051095" lon="8.036467004567385">
        <ele>70.578125</ele>
        <time>2026-04-27T12:02:11Z</time>
      </trkpt>
      <trkpt lat="52.280981177464128" lon="8.036543363705277">
        <ele>71.04296875</ele>
        <time>2026-04-27T12:02:15Z</time>
      </trkpt>
      <trkpt lat="52.280765259638429" lon="8.03667051717639">
        <ele>71.1484375</ele>
        <time>2026-04-27T12:02:19Z</time>
      </trkpt>
      <trkpt lat="52.280539702624083" lon="8.036812841892242">
        <ele>71.1015625</ele>
        <time>2026-04-27T12:02:23Z</time>
      </trkpt>
      <trkpt lat="52.28030894882977" lon="8.036997662857175">
        <ele>70.98828125</ele>
        <time>2026-04-27T12:02:27Z</time>
      </trkpt>
      <trkpt lat="52.280079200863838" lon="8.03723881021142">
        <ele>70.671875</ele>
        <time>2026-04-27T12:02:31Z</time>
      </trkpt>
      <trkpt lat="52.279885159805417" lon="8.037464199587703">
        <ele>70.32421875</ele>
        <time>2026-04-27T12:02:35Z</time>
      </trkpt>
      <trkpt lat="52.279686257243156" lon="8.037673244252801">
        <ele>70.16015625</ele>
        <time>2026-04-27T12:02:39Z</time>
      </trkpt>
      <trkpt lat="52.279515350237489" lon="8.037835853174329">
        <ele>70.35546875</ele>
        <time>2026-04-27T12:02:42Z</time>
      </trkpt>
      <trkpt lat="52.279317788779736" lon="8.038023104891181">
        <ele>70.78125</ele>
        <time>2026-04-27T12:02:46Z</time>
      </trkpt>
      <trkpt lat="52.279126681387424" lon="8.03823265247047">
        <ele>71.3828125</ele>
        <time>2026-04-27T12:02:52Z</time>
      </trkpt>
      <trkpt lat="52.2789691016078" lon="8.038471955806017">
        <ele>71.94140625</ele>
        <time>2026-04-27T12:03:18Z</time>
      </trkpt>
      <trkpt lat="52.278826357796788" lon="8.038812931627035">
        <ele>71.36328125</ele>
        <time>2026-04-27T12:03:24Z</time>
      </trkpt>
      <trkpt lat="52.278741030022502" lon="8.039118703454733">
        <ele>70.89453125</ele>
        <time>2026-04-27T12:03:28Z</time>
      </trkpt>
      <trkpt lat="52.278669532388449" lon="8.039455488324165">
        <ele>70.40234375</ele>
        <time>2026-04-27T12:03:32Z</time>
      </trkpt>
      <trkpt lat="52.278582947328687" lon="8.039787327870727">
        <ele>69.8984375</ele>
        <time>2026-04-27T12:03:36Z</time>
      </trkpt>
      <trkpt lat="52.278308942914009" lon="8.039962761104107">
        <ele>69.359375</ele>
        <time>2026-04-27T12:03:40Z</time>
      </trkpt>
      <trkpt lat="52.278082547709346" lon="8.039933005347848">
        <ele>69.203125</ele>
        <time>2026-04-27T12:03:44Z</time>
      </trkpt>
      <trkpt lat="52.277925303205848" lon="8.039843570441008">
        <ele>69.30859375</ele>
        <time>2026-04-27T12:03:48Z</time>
      </trkpt>
      <trkpt lat="52.277730423957109" lon="8.039873410016298">
        <ele>69.2734375</ele>
        <time>2026-04-27T12:03:52Z</time>
      </trkpt>
    </trkseg>
  </trk>

</gpx>